<?xml version="1.0" encoding="UTF-8"?>
<gpx xmlns="http://www.topografix.com/GPX/1/1"
     creator="GpsDump 4.74"
     version="1.1"
     xmlns:xsi="http://www.w3.org/2001/XMLSchema-instance"
     xsi:schemaLocation="http://www.topografix.com/GPX/1/1 http://www.topografix.com/GPX/1/1/gpx.xsd">
  <metadata>
    <link href="http://www.gethome.no/stein.sorensen/">
      <text>GPS dump for www.flightlog.org</text>
    </link>
    <time>2013-05-13T18:20:54Z</time>
    <bounds minlat="40.352267" minlon="-5.509300" maxlat="40.431033" maxlon="-5.302967"/>
  </metadata>
  <trk>
    <name>Track 001</name>
    <trkseg>
      <trkpt lat="40.421583" lon="-5.301733">
        <ele>1925.0</ele>
        <time>2013-05-12T11:58:38Z</time>
      </trkpt>
      <trkpt lat="40.421633" lon="-5.301767">
        <ele>1926.0</ele>
        <time>2013-05-12T11:58:39Z</time>
      </trkpt>
      <trkpt lat="40.421650" lon="-5.301783">
        <ele>1927.0</ele>
        <time>2013-05-12T11:58:40Z</time>
      </trkpt>
      <trkpt lat="40.421683" lon="-5.301817">
        <ele>1928.0</ele>
        <time>2013-05-12T11:58:41Z</time>
      </trkpt>
      <trkpt lat="40.421700" lon="-5.301833">
        <ele>1928.0</ele>
        <time>2013-05-12T11:58:42Z</time>
      </trkpt>
      <trkpt lat="40.421750" lon="-5.301850">
        <ele>1929.0</ele>
        <time>2013-05-12T11:58:43Z</time>
      </trkpt>
      <trkpt lat="40.421767" lon="-5.301867">
        <ele>1929.0</ele>
        <time>2013-05-12T11:58:44Z</time>
      </trkpt>
      <trkpt lat="40.421783" lon="-5.301900">
        <ele>1928.0</ele>
        <time>2013-05-12T11:58:45Z</time>
      </trkpt>
      <trkpt lat="40.421800" lon="-5.301967">
        <ele>1927.0</ele>
        <time>2013-05-12T11:58:46Z</time>
      </trkpt>
      <trkpt lat="40.421833" lon="-5.302017">
        <ele>1927.0</ele>
        <time>2013-05-12T11:58:47Z</time>
      </trkpt>
      <trkpt lat="40.421883" lon="-5.302050">
        <ele>1927.0</ele>
        <time>2013-05-12T11:58:48Z</time>
      </trkpt>
      <trkpt lat="40.421933" lon="-5.302083">
        <ele>1928.0</ele>
        <time>2013-05-12T11:58:49Z</time>
      </trkpt>
      <trkpt lat="40.421967" lon="-5.302117">
        <ele>1930.0</ele>
        <time>2013-05-12T11:58:50Z</time>
      </trkpt>
      <trkpt lat="40.421967" lon="-5.302150">
        <ele>1931.0</ele>
        <time>2013-05-12T11:58:51Z</time>
      </trkpt>
      <trkpt lat="40.421967" lon="-5.302217">
        <ele>1930.0</ele>
        <time>2013-05-12T11:58:52Z</time>
      </trkpt>
      <trkpt lat="40.421950" lon="-5.302300">
        <ele>1930.0</ele>
        <time>2013-05-12T11:58:53Z</time>
      </trkpt>
      <trkpt lat="40.421933" lon="-5.302367">
        <ele>1930.0</ele>
        <time>2013-05-12T11:58:54Z</time>
      </trkpt>
      <trkpt lat="40.421933" lon="-5.302450">
        <ele>1930.0</ele>
        <time>2013-05-12T11:58:55Z</time>
      </trkpt>
      <trkpt lat="40.421950" lon="-5.302517">
        <ele>1930.0</ele>
        <time>2013-05-12T11:58:56Z</time>
      </trkpt>
      <trkpt lat="40.421950" lon="-5.302583">
        <ele>1931.0</ele>
        <time>2013-05-12T11:58:57Z</time>
      </trkpt>
      <trkpt lat="40.421950" lon="-5.302650">
        <ele>1931.0</ele>
        <time>2013-05-12T11:58:58Z</time>
      </trkpt>
      <trkpt lat="40.421950" lon="-5.302717">
        <ele>1931.0</ele>
        <time>2013-05-12T11:58:59Z</time>
      </trkpt>
      <trkpt lat="40.421950" lon="-5.302783">
        <ele>1931.0</ele>
        <time>2013-05-12T11:59:00Z</time>
      </trkpt>
      <trkpt lat="40.421950" lon="-5.302833">
        <ele>1930.0</ele>
        <time>2013-05-12T11:59:01Z</time>
      </trkpt>
      <trkpt lat="40.421983" lon="-5.302917">
        <ele>1930.0</ele>
        <time>2013-05-12T11:59:02Z</time>
      </trkpt>
      <trkpt lat="40.422000" lon="-5.302983">
        <ele>1929.0</ele>
        <time>2013-05-12T11:59:03Z</time>
      </trkpt>
      <trkpt lat="40.422017" lon="-5.303067">
        <ele>1930.0</ele>
        <time>2013-05-12T11:59:04Z</time>
      </trkpt>
      <trkpt lat="40.422033" lon="-5.303133">
        <ele>1931.0</ele>
        <time>2013-05-12T11:59:05Z</time>
      </trkpt>
      <trkpt lat="40.422033" lon="-5.303183">
        <ele>1931.0</ele>
        <time>2013-05-12T11:59:06Z</time>
      </trkpt>
      <trkpt lat="40.422050" lon="-5.303250">
        <ele>1930.0</ele>
        <time>2013-05-12T11:59:07Z</time>
      </trkpt>
      <trkpt lat="40.422067" lon="-5.303300">
        <ele>1928.0</ele>
        <time>2013-05-12T11:59:08Z</time>
      </trkpt>
      <trkpt lat="40.422083" lon="-5.303383">
        <ele>1927.0</ele>
        <time>2013-05-12T11:59:09Z</time>
      </trkpt>
      <trkpt lat="40.422100" lon="-5.303467">
        <ele>1925.0</ele>
        <time>2013-05-12T11:59:10Z</time>
      </trkpt>
      <trkpt lat="40.422100" lon="-5.303550">
        <ele>1925.0</ele>
        <time>2013-05-12T11:59:11Z</time>
      </trkpt>
      <trkpt lat="40.422100" lon="-5.303617">
        <ele>1925.0</ele>
        <time>2013-05-12T11:59:12Z</time>
      </trkpt>
      <trkpt lat="40.422100" lon="-5.303700">
        <ele>1924.0</ele>
        <time>2013-05-12T11:59:13Z</time>
      </trkpt>
      <trkpt lat="40.422067" lon="-5.303783">
        <ele>1924.0</ele>
        <time>2013-05-12T11:59:14Z</time>
      </trkpt>
      <trkpt lat="40.422050" lon="-5.303867">
        <ele>1923.0</ele>
        <time>2013-05-12T11:59:15Z</time>
      </trkpt>
      <trkpt lat="40.422017" lon="-5.303967">
        <ele>1922.0</ele>
        <time>2013-05-12T11:59:16Z</time>
      </trkpt>
      <trkpt lat="40.422000" lon="-5.304067">
        <ele>1922.0</ele>
        <time>2013-05-12T11:59:17Z</time>
      </trkpt>
      <trkpt lat="40.421983" lon="-5.304167">
        <ele>1923.0</ele>
        <time>2013-05-12T11:59:18Z</time>
      </trkpt>
      <trkpt lat="40.421967" lon="-5.304250">
        <ele>1923.0</ele>
        <time>2013-05-12T11:59:19Z</time>
      </trkpt>
      <trkpt lat="40.421950" lon="-5.304350">
        <ele>1924.0</ele>
        <time>2013-05-12T11:59:20Z</time>
      </trkpt>
      <trkpt lat="40.421933" lon="-5.304433">
        <ele>1923.0</ele>
        <time>2013-05-12T11:59:21Z</time>
      </trkpt>
      <trkpt lat="40.421933" lon="-5.304550">
        <ele>1922.0</ele>
        <time>2013-05-12T11:59:22Z</time>
      </trkpt>
      <trkpt lat="40.421917" lon="-5.304650">
        <ele>1921.0</ele>
        <time>2013-05-12T11:59:23Z</time>
      </trkpt>
      <trkpt lat="40.421917" lon="-5.304767">
        <ele>1920.0</ele>
        <time>2013-05-12T11:59:24Z</time>
      </trkpt>
      <trkpt lat="40.421917" lon="-5.304867">
        <ele>1920.0</ele>
        <time>2013-05-12T11:59:25Z</time>
      </trkpt>
      <trkpt lat="40.421933" lon="-5.304983">
        <ele>1920.0</ele>
        <time>2013-05-12T11:59:26Z</time>
      </trkpt>
      <trkpt lat="40.421933" lon="-5.305083">
        <ele>1919.0</ele>
        <time>2013-05-12T11:59:27Z</time>
      </trkpt>
      <trkpt lat="40.421933" lon="-5.305183">
        <ele>1918.0</ele>
        <time>2013-05-12T11:59:28Z</time>
      </trkpt>
      <trkpt lat="40.421933" lon="-5.305283">
        <ele>1917.0</ele>
        <time>2013-05-12T11:59:29Z</time>
      </trkpt>
      <trkpt lat="40.421933" lon="-5.305400">
        <ele>1916.0</ele>
        <time>2013-05-12T11:59:30Z</time>
      </trkpt>
      <trkpt lat="40.421917" lon="-5.305500">
        <ele>1915.0</ele>
        <time>2013-05-12T11:59:31Z</time>
      </trkpt>
      <trkpt lat="40.421900" lon="-5.305617">
        <ele>1915.0</ele>
        <time>2013-05-12T11:59:32Z</time>
      </trkpt>
      <trkpt lat="40.421883" lon="-5.305700">
        <ele>1915.0</ele>
        <time>2013-05-12T11:59:33Z</time>
      </trkpt>
      <trkpt lat="40.421883" lon="-5.305800">
        <ele>1915.0</ele>
        <time>2013-05-12T11:59:34Z</time>
      </trkpt>
      <trkpt lat="40.421867" lon="-5.305917">
        <ele>1913.0</ele>
        <time>2013-05-12T11:59:35Z</time>
      </trkpt>
      <trkpt lat="40.421850" lon="-5.306033">
        <ele>1912.0</ele>
        <time>2013-05-12T11:59:36Z</time>
      </trkpt>
      <trkpt lat="40.421833" lon="-5.306150">
        <ele>1911.0</ele>
        <time>2013-05-12T11:59:37Z</time>
      </trkpt>
      <trkpt lat="40.421817" lon="-5.306283">
        <ele>1911.0</ele>
        <time>2013-05-12T11:59:38Z</time>
      </trkpt>
      <trkpt lat="40.421817" lon="-5.306400">
        <ele>1911.0</ele>
        <time>2013-05-12T11:59:39Z</time>
      </trkpt>
      <trkpt lat="40.421833" lon="-5.306500">
        <ele>1910.0</ele>
        <time>2013-05-12T11:59:40Z</time>
      </trkpt>
      <trkpt lat="40.421850" lon="-5.306600">
        <ele>1910.0</ele>
        <time>2013-05-12T11:59:41Z</time>
      </trkpt>
      <trkpt lat="40.421850" lon="-5.306700">
        <ele>1910.0</ele>
        <time>2013-05-12T11:59:42Z</time>
      </trkpt>
      <trkpt lat="40.421867" lon="-5.306817">
        <ele>1909.0</ele>
        <time>2013-05-12T11:59:43Z</time>
      </trkpt>
      <trkpt lat="40.421867" lon="-5.306917">
        <ele>1909.0</ele>
        <time>2013-05-12T11:59:44Z</time>
      </trkpt>
      <trkpt lat="40.421900" lon="-5.307017">
        <ele>1908.0</ele>
        <time>2013-05-12T11:59:45Z</time>
      </trkpt>
      <trkpt lat="40.421917" lon="-5.307117">
        <ele>1907.0</ele>
        <time>2013-05-12T11:59:46Z</time>
      </trkpt>
      <trkpt lat="40.421933" lon="-5.307217">
        <ele>1907.0</ele>
        <time>2013-05-12T11:59:47Z</time>
      </trkpt>
      <trkpt lat="40.421950" lon="-5.307317">
        <ele>1907.0</ele>
        <time>2013-05-12T11:59:48Z</time>
      </trkpt>
      <trkpt lat="40.421967" lon="-5.307417">
        <ele>1907.0</ele>
        <time>2013-05-12T11:59:49Z</time>
      </trkpt>
      <trkpt lat="40.422000" lon="-5.307500">
        <ele>1907.0</ele>
        <time>2013-05-12T11:59:50Z</time>
      </trkpt>
      <trkpt lat="40.422017" lon="-5.307600">
        <ele>1906.0</ele>
        <time>2013-05-12T11:59:51Z</time>
      </trkpt>
      <trkpt lat="40.422050" lon="-5.307683">
        <ele>1905.0</ele>
        <time>2013-05-12T11:59:52Z</time>
      </trkpt>
      <trkpt lat="40.422083" lon="-5.307783">
        <ele>1903.0</ele>
        <time>2013-05-12T11:59:53Z</time>
      </trkpt>
      <trkpt lat="40.422117" lon="-5.307867">
        <ele>1902.0</ele>
        <time>2013-05-12T11:59:54Z</time>
      </trkpt>
      <trkpt lat="40.422150" lon="-5.307967">
        <ele>1901.0</ele>
        <time>2013-05-12T11:59:55Z</time>
      </trkpt>
      <trkpt lat="40.422183" lon="-5.308050">
        <ele>1901.0</ele>
        <time>2013-05-12T11:59:56Z</time>
      </trkpt>
      <trkpt lat="40.422217" lon="-5.308133">
        <ele>1901.0</ele>
        <time>2013-05-12T11:59:57Z</time>
      </trkpt>
      <trkpt lat="40.422217" lon="-5.308217">
        <ele>1901.0</ele>
        <time>2013-05-12T11:59:58Z</time>
      </trkpt>
      <trkpt lat="40.422200" lon="-5.308300">
        <ele>1900.0</ele>
        <time>2013-05-12T11:59:59Z</time>
      </trkpt>
      <trkpt lat="40.422200" lon="-5.308383">
        <ele>1898.0</ele>
        <time>2013-05-12T12:00:00Z</time>
      </trkpt>
      <trkpt lat="40.422217" lon="-5.308467">
        <ele>1895.0</ele>
        <time>2013-05-12T12:00:01Z</time>
      </trkpt>
      <trkpt lat="40.422250" lon="-5.308567">
        <ele>1893.0</ele>
        <time>2013-05-12T12:00:02Z</time>
      </trkpt>
      <trkpt lat="40.422283" lon="-5.308667">
        <ele>1892.0</ele>
        <time>2013-05-12T12:00:03Z</time>
      </trkpt>
      <trkpt lat="40.422333" lon="-5.308767">
        <ele>1893.0</ele>
        <time>2013-05-12T12:00:04Z</time>
      </trkpt>
      <trkpt lat="40.422367" lon="-5.308867">
        <ele>1895.0</ele>
        <time>2013-05-12T12:00:05Z</time>
      </trkpt>
      <trkpt lat="40.422400" lon="-5.308950">
        <ele>1898.0</ele>
        <time>2013-05-12T12:00:06Z</time>
      </trkpt>
      <trkpt lat="40.422417" lon="-5.309017">
        <ele>1900.0</ele>
        <time>2013-05-12T12:00:07Z</time>
      </trkpt>
      <trkpt lat="40.422433" lon="-5.309083">
        <ele>1902.0</ele>
        <time>2013-05-12T12:00:08Z</time>
      </trkpt>
      <trkpt lat="40.422433" lon="-5.309183">
        <ele>1903.0</ele>
        <time>2013-05-12T12:00:09Z</time>
      </trkpt>
      <trkpt lat="40.422417" lon="-5.309300">
        <ele>1905.0</ele>
        <time>2013-05-12T12:00:10Z</time>
      </trkpt>
      <trkpt lat="40.422400" lon="-5.309417">
        <ele>1906.0</ele>
        <time>2013-05-12T12:00:11Z</time>
      </trkpt>
      <trkpt lat="40.422367" lon="-5.309533">
        <ele>1908.0</ele>
        <time>2013-05-12T12:00:12Z</time>
      </trkpt>
      <trkpt lat="40.422350" lon="-5.309633">
        <ele>1910.0</ele>
        <time>2013-05-12T12:00:13Z</time>
      </trkpt>
      <trkpt lat="40.422333" lon="-5.309733">
        <ele>1911.0</ele>
        <time>2013-05-12T12:00:14Z</time>
      </trkpt>
      <trkpt lat="40.422350" lon="-5.309817">
        <ele>1911.0</ele>
        <time>2013-05-12T12:00:15Z</time>
      </trkpt>
      <trkpt lat="40.422367" lon="-5.309883">
        <ele>1913.0</ele>
        <time>2013-05-12T12:00:16Z</time>
      </trkpt>
      <trkpt lat="40.422400" lon="-5.309917">
        <ele>1913.0</ele>
        <time>2013-05-12T12:00:17Z</time>
      </trkpt>
      <trkpt lat="40.422433" lon="-5.309917">
        <ele>1914.0</ele>
        <time>2013-05-12T12:00:18Z</time>
      </trkpt>
      <trkpt lat="40.422467" lon="-5.309883">
        <ele>1914.0</ele>
        <time>2013-05-12T12:00:19Z</time>
      </trkpt>
      <trkpt lat="40.422483" lon="-5.309817">
        <ele>1913.0</ele>
        <time>2013-05-12T12:00:20Z</time>
      </trkpt>
      <trkpt lat="40.422483" lon="-5.309717">
        <ele>1913.0</ele>
        <time>2013-05-12T12:00:21Z</time>
      </trkpt>
      <trkpt lat="40.422450" lon="-5.309600">
        <ele>1914.0</ele>
        <time>2013-05-12T12:00:22Z</time>
      </trkpt>
      <trkpt lat="40.422383" lon="-5.309467">
        <ele>1914.0</ele>
        <time>2013-05-12T12:00:23Z</time>
      </trkpt>
      <trkpt lat="40.422283" lon="-5.309367">
        <ele>1915.0</ele>
        <time>2013-05-12T12:00:24Z</time>
      </trkpt>
      <trkpt lat="40.422200" lon="-5.309267">
        <ele>1916.0</ele>
        <time>2013-05-12T12:00:25Z</time>
      </trkpt>
      <trkpt lat="40.422117" lon="-5.309167">
        <ele>1917.0</ele>
        <time>2013-05-12T12:00:26Z</time>
      </trkpt>
      <trkpt lat="40.422067" lon="-5.309067">
        <ele>1917.0</ele>
        <time>2013-05-12T12:00:27Z</time>
      </trkpt>
      <trkpt lat="40.422033" lon="-5.308967">
        <ele>1916.0</ele>
        <time>2013-05-12T12:00:28Z</time>
      </trkpt>
      <trkpt lat="40.422017" lon="-5.308883">
        <ele>1915.0</ele>
        <time>2013-05-12T12:00:29Z</time>
      </trkpt>
      <trkpt lat="40.422017" lon="-5.308783">
        <ele>1913.0</ele>
        <time>2013-05-12T12:00:30Z</time>
      </trkpt>
      <trkpt lat="40.422050" lon="-5.308717">
        <ele>1912.0</ele>
        <time>2013-05-12T12:00:31Z</time>
      </trkpt>
      <trkpt lat="40.422100" lon="-5.308700">
        <ele>1912.0</ele>
        <time>2013-05-12T12:00:32Z</time>
      </trkpt>
      <trkpt lat="40.422150" lon="-5.308717">
        <ele>1911.0</ele>
        <time>2013-05-12T12:00:33Z</time>
      </trkpt>
      <trkpt lat="40.422167" lon="-5.308800">
        <ele>1910.0</ele>
        <time>2013-05-12T12:00:34Z</time>
      </trkpt>
      <trkpt lat="40.422183" lon="-5.308883">
        <ele>1910.0</ele>
        <time>2013-05-12T12:00:35Z</time>
      </trkpt>
      <trkpt lat="40.422200" lon="-5.308983">
        <ele>1911.0</ele>
        <time>2013-05-12T12:00:36Z</time>
      </trkpt>
      <trkpt lat="40.422200" lon="-5.309067">
        <ele>1912.0</ele>
        <time>2013-05-12T12:00:37Z</time>
      </trkpt>
      <trkpt lat="40.422200" lon="-5.309133">
        <ele>1913.0</ele>
        <time>2013-05-12T12:00:38Z</time>
      </trkpt>
      <trkpt lat="40.422200" lon="-5.309200">
        <ele>1912.0</ele>
        <time>2013-05-12T12:00:39Z</time>
      </trkpt>
      <trkpt lat="40.422200" lon="-5.309283">
        <ele>1910.0</ele>
        <time>2013-05-12T12:00:40Z</time>
      </trkpt>
      <trkpt lat="40.422200" lon="-5.309383">
        <ele>1909.0</ele>
        <time>2013-05-12T12:00:41Z</time>
      </trkpt>
      <trkpt lat="40.422200" lon="-5.309483">
        <ele>1910.0</ele>
        <time>2013-05-12T12:00:42Z</time>
      </trkpt>
      <trkpt lat="40.422200" lon="-5.309567">
        <ele>1911.0</ele>
        <time>2013-05-12T12:00:43Z</time>
      </trkpt>
      <trkpt lat="40.422183" lon="-5.309650">
        <ele>1911.0</ele>
        <time>2013-05-12T12:00:44Z</time>
      </trkpt>
      <trkpt lat="40.422167" lon="-5.309750">
        <ele>1912.0</ele>
        <time>2013-05-12T12:00:45Z</time>
      </trkpt>
      <trkpt lat="40.422150" lon="-5.309850">
        <ele>1911.0</ele>
        <time>2013-05-12T12:00:46Z</time>
      </trkpt>
      <trkpt lat="40.422150" lon="-5.309950">
        <ele>1910.0</ele>
        <time>2013-05-12T12:00:47Z</time>
      </trkpt>
      <trkpt lat="40.422133" lon="-5.310067">
        <ele>1911.0</ele>
        <time>2013-05-12T12:00:48Z</time>
      </trkpt>
      <trkpt lat="40.422117" lon="-5.310183">
        <ele>1912.0</ele>
        <time>2013-05-12T12:00:49Z</time>
      </trkpt>
      <trkpt lat="40.422100" lon="-5.310283">
        <ele>1913.0</ele>
        <time>2013-05-12T12:00:50Z</time>
      </trkpt>
      <trkpt lat="40.422067" lon="-5.310383">
        <ele>1914.0</ele>
        <time>2013-05-12T12:00:51Z</time>
      </trkpt>
      <trkpt lat="40.422033" lon="-5.310483">
        <ele>1914.0</ele>
        <time>2013-05-12T12:00:52Z</time>
      </trkpt>
      <trkpt lat="40.422017" lon="-5.310583">
        <ele>1914.0</ele>
        <time>2013-05-12T12:00:53Z</time>
      </trkpt>
      <trkpt lat="40.422017" lon="-5.310683">
        <ele>1912.0</ele>
        <time>2013-05-12T12:00:54Z</time>
      </trkpt>
      <trkpt lat="40.422033" lon="-5.310767">
        <ele>1911.0</ele>
        <time>2013-05-12T12:00:55Z</time>
      </trkpt>
      <trkpt lat="40.422083" lon="-5.310833">
        <ele>1911.0</ele>
        <time>2013-05-12T12:00:56Z</time>
      </trkpt>
      <trkpt lat="40.422117" lon="-5.310850">
        <ele>1912.0</ele>
        <time>2013-05-12T12:00:57Z</time>
      </trkpt>
      <trkpt lat="40.422167" lon="-5.310850">
        <ele>1913.0</ele>
        <time>2013-05-12T12:00:58Z</time>
      </trkpt>
      <trkpt lat="40.422200" lon="-5.310850">
        <ele>1915.0</ele>
        <time>2013-05-12T12:00:59Z</time>
      </trkpt>
      <trkpt lat="40.422217" lon="-5.310817">
        <ele>1916.0</ele>
        <time>2013-05-12T12:01:00Z</time>
      </trkpt>
      <trkpt lat="40.422233" lon="-5.310767">
        <ele>1917.0</ele>
        <time>2013-05-12T12:01:01Z</time>
      </trkpt>
      <trkpt lat="40.422233" lon="-5.310717">
        <ele>1917.0</ele>
        <time>2013-05-12T12:01:02Z</time>
      </trkpt>
      <trkpt lat="40.422233" lon="-5.310633">
        <ele>1916.0</ele>
        <time>2013-05-12T12:01:03Z</time>
      </trkpt>
      <trkpt lat="40.422217" lon="-5.310550">
        <ele>1915.0</ele>
        <time>2013-05-12T12:01:04Z</time>
      </trkpt>
      <trkpt lat="40.422200" lon="-5.310433">
        <ele>1914.0</ele>
        <time>2013-05-12T12:01:05Z</time>
      </trkpt>
      <trkpt lat="40.422200" lon="-5.310333">
        <ele>1913.0</ele>
        <time>2013-05-12T12:01:06Z</time>
      </trkpt>
      <trkpt lat="40.422200" lon="-5.310217">
        <ele>1914.0</ele>
        <time>2013-05-12T12:01:07Z</time>
      </trkpt>
      <trkpt lat="40.422183" lon="-5.310100">
        <ele>1916.0</ele>
        <time>2013-05-12T12:01:08Z</time>
      </trkpt>
      <trkpt lat="40.422183" lon="-5.309983">
        <ele>1919.0</ele>
        <time>2013-05-12T12:01:09Z</time>
      </trkpt>
      <trkpt lat="40.422183" lon="-5.309883">
        <ele>1921.0</ele>
        <time>2013-05-12T12:01:10Z</time>
      </trkpt>
      <trkpt lat="40.422167" lon="-5.309750">
        <ele>1923.0</ele>
        <time>2013-05-12T12:01:11Z</time>
      </trkpt>
      <trkpt lat="40.422133" lon="-5.309633">
        <ele>1925.0</ele>
        <time>2013-05-12T12:01:12Z</time>
      </trkpt>
      <trkpt lat="40.422083" lon="-5.309517">
        <ele>1927.0</ele>
        <time>2013-05-12T12:01:13Z</time>
      </trkpt>
      <trkpt lat="40.422050" lon="-5.309417">
        <ele>1929.0</ele>
        <time>2013-05-12T12:01:14Z</time>
      </trkpt>
      <trkpt lat="40.422000" lon="-5.309300">
        <ele>1930.0</ele>
        <time>2013-05-12T12:01:15Z</time>
      </trkpt>
      <trkpt lat="40.421967" lon="-5.309200">
        <ele>1932.0</ele>
        <time>2013-05-12T12:01:16Z</time>
      </trkpt>
      <trkpt lat="40.421950" lon="-5.309117">
        <ele>1933.0</ele>
        <time>2013-05-12T12:01:17Z</time>
      </trkpt>
      <trkpt lat="40.421933" lon="-5.309050">
        <ele>1934.0</ele>
        <time>2013-05-12T12:01:18Z</time>
      </trkpt>
      <trkpt lat="40.421933" lon="-5.308967">
        <ele>1933.0</ele>
        <time>2013-05-12T12:01:19Z</time>
      </trkpt>
      <trkpt lat="40.421950" lon="-5.308883">
        <ele>1932.0</ele>
        <time>2013-05-12T12:01:20Z</time>
      </trkpt>
      <trkpt lat="40.421983" lon="-5.308833">
        <ele>1930.0</ele>
        <time>2013-05-12T12:01:21Z</time>
      </trkpt>
      <trkpt lat="40.422017" lon="-5.308833">
        <ele>1928.0</ele>
        <time>2013-05-12T12:01:22Z</time>
      </trkpt>
      <trkpt lat="40.422067" lon="-5.308883">
        <ele>1926.0</ele>
        <time>2013-05-12T12:01:23Z</time>
      </trkpt>
      <trkpt lat="40.422083" lon="-5.308983">
        <ele>1925.0</ele>
        <time>2013-05-12T12:01:24Z</time>
      </trkpt>
      <trkpt lat="40.422067" lon="-5.309083">
        <ele>1924.0</ele>
        <time>2013-05-12T12:01:25Z</time>
      </trkpt>
      <trkpt lat="40.422050" lon="-5.309183">
        <ele>1925.0</ele>
        <time>2013-05-12T12:01:26Z</time>
      </trkpt>
      <trkpt lat="40.422050" lon="-5.309267">
        <ele>1925.0</ele>
        <time>2013-05-12T12:01:27Z</time>
      </trkpt>
      <trkpt lat="40.422050" lon="-5.309350">
        <ele>1925.0</ele>
        <time>2013-05-12T12:01:28Z</time>
      </trkpt>
      <trkpt lat="40.422067" lon="-5.309417">
        <ele>1926.0</ele>
        <time>2013-05-12T12:01:29Z</time>
      </trkpt>
      <trkpt lat="40.422083" lon="-5.309483">
        <ele>1926.0</ele>
        <time>2013-05-12T12:01:30Z</time>
      </trkpt>
      <trkpt lat="40.422100" lon="-5.309550">
        <ele>1927.0</ele>
        <time>2013-05-12T12:01:31Z</time>
      </trkpt>
      <trkpt lat="40.422100" lon="-5.309600">
        <ele>1926.0</ele>
        <time>2013-05-12T12:01:32Z</time>
      </trkpt>
      <trkpt lat="40.422133" lon="-5.309633">
        <ele>1924.0</ele>
        <time>2013-05-12T12:01:33Z</time>
      </trkpt>
      <trkpt lat="40.422167" lon="-5.309683">
        <ele>1923.0</ele>
        <time>2013-05-12T12:01:34Z</time>
      </trkpt>
      <trkpt lat="40.422200" lon="-5.309733">
        <ele>1922.0</ele>
        <time>2013-05-12T12:01:35Z</time>
      </trkpt>
      <trkpt lat="40.422233" lon="-5.309800">
        <ele>1923.0</ele>
        <time>2013-05-12T12:01:36Z</time>
      </trkpt>
      <trkpt lat="40.422250" lon="-5.309867">
        <ele>1924.0</ele>
        <time>2013-05-12T12:01:37Z</time>
      </trkpt>
      <trkpt lat="40.422250" lon="-5.309950">
        <ele>1924.0</ele>
        <time>2013-05-12T12:01:38Z</time>
      </trkpt>
      <trkpt lat="40.422267" lon="-5.310050">
        <ele>1925.0</ele>
        <time>2013-05-12T12:01:39Z</time>
      </trkpt>
      <trkpt lat="40.422267" lon="-5.310133">
        <ele>1925.0</ele>
        <time>2013-05-12T12:01:40Z</time>
      </trkpt>
      <trkpt lat="40.422283" lon="-5.310217">
        <ele>1926.0</ele>
        <time>2013-05-12T12:01:41Z</time>
      </trkpt>
      <trkpt lat="40.422300" lon="-5.310317">
        <ele>1927.0</ele>
        <time>2013-05-12T12:01:42Z</time>
      </trkpt>
      <trkpt lat="40.422300" lon="-5.310417">
        <ele>1927.0</ele>
        <time>2013-05-12T12:01:43Z</time>
      </trkpt>
      <trkpt lat="40.422317" lon="-5.310533">
        <ele>1927.0</ele>
        <time>2013-05-12T12:01:44Z</time>
      </trkpt>
      <trkpt lat="40.422333" lon="-5.310650">
        <ele>1928.0</ele>
        <time>2013-05-12T12:01:45Z</time>
      </trkpt>
      <trkpt lat="40.422367" lon="-5.310750">
        <ele>1930.0</ele>
        <time>2013-05-12T12:01:46Z</time>
      </trkpt>
      <trkpt lat="40.422383" lon="-5.310833">
        <ele>1933.0</ele>
        <time>2013-05-12T12:01:47Z</time>
      </trkpt>
      <trkpt lat="40.422400" lon="-5.310900">
        <ele>1935.0</ele>
        <time>2013-05-12T12:01:48Z</time>
      </trkpt>
      <trkpt lat="40.422400" lon="-5.310983">
        <ele>1938.0</ele>
        <time>2013-05-12T12:01:49Z</time>
      </trkpt>
      <trkpt lat="40.422383" lon="-5.311067">
        <ele>1941.0</ele>
        <time>2013-05-12T12:01:50Z</time>
      </trkpt>
      <trkpt lat="40.422350" lon="-5.311133">
        <ele>1944.0</ele>
        <time>2013-05-12T12:01:51Z</time>
      </trkpt>
      <trkpt lat="40.422350" lon="-5.311200">
        <ele>1945.0</ele>
        <time>2013-05-12T12:01:52Z</time>
      </trkpt>
      <trkpt lat="40.422350" lon="-5.311267">
        <ele>1945.0</ele>
        <time>2013-05-12T12:01:53Z</time>
      </trkpt>
      <trkpt lat="40.422383" lon="-5.311300">
        <ele>1947.0</ele>
        <time>2013-05-12T12:01:54Z</time>
      </trkpt>
      <trkpt lat="40.422433" lon="-5.311317">
        <ele>1950.0</ele>
        <time>2013-05-12T12:01:55Z</time>
      </trkpt>
      <trkpt lat="40.422450" lon="-5.311300">
        <ele>1955.0</ele>
        <time>2013-05-12T12:01:56Z</time>
      </trkpt>
      <trkpt lat="40.422483" lon="-5.311267">
        <ele>1959.0</ele>
        <time>2013-05-12T12:01:57Z</time>
      </trkpt>
      <trkpt lat="40.422500" lon="-5.311233">
        <ele>1961.0</ele>
        <time>2013-05-12T12:01:58Z</time>
      </trkpt>
      <trkpt lat="40.422533" lon="-5.311150">
        <ele>1963.0</ele>
        <time>2013-05-12T12:01:59Z</time>
      </trkpt>
      <trkpt lat="40.422550" lon="-5.311050">
        <ele>1964.0</ele>
        <time>2013-05-12T12:02:00Z</time>
      </trkpt>
      <trkpt lat="40.422550" lon="-5.310900">
        <ele>1964.0</ele>
        <time>2013-05-12T12:02:01Z</time>
      </trkpt>
      <trkpt lat="40.422517" lon="-5.310717">
        <ele>1965.0</ele>
        <time>2013-05-12T12:02:02Z</time>
      </trkpt>
      <trkpt lat="40.422450" lon="-5.310533">
        <ele>1966.0</ele>
        <time>2013-05-12T12:02:03Z</time>
      </trkpt>
      <trkpt lat="40.422383" lon="-5.310367">
        <ele>1968.0</ele>
        <time>2013-05-12T12:02:04Z</time>
      </trkpt>
      <trkpt lat="40.422350" lon="-5.310217">
        <ele>1970.0</ele>
        <time>2013-05-12T12:02:05Z</time>
      </trkpt>
      <trkpt lat="40.422350" lon="-5.310067">
        <ele>1971.0</ele>
        <time>2013-05-12T12:02:06Z</time>
      </trkpt>
      <trkpt lat="40.422350" lon="-5.309950">
        <ele>1972.0</ele>
        <time>2013-05-12T12:02:07Z</time>
      </trkpt>
      <trkpt lat="40.422383" lon="-5.309850">
        <ele>1973.0</ele>
        <time>2013-05-12T12:02:08Z</time>
      </trkpt>
      <trkpt lat="40.422417" lon="-5.309783">
        <ele>1974.0</ele>
        <time>2013-05-12T12:02:09Z</time>
      </trkpt>
      <trkpt lat="40.422450" lon="-5.309750">
        <ele>1974.0</ele>
        <time>2013-05-12T12:02:10Z</time>
      </trkpt>
      <trkpt lat="40.422483" lon="-5.309733">
        <ele>1975.0</ele>
        <time>2013-05-12T12:02:11Z</time>
      </trkpt>
      <trkpt lat="40.422500" lon="-5.309717">
        <ele>1977.0</ele>
        <time>2013-05-12T12:02:12Z</time>
      </trkpt>
      <trkpt lat="40.422533" lon="-5.309683">
        <ele>1978.0</ele>
        <time>2013-05-12T12:02:13Z</time>
      </trkpt>
      <trkpt lat="40.422550" lon="-5.309633">
        <ele>1978.0</ele>
        <time>2013-05-12T12:02:14Z</time>
      </trkpt>
      <trkpt lat="40.422567" lon="-5.309583">
        <ele>1978.0</ele>
        <time>2013-05-12T12:02:15Z</time>
      </trkpt>
      <trkpt lat="40.422600" lon="-5.309533">
        <ele>1977.0</ele>
        <time>2013-05-12T12:02:16Z</time>
      </trkpt>
      <trkpt lat="40.422650" lon="-5.309500">
        <ele>1978.0</ele>
        <time>2013-05-12T12:02:17Z</time>
      </trkpt>
      <trkpt lat="40.422700" lon="-5.309500">
        <ele>1979.0</ele>
        <time>2013-05-12T12:02:18Z</time>
      </trkpt>
      <trkpt lat="40.422733" lon="-5.309517">
        <ele>1981.0</ele>
        <time>2013-05-12T12:02:19Z</time>
      </trkpt>
      <trkpt lat="40.422750" lon="-5.309533">
        <ele>1983.0</ele>
        <time>2013-05-12T12:02:20Z</time>
      </trkpt>
      <trkpt lat="40.422767" lon="-5.309567">
        <ele>1984.0</ele>
        <time>2013-05-12T12:02:21Z</time>
      </trkpt>
      <trkpt lat="40.422783" lon="-5.309600">
        <ele>1984.0</ele>
        <time>2013-05-12T12:02:22Z</time>
      </trkpt>
      <trkpt lat="40.422817" lon="-5.309633">
        <ele>1983.0</ele>
        <time>2013-05-12T12:02:23Z</time>
      </trkpt>
      <trkpt lat="40.422850" lon="-5.309650">
        <ele>1982.0</ele>
        <time>2013-05-12T12:02:24Z</time>
      </trkpt>
      <trkpt lat="40.422900" lon="-5.309683">
        <ele>1982.0</ele>
        <time>2013-05-12T12:02:25Z</time>
      </trkpt>
      <trkpt lat="40.422950" lon="-5.309700">
        <ele>1983.0</ele>
        <time>2013-05-12T12:02:26Z</time>
      </trkpt>
      <trkpt lat="40.423000" lon="-5.309717">
        <ele>1985.0</ele>
        <time>2013-05-12T12:02:27Z</time>
      </trkpt>
      <trkpt lat="40.423050" lon="-5.309733">
        <ele>1987.0</ele>
        <time>2013-05-12T12:02:28Z</time>
      </trkpt>
      <trkpt lat="40.423083" lon="-5.309750">
        <ele>1990.0</ele>
        <time>2013-05-12T12:02:29Z</time>
      </trkpt>
      <trkpt lat="40.423133" lon="-5.309767">
        <ele>1993.0</ele>
        <time>2013-05-12T12:02:30Z</time>
      </trkpt>
      <trkpt lat="40.423183" lon="-5.309783">
        <ele>1997.0</ele>
        <time>2013-05-12T12:02:31Z</time>
      </trkpt>
      <trkpt lat="40.423217" lon="-5.309800">
        <ele>2001.0</ele>
        <time>2013-05-12T12:02:32Z</time>
      </trkpt>
      <trkpt lat="40.423267" lon="-5.309817">
        <ele>2004.0</ele>
        <time>2013-05-12T12:02:33Z</time>
      </trkpt>
      <trkpt lat="40.423317" lon="-5.309800">
        <ele>2008.0</ele>
        <time>2013-05-12T12:02:34Z</time>
      </trkpt>
      <trkpt lat="40.423383" lon="-5.309750">
        <ele>2009.0</ele>
        <time>2013-05-12T12:02:35Z</time>
      </trkpt>
      <trkpt lat="40.423433" lon="-5.309667">
        <ele>2011.0</ele>
        <time>2013-05-12T12:02:36Z</time>
      </trkpt>
      <trkpt lat="40.423483" lon="-5.309567">
        <ele>2013.0</ele>
        <time>2013-05-12T12:02:37Z</time>
      </trkpt>
      <trkpt lat="40.423517" lon="-5.309433">
        <ele>2015.0</ele>
        <time>2013-05-12T12:02:38Z</time>
      </trkpt>
      <trkpt lat="40.423517" lon="-5.309317">
        <ele>2017.0</ele>
        <time>2013-05-12T12:02:39Z</time>
      </trkpt>
      <trkpt lat="40.423500" lon="-5.309167">
        <ele>2019.0</ele>
        <time>2013-05-12T12:02:40Z</time>
      </trkpt>
      <trkpt lat="40.423450" lon="-5.309000">
        <ele>2020.0</ele>
        <time>2013-05-12T12:02:41Z</time>
      </trkpt>
      <trkpt lat="40.423367" lon="-5.308850">
        <ele>2021.0</ele>
        <time>2013-05-12T12:02:42Z</time>
      </trkpt>
      <trkpt lat="40.423267" lon="-5.308733">
        <ele>2023.0</ele>
        <time>2013-05-12T12:02:43Z</time>
      </trkpt>
      <trkpt lat="40.423133" lon="-5.308650">
        <ele>2025.0</ele>
        <time>2013-05-12T12:02:44Z</time>
      </trkpt>
      <trkpt lat="40.423000" lon="-5.308633">
        <ele>2027.0</ele>
        <time>2013-05-12T12:02:45Z</time>
      </trkpt>
      <trkpt lat="40.422883" lon="-5.308667">
        <ele>2028.0</ele>
        <time>2013-05-12T12:02:46Z</time>
      </trkpt>
      <trkpt lat="40.422783" lon="-5.308733">
        <ele>2029.0</ele>
        <time>2013-05-12T12:02:47Z</time>
      </trkpt>
      <trkpt lat="40.422733" lon="-5.308833">
        <ele>2032.0</ele>
        <time>2013-05-12T12:02:48Z</time>
      </trkpt>
      <trkpt lat="40.422733" lon="-5.308900">
        <ele>2036.0</ele>
        <time>2013-05-12T12:02:49Z</time>
      </trkpt>
      <trkpt lat="40.422750" lon="-5.308933">
        <ele>2041.0</ele>
        <time>2013-05-12T12:02:50Z</time>
      </trkpt>
      <trkpt lat="40.422767" lon="-5.308950">
        <ele>2045.0</ele>
        <time>2013-05-12T12:02:51Z</time>
      </trkpt>
      <trkpt lat="40.422783" lon="-5.308950">
        <ele>2048.0</ele>
        <time>2013-05-12T12:02:52Z</time>
      </trkpt>
      <trkpt lat="40.422817" lon="-5.308933">
        <ele>2049.0</ele>
        <time>2013-05-12T12:02:53Z</time>
      </trkpt>
      <trkpt lat="40.422867" lon="-5.308883">
        <ele>2049.0</ele>
        <time>2013-05-12T12:02:54Z</time>
      </trkpt>
      <trkpt lat="40.422917" lon="-5.308800">
        <ele>2049.0</ele>
        <time>2013-05-12T12:02:55Z</time>
      </trkpt>
      <trkpt lat="40.422950" lon="-5.308650">
        <ele>2049.0</ele>
        <time>2013-05-12T12:02:56Z</time>
      </trkpt>
      <trkpt lat="40.422967" lon="-5.308467">
        <ele>2051.0</ele>
        <time>2013-05-12T12:02:57Z</time>
      </trkpt>
      <trkpt lat="40.422967" lon="-5.308283">
        <ele>2054.0</ele>
        <time>2013-05-12T12:02:58Z</time>
      </trkpt>
      <trkpt lat="40.422950" lon="-5.308117">
        <ele>2060.0</ele>
        <time>2013-05-12T12:02:59Z</time>
      </trkpt>
      <trkpt lat="40.422933" lon="-5.307967">
        <ele>2065.0</ele>
        <time>2013-05-12T12:03:00Z</time>
      </trkpt>
      <trkpt lat="40.422883" lon="-5.307850">
        <ele>2070.0</ele>
        <time>2013-05-12T12:03:01Z</time>
      </trkpt>
      <trkpt lat="40.422850" lon="-5.307733">
        <ele>2074.0</ele>
        <time>2013-05-12T12:03:02Z</time>
      </trkpt>
      <trkpt lat="40.422783" lon="-5.307633">
        <ele>2075.0</ele>
        <time>2013-05-12T12:03:03Z</time>
      </trkpt>
      <trkpt lat="40.422717" lon="-5.307550">
        <ele>2076.0</ele>
        <time>2013-05-12T12:03:04Z</time>
      </trkpt>
      <trkpt lat="40.422617" lon="-5.307467">
        <ele>2075.0</ele>
        <time>2013-05-12T12:03:05Z</time>
      </trkpt>
      <trkpt lat="40.422483" lon="-5.307400">
        <ele>2073.0</ele>
        <time>2013-05-12T12:03:06Z</time>
      </trkpt>
      <trkpt lat="40.422333" lon="-5.307400">
        <ele>2072.0</ele>
        <time>2013-05-12T12:03:07Z</time>
      </trkpt>
      <trkpt lat="40.422200" lon="-5.307467">
        <ele>2071.0</ele>
        <time>2013-05-12T12:03:08Z</time>
      </trkpt>
      <trkpt lat="40.422133" lon="-5.307600">
        <ele>2071.0</ele>
        <time>2013-05-12T12:03:09Z</time>
      </trkpt>
      <trkpt lat="40.422083" lon="-5.307717">
        <ele>2073.0</ele>
        <time>2013-05-12T12:03:10Z</time>
      </trkpt>
      <trkpt lat="40.422050" lon="-5.307783">
        <ele>2080.0</ele>
        <time>2013-05-12T12:03:11Z</time>
      </trkpt>
      <trkpt lat="40.422017" lon="-5.307817">
        <ele>2086.0</ele>
        <time>2013-05-12T12:03:12Z</time>
      </trkpt>
      <trkpt lat="40.421967" lon="-5.307817">
        <ele>2090.0</ele>
        <time>2013-05-12T12:03:13Z</time>
      </trkpt>
      <trkpt lat="40.421917" lon="-5.307850">
        <ele>2093.0</ele>
        <time>2013-05-12T12:03:14Z</time>
      </trkpt>
      <trkpt lat="40.421883" lon="-5.307883">
        <ele>2094.0</ele>
        <time>2013-05-12T12:03:15Z</time>
      </trkpt>
      <trkpt lat="40.421883" lon="-5.307933">
        <ele>2094.0</ele>
        <time>2013-05-12T12:03:16Z</time>
      </trkpt>
      <trkpt lat="40.421933" lon="-5.307967">
        <ele>2097.0</ele>
        <time>2013-05-12T12:03:17Z</time>
      </trkpt>
      <trkpt lat="40.421983" lon="-5.307967">
        <ele>2101.0</ele>
        <time>2013-05-12T12:03:18Z</time>
      </trkpt>
      <trkpt lat="40.422017" lon="-5.307950">
        <ele>2106.0</ele>
        <time>2013-05-12T12:03:19Z</time>
      </trkpt>
      <trkpt lat="40.422033" lon="-5.307933">
        <ele>2112.0</ele>
        <time>2013-05-12T12:03:20Z</time>
      </trkpt>
      <trkpt lat="40.422050" lon="-5.307900">
        <ele>2116.0</ele>
        <time>2013-05-12T12:03:21Z</time>
      </trkpt>
      <trkpt lat="40.422067" lon="-5.307867">
        <ele>2118.0</ele>
        <time>2013-05-12T12:03:22Z</time>
      </trkpt>
      <trkpt lat="40.422100" lon="-5.307783">
        <ele>2119.0</ele>
        <time>2013-05-12T12:03:23Z</time>
      </trkpt>
      <trkpt lat="40.422117" lon="-5.307650">
        <ele>2120.0</ele>
        <time>2013-05-12T12:03:24Z</time>
      </trkpt>
      <trkpt lat="40.422083" lon="-5.307500">
        <ele>2121.0</ele>
        <time>2013-05-12T12:03:25Z</time>
      </trkpt>
      <trkpt lat="40.422033" lon="-5.307367">
        <ele>2123.0</ele>
        <time>2013-05-12T12:03:26Z</time>
      </trkpt>
      <trkpt lat="40.421983" lon="-5.307233">
        <ele>2126.0</ele>
        <time>2013-05-12T12:03:27Z</time>
      </trkpt>
      <trkpt lat="40.421933" lon="-5.307133">
        <ele>2129.0</ele>
        <time>2013-05-12T12:03:28Z</time>
      </trkpt>
      <trkpt lat="40.421867" lon="-5.307033">
        <ele>2130.0</ele>
        <time>2013-05-12T12:03:29Z</time>
      </trkpt>
      <trkpt lat="40.421783" lon="-5.306933">
        <ele>2130.0</ele>
        <time>2013-05-12T12:03:30Z</time>
      </trkpt>
      <trkpt lat="40.421667" lon="-5.306867">
        <ele>2129.0</ele>
        <time>2013-05-12T12:03:31Z</time>
      </trkpt>
      <trkpt lat="40.421517" lon="-5.306833">
        <ele>2126.0</ele>
        <time>2013-05-12T12:03:32Z</time>
      </trkpt>
      <trkpt lat="40.421367" lon="-5.306833">
        <ele>2125.0</ele>
        <time>2013-05-12T12:03:33Z</time>
      </trkpt>
      <trkpt lat="40.421217" lon="-5.306900">
        <ele>2126.0</ele>
        <time>2013-05-12T12:03:34Z</time>
      </trkpt>
      <trkpt lat="40.421117" lon="-5.306983">
        <ele>2129.0</ele>
        <time>2013-05-12T12:03:35Z</time>
      </trkpt>
      <trkpt lat="40.421050" lon="-5.307033">
        <ele>2133.0</ele>
        <time>2013-05-12T12:03:36Z</time>
      </trkpt>
      <trkpt lat="40.421000" lon="-5.307083">
        <ele>2137.0</ele>
        <time>2013-05-12T12:03:37Z</time>
      </trkpt>
      <trkpt lat="40.420950" lon="-5.307100">
        <ele>2139.0</ele>
        <time>2013-05-12T12:03:38Z</time>
      </trkpt>
      <trkpt lat="40.420917" lon="-5.307133">
        <ele>2140.0</ele>
        <time>2013-05-12T12:03:39Z</time>
      </trkpt>
      <trkpt lat="40.420900" lon="-5.307183">
        <ele>2140.0</ele>
        <time>2013-05-12T12:03:40Z</time>
      </trkpt>
      <trkpt lat="40.420900" lon="-5.307250">
        <ele>2138.0</ele>
        <time>2013-05-12T12:03:41Z</time>
      </trkpt>
      <trkpt lat="40.420933" lon="-5.307300">
        <ele>2139.0</ele>
        <time>2013-05-12T12:03:42Z</time>
      </trkpt>
      <trkpt lat="40.420967" lon="-5.307317">
        <ele>2140.0</ele>
        <time>2013-05-12T12:03:43Z</time>
      </trkpt>
      <trkpt lat="40.421017" lon="-5.307300">
        <ele>2141.0</ele>
        <time>2013-05-12T12:03:44Z</time>
      </trkpt>
      <trkpt lat="40.421067" lon="-5.307283">
        <ele>2143.0</ele>
        <time>2013-05-12T12:03:45Z</time>
      </trkpt>
      <trkpt lat="40.421117" lon="-5.307267">
        <ele>2145.0</ele>
        <time>2013-05-12T12:03:46Z</time>
      </trkpt>
      <trkpt lat="40.421167" lon="-5.307233">
        <ele>2147.0</ele>
        <time>2013-05-12T12:03:47Z</time>
      </trkpt>
      <trkpt lat="40.421200" lon="-5.307200">
        <ele>2148.0</ele>
        <time>2013-05-12T12:03:48Z</time>
      </trkpt>
      <trkpt lat="40.421250" lon="-5.307133">
        <ele>2149.0</ele>
        <time>2013-05-12T12:03:49Z</time>
      </trkpt>
      <trkpt lat="40.421300" lon="-5.307067">
        <ele>2149.0</ele>
        <time>2013-05-12T12:03:50Z</time>
      </trkpt>
      <trkpt lat="40.421350" lon="-5.307000">
        <ele>2150.0</ele>
        <time>2013-05-12T12:03:51Z</time>
      </trkpt>
      <trkpt lat="40.421400" lon="-5.306900">
        <ele>2152.0</ele>
        <time>2013-05-12T12:03:52Z</time>
      </trkpt>
      <trkpt lat="40.421450" lon="-5.306817">
        <ele>2155.0</ele>
        <time>2013-05-12T12:03:53Z</time>
      </trkpt>
      <trkpt lat="40.421500" lon="-5.306717">
        <ele>2158.0</ele>
        <time>2013-05-12T12:03:54Z</time>
      </trkpt>
      <trkpt lat="40.421550" lon="-5.306650">
        <ele>2161.0</ele>
        <time>2013-05-12T12:03:55Z</time>
      </trkpt>
      <trkpt lat="40.421583" lon="-5.306583">
        <ele>2163.0</ele>
        <time>2013-05-12T12:03:56Z</time>
      </trkpt>
      <trkpt lat="40.421633" lon="-5.306533">
        <ele>2165.0</ele>
        <time>2013-05-12T12:03:57Z</time>
      </trkpt>
      <trkpt lat="40.421667" lon="-5.306500">
        <ele>2167.0</ele>
        <time>2013-05-12T12:03:58Z</time>
      </trkpt>
      <trkpt lat="40.421717" lon="-5.306450">
        <ele>2169.0</ele>
        <time>2013-05-12T12:03:59Z</time>
      </trkpt>
      <trkpt lat="40.421733" lon="-5.306400">
        <ele>2171.0</ele>
        <time>2013-05-12T12:04:00Z</time>
      </trkpt>
      <trkpt lat="40.421767" lon="-5.306333">
        <ele>2171.0</ele>
        <time>2013-05-12T12:04:01Z</time>
      </trkpt>
      <trkpt lat="40.421800" lon="-5.306233">
        <ele>2171.0</ele>
        <time>2013-05-12T12:04:02Z</time>
      </trkpt>
      <trkpt lat="40.421817" lon="-5.306100">
        <ele>2171.0</ele>
        <time>2013-05-12T12:04:03Z</time>
      </trkpt>
      <trkpt lat="40.421833" lon="-5.305983">
        <ele>2172.0</ele>
        <time>2013-05-12T12:04:04Z</time>
      </trkpt>
      <trkpt lat="40.421867" lon="-5.305883">
        <ele>2173.0</ele>
        <time>2013-05-12T12:04:05Z</time>
      </trkpt>
      <trkpt lat="40.421917" lon="-5.305817">
        <ele>2174.0</ele>
        <time>2013-05-12T12:04:06Z</time>
      </trkpt>
      <trkpt lat="40.421967" lon="-5.305783">
        <ele>2174.0</ele>
        <time>2013-05-12T12:04:07Z</time>
      </trkpt>
      <trkpt lat="40.422017" lon="-5.305750">
        <ele>2174.0</ele>
        <time>2013-05-12T12:04:08Z</time>
      </trkpt>
      <trkpt lat="40.422050" lon="-5.305717">
        <ele>2174.0</ele>
        <time>2013-05-12T12:04:09Z</time>
      </trkpt>
      <trkpt lat="40.422083" lon="-5.305700">
        <ele>2174.0</ele>
        <time>2013-05-12T12:04:10Z</time>
      </trkpt>
      <trkpt lat="40.422133" lon="-5.305700">
        <ele>2172.0</ele>
        <time>2013-05-12T12:04:11Z</time>
      </trkpt>
      <trkpt lat="40.422183" lon="-5.305700">
        <ele>2171.0</ele>
        <time>2013-05-12T12:04:12Z</time>
      </trkpt>
      <trkpt lat="40.422233" lon="-5.305733">
        <ele>2169.0</ele>
        <time>2013-05-12T12:04:13Z</time>
      </trkpt>
      <trkpt lat="40.422283" lon="-5.305783">
        <ele>2168.0</ele>
        <time>2013-05-12T12:04:14Z</time>
      </trkpt>
      <trkpt lat="40.422317" lon="-5.305833">
        <ele>2169.0</ele>
        <time>2013-05-12T12:04:15Z</time>
      </trkpt>
      <trkpt lat="40.422367" lon="-5.305867">
        <ele>2168.0</ele>
        <time>2013-05-12T12:04:16Z</time>
      </trkpt>
      <trkpt lat="40.422400" lon="-5.305917">
        <ele>2168.0</ele>
        <time>2013-05-12T12:04:17Z</time>
      </trkpt>
      <trkpt lat="40.422433" lon="-5.305967">
        <ele>2167.0</ele>
        <time>2013-05-12T12:04:18Z</time>
      </trkpt>
      <trkpt lat="40.422483" lon="-5.306033">
        <ele>2167.0</ele>
        <time>2013-05-12T12:04:19Z</time>
      </trkpt>
      <trkpt lat="40.422533" lon="-5.306117">
        <ele>2169.0</ele>
        <time>2013-05-12T12:04:20Z</time>
      </trkpt>
      <trkpt lat="40.422583" lon="-5.306200">
        <ele>2171.0</ele>
        <time>2013-05-12T12:04:21Z</time>
      </trkpt>
      <trkpt lat="40.422617" lon="-5.306267">
        <ele>2174.0</ele>
        <time>2013-05-12T12:04:22Z</time>
      </trkpt>
      <trkpt lat="40.422667" lon="-5.306317">
        <ele>2177.0</ele>
        <time>2013-05-12T12:04:23Z</time>
      </trkpt>
      <trkpt lat="40.422717" lon="-5.306333">
        <ele>2179.0</ele>
        <time>2013-05-12T12:04:24Z</time>
      </trkpt>
      <trkpt lat="40.422767" lon="-5.306367">
        <ele>2180.0</ele>
        <time>2013-05-12T12:04:25Z</time>
      </trkpt>
      <trkpt lat="40.422817" lon="-5.306383">
        <ele>2181.0</ele>
        <time>2013-05-12T12:04:26Z</time>
      </trkpt>
      <trkpt lat="40.422883" lon="-5.306367">
        <ele>2183.0</ele>
        <time>2013-05-12T12:04:27Z</time>
      </trkpt>
      <trkpt lat="40.422950" lon="-5.306333">
        <ele>2183.0</ele>
        <time>2013-05-12T12:04:28Z</time>
      </trkpt>
      <trkpt lat="40.423000" lon="-5.306267">
        <ele>2183.0</ele>
        <time>2013-05-12T12:04:29Z</time>
      </trkpt>
      <trkpt lat="40.423067" lon="-5.306200">
        <ele>2184.0</ele>
        <time>2013-05-12T12:04:30Z</time>
      </trkpt>
      <trkpt lat="40.423117" lon="-5.306117">
        <ele>2186.0</ele>
        <time>2013-05-12T12:04:31Z</time>
      </trkpt>
      <trkpt lat="40.423150" lon="-5.306033">
        <ele>2188.0</ele>
        <time>2013-05-12T12:04:32Z</time>
      </trkpt>
      <trkpt lat="40.423183" lon="-5.305933">
        <ele>2190.0</ele>
        <time>2013-05-12T12:04:33Z</time>
      </trkpt>
      <trkpt lat="40.423200" lon="-5.305833">
        <ele>2192.0</ele>
        <time>2013-05-12T12:04:34Z</time>
      </trkpt>
      <trkpt lat="40.423200" lon="-5.305717">
        <ele>2192.0</ele>
        <time>2013-05-12T12:04:35Z</time>
      </trkpt>
      <trkpt lat="40.423167" lon="-5.305617">
        <ele>2192.0</ele>
        <time>2013-05-12T12:04:36Z</time>
      </trkpt>
      <trkpt lat="40.423133" lon="-5.305500">
        <ele>2191.0</ele>
        <time>2013-05-12T12:04:37Z</time>
      </trkpt>
      <trkpt lat="40.423067" lon="-5.305417">
        <ele>2190.0</ele>
        <time>2013-05-12T12:04:38Z</time>
      </trkpt>
      <trkpt lat="40.423000" lon="-5.305333">
        <ele>2189.0</ele>
        <time>2013-05-12T12:04:39Z</time>
      </trkpt>
      <trkpt lat="40.422917" lon="-5.305233">
        <ele>2188.0</ele>
        <time>2013-05-12T12:04:40Z</time>
      </trkpt>
      <trkpt lat="40.422850" lon="-5.305083">
        <ele>2188.0</ele>
        <time>2013-05-12T12:04:41Z</time>
      </trkpt>
      <trkpt lat="40.422800" lon="-5.304917">
        <ele>2187.0</ele>
        <time>2013-05-12T12:04:42Z</time>
      </trkpt>
      <trkpt lat="40.422767" lon="-5.304750">
        <ele>2188.0</ele>
        <time>2013-05-12T12:04:43Z</time>
      </trkpt>
      <trkpt lat="40.422733" lon="-5.304633">
        <ele>2191.0</ele>
        <time>2013-05-12T12:04:44Z</time>
      </trkpt>
      <trkpt lat="40.422700" lon="-5.304550">
        <ele>2191.0</ele>
        <time>2013-05-12T12:04:45Z</time>
      </trkpt>
      <trkpt lat="40.422667" lon="-5.304450">
        <ele>2190.0</ele>
        <time>2013-05-12T12:04:46Z</time>
      </trkpt>
      <trkpt lat="40.422617" lon="-5.304350">
        <ele>2187.0</ele>
        <time>2013-05-12T12:04:47Z</time>
      </trkpt>
      <trkpt lat="40.422567" lon="-5.304200">
        <ele>2183.0</ele>
        <time>2013-05-12T12:04:48Z</time>
      </trkpt>
      <trkpt lat="40.422517" lon="-5.304017">
        <ele>2180.0</ele>
        <time>2013-05-12T12:04:49Z</time>
      </trkpt>
      <trkpt lat="40.422533" lon="-5.303850">
        <ele>2179.0</ele>
        <time>2013-05-12T12:04:50Z</time>
      </trkpt>
      <trkpt lat="40.422550" lon="-5.303717">
        <ele>2180.0</ele>
        <time>2013-05-12T12:04:51Z</time>
      </trkpt>
      <trkpt lat="40.422583" lon="-5.303600">
        <ele>2182.0</ele>
        <time>2013-05-12T12:04:52Z</time>
      </trkpt>
      <trkpt lat="40.422600" lon="-5.303500">
        <ele>2185.0</ele>
        <time>2013-05-12T12:04:53Z</time>
      </trkpt>
      <trkpt lat="40.422617" lon="-5.303400">
        <ele>2187.0</ele>
        <time>2013-05-12T12:04:54Z</time>
      </trkpt>
      <trkpt lat="40.422650" lon="-5.303300">
        <ele>2188.0</ele>
        <time>2013-05-12T12:04:55Z</time>
      </trkpt>
      <trkpt lat="40.422700" lon="-5.303217">
        <ele>2189.0</ele>
        <time>2013-05-12T12:04:56Z</time>
      </trkpt>
      <trkpt lat="40.422750" lon="-5.303133">
        <ele>2190.0</ele>
        <time>2013-05-12T12:04:57Z</time>
      </trkpt>
      <trkpt lat="40.422800" lon="-5.303083">
        <ele>2192.0</ele>
        <time>2013-05-12T12:04:58Z</time>
      </trkpt>
      <trkpt lat="40.422850" lon="-5.303067">
        <ele>2192.0</ele>
        <time>2013-05-12T12:04:59Z</time>
      </trkpt>
      <trkpt lat="40.422900" lon="-5.303033">
        <ele>2191.0</ele>
        <time>2013-05-12T12:05:00Z</time>
      </trkpt>
      <trkpt lat="40.422967" lon="-5.303017">
        <ele>2190.0</ele>
        <time>2013-05-12T12:05:01Z</time>
      </trkpt>
      <trkpt lat="40.423033" lon="-5.302983">
        <ele>2189.0</ele>
        <time>2013-05-12T12:05:02Z</time>
      </trkpt>
      <trkpt lat="40.423117" lon="-5.302967">
        <ele>2189.0</ele>
        <time>2013-05-12T12:05:03Z</time>
      </trkpt>
      <trkpt lat="40.423167" lon="-5.302983">
        <ele>2191.0</ele>
        <time>2013-05-12T12:05:04Z</time>
      </trkpt>
      <trkpt lat="40.423217" lon="-5.303000">
        <ele>2191.0</ele>
        <time>2013-05-12T12:05:05Z</time>
      </trkpt>
      <trkpt lat="40.423267" lon="-5.303017">
        <ele>2191.0</ele>
        <time>2013-05-12T12:05:06Z</time>
      </trkpt>
      <trkpt lat="40.423317" lon="-5.303033">
        <ele>2189.0</ele>
        <time>2013-05-12T12:05:07Z</time>
      </trkpt>
      <trkpt lat="40.423383" lon="-5.303033">
        <ele>2189.0</ele>
        <time>2013-05-12T12:05:08Z</time>
      </trkpt>
      <trkpt lat="40.423450" lon="-5.303050">
        <ele>2189.0</ele>
        <time>2013-05-12T12:05:09Z</time>
      </trkpt>
      <trkpt lat="40.423500" lon="-5.303083">
        <ele>2189.0</ele>
        <time>2013-05-12T12:05:10Z</time>
      </trkpt>
      <trkpt lat="40.423550" lon="-5.303100">
        <ele>2189.0</ele>
        <time>2013-05-12T12:05:11Z</time>
      </trkpt>
      <trkpt lat="40.423617" lon="-5.303133">
        <ele>2188.0</ele>
        <time>2013-05-12T12:05:12Z</time>
      </trkpt>
      <trkpt lat="40.423667" lon="-5.303167">
        <ele>2188.0</ele>
        <time>2013-05-12T12:05:13Z</time>
      </trkpt>
      <trkpt lat="40.423733" lon="-5.303183">
        <ele>2189.0</ele>
        <time>2013-05-12T12:05:14Z</time>
      </trkpt>
      <trkpt lat="40.423783" lon="-5.303217">
        <ele>2189.0</ele>
        <time>2013-05-12T12:05:15Z</time>
      </trkpt>
      <trkpt lat="40.423817" lon="-5.303267">
        <ele>2190.0</ele>
        <time>2013-05-12T12:05:16Z</time>
      </trkpt>
      <trkpt lat="40.423850" lon="-5.303300">
        <ele>2190.0</ele>
        <time>2013-05-12T12:05:17Z</time>
      </trkpt>
      <trkpt lat="40.423883" lon="-5.303317">
        <ele>2190.0</ele>
        <time>2013-05-12T12:05:18Z</time>
      </trkpt>
      <trkpt lat="40.423950" lon="-5.303333">
        <ele>2187.0</ele>
        <time>2013-05-12T12:05:19Z</time>
      </trkpt>
      <trkpt lat="40.424017" lon="-5.303317">
        <ele>2185.0</ele>
        <time>2013-05-12T12:05:20Z</time>
      </trkpt>
      <trkpt lat="40.424083" lon="-5.303283">
        <ele>2184.0</ele>
        <time>2013-05-12T12:05:21Z</time>
      </trkpt>
      <trkpt lat="40.424133" lon="-5.303283">
        <ele>2184.0</ele>
        <time>2013-05-12T12:05:22Z</time>
      </trkpt>
      <trkpt lat="40.424183" lon="-5.303300">
        <ele>2184.0</ele>
        <time>2013-05-12T12:05:23Z</time>
      </trkpt>
      <trkpt lat="40.424233" lon="-5.303317">
        <ele>2183.0</ele>
        <time>2013-05-12T12:05:24Z</time>
      </trkpt>
      <trkpt lat="40.424283" lon="-5.303367">
        <ele>2182.0</ele>
        <time>2013-05-12T12:05:25Z</time>
      </trkpt>
      <trkpt lat="40.424333" lon="-5.303417">
        <ele>2182.0</ele>
        <time>2013-05-12T12:05:26Z</time>
      </trkpt>
      <trkpt lat="40.424383" lon="-5.303450">
        <ele>2182.0</ele>
        <time>2013-05-12T12:05:27Z</time>
      </trkpt>
      <trkpt lat="40.424417" lon="-5.303500">
        <ele>2182.0</ele>
        <time>2013-05-12T12:05:28Z</time>
      </trkpt>
      <trkpt lat="40.424450" lon="-5.303550">
        <ele>2183.0</ele>
        <time>2013-05-12T12:05:29Z</time>
      </trkpt>
      <trkpt lat="40.424483" lon="-5.303600">
        <ele>2184.0</ele>
        <time>2013-05-12T12:05:30Z</time>
      </trkpt>
      <trkpt lat="40.424517" lon="-5.303650">
        <ele>2184.0</ele>
        <time>2013-05-12T12:05:31Z</time>
      </trkpt>
      <trkpt lat="40.424550" lon="-5.303717">
        <ele>2184.0</ele>
        <time>2013-05-12T12:05:32Z</time>
      </trkpt>
      <trkpt lat="40.424583" lon="-5.303767">
        <ele>2184.0</ele>
        <time>2013-05-12T12:05:33Z</time>
      </trkpt>
      <trkpt lat="40.424633" lon="-5.303817">
        <ele>2183.0</ele>
        <time>2013-05-12T12:05:34Z</time>
      </trkpt>
      <trkpt lat="40.424667" lon="-5.303867">
        <ele>2183.0</ele>
        <time>2013-05-12T12:05:35Z</time>
      </trkpt>
      <trkpt lat="40.424700" lon="-5.303917">
        <ele>2183.0</ele>
        <time>2013-05-12T12:05:36Z</time>
      </trkpt>
      <trkpt lat="40.424733" lon="-5.303967">
        <ele>2182.0</ele>
        <time>2013-05-12T12:05:37Z</time>
      </trkpt>
      <trkpt lat="40.424767" lon="-5.304000">
        <ele>2180.0</ele>
        <time>2013-05-12T12:05:38Z</time>
      </trkpt>
      <trkpt lat="40.424800" lon="-5.304033">
        <ele>2177.0</ele>
        <time>2013-05-12T12:05:39Z</time>
      </trkpt>
      <trkpt lat="40.424850" lon="-5.304100">
        <ele>2174.0</ele>
        <time>2013-05-12T12:05:40Z</time>
      </trkpt>
      <trkpt lat="40.424900" lon="-5.304167">
        <ele>2172.0</ele>
        <time>2013-05-12T12:05:41Z</time>
      </trkpt>
      <trkpt lat="40.424967" lon="-5.304200">
        <ele>2170.0</ele>
        <time>2013-05-12T12:05:42Z</time>
      </trkpt>
      <trkpt lat="40.425017" lon="-5.304233">
        <ele>2169.0</ele>
        <time>2013-05-12T12:05:43Z</time>
      </trkpt>
      <trkpt lat="40.425067" lon="-5.304283">
        <ele>2167.0</ele>
        <time>2013-05-12T12:05:44Z</time>
      </trkpt>
      <trkpt lat="40.425117" lon="-5.304333">
        <ele>2166.0</ele>
        <time>2013-05-12T12:05:45Z</time>
      </trkpt>
      <trkpt lat="40.425183" lon="-5.304383">
        <ele>2164.0</ele>
        <time>2013-05-12T12:05:46Z</time>
      </trkpt>
      <trkpt lat="40.425233" lon="-5.304417">
        <ele>2163.0</ele>
        <time>2013-05-12T12:05:47Z</time>
      </trkpt>
      <trkpt lat="40.425300" lon="-5.304433">
        <ele>2161.0</ele>
        <time>2013-05-12T12:05:48Z</time>
      </trkpt>
      <trkpt lat="40.425367" lon="-5.304450">
        <ele>2158.0</ele>
        <time>2013-05-12T12:05:49Z</time>
      </trkpt>
      <trkpt lat="40.425417" lon="-5.304467">
        <ele>2156.0</ele>
        <time>2013-05-12T12:05:50Z</time>
      </trkpt>
      <trkpt lat="40.425483" lon="-5.304483">
        <ele>2153.0</ele>
        <time>2013-05-12T12:05:51Z</time>
      </trkpt>
      <trkpt lat="40.425550" lon="-5.304483">
        <ele>2150.0</ele>
        <time>2013-05-12T12:05:52Z</time>
      </trkpt>
      <trkpt lat="40.425633" lon="-5.304483">
        <ele>2149.0</ele>
        <time>2013-05-12T12:05:53Z</time>
      </trkpt>
      <trkpt lat="40.425700" lon="-5.304483">
        <ele>2148.0</ele>
        <time>2013-05-12T12:05:54Z</time>
      </trkpt>
      <trkpt lat="40.425767" lon="-5.304467">
        <ele>2148.0</ele>
        <time>2013-05-12T12:05:55Z</time>
      </trkpt>
      <trkpt lat="40.425817" lon="-5.304450">
        <ele>2146.0</ele>
        <time>2013-05-12T12:05:56Z</time>
      </trkpt>
      <trkpt lat="40.425883" lon="-5.304467">
        <ele>2144.0</ele>
        <time>2013-05-12T12:05:57Z</time>
      </trkpt>
      <trkpt lat="40.425933" lon="-5.304483">
        <ele>2141.0</ele>
        <time>2013-05-12T12:05:58Z</time>
      </trkpt>
      <trkpt lat="40.426000" lon="-5.304517">
        <ele>2138.0</ele>
        <time>2013-05-12T12:05:59Z</time>
      </trkpt>
      <trkpt lat="40.426067" lon="-5.304550">
        <ele>2136.0</ele>
        <time>2013-05-12T12:06:00Z</time>
      </trkpt>
      <trkpt lat="40.426117" lon="-5.304583">
        <ele>2135.0</ele>
        <time>2013-05-12T12:06:01Z</time>
      </trkpt>
      <trkpt lat="40.426150" lon="-5.304633">
        <ele>2133.0</ele>
        <time>2013-05-12T12:06:02Z</time>
      </trkpt>
      <trkpt lat="40.426200" lon="-5.304683">
        <ele>2130.0</ele>
        <time>2013-05-12T12:06:03Z</time>
      </trkpt>
      <trkpt lat="40.426267" lon="-5.304733">
        <ele>2127.0</ele>
        <time>2013-05-12T12:06:04Z</time>
      </trkpt>
      <trkpt lat="40.426333" lon="-5.304783">
        <ele>2124.0</ele>
        <time>2013-05-12T12:06:05Z</time>
      </trkpt>
      <trkpt lat="40.426383" lon="-5.304850">
        <ele>2122.0</ele>
        <time>2013-05-12T12:06:06Z</time>
      </trkpt>
      <trkpt lat="40.426433" lon="-5.304900">
        <ele>2120.0</ele>
        <time>2013-05-12T12:06:07Z</time>
      </trkpt>
      <trkpt lat="40.426500" lon="-5.304967">
        <ele>2117.0</ele>
        <time>2013-05-12T12:06:08Z</time>
      </trkpt>
      <trkpt lat="40.426550" lon="-5.305033">
        <ele>2115.0</ele>
        <time>2013-05-12T12:06:09Z</time>
      </trkpt>
      <trkpt lat="40.426617" lon="-5.305100">
        <ele>2113.0</ele>
        <time>2013-05-12T12:06:10Z</time>
      </trkpt>
      <trkpt lat="40.426667" lon="-5.305150">
        <ele>2111.0</ele>
        <time>2013-05-12T12:06:11Z</time>
      </trkpt>
      <trkpt lat="40.426717" lon="-5.305217">
        <ele>2108.0</ele>
        <time>2013-05-12T12:06:12Z</time>
      </trkpt>
      <trkpt lat="40.426767" lon="-5.305283">
        <ele>2106.0</ele>
        <time>2013-05-12T12:06:13Z</time>
      </trkpt>
      <trkpt lat="40.426817" lon="-5.305333">
        <ele>2104.0</ele>
        <time>2013-05-12T12:06:14Z</time>
      </trkpt>
      <trkpt lat="40.426850" lon="-5.305400">
        <ele>2102.0</ele>
        <time>2013-05-12T12:06:15Z</time>
      </trkpt>
      <trkpt lat="40.426900" lon="-5.305450">
        <ele>2100.0</ele>
        <time>2013-05-12T12:06:16Z</time>
      </trkpt>
      <trkpt lat="40.426933" lon="-5.305500">
        <ele>2097.0</ele>
        <time>2013-05-12T12:06:17Z</time>
      </trkpt>
      <trkpt lat="40.426983" lon="-5.305567">
        <ele>2095.0</ele>
        <time>2013-05-12T12:06:18Z</time>
      </trkpt>
      <trkpt lat="40.427017" lon="-5.305633">
        <ele>2092.0</ele>
        <time>2013-05-12T12:06:19Z</time>
      </trkpt>
      <trkpt lat="40.427050" lon="-5.305700">
        <ele>2089.0</ele>
        <time>2013-05-12T12:06:20Z</time>
      </trkpt>
      <trkpt lat="40.427083" lon="-5.305783">
        <ele>2086.0</ele>
        <time>2013-05-12T12:06:21Z</time>
      </trkpt>
      <trkpt lat="40.427100" lon="-5.305867">
        <ele>2084.0</ele>
        <time>2013-05-12T12:06:22Z</time>
      </trkpt>
      <trkpt lat="40.427133" lon="-5.305933">
        <ele>2082.0</ele>
        <time>2013-05-12T12:06:23Z</time>
      </trkpt>
      <trkpt lat="40.427150" lon="-5.306017">
        <ele>2080.0</ele>
        <time>2013-05-12T12:06:24Z</time>
      </trkpt>
      <trkpt lat="40.427167" lon="-5.306100">
        <ele>2077.0</ele>
        <time>2013-05-12T12:06:25Z</time>
      </trkpt>
      <trkpt lat="40.427183" lon="-5.306167">
        <ele>2074.0</ele>
        <time>2013-05-12T12:06:26Z</time>
      </trkpt>
      <trkpt lat="40.427217" lon="-5.306250">
        <ele>2071.0</ele>
        <time>2013-05-12T12:06:27Z</time>
      </trkpt>
      <trkpt lat="40.427250" lon="-5.306333">
        <ele>2067.0</ele>
        <time>2013-05-12T12:06:28Z</time>
      </trkpt>
      <trkpt lat="40.427300" lon="-5.306417">
        <ele>2065.0</ele>
        <time>2013-05-12T12:06:29Z</time>
      </trkpt>
      <trkpt lat="40.427333" lon="-5.306483">
        <ele>2062.0</ele>
        <time>2013-05-12T12:06:30Z</time>
      </trkpt>
      <trkpt lat="40.427383" lon="-5.306550">
        <ele>2060.0</ele>
        <time>2013-05-12T12:06:31Z</time>
      </trkpt>
      <trkpt lat="40.427417" lon="-5.306617">
        <ele>2058.0</ele>
        <time>2013-05-12T12:06:32Z</time>
      </trkpt>
      <trkpt lat="40.427450" lon="-5.306683">
        <ele>2055.0</ele>
        <time>2013-05-12T12:06:33Z</time>
      </trkpt>
      <trkpt lat="40.427500" lon="-5.306750">
        <ele>2052.0</ele>
        <time>2013-05-12T12:06:34Z</time>
      </trkpt>
      <trkpt lat="40.427550" lon="-5.306833">
        <ele>2049.0</ele>
        <time>2013-05-12T12:06:35Z</time>
      </trkpt>
      <trkpt lat="40.427583" lon="-5.306900">
        <ele>2047.0</ele>
        <time>2013-05-12T12:06:36Z</time>
      </trkpt>
      <trkpt lat="40.427633" lon="-5.306967">
        <ele>2045.0</ele>
        <time>2013-05-12T12:06:37Z</time>
      </trkpt>
      <trkpt lat="40.427667" lon="-5.307033">
        <ele>2042.0</ele>
        <time>2013-05-12T12:06:38Z</time>
      </trkpt>
      <trkpt lat="40.427717" lon="-5.307100">
        <ele>2039.0</ele>
        <time>2013-05-12T12:06:39Z</time>
      </trkpt>
      <trkpt lat="40.427750" lon="-5.307183">
        <ele>2036.0</ele>
        <time>2013-05-12T12:06:40Z</time>
      </trkpt>
      <trkpt lat="40.427800" lon="-5.307267">
        <ele>2033.0</ele>
        <time>2013-05-12T12:06:41Z</time>
      </trkpt>
      <trkpt lat="40.427850" lon="-5.307367">
        <ele>2030.0</ele>
        <time>2013-05-12T12:06:42Z</time>
      </trkpt>
      <trkpt lat="40.427900" lon="-5.307433">
        <ele>2028.0</ele>
        <time>2013-05-12T12:06:43Z</time>
      </trkpt>
      <trkpt lat="40.427933" lon="-5.307517">
        <ele>2026.0</ele>
        <time>2013-05-12T12:06:44Z</time>
      </trkpt>
      <trkpt lat="40.427983" lon="-5.307583">
        <ele>2025.0</ele>
        <time>2013-05-12T12:06:45Z</time>
      </trkpt>
      <trkpt lat="40.428017" lon="-5.307650">
        <ele>2023.0</ele>
        <time>2013-05-12T12:06:46Z</time>
      </trkpt>
      <trkpt lat="40.428050" lon="-5.307717">
        <ele>2022.0</ele>
        <time>2013-05-12T12:06:47Z</time>
      </trkpt>
      <trkpt lat="40.428100" lon="-5.307767">
        <ele>2020.0</ele>
        <time>2013-05-12T12:06:48Z</time>
      </trkpt>
      <trkpt lat="40.428150" lon="-5.307833">
        <ele>2019.0</ele>
        <time>2013-05-12T12:06:49Z</time>
      </trkpt>
      <trkpt lat="40.428183" lon="-5.307900">
        <ele>2018.0</ele>
        <time>2013-05-12T12:06:50Z</time>
      </trkpt>
      <trkpt lat="40.428200" lon="-5.307950">
        <ele>2017.0</ele>
        <time>2013-05-12T12:06:51Z</time>
      </trkpt>
      <trkpt lat="40.428233" lon="-5.307983">
        <ele>2015.0</ele>
        <time>2013-05-12T12:06:52Z</time>
      </trkpt>
      <trkpt lat="40.428267" lon="-5.308033">
        <ele>2012.0</ele>
        <time>2013-05-12T12:06:53Z</time>
      </trkpt>
      <trkpt lat="40.428283" lon="-5.308083">
        <ele>2009.0</ele>
        <time>2013-05-12T12:06:54Z</time>
      </trkpt>
      <trkpt lat="40.428317" lon="-5.308133">
        <ele>2006.0</ele>
        <time>2013-05-12T12:06:55Z</time>
      </trkpt>
      <trkpt lat="40.428350" lon="-5.308200">
        <ele>2002.0</ele>
        <time>2013-05-12T12:06:56Z</time>
      </trkpt>
      <trkpt lat="40.428383" lon="-5.308267">
        <ele>1999.0</ele>
        <time>2013-05-12T12:06:57Z</time>
      </trkpt>
      <trkpt lat="40.428417" lon="-5.308333">
        <ele>1997.0</ele>
        <time>2013-05-12T12:06:58Z</time>
      </trkpt>
      <trkpt lat="40.428433" lon="-5.308400">
        <ele>1995.0</ele>
        <time>2013-05-12T12:06:59Z</time>
      </trkpt>
      <trkpt lat="40.428450" lon="-5.308450">
        <ele>1992.0</ele>
        <time>2013-05-12T12:07:00Z</time>
      </trkpt>
      <trkpt lat="40.428450" lon="-5.308517">
        <ele>1989.0</ele>
        <time>2013-05-12T12:07:01Z</time>
      </trkpt>
      <trkpt lat="40.428467" lon="-5.308583">
        <ele>1985.0</ele>
        <time>2013-05-12T12:07:02Z</time>
      </trkpt>
      <trkpt lat="40.428467" lon="-5.308667">
        <ele>1981.0</ele>
        <time>2013-05-12T12:07:03Z</time>
      </trkpt>
      <trkpt lat="40.428450" lon="-5.308750">
        <ele>1978.0</ele>
        <time>2013-05-12T12:07:04Z</time>
      </trkpt>
      <trkpt lat="40.428450" lon="-5.308817">
        <ele>1976.0</ele>
        <time>2013-05-12T12:07:05Z</time>
      </trkpt>
      <trkpt lat="40.428433" lon="-5.308883">
        <ele>1973.0</ele>
        <time>2013-05-12T12:07:06Z</time>
      </trkpt>
      <trkpt lat="40.428433" lon="-5.308967">
        <ele>1971.0</ele>
        <time>2013-05-12T12:07:07Z</time>
      </trkpt>
      <trkpt lat="40.428417" lon="-5.309033">
        <ele>1968.0</ele>
        <time>2013-05-12T12:07:08Z</time>
      </trkpt>
      <trkpt lat="40.428433" lon="-5.309100">
        <ele>1964.0</ele>
        <time>2013-05-12T12:07:09Z</time>
      </trkpt>
      <trkpt lat="40.428433" lon="-5.309183">
        <ele>1960.0</ele>
        <time>2013-05-12T12:07:10Z</time>
      </trkpt>
      <trkpt lat="40.428450" lon="-5.309250">
        <ele>1957.0</ele>
        <time>2013-05-12T12:07:11Z</time>
      </trkpt>
      <trkpt lat="40.428467" lon="-5.309333">
        <ele>1955.0</ele>
        <time>2013-05-12T12:07:12Z</time>
      </trkpt>
      <trkpt lat="40.428483" lon="-5.309417">
        <ele>1952.0</ele>
        <time>2013-05-12T12:07:13Z</time>
      </trkpt>
      <trkpt lat="40.428500" lon="-5.309500">
        <ele>1950.0</ele>
        <time>2013-05-12T12:07:14Z</time>
      </trkpt>
      <trkpt lat="40.428500" lon="-5.309567">
        <ele>1948.0</ele>
        <time>2013-05-12T12:07:15Z</time>
      </trkpt>
      <trkpt lat="40.428517" lon="-5.309650">
        <ele>1946.0</ele>
        <time>2013-05-12T12:07:16Z</time>
      </trkpt>
      <trkpt lat="40.428533" lon="-5.309717">
        <ele>1944.0</ele>
        <time>2013-05-12T12:07:17Z</time>
      </trkpt>
      <trkpt lat="40.428550" lon="-5.309783">
        <ele>1941.0</ele>
        <time>2013-05-12T12:07:18Z</time>
      </trkpt>
      <trkpt lat="40.428567" lon="-5.309867">
        <ele>1938.0</ele>
        <time>2013-05-12T12:07:19Z</time>
      </trkpt>
      <trkpt lat="40.428567" lon="-5.309950">
        <ele>1935.0</ele>
        <time>2013-05-12T12:07:20Z</time>
      </trkpt>
      <trkpt lat="40.428583" lon="-5.310033">
        <ele>1932.0</ele>
        <time>2013-05-12T12:07:21Z</time>
      </trkpt>
      <trkpt lat="40.428600" lon="-5.310117">
        <ele>1929.0</ele>
        <time>2013-05-12T12:07:22Z</time>
      </trkpt>
      <trkpt lat="40.428600" lon="-5.310183">
        <ele>1927.0</ele>
        <time>2013-05-12T12:07:23Z</time>
      </trkpt>
      <trkpt lat="40.428617" lon="-5.310267">
        <ele>1924.0</ele>
        <time>2013-05-12T12:07:24Z</time>
      </trkpt>
      <trkpt lat="40.428633" lon="-5.310350">
        <ele>1921.0</ele>
        <time>2013-05-12T12:07:25Z</time>
      </trkpt>
      <trkpt lat="40.428650" lon="-5.310433">
        <ele>1919.0</ele>
        <time>2013-05-12T12:07:26Z</time>
      </trkpt>
      <trkpt lat="40.428683" lon="-5.310500">
        <ele>1916.0</ele>
        <time>2013-05-12T12:07:27Z</time>
      </trkpt>
      <trkpt lat="40.428700" lon="-5.310567">
        <ele>1914.0</ele>
        <time>2013-05-12T12:07:28Z</time>
      </trkpt>
      <trkpt lat="40.428700" lon="-5.310650">
        <ele>1911.0</ele>
        <time>2013-05-12T12:07:29Z</time>
      </trkpt>
      <trkpt lat="40.428700" lon="-5.310717">
        <ele>1908.0</ele>
        <time>2013-05-12T12:07:30Z</time>
      </trkpt>
      <trkpt lat="40.428717" lon="-5.310783">
        <ele>1905.0</ele>
        <time>2013-05-12T12:07:31Z</time>
      </trkpt>
      <trkpt lat="40.428733" lon="-5.310867">
        <ele>1900.0</ele>
        <time>2013-05-12T12:07:32Z</time>
      </trkpt>
      <trkpt lat="40.428750" lon="-5.310967">
        <ele>1897.0</ele>
        <time>2013-05-12T12:07:33Z</time>
      </trkpt>
      <trkpt lat="40.428767" lon="-5.311067">
        <ele>1894.0</ele>
        <time>2013-05-12T12:07:34Z</time>
      </trkpt>
      <trkpt lat="40.428767" lon="-5.311150">
        <ele>1892.0</ele>
        <time>2013-05-12T12:07:35Z</time>
      </trkpt>
      <trkpt lat="40.428783" lon="-5.311233">
        <ele>1889.0</ele>
        <time>2013-05-12T12:07:36Z</time>
      </trkpt>
      <trkpt lat="40.428800" lon="-5.311317">
        <ele>1887.0</ele>
        <time>2013-05-12T12:07:37Z</time>
      </trkpt>
      <trkpt lat="40.428817" lon="-5.311400">
        <ele>1884.0</ele>
        <time>2013-05-12T12:07:38Z</time>
      </trkpt>
      <trkpt lat="40.428833" lon="-5.311483">
        <ele>1881.0</ele>
        <time>2013-05-12T12:07:39Z</time>
      </trkpt>
      <trkpt lat="40.428850" lon="-5.311567">
        <ele>1878.0</ele>
        <time>2013-05-12T12:07:40Z</time>
      </trkpt>
      <trkpt lat="40.428867" lon="-5.311650">
        <ele>1875.0</ele>
        <time>2013-05-12T12:07:41Z</time>
      </trkpt>
      <trkpt lat="40.428883" lon="-5.311750">
        <ele>1872.0</ele>
        <time>2013-05-12T12:07:42Z</time>
      </trkpt>
      <trkpt lat="40.428900" lon="-5.311833">
        <ele>1869.0</ele>
        <time>2013-05-12T12:07:43Z</time>
      </trkpt>
      <trkpt lat="40.428917" lon="-5.311900">
        <ele>1866.0</ele>
        <time>2013-05-12T12:07:44Z</time>
      </trkpt>
      <trkpt lat="40.428933" lon="-5.311983">
        <ele>1863.0</ele>
        <time>2013-05-12T12:07:45Z</time>
      </trkpt>
      <trkpt lat="40.428967" lon="-5.312067">
        <ele>1860.0</ele>
        <time>2013-05-12T12:07:46Z</time>
      </trkpt>
      <trkpt lat="40.428983" lon="-5.312150">
        <ele>1856.0</ele>
        <time>2013-05-12T12:07:47Z</time>
      </trkpt>
      <trkpt lat="40.429000" lon="-5.312233">
        <ele>1852.0</ele>
        <time>2013-05-12T12:07:48Z</time>
      </trkpt>
      <trkpt lat="40.429033" lon="-5.312333">
        <ele>1849.0</ele>
        <time>2013-05-12T12:07:49Z</time>
      </trkpt>
      <trkpt lat="40.429067" lon="-5.312417">
        <ele>1848.0</ele>
        <time>2013-05-12T12:07:50Z</time>
      </trkpt>
      <trkpt lat="40.429083" lon="-5.312500">
        <ele>1847.0</ele>
        <time>2013-05-12T12:07:51Z</time>
      </trkpt>
      <trkpt lat="40.429117" lon="-5.312567">
        <ele>1845.0</ele>
        <time>2013-05-12T12:07:52Z</time>
      </trkpt>
      <trkpt lat="40.429133" lon="-5.312650">
        <ele>1844.0</ele>
        <time>2013-05-12T12:07:53Z</time>
      </trkpt>
      <trkpt lat="40.429150" lon="-5.312733">
        <ele>1842.0</ele>
        <time>2013-05-12T12:07:54Z</time>
      </trkpt>
      <trkpt lat="40.429183" lon="-5.312817">
        <ele>1839.0</ele>
        <time>2013-05-12T12:07:55Z</time>
      </trkpt>
      <trkpt lat="40.429200" lon="-5.312900">
        <ele>1837.0</ele>
        <time>2013-05-12T12:07:56Z</time>
      </trkpt>
      <trkpt lat="40.429217" lon="-5.312983">
        <ele>1835.0</ele>
        <time>2013-05-12T12:07:57Z</time>
      </trkpt>
      <trkpt lat="40.429233" lon="-5.313067">
        <ele>1832.0</ele>
        <time>2013-05-12T12:07:58Z</time>
      </trkpt>
      <trkpt lat="40.429267" lon="-5.313150">
        <ele>1829.0</ele>
        <time>2013-05-12T12:07:59Z</time>
      </trkpt>
      <trkpt lat="40.429283" lon="-5.313233">
        <ele>1827.0</ele>
        <time>2013-05-12T12:08:00Z</time>
      </trkpt>
      <trkpt lat="40.429317" lon="-5.313300">
        <ele>1825.0</ele>
        <time>2013-05-12T12:08:01Z</time>
      </trkpt>
      <trkpt lat="40.429333" lon="-5.313383">
        <ele>1824.0</ele>
        <time>2013-05-12T12:08:02Z</time>
      </trkpt>
      <trkpt lat="40.429367" lon="-5.313450">
        <ele>1822.0</ele>
        <time>2013-05-12T12:08:03Z</time>
      </trkpt>
      <trkpt lat="40.429367" lon="-5.313517">
        <ele>1820.0</ele>
        <time>2013-05-12T12:08:04Z</time>
      </trkpt>
      <trkpt lat="40.429383" lon="-5.313600">
        <ele>1818.0</ele>
        <time>2013-05-12T12:08:05Z</time>
      </trkpt>
      <trkpt lat="40.429400" lon="-5.313683">
        <ele>1816.0</ele>
        <time>2013-05-12T12:08:06Z</time>
      </trkpt>
      <trkpt lat="40.429417" lon="-5.313767">
        <ele>1814.0</ele>
        <time>2013-05-12T12:08:07Z</time>
      </trkpt>
      <trkpt lat="40.429433" lon="-5.313850">
        <ele>1813.0</ele>
        <time>2013-05-12T12:08:08Z</time>
      </trkpt>
      <trkpt lat="40.429450" lon="-5.313933">
        <ele>1811.0</ele>
        <time>2013-05-12T12:08:09Z</time>
      </trkpt>
      <trkpt lat="40.429467" lon="-5.314017">
        <ele>1809.0</ele>
        <time>2013-05-12T12:08:10Z</time>
      </trkpt>
      <trkpt lat="40.429483" lon="-5.314100">
        <ele>1807.0</ele>
        <time>2013-05-12T12:08:11Z</time>
      </trkpt>
      <trkpt lat="40.429517" lon="-5.314183">
        <ele>1804.0</ele>
        <time>2013-05-12T12:08:12Z</time>
      </trkpt>
      <trkpt lat="40.429533" lon="-5.314267">
        <ele>1802.0</ele>
        <time>2013-05-12T12:08:13Z</time>
      </trkpt>
      <trkpt lat="40.429567" lon="-5.314350">
        <ele>1802.0</ele>
        <time>2013-05-12T12:08:14Z</time>
      </trkpt>
      <trkpt lat="40.429583" lon="-5.314417">
        <ele>1802.0</ele>
        <time>2013-05-12T12:08:15Z</time>
      </trkpt>
      <trkpt lat="40.429600" lon="-5.314467">
        <ele>1802.0</ele>
        <time>2013-05-12T12:08:16Z</time>
      </trkpt>
      <trkpt lat="40.429633" lon="-5.314533">
        <ele>1799.0</ele>
        <time>2013-05-12T12:08:17Z</time>
      </trkpt>
      <trkpt lat="40.429667" lon="-5.314600">
        <ele>1796.0</ele>
        <time>2013-05-12T12:08:18Z</time>
      </trkpt>
      <trkpt lat="40.429700" lon="-5.314667">
        <ele>1793.0</ele>
        <time>2013-05-12T12:08:19Z</time>
      </trkpt>
      <trkpt lat="40.429717" lon="-5.314767">
        <ele>1791.0</ele>
        <time>2013-05-12T12:08:20Z</time>
      </trkpt>
      <trkpt lat="40.429750" lon="-5.314850">
        <ele>1790.0</ele>
        <time>2013-05-12T12:08:21Z</time>
      </trkpt>
      <trkpt lat="40.429783" lon="-5.314917">
        <ele>1789.0</ele>
        <time>2013-05-12T12:08:22Z</time>
      </trkpt>
      <trkpt lat="40.429817" lon="-5.314983">
        <ele>1788.0</ele>
        <time>2013-05-12T12:08:23Z</time>
      </trkpt>
      <trkpt lat="40.429867" lon="-5.315050">
        <ele>1787.0</ele>
        <time>2013-05-12T12:08:24Z</time>
      </trkpt>
      <trkpt lat="40.429917" lon="-5.315117">
        <ele>1785.0</ele>
        <time>2013-05-12T12:08:25Z</time>
      </trkpt>
      <trkpt lat="40.429967" lon="-5.315200">
        <ele>1784.0</ele>
        <time>2013-05-12T12:08:26Z</time>
      </trkpt>
      <trkpt lat="40.430017" lon="-5.315267">
        <ele>1785.0</ele>
        <time>2013-05-12T12:08:27Z</time>
      </trkpt>
      <trkpt lat="40.430067" lon="-5.315317">
        <ele>1787.0</ele>
        <time>2013-05-12T12:08:28Z</time>
      </trkpt>
      <trkpt lat="40.430083" lon="-5.315367">
        <ele>1789.0</ele>
        <time>2013-05-12T12:08:29Z</time>
      </trkpt>
      <trkpt lat="40.430100" lon="-5.315417">
        <ele>1790.0</ele>
        <time>2013-05-12T12:08:30Z</time>
      </trkpt>
      <trkpt lat="40.430117" lon="-5.315467">
        <ele>1789.0</ele>
        <time>2013-05-12T12:08:31Z</time>
      </trkpt>
      <trkpt lat="40.430133" lon="-5.315517">
        <ele>1787.0</ele>
        <time>2013-05-12T12:08:32Z</time>
      </trkpt>
      <trkpt lat="40.430150" lon="-5.315583">
        <ele>1784.0</ele>
        <time>2013-05-12T12:08:33Z</time>
      </trkpt>
      <trkpt lat="40.430200" lon="-5.315667">
        <ele>1782.0</ele>
        <time>2013-05-12T12:08:34Z</time>
      </trkpt>
      <trkpt lat="40.430250" lon="-5.315733">
        <ele>1782.0</ele>
        <time>2013-05-12T12:08:35Z</time>
      </trkpt>
      <trkpt lat="40.430300" lon="-5.315800">
        <ele>1783.0</ele>
        <time>2013-05-12T12:08:36Z</time>
      </trkpt>
      <trkpt lat="40.430367" lon="-5.315850">
        <ele>1784.0</ele>
        <time>2013-05-12T12:08:37Z</time>
      </trkpt>
      <trkpt lat="40.430417" lon="-5.315900">
        <ele>1785.0</ele>
        <time>2013-05-12T12:08:38Z</time>
      </trkpt>
      <trkpt lat="40.430467" lon="-5.315950">
        <ele>1786.0</ele>
        <time>2013-05-12T12:08:39Z</time>
      </trkpt>
      <trkpt lat="40.430517" lon="-5.315983">
        <ele>1787.0</ele>
        <time>2013-05-12T12:08:40Z</time>
      </trkpt>
      <trkpt lat="40.430583" lon="-5.316033">
        <ele>1787.0</ele>
        <time>2013-05-12T12:08:41Z</time>
      </trkpt>
      <trkpt lat="40.430650" lon="-5.316067">
        <ele>1788.0</ele>
        <time>2013-05-12T12:08:42Z</time>
      </trkpt>
      <trkpt lat="40.430717" lon="-5.316100">
        <ele>1789.0</ele>
        <time>2013-05-12T12:08:43Z</time>
      </trkpt>
      <trkpt lat="40.430783" lon="-5.316117">
        <ele>1789.0</ele>
        <time>2013-05-12T12:08:44Z</time>
      </trkpt>
      <trkpt lat="40.430833" lon="-5.316117">
        <ele>1789.0</ele>
        <time>2013-05-12T12:08:45Z</time>
      </trkpt>
      <trkpt lat="40.430917" lon="-5.316083">
        <ele>1788.0</ele>
        <time>2013-05-12T12:08:46Z</time>
      </trkpt>
      <trkpt lat="40.430967" lon="-5.316017">
        <ele>1788.0</ele>
        <time>2013-05-12T12:08:47Z</time>
      </trkpt>
      <trkpt lat="40.431017" lon="-5.315917">
        <ele>1789.0</ele>
        <time>2013-05-12T12:08:48Z</time>
      </trkpt>
      <trkpt lat="40.431033" lon="-5.315817">
        <ele>1790.0</ele>
        <time>2013-05-12T12:08:49Z</time>
      </trkpt>
      <trkpt lat="40.431017" lon="-5.315717">
        <ele>1791.0</ele>
        <time>2013-05-12T12:08:50Z</time>
      </trkpt>
      <trkpt lat="40.430983" lon="-5.315617">
        <ele>1792.0</ele>
        <time>2013-05-12T12:08:51Z</time>
      </trkpt>
      <trkpt lat="40.430917" lon="-5.315533">
        <ele>1793.0</ele>
        <time>2013-05-12T12:08:52Z</time>
      </trkpt>
      <trkpt lat="40.430833" lon="-5.315467">
        <ele>1793.0</ele>
        <time>2013-05-12T12:08:53Z</time>
      </trkpt>
      <trkpt lat="40.430733" lon="-5.315417">
        <ele>1794.0</ele>
        <time>2013-05-12T12:08:54Z</time>
      </trkpt>
      <trkpt lat="40.430650" lon="-5.315383">
        <ele>1795.0</ele>
        <time>2013-05-12T12:08:55Z</time>
      </trkpt>
      <trkpt lat="40.430567" lon="-5.315367">
        <ele>1795.0</ele>
        <time>2013-05-12T12:08:56Z</time>
      </trkpt>
      <trkpt lat="40.430483" lon="-5.315383">
        <ele>1795.0</ele>
        <time>2013-05-12T12:08:57Z</time>
      </trkpt>
      <trkpt lat="40.430400" lon="-5.315433">
        <ele>1793.0</ele>
        <time>2013-05-12T12:08:58Z</time>
      </trkpt>
      <trkpt lat="40.430317" lon="-5.315517">
        <ele>1791.0</ele>
        <time>2013-05-12T12:08:59Z</time>
      </trkpt>
      <trkpt lat="40.430267" lon="-5.315600">
        <ele>1791.0</ele>
        <time>2013-05-12T12:09:00Z</time>
      </trkpt>
      <trkpt lat="40.430200" lon="-5.315700">
        <ele>1791.0</ele>
        <time>2013-05-12T12:09:01Z</time>
      </trkpt>
      <trkpt lat="40.430150" lon="-5.315783">
        <ele>1793.0</ele>
        <time>2013-05-12T12:09:02Z</time>
      </trkpt>
      <trkpt lat="40.430100" lon="-5.315883">
        <ele>1796.0</ele>
        <time>2013-05-12T12:09:03Z</time>
      </trkpt>
      <trkpt lat="40.430050" lon="-5.315967">
        <ele>1798.0</ele>
        <time>2013-05-12T12:09:04Z</time>
      </trkpt>
      <trkpt lat="40.429983" lon="-5.316050">
        <ele>1801.0</ele>
        <time>2013-05-12T12:09:05Z</time>
      </trkpt>
      <trkpt lat="40.429933" lon="-5.316117">
        <ele>1803.0</ele>
        <time>2013-05-12T12:09:06Z</time>
      </trkpt>
      <trkpt lat="40.429883" lon="-5.316183">
        <ele>1805.0</ele>
        <time>2013-05-12T12:09:07Z</time>
      </trkpt>
      <trkpt lat="40.429867" lon="-5.316250">
        <ele>1806.0</ele>
        <time>2013-05-12T12:09:08Z</time>
      </trkpt>
      <trkpt lat="40.429850" lon="-5.316350">
        <ele>1807.0</ele>
        <time>2013-05-12T12:09:09Z</time>
      </trkpt>
      <trkpt lat="40.429867" lon="-5.316433">
        <ele>1808.0</ele>
        <time>2013-05-12T12:09:10Z</time>
      </trkpt>
      <trkpt lat="40.429883" lon="-5.316517">
        <ele>1809.0</ele>
        <time>2013-05-12T12:09:11Z</time>
      </trkpt>
      <trkpt lat="40.429917" lon="-5.316583">
        <ele>1811.0</ele>
        <time>2013-05-12T12:09:12Z</time>
      </trkpt>
      <trkpt lat="40.429967" lon="-5.316633">
        <ele>1812.0</ele>
        <time>2013-05-12T12:09:13Z</time>
      </trkpt>
      <trkpt lat="40.430033" lon="-5.316683">
        <ele>1813.0</ele>
        <time>2013-05-12T12:09:14Z</time>
      </trkpt>
      <trkpt lat="40.430100" lon="-5.316733">
        <ele>1813.0</ele>
        <time>2013-05-12T12:09:15Z</time>
      </trkpt>
      <trkpt lat="40.430183" lon="-5.316767">
        <ele>1815.0</ele>
        <time>2013-05-12T12:09:16Z</time>
      </trkpt>
      <trkpt lat="40.430267" lon="-5.316767">
        <ele>1816.0</ele>
        <time>2013-05-12T12:09:17Z</time>
      </trkpt>
      <trkpt lat="40.430333" lon="-5.316717">
        <ele>1816.0</ele>
        <time>2013-05-12T12:09:18Z</time>
      </trkpt>
      <trkpt lat="40.430383" lon="-5.316617">
        <ele>1815.0</ele>
        <time>2013-05-12T12:09:19Z</time>
      </trkpt>
      <trkpt lat="40.430433" lon="-5.316533">
        <ele>1815.0</ele>
        <time>2013-05-12T12:09:20Z</time>
      </trkpt>
      <trkpt lat="40.430467" lon="-5.316450">
        <ele>1816.0</ele>
        <time>2013-05-12T12:09:21Z</time>
      </trkpt>
      <trkpt lat="40.430483" lon="-5.316350">
        <ele>1815.0</ele>
        <time>2013-05-12T12:09:22Z</time>
      </trkpt>
      <trkpt lat="40.430500" lon="-5.316250">
        <ele>1814.0</ele>
        <time>2013-05-12T12:09:23Z</time>
      </trkpt>
      <trkpt lat="40.430483" lon="-5.316117">
        <ele>1811.0</ele>
        <time>2013-05-12T12:09:24Z</time>
      </trkpt>
      <trkpt lat="40.430450" lon="-5.315967">
        <ele>1809.0</ele>
        <time>2013-05-12T12:09:25Z</time>
      </trkpt>
      <trkpt lat="40.430400" lon="-5.315833">
        <ele>1809.0</ele>
        <time>2013-05-12T12:09:26Z</time>
      </trkpt>
      <trkpt lat="40.430350" lon="-5.315717">
        <ele>1810.0</ele>
        <time>2013-05-12T12:09:27Z</time>
      </trkpt>
      <trkpt lat="40.430317" lon="-5.315617">
        <ele>1812.0</ele>
        <time>2013-05-12T12:09:28Z</time>
      </trkpt>
      <trkpt lat="40.430283" lon="-5.315517">
        <ele>1812.0</ele>
        <time>2013-05-12T12:09:29Z</time>
      </trkpt>
      <trkpt lat="40.430233" lon="-5.315433">
        <ele>1811.0</ele>
        <time>2013-05-12T12:09:30Z</time>
      </trkpt>
      <trkpt lat="40.430150" lon="-5.315333">
        <ele>1810.0</ele>
        <time>2013-05-12T12:09:31Z</time>
      </trkpt>
      <trkpt lat="40.430067" lon="-5.315250">
        <ele>1810.0</ele>
        <time>2013-05-12T12:09:32Z</time>
      </trkpt>
      <trkpt lat="40.429967" lon="-5.315200">
        <ele>1811.0</ele>
        <time>2013-05-12T12:09:33Z</time>
      </trkpt>
      <trkpt lat="40.429883" lon="-5.315183">
        <ele>1813.0</ele>
        <time>2013-05-12T12:09:34Z</time>
      </trkpt>
      <trkpt lat="40.429800" lon="-5.315183">
        <ele>1814.0</ele>
        <time>2013-05-12T12:09:35Z</time>
      </trkpt>
      <trkpt lat="40.429717" lon="-5.315183">
        <ele>1815.0</ele>
        <time>2013-05-12T12:09:36Z</time>
      </trkpt>
      <trkpt lat="40.429633" lon="-5.315200">
        <ele>1814.0</ele>
        <time>2013-05-12T12:09:37Z</time>
      </trkpt>
      <trkpt lat="40.429550" lon="-5.315233">
        <ele>1815.0</ele>
        <time>2013-05-12T12:09:38Z</time>
      </trkpt>
      <trkpt lat="40.429483" lon="-5.315300">
        <ele>1815.0</ele>
        <time>2013-05-12T12:09:39Z</time>
      </trkpt>
      <trkpt lat="40.429433" lon="-5.315383">
        <ele>1816.0</ele>
        <time>2013-05-12T12:09:40Z</time>
      </trkpt>
      <trkpt lat="40.429383" lon="-5.315467">
        <ele>1817.0</ele>
        <time>2013-05-12T12:09:41Z</time>
      </trkpt>
      <trkpt lat="40.429333" lon="-5.315550">
        <ele>1820.0</ele>
        <time>2013-05-12T12:09:42Z</time>
      </trkpt>
      <trkpt lat="40.429300" lon="-5.315617">
        <ele>1822.0</ele>
        <time>2013-05-12T12:09:43Z</time>
      </trkpt>
      <trkpt lat="40.429283" lon="-5.315683">
        <ele>1825.0</ele>
        <time>2013-05-12T12:09:44Z</time>
      </trkpt>
      <trkpt lat="40.429267" lon="-5.315767">
        <ele>1826.0</ele>
        <time>2013-05-12T12:09:45Z</time>
      </trkpt>
      <trkpt lat="40.429250" lon="-5.315833">
        <ele>1828.0</ele>
        <time>2013-05-12T12:09:46Z</time>
      </trkpt>
      <trkpt lat="40.429233" lon="-5.315900">
        <ele>1828.0</ele>
        <time>2013-05-12T12:09:47Z</time>
      </trkpt>
      <trkpt lat="40.429217" lon="-5.315983">
        <ele>1829.0</ele>
        <time>2013-05-12T12:09:48Z</time>
      </trkpt>
      <trkpt lat="40.429233" lon="-5.316050">
        <ele>1829.0</ele>
        <time>2013-05-12T12:09:49Z</time>
      </trkpt>
      <trkpt lat="40.429283" lon="-5.316133">
        <ele>1828.0</ele>
        <time>2013-05-12T12:09:50Z</time>
      </trkpt>
      <trkpt lat="40.429333" lon="-5.316217">
        <ele>1828.0</ele>
        <time>2013-05-12T12:09:51Z</time>
      </trkpt>
      <trkpt lat="40.429400" lon="-5.316300">
        <ele>1830.0</ele>
        <time>2013-05-12T12:09:52Z</time>
      </trkpt>
      <trkpt lat="40.429450" lon="-5.316367">
        <ele>1832.0</ele>
        <time>2013-05-12T12:09:53Z</time>
      </trkpt>
      <trkpt lat="40.429500" lon="-5.316433">
        <ele>1834.0</ele>
        <time>2013-05-12T12:09:54Z</time>
      </trkpt>
      <trkpt lat="40.429533" lon="-5.316483">
        <ele>1835.0</ele>
        <time>2013-05-12T12:09:55Z</time>
      </trkpt>
      <trkpt lat="40.429583" lon="-5.316533">
        <ele>1835.0</ele>
        <time>2013-05-12T12:09:56Z</time>
      </trkpt>
      <trkpt lat="40.429650" lon="-5.316600">
        <ele>1834.0</ele>
        <time>2013-05-12T12:09:57Z</time>
      </trkpt>
      <trkpt lat="40.429733" lon="-5.316650">
        <ele>1834.0</ele>
        <time>2013-05-12T12:09:58Z</time>
      </trkpt>
      <trkpt lat="40.429800" lon="-5.316683">
        <ele>1835.0</ele>
        <time>2013-05-12T12:09:59Z</time>
      </trkpt>
      <trkpt lat="40.429867" lon="-5.316700">
        <ele>1834.0</ele>
        <time>2013-05-12T12:10:00Z</time>
      </trkpt>
      <trkpt lat="40.429933" lon="-5.316683">
        <ele>1833.0</ele>
        <time>2013-05-12T12:10:01Z</time>
      </trkpt>
      <trkpt lat="40.430000" lon="-5.316650">
        <ele>1832.0</ele>
        <time>2013-05-12T12:10:02Z</time>
      </trkpt>
      <trkpt lat="40.430067" lon="-5.316583">
        <ele>1830.0</ele>
        <time>2013-05-12T12:10:03Z</time>
      </trkpt>
      <trkpt lat="40.430150" lon="-5.316517">
        <ele>1828.0</ele>
        <time>2013-05-12T12:10:04Z</time>
      </trkpt>
      <trkpt lat="40.430200" lon="-5.316417">
        <ele>1828.0</ele>
        <time>2013-05-12T12:10:05Z</time>
      </trkpt>
      <trkpt lat="40.430233" lon="-5.316300">
        <ele>1827.0</ele>
        <time>2013-05-12T12:10:06Z</time>
      </trkpt>
      <trkpt lat="40.430250" lon="-5.316183">
        <ele>1826.0</ele>
        <time>2013-05-12T12:10:07Z</time>
      </trkpt>
      <trkpt lat="40.430250" lon="-5.316050">
        <ele>1824.0</ele>
        <time>2013-05-12T12:10:08Z</time>
      </trkpt>
      <trkpt lat="40.430217" lon="-5.315917">
        <ele>1823.0</ele>
        <time>2013-05-12T12:10:09Z</time>
      </trkpt>
      <trkpt lat="40.430183" lon="-5.315800">
        <ele>1823.0</ele>
        <time>2013-05-12T12:10:10Z</time>
      </trkpt>
      <trkpt lat="40.430150" lon="-5.315683">
        <ele>1822.0</ele>
        <time>2013-05-12T12:10:11Z</time>
      </trkpt>
      <trkpt lat="40.430083" lon="-5.315583">
        <ele>1822.0</ele>
        <time>2013-05-12T12:10:12Z</time>
      </trkpt>
      <trkpt lat="40.430033" lon="-5.315483">
        <ele>1822.0</ele>
        <time>2013-05-12T12:10:13Z</time>
      </trkpt>
      <trkpt lat="40.429967" lon="-5.315417">
        <ele>1822.0</ele>
        <time>2013-05-12T12:10:14Z</time>
      </trkpt>
      <trkpt lat="40.429917" lon="-5.315350">
        <ele>1821.0</ele>
        <time>2013-05-12T12:10:15Z</time>
      </trkpt>
      <trkpt lat="40.429833" lon="-5.315283">
        <ele>1820.0</ele>
        <time>2013-05-12T12:10:16Z</time>
      </trkpt>
      <trkpt lat="40.429750" lon="-5.315217">
        <ele>1818.0</ele>
        <time>2013-05-12T12:10:17Z</time>
      </trkpt>
      <trkpt lat="40.429650" lon="-5.315150">
        <ele>1816.0</ele>
        <time>2013-05-12T12:10:18Z</time>
      </trkpt>
      <trkpt lat="40.429550" lon="-5.315100">
        <ele>1815.0</ele>
        <time>2013-05-12T12:10:19Z</time>
      </trkpt>
      <trkpt lat="40.429433" lon="-5.315067">
        <ele>1814.0</ele>
        <time>2013-05-12T12:10:20Z</time>
      </trkpt>
      <trkpt lat="40.429350" lon="-5.315067">
        <ele>1814.0</ele>
        <time>2013-05-12T12:10:21Z</time>
      </trkpt>
      <trkpt lat="40.429250" lon="-5.315083">
        <ele>1813.0</ele>
        <time>2013-05-12T12:10:22Z</time>
      </trkpt>
      <trkpt lat="40.429167" lon="-5.315117">
        <ele>1812.0</ele>
        <time>2013-05-12T12:10:23Z</time>
      </trkpt>
      <trkpt lat="40.429067" lon="-5.315167">
        <ele>1812.0</ele>
        <time>2013-05-12T12:10:24Z</time>
      </trkpt>
      <trkpt lat="40.428967" lon="-5.315217">
        <ele>1812.0</ele>
        <time>2013-05-12T12:10:25Z</time>
      </trkpt>
      <trkpt lat="40.428883" lon="-5.315283">
        <ele>1814.0</ele>
        <time>2013-05-12T12:10:26Z</time>
      </trkpt>
      <trkpt lat="40.428817" lon="-5.315350">
        <ele>1816.0</ele>
        <time>2013-05-12T12:10:27Z</time>
      </trkpt>
      <trkpt lat="40.428733" lon="-5.315417">
        <ele>1819.0</ele>
        <time>2013-05-12T12:10:28Z</time>
      </trkpt>
      <trkpt lat="40.428667" lon="-5.315467">
        <ele>1822.0</ele>
        <time>2013-05-12T12:10:29Z</time>
      </trkpt>
      <trkpt lat="40.428600" lon="-5.315517">
        <ele>1826.0</ele>
        <time>2013-05-12T12:10:30Z</time>
      </trkpt>
      <trkpt lat="40.428533" lon="-5.315583">
        <ele>1829.0</ele>
        <time>2013-05-12T12:10:31Z</time>
      </trkpt>
      <trkpt lat="40.428483" lon="-5.315667">
        <ele>1831.0</ele>
        <time>2013-05-12T12:10:32Z</time>
      </trkpt>
      <trkpt lat="40.428433" lon="-5.315750">
        <ele>1834.0</ele>
        <time>2013-05-12T12:10:33Z</time>
      </trkpt>
      <trkpt lat="40.428400" lon="-5.315850">
        <ele>1836.0</ele>
        <time>2013-05-12T12:10:34Z</time>
      </trkpt>
      <trkpt lat="40.428383" lon="-5.315967">
        <ele>1838.0</ele>
        <time>2013-05-12T12:10:35Z</time>
      </trkpt>
      <trkpt lat="40.428400" lon="-5.316067">
        <ele>1839.0</ele>
        <time>2013-05-12T12:10:36Z</time>
      </trkpt>
      <trkpt lat="40.428433" lon="-5.316167">
        <ele>1840.0</ele>
        <time>2013-05-12T12:10:37Z</time>
      </trkpt>
      <trkpt lat="40.428500" lon="-5.316250">
        <ele>1842.0</ele>
        <time>2013-05-12T12:10:38Z</time>
      </trkpt>
      <trkpt lat="40.428567" lon="-5.316300">
        <ele>1845.0</ele>
        <time>2013-05-12T12:10:39Z</time>
      </trkpt>
      <trkpt lat="40.428633" lon="-5.316317">
        <ele>1848.0</ele>
        <time>2013-05-12T12:10:40Z</time>
      </trkpt>
      <trkpt lat="40.428700" lon="-5.316300">
        <ele>1851.0</ele>
        <time>2013-05-12T12:10:41Z</time>
      </trkpt>
      <trkpt lat="40.428767" lon="-5.316283">
        <ele>1853.0</ele>
        <time>2013-05-12T12:10:42Z</time>
      </trkpt>
      <trkpt lat="40.428833" lon="-5.316233">
        <ele>1855.0</ele>
        <time>2013-05-12T12:10:43Z</time>
      </trkpt>
      <trkpt lat="40.428883" lon="-5.316167">
        <ele>1856.0</ele>
        <time>2013-05-12T12:10:44Z</time>
      </trkpt>
      <trkpt lat="40.428933" lon="-5.316083">
        <ele>1857.0</ele>
        <time>2013-05-12T12:10:45Z</time>
      </trkpt>
      <trkpt lat="40.428933" lon="-5.315983">
        <ele>1856.0</ele>
        <time>2013-05-12T12:10:46Z</time>
      </trkpt>
      <trkpt lat="40.428917" lon="-5.315850">
        <ele>1855.0</ele>
        <time>2013-05-12T12:10:47Z</time>
      </trkpt>
      <trkpt lat="40.428867" lon="-5.315733">
        <ele>1854.0</ele>
        <time>2013-05-12T12:10:48Z</time>
      </trkpt>
      <trkpt lat="40.428800" lon="-5.315633">
        <ele>1854.0</ele>
        <time>2013-05-12T12:10:49Z</time>
      </trkpt>
      <trkpt lat="40.428700" lon="-5.315567">
        <ele>1853.0</ele>
        <time>2013-05-12T12:10:50Z</time>
      </trkpt>
      <trkpt lat="40.428583" lon="-5.315517">
        <ele>1854.0</ele>
        <time>2013-05-12T12:10:51Z</time>
      </trkpt>
      <trkpt lat="40.428467" lon="-5.315500">
        <ele>1854.0</ele>
        <time>2013-05-12T12:10:52Z</time>
      </trkpt>
      <trkpt lat="40.428350" lon="-5.315500">
        <ele>1855.0</ele>
        <time>2013-05-12T12:10:53Z</time>
      </trkpt>
      <trkpt lat="40.428233" lon="-5.315517">
        <ele>1857.0</ele>
        <time>2013-05-12T12:10:54Z</time>
      </trkpt>
      <trkpt lat="40.428150" lon="-5.315567">
        <ele>1859.0</ele>
        <time>2013-05-12T12:10:55Z</time>
      </trkpt>
      <trkpt lat="40.428067" lon="-5.315617">
        <ele>1860.0</ele>
        <time>2013-05-12T12:10:56Z</time>
      </trkpt>
      <trkpt lat="40.428017" lon="-5.315700">
        <ele>1862.0</ele>
        <time>2013-05-12T12:10:57Z</time>
      </trkpt>
      <trkpt lat="40.427967" lon="-5.315800">
        <ele>1864.0</ele>
        <time>2013-05-12T12:10:58Z</time>
      </trkpt>
      <trkpt lat="40.427933" lon="-5.315900">
        <ele>1866.0</ele>
        <time>2013-05-12T12:10:59Z</time>
      </trkpt>
      <trkpt lat="40.427883" lon="-5.316000">
        <ele>1869.0</ele>
        <time>2013-05-12T12:11:00Z</time>
      </trkpt>
      <trkpt lat="40.427850" lon="-5.316083">
        <ele>1873.0</ele>
        <time>2013-05-12T12:11:01Z</time>
      </trkpt>
      <trkpt lat="40.427817" lon="-5.316167">
        <ele>1877.0</ele>
        <time>2013-05-12T12:11:02Z</time>
      </trkpt>
      <trkpt lat="40.427783" lon="-5.316233">
        <ele>1880.0</ele>
        <time>2013-05-12T12:11:03Z</time>
      </trkpt>
      <trkpt lat="40.427750" lon="-5.316317">
        <ele>1883.0</ele>
        <time>2013-05-12T12:11:04Z</time>
      </trkpt>
      <trkpt lat="40.427733" lon="-5.316400">
        <ele>1886.0</ele>
        <time>2013-05-12T12:11:05Z</time>
      </trkpt>
      <trkpt lat="40.427733" lon="-5.316483">
        <ele>1889.0</ele>
        <time>2013-05-12T12:11:06Z</time>
      </trkpt>
      <trkpt lat="40.427733" lon="-5.316550">
        <ele>1891.0</ele>
        <time>2013-05-12T12:11:07Z</time>
      </trkpt>
      <trkpt lat="40.427767" lon="-5.316617">
        <ele>1892.0</ele>
        <time>2013-05-12T12:11:08Z</time>
      </trkpt>
      <trkpt lat="40.427817" lon="-5.316667">
        <ele>1893.0</ele>
        <time>2013-05-12T12:11:09Z</time>
      </trkpt>
      <trkpt lat="40.427900" lon="-5.316717">
        <ele>1895.0</ele>
        <time>2013-05-12T12:11:10Z</time>
      </trkpt>
      <trkpt lat="40.427967" lon="-5.316717">
        <ele>1897.0</ele>
        <time>2013-05-12T12:11:11Z</time>
      </trkpt>
      <trkpt lat="40.428033" lon="-5.316667">
        <ele>1900.0</ele>
        <time>2013-05-12T12:11:12Z</time>
      </trkpt>
      <trkpt lat="40.428083" lon="-5.316600">
        <ele>1902.0</ele>
        <time>2013-05-12T12:11:13Z</time>
      </trkpt>
      <trkpt lat="40.428133" lon="-5.316517">
        <ele>1904.0</ele>
        <time>2013-05-12T12:11:14Z</time>
      </trkpt>
      <trkpt lat="40.428167" lon="-5.316417">
        <ele>1904.0</ele>
        <time>2013-05-12T12:11:15Z</time>
      </trkpt>
      <trkpt lat="40.428167" lon="-5.316283">
        <ele>1905.0</ele>
        <time>2013-05-12T12:11:16Z</time>
      </trkpt>
      <trkpt lat="40.428167" lon="-5.316133">
        <ele>1904.0</ele>
        <time>2013-05-12T12:11:17Z</time>
      </trkpt>
      <trkpt lat="40.428100" lon="-5.316000">
        <ele>1905.0</ele>
        <time>2013-05-12T12:11:18Z</time>
      </trkpt>
      <trkpt lat="40.428033" lon="-5.315867">
        <ele>1907.0</ele>
        <time>2013-05-12T12:11:19Z</time>
      </trkpt>
      <trkpt lat="40.427950" lon="-5.315783">
        <ele>1911.0</ele>
        <time>2013-05-12T12:11:20Z</time>
      </trkpt>
      <trkpt lat="40.427867" lon="-5.315700">
        <ele>1916.0</ele>
        <time>2013-05-12T12:11:21Z</time>
      </trkpt>
      <trkpt lat="40.427800" lon="-5.315650">
        <ele>1920.0</ele>
        <time>2013-05-12T12:11:22Z</time>
      </trkpt>
      <trkpt lat="40.427717" lon="-5.315617">
        <ele>1924.0</ele>
        <time>2013-05-12T12:11:23Z</time>
      </trkpt>
      <trkpt lat="40.427633" lon="-5.315600">
        <ele>1926.0</ele>
        <time>2013-05-12T12:11:24Z</time>
      </trkpt>
      <trkpt lat="40.427533" lon="-5.315617">
        <ele>1928.0</ele>
        <time>2013-05-12T12:11:25Z</time>
      </trkpt>
      <trkpt lat="40.427433" lon="-5.315667">
        <ele>1930.0</ele>
        <time>2013-05-12T12:11:26Z</time>
      </trkpt>
      <trkpt lat="40.427367" lon="-5.315733">
        <ele>1933.0</ele>
        <time>2013-05-12T12:11:27Z</time>
      </trkpt>
      <trkpt lat="40.427333" lon="-5.315817">
        <ele>1936.0</ele>
        <time>2013-05-12T12:11:28Z</time>
      </trkpt>
      <trkpt lat="40.427317" lon="-5.315900">
        <ele>1940.0</ele>
        <time>2013-05-12T12:11:29Z</time>
      </trkpt>
      <trkpt lat="40.427300" lon="-5.315967">
        <ele>1944.0</ele>
        <time>2013-05-12T12:11:30Z</time>
      </trkpt>
      <trkpt lat="40.427300" lon="-5.316033">
        <ele>1947.0</ele>
        <time>2013-05-12T12:11:31Z</time>
      </trkpt>
      <trkpt lat="40.427317" lon="-5.316100">
        <ele>1949.0</ele>
        <time>2013-05-12T12:11:32Z</time>
      </trkpt>
      <trkpt lat="40.427350" lon="-5.316167">
        <ele>1950.0</ele>
        <time>2013-05-12T12:11:33Z</time>
      </trkpt>
      <trkpt lat="40.427417" lon="-5.316217">
        <ele>1952.0</ele>
        <time>2013-05-12T12:11:34Z</time>
      </trkpt>
      <trkpt lat="40.427483" lon="-5.316233">
        <ele>1954.0</ele>
        <time>2013-05-12T12:11:35Z</time>
      </trkpt>
      <trkpt lat="40.427550" lon="-5.316233">
        <ele>1957.0</ele>
        <time>2013-05-12T12:11:36Z</time>
      </trkpt>
      <trkpt lat="40.427617" lon="-5.316200">
        <ele>1960.0</ele>
        <time>2013-05-12T12:11:37Z</time>
      </trkpt>
      <trkpt lat="40.427683" lon="-5.316150">
        <ele>1962.0</ele>
        <time>2013-05-12T12:11:38Z</time>
      </trkpt>
      <trkpt lat="40.427767" lon="-5.316067">
        <ele>1963.0</ele>
        <time>2013-05-12T12:11:39Z</time>
      </trkpt>
      <trkpt lat="40.427817" lon="-5.315967">
        <ele>1965.0</ele>
        <time>2013-05-12T12:11:40Z</time>
      </trkpt>
      <trkpt lat="40.427867" lon="-5.315850">
        <ele>1967.0</ele>
        <time>2013-05-12T12:11:41Z</time>
      </trkpt>
      <trkpt lat="40.427867" lon="-5.315717">
        <ele>1970.0</ele>
        <time>2013-05-12T12:11:42Z</time>
      </trkpt>
      <trkpt lat="40.427867" lon="-5.315583">
        <ele>1972.0</ele>
        <time>2013-05-12T12:11:43Z</time>
      </trkpt>
      <trkpt lat="40.427850" lon="-5.315467">
        <ele>1974.0</ele>
        <time>2013-05-12T12:11:44Z</time>
      </trkpt>
      <trkpt lat="40.427850" lon="-5.315350">
        <ele>1976.0</ele>
        <time>2013-05-12T12:11:45Z</time>
      </trkpt>
      <trkpt lat="40.427817" lon="-5.315233">
        <ele>1977.0</ele>
        <time>2013-05-12T12:11:46Z</time>
      </trkpt>
      <trkpt lat="40.427767" lon="-5.315100">
        <ele>1978.0</ele>
        <time>2013-05-12T12:11:47Z</time>
      </trkpt>
      <trkpt lat="40.427700" lon="-5.314983">
        <ele>1979.0</ele>
        <time>2013-05-12T12:11:48Z</time>
      </trkpt>
      <trkpt lat="40.427600" lon="-5.314883">
        <ele>1982.0</ele>
        <time>2013-05-12T12:11:49Z</time>
      </trkpt>
      <trkpt lat="40.427500" lon="-5.314800">
        <ele>1984.0</ele>
        <time>2013-05-12T12:11:50Z</time>
      </trkpt>
      <trkpt lat="40.427383" lon="-5.314750">
        <ele>1986.0</ele>
        <time>2013-05-12T12:11:51Z</time>
      </trkpt>
      <trkpt lat="40.427267" lon="-5.314733">
        <ele>1988.0</ele>
        <time>2013-05-12T12:11:52Z</time>
      </trkpt>
      <trkpt lat="40.427150" lon="-5.314750">
        <ele>1989.0</ele>
        <time>2013-05-12T12:11:53Z</time>
      </trkpt>
      <trkpt lat="40.427033" lon="-5.314800">
        <ele>1990.0</ele>
        <time>2013-05-12T12:11:54Z</time>
      </trkpt>
      <trkpt lat="40.426950" lon="-5.314883">
        <ele>1993.0</ele>
        <time>2013-05-12T12:11:55Z</time>
      </trkpt>
      <trkpt lat="40.426900" lon="-5.314967">
        <ele>1995.0</ele>
        <time>2013-05-12T12:11:56Z</time>
      </trkpt>
      <trkpt lat="40.426850" lon="-5.315050">
        <ele>1999.0</ele>
        <time>2013-05-12T12:11:57Z</time>
      </trkpt>
      <trkpt lat="40.426833" lon="-5.315133">
        <ele>2002.0</ele>
        <time>2013-05-12T12:11:58Z</time>
      </trkpt>
      <trkpt lat="40.426800" lon="-5.315200">
        <ele>2006.0</ele>
        <time>2013-05-12T12:11:59Z</time>
      </trkpt>
      <trkpt lat="40.426800" lon="-5.315250">
        <ele>2010.0</ele>
        <time>2013-05-12T12:12:00Z</time>
      </trkpt>
      <trkpt lat="40.426817" lon="-5.315300">
        <ele>2012.0</ele>
        <time>2013-05-12T12:12:01Z</time>
      </trkpt>
      <trkpt lat="40.426833" lon="-5.315367">
        <ele>2013.0</ele>
        <time>2013-05-12T12:12:02Z</time>
      </trkpt>
      <trkpt lat="40.426867" lon="-5.315417">
        <ele>2015.0</ele>
        <time>2013-05-12T12:12:03Z</time>
      </trkpt>
      <trkpt lat="40.426900" lon="-5.315467">
        <ele>2017.0</ele>
        <time>2013-05-12T12:12:04Z</time>
      </trkpt>
      <trkpt lat="40.426950" lon="-5.315500">
        <ele>2020.0</ele>
        <time>2013-05-12T12:12:05Z</time>
      </trkpt>
      <trkpt lat="40.427000" lon="-5.315500">
        <ele>2021.0</ele>
        <time>2013-05-12T12:12:06Z</time>
      </trkpt>
      <trkpt lat="40.427067" lon="-5.315500">
        <ele>2022.0</ele>
        <time>2013-05-12T12:12:07Z</time>
      </trkpt>
      <trkpt lat="40.427133" lon="-5.315467">
        <ele>2022.0</ele>
        <time>2013-05-12T12:12:08Z</time>
      </trkpt>
      <trkpt lat="40.427217" lon="-5.315417">
        <ele>2022.0</ele>
        <time>2013-05-12T12:12:09Z</time>
      </trkpt>
      <trkpt lat="40.427300" lon="-5.315333">
        <ele>2022.0</ele>
        <time>2013-05-12T12:12:10Z</time>
      </trkpt>
      <trkpt lat="40.427367" lon="-5.315217">
        <ele>2022.0</ele>
        <time>2013-05-12T12:12:11Z</time>
      </trkpt>
      <trkpt lat="40.427417" lon="-5.315083">
        <ele>2023.0</ele>
        <time>2013-05-12T12:12:12Z</time>
      </trkpt>
      <trkpt lat="40.427433" lon="-5.314933">
        <ele>2025.0</ele>
        <time>2013-05-12T12:12:13Z</time>
      </trkpt>
      <trkpt lat="40.427450" lon="-5.314767">
        <ele>2027.0</ele>
        <time>2013-05-12T12:12:14Z</time>
      </trkpt>
      <trkpt lat="40.427467" lon="-5.314633">
        <ele>2030.0</ele>
        <time>2013-05-12T12:12:15Z</time>
      </trkpt>
      <trkpt lat="40.427467" lon="-5.314500">
        <ele>2032.0</ele>
        <time>2013-05-12T12:12:16Z</time>
      </trkpt>
      <trkpt lat="40.427467" lon="-5.314367">
        <ele>2034.0</ele>
        <time>2013-05-12T12:12:17Z</time>
      </trkpt>
      <trkpt lat="40.427417" lon="-5.314233">
        <ele>2034.0</ele>
        <time>2013-05-12T12:12:18Z</time>
      </trkpt>
      <trkpt lat="40.427367" lon="-5.314100">
        <ele>2036.0</ele>
        <time>2013-05-12T12:12:19Z</time>
      </trkpt>
      <trkpt lat="40.427300" lon="-5.313983">
        <ele>2037.0</ele>
        <time>2013-05-12T12:12:20Z</time>
      </trkpt>
      <trkpt lat="40.427233" lon="-5.313883">
        <ele>2038.0</ele>
        <time>2013-05-12T12:12:21Z</time>
      </trkpt>
      <trkpt lat="40.427150" lon="-5.313800">
        <ele>2038.0</ele>
        <time>2013-05-12T12:12:22Z</time>
      </trkpt>
      <trkpt lat="40.427050" lon="-5.313700">
        <ele>2037.0</ele>
        <time>2013-05-12T12:12:23Z</time>
      </trkpt>
      <trkpt lat="40.426917" lon="-5.313650">
        <ele>2036.0</ele>
        <time>2013-05-12T12:12:24Z</time>
      </trkpt>
      <trkpt lat="40.426800" lon="-5.313650">
        <ele>2037.0</ele>
        <time>2013-05-12T12:12:25Z</time>
      </trkpt>
      <trkpt lat="40.426683" lon="-5.313667">
        <ele>2039.0</ele>
        <time>2013-05-12T12:12:26Z</time>
      </trkpt>
      <trkpt lat="40.426583" lon="-5.313700">
        <ele>2043.0</ele>
        <time>2013-05-12T12:12:27Z</time>
      </trkpt>
      <trkpt lat="40.426483" lon="-5.313717">
        <ele>2045.0</ele>
        <time>2013-05-12T12:12:28Z</time>
      </trkpt>
      <trkpt lat="40.426417" lon="-5.313767">
        <ele>2047.0</ele>
        <time>2013-05-12T12:12:29Z</time>
      </trkpt>
      <trkpt lat="40.426350" lon="-5.313850">
        <ele>2048.0</ele>
        <time>2013-05-12T12:12:30Z</time>
      </trkpt>
      <trkpt lat="40.426300" lon="-5.313950">
        <ele>2049.0</ele>
        <time>2013-05-12T12:12:31Z</time>
      </trkpt>
      <trkpt lat="40.426283" lon="-5.314050">
        <ele>2051.0</ele>
        <time>2013-05-12T12:12:32Z</time>
      </trkpt>
      <trkpt lat="40.426267" lon="-5.314150">
        <ele>2054.0</ele>
        <time>2013-05-12T12:12:33Z</time>
      </trkpt>
      <trkpt lat="40.426267" lon="-5.314233">
        <ele>2057.0</ele>
        <time>2013-05-12T12:12:34Z</time>
      </trkpt>
      <trkpt lat="40.426283" lon="-5.314300">
        <ele>2060.0</ele>
        <time>2013-05-12T12:12:35Z</time>
      </trkpt>
      <trkpt lat="40.426300" lon="-5.314350">
        <ele>2062.0</ele>
        <time>2013-05-12T12:12:36Z</time>
      </trkpt>
      <trkpt lat="40.426350" lon="-5.314417">
        <ele>2063.0</ele>
        <time>2013-05-12T12:12:37Z</time>
      </trkpt>
      <trkpt lat="40.426417" lon="-5.314450">
        <ele>2064.0</ele>
        <time>2013-05-12T12:12:38Z</time>
      </trkpt>
      <trkpt lat="40.426483" lon="-5.314467">
        <ele>2067.0</ele>
        <time>2013-05-12T12:12:39Z</time>
      </trkpt>
      <trkpt lat="40.426550" lon="-5.314467">
        <ele>2069.0</ele>
        <time>2013-05-12T12:12:40Z</time>
      </trkpt>
      <trkpt lat="40.426617" lon="-5.314450">
        <ele>2070.0</ele>
        <time>2013-05-12T12:12:41Z</time>
      </trkpt>
      <trkpt lat="40.426700" lon="-5.314417">
        <ele>2072.0</ele>
        <time>2013-05-12T12:12:42Z</time>
      </trkpt>
      <trkpt lat="40.426767" lon="-5.314367">
        <ele>2073.0</ele>
        <time>2013-05-12T12:12:43Z</time>
      </trkpt>
      <trkpt lat="40.426850" lon="-5.314300">
        <ele>2075.0</ele>
        <time>2013-05-12T12:12:44Z</time>
      </trkpt>
      <trkpt lat="40.426917" lon="-5.314200">
        <ele>2076.0</ele>
        <time>2013-05-12T12:12:45Z</time>
      </trkpt>
      <trkpt lat="40.426983" lon="-5.314083">
        <ele>2078.0</ele>
        <time>2013-05-12T12:12:46Z</time>
      </trkpt>
      <trkpt lat="40.427017" lon="-5.313950">
        <ele>2079.0</ele>
        <time>2013-05-12T12:12:47Z</time>
      </trkpt>
      <trkpt lat="40.427050" lon="-5.313817">
        <ele>2081.0</ele>
        <time>2013-05-12T12:12:48Z</time>
      </trkpt>
      <trkpt lat="40.427050" lon="-5.313667">
        <ele>2083.0</ele>
        <time>2013-05-12T12:12:49Z</time>
      </trkpt>
      <trkpt lat="40.427050" lon="-5.313517">
        <ele>2085.0</ele>
        <time>2013-05-12T12:12:50Z</time>
      </trkpt>
      <trkpt lat="40.427033" lon="-5.313367">
        <ele>2088.0</ele>
        <time>2013-05-12T12:12:51Z</time>
      </trkpt>
      <trkpt lat="40.426983" lon="-5.313250">
        <ele>2091.0</ele>
        <time>2013-05-12T12:12:52Z</time>
      </trkpt>
      <trkpt lat="40.426933" lon="-5.313150">
        <ele>2092.0</ele>
        <time>2013-05-12T12:12:53Z</time>
      </trkpt>
      <trkpt lat="40.426850" lon="-5.313067">
        <ele>2093.0</ele>
        <time>2013-05-12T12:12:54Z</time>
      </trkpt>
      <trkpt lat="40.426750" lon="-5.312983">
        <ele>2094.0</ele>
        <time>2013-05-12T12:12:55Z</time>
      </trkpt>
      <trkpt lat="40.426667" lon="-5.312917">
        <ele>2096.0</ele>
        <time>2013-05-12T12:12:56Z</time>
      </trkpt>
      <trkpt lat="40.426567" lon="-5.312883">
        <ele>2097.0</ele>
        <time>2013-05-12T12:12:57Z</time>
      </trkpt>
      <trkpt lat="40.426450" lon="-5.312867">
        <ele>2098.0</ele>
        <time>2013-05-12T12:12:58Z</time>
      </trkpt>
      <trkpt lat="40.426333" lon="-5.312883">
        <ele>2099.0</ele>
        <time>2013-05-12T12:12:59Z</time>
      </trkpt>
      <trkpt lat="40.426233" lon="-5.312917">
        <ele>2101.0</ele>
        <time>2013-05-12T12:13:00Z</time>
      </trkpt>
      <trkpt lat="40.426150" lon="-5.312967">
        <ele>2103.0</ele>
        <time>2013-05-12T12:13:01Z</time>
      </trkpt>
      <trkpt lat="40.426100" lon="-5.313033">
        <ele>2106.0</ele>
        <time>2013-05-12T12:13:02Z</time>
      </trkpt>
      <trkpt lat="40.426050" lon="-5.313100">
        <ele>2108.0</ele>
        <time>2013-05-12T12:13:03Z</time>
      </trkpt>
      <trkpt lat="40.426017" lon="-5.313167">
        <ele>2110.0</ele>
        <time>2013-05-12T12:13:04Z</time>
      </trkpt>
      <trkpt lat="40.425983" lon="-5.313233">
        <ele>2112.0</ele>
        <time>2013-05-12T12:13:05Z</time>
      </trkpt>
      <trkpt lat="40.425967" lon="-5.313317">
        <ele>2114.0</ele>
        <time>2013-05-12T12:13:06Z</time>
      </trkpt>
      <trkpt lat="40.425967" lon="-5.313383">
        <ele>2117.0</ele>
        <time>2013-05-12T12:13:07Z</time>
      </trkpt>
      <trkpt lat="40.425983" lon="-5.313450">
        <ele>2120.0</ele>
        <time>2013-05-12T12:13:08Z</time>
      </trkpt>
      <trkpt lat="40.426000" lon="-5.313500">
        <ele>2123.0</ele>
        <time>2013-05-12T12:13:09Z</time>
      </trkpt>
      <trkpt lat="40.426033" lon="-5.313550">
        <ele>2125.0</ele>
        <time>2013-05-12T12:13:10Z</time>
      </trkpt>
      <trkpt lat="40.426050" lon="-5.313617">
        <ele>2126.0</ele>
        <time>2013-05-12T12:13:11Z</time>
      </trkpt>
      <trkpt lat="40.426083" lon="-5.313683">
        <ele>2128.0</ele>
        <time>2013-05-12T12:13:12Z</time>
      </trkpt>
      <trkpt lat="40.426133" lon="-5.313717">
        <ele>2129.0</ele>
        <time>2013-05-12T12:13:13Z</time>
      </trkpt>
      <trkpt lat="40.426200" lon="-5.313750">
        <ele>2131.0</ele>
        <time>2013-05-12T12:13:14Z</time>
      </trkpt>
      <trkpt lat="40.426267" lon="-5.313733">
        <ele>2131.0</ele>
        <time>2013-05-12T12:13:15Z</time>
      </trkpt>
      <trkpt lat="40.426333" lon="-5.313717">
        <ele>2131.0</ele>
        <time>2013-05-12T12:13:16Z</time>
      </trkpt>
      <trkpt lat="40.426383" lon="-5.313683">
        <ele>2131.0</ele>
        <time>2013-05-12T12:13:17Z</time>
      </trkpt>
      <trkpt lat="40.426450" lon="-5.313650">
        <ele>2130.0</ele>
        <time>2013-05-12T12:13:18Z</time>
      </trkpt>
      <trkpt lat="40.426517" lon="-5.313600">
        <ele>2129.0</ele>
        <time>2013-05-12T12:13:19Z</time>
      </trkpt>
      <trkpt lat="40.426583" lon="-5.313533">
        <ele>2129.0</ele>
        <time>2013-05-12T12:13:20Z</time>
      </trkpt>
      <trkpt lat="40.426667" lon="-5.313433">
        <ele>2129.0</ele>
        <time>2013-05-12T12:13:21Z</time>
      </trkpt>
      <trkpt lat="40.426733" lon="-5.313300">
        <ele>2129.0</ele>
        <time>2013-05-12T12:13:22Z</time>
      </trkpt>
      <trkpt lat="40.426800" lon="-5.313183">
        <ele>2131.0</ele>
        <time>2013-05-12T12:13:23Z</time>
      </trkpt>
      <trkpt lat="40.426850" lon="-5.313050">
        <ele>2133.0</ele>
        <time>2013-05-12T12:13:24Z</time>
      </trkpt>
      <trkpt lat="40.426883" lon="-5.312917">
        <ele>2135.0</ele>
        <time>2013-05-12T12:13:25Z</time>
      </trkpt>
      <trkpt lat="40.426900" lon="-5.312767">
        <ele>2135.0</ele>
        <time>2013-05-12T12:13:26Z</time>
      </trkpt>
      <trkpt lat="40.426900" lon="-5.312617">
        <ele>2136.0</ele>
        <time>2013-05-12T12:13:27Z</time>
      </trkpt>
      <trkpt lat="40.426867" lon="-5.312450">
        <ele>2137.0</ele>
        <time>2013-05-12T12:13:28Z</time>
      </trkpt>
      <trkpt lat="40.426833" lon="-5.312300">
        <ele>2139.0</ele>
        <time>2013-05-12T12:13:29Z</time>
      </trkpt>
      <trkpt lat="40.426783" lon="-5.312167">
        <ele>2141.0</ele>
        <time>2013-05-12T12:13:30Z</time>
      </trkpt>
      <trkpt lat="40.426733" lon="-5.312067">
        <ele>2143.0</ele>
        <time>2013-05-12T12:13:31Z</time>
      </trkpt>
      <trkpt lat="40.426650" lon="-5.312017">
        <ele>2144.0</ele>
        <time>2013-05-12T12:13:32Z</time>
      </trkpt>
      <trkpt lat="40.426567" lon="-5.311967">
        <ele>2144.0</ele>
        <time>2013-05-12T12:13:33Z</time>
      </trkpt>
      <trkpt lat="40.426467" lon="-5.311950">
        <ele>2144.0</ele>
        <time>2013-05-12T12:13:34Z</time>
      </trkpt>
      <trkpt lat="40.426367" lon="-5.311967">
        <ele>2145.0</ele>
        <time>2013-05-12T12:13:35Z</time>
      </trkpt>
      <trkpt lat="40.426267" lon="-5.312000">
        <ele>2146.0</ele>
        <time>2013-05-12T12:13:36Z</time>
      </trkpt>
      <trkpt lat="40.426200" lon="-5.312050">
        <ele>2148.0</ele>
        <time>2013-05-12T12:13:37Z</time>
      </trkpt>
      <trkpt lat="40.426133" lon="-5.312117">
        <ele>2148.0</ele>
        <time>2013-05-12T12:13:38Z</time>
      </trkpt>
      <trkpt lat="40.426100" lon="-5.312200">
        <ele>2150.0</ele>
        <time>2013-05-12T12:13:39Z</time>
      </trkpt>
      <trkpt lat="40.426067" lon="-5.312283">
        <ele>2153.0</ele>
        <time>2013-05-12T12:13:40Z</time>
      </trkpt>
      <trkpt lat="40.426050" lon="-5.312367">
        <ele>2156.0</ele>
        <time>2013-05-12T12:13:41Z</time>
      </trkpt>
      <trkpt lat="40.426033" lon="-5.312450">
        <ele>2159.0</ele>
        <time>2013-05-12T12:13:42Z</time>
      </trkpt>
      <trkpt lat="40.426017" lon="-5.312517">
        <ele>2161.0</ele>
        <time>2013-05-12T12:13:43Z</time>
      </trkpt>
      <trkpt lat="40.426033" lon="-5.312567">
        <ele>2163.0</ele>
        <time>2013-05-12T12:13:44Z</time>
      </trkpt>
      <trkpt lat="40.426050" lon="-5.312617">
        <ele>2162.0</ele>
        <time>2013-05-12T12:13:45Z</time>
      </trkpt>
      <trkpt lat="40.426083" lon="-5.312667">
        <ele>2162.0</ele>
        <time>2013-05-12T12:13:46Z</time>
      </trkpt>
      <trkpt lat="40.426117" lon="-5.312717">
        <ele>2161.0</ele>
        <time>2013-05-12T12:13:47Z</time>
      </trkpt>
      <trkpt lat="40.426167" lon="-5.312767">
        <ele>2161.0</ele>
        <time>2013-05-12T12:13:48Z</time>
      </trkpt>
      <trkpt lat="40.426250" lon="-5.312817">
        <ele>2162.0</ele>
        <time>2013-05-12T12:13:49Z</time>
      </trkpt>
      <trkpt lat="40.426300" lon="-5.312850">
        <ele>2164.0</ele>
        <time>2013-05-12T12:13:50Z</time>
      </trkpt>
      <trkpt lat="40.426367" lon="-5.312850">
        <ele>2167.0</ele>
        <time>2013-05-12T12:13:51Z</time>
      </trkpt>
      <trkpt lat="40.426417" lon="-5.312850">
        <ele>2169.0</ele>
        <time>2013-05-12T12:13:52Z</time>
      </trkpt>
      <trkpt lat="40.426467" lon="-5.312817">
        <ele>2171.0</ele>
        <time>2013-05-12T12:13:53Z</time>
      </trkpt>
      <trkpt lat="40.426533" lon="-5.312783">
        <ele>2171.0</ele>
        <time>2013-05-12T12:13:54Z</time>
      </trkpt>
      <trkpt lat="40.426600" lon="-5.312717">
        <ele>2172.0</ele>
        <time>2013-05-12T12:13:55Z</time>
      </trkpt>
      <trkpt lat="40.426667" lon="-5.312667">
        <ele>2172.0</ele>
        <time>2013-05-12T12:13:56Z</time>
      </trkpt>
      <trkpt lat="40.426750" lon="-5.312583">
        <ele>2174.0</ele>
        <time>2013-05-12T12:13:57Z</time>
      </trkpt>
      <trkpt lat="40.426817" lon="-5.312483">
        <ele>2176.0</ele>
        <time>2013-05-12T12:13:58Z</time>
      </trkpt>
      <trkpt lat="40.426867" lon="-5.312367">
        <ele>2177.0</ele>
        <time>2013-05-12T12:13:59Z</time>
      </trkpt>
      <trkpt lat="40.426917" lon="-5.312233">
        <ele>2179.0</ele>
        <time>2013-05-12T12:14:00Z</time>
      </trkpt>
      <trkpt lat="40.426950" lon="-5.312083">
        <ele>2180.0</ele>
        <time>2013-05-12T12:14:01Z</time>
      </trkpt>
      <trkpt lat="40.426983" lon="-5.311933">
        <ele>2181.0</ele>
        <time>2013-05-12T12:14:02Z</time>
      </trkpt>
      <trkpt lat="40.426967" lon="-5.311783">
        <ele>2181.0</ele>
        <time>2013-05-12T12:14:03Z</time>
      </trkpt>
      <trkpt lat="40.426933" lon="-5.311617">
        <ele>2181.0</ele>
        <time>2013-05-12T12:14:04Z</time>
      </trkpt>
      <trkpt lat="40.426883" lon="-5.311450">
        <ele>2182.0</ele>
        <time>2013-05-12T12:14:05Z</time>
      </trkpt>
      <trkpt lat="40.426817" lon="-5.311300">
        <ele>2183.0</ele>
        <time>2013-05-12T12:14:06Z</time>
      </trkpt>
      <trkpt lat="40.426750" lon="-5.311167">
        <ele>2186.0</ele>
        <time>2013-05-12T12:14:07Z</time>
      </trkpt>
      <trkpt lat="40.426683" lon="-5.311067">
        <ele>2188.0</ele>
        <time>2013-05-12T12:14:08Z</time>
      </trkpt>
      <trkpt lat="40.426600" lon="-5.311000">
        <ele>2190.0</ele>
        <time>2013-05-12T12:14:09Z</time>
      </trkpt>
      <trkpt lat="40.426500" lon="-5.310950">
        <ele>2190.0</ele>
        <time>2013-05-12T12:14:10Z</time>
      </trkpt>
      <trkpt lat="40.426417" lon="-5.310967">
        <ele>2191.0</ele>
        <time>2013-05-12T12:14:11Z</time>
      </trkpt>
      <trkpt lat="40.426367" lon="-5.311017">
        <ele>2190.0</ele>
        <time>2013-05-12T12:14:12Z</time>
      </trkpt>
      <trkpt lat="40.426317" lon="-5.311083">
        <ele>2191.0</ele>
        <time>2013-05-12T12:14:13Z</time>
      </trkpt>
      <trkpt lat="40.426267" lon="-5.311150">
        <ele>2194.0</ele>
        <time>2013-05-12T12:14:14Z</time>
      </trkpt>
      <trkpt lat="40.426233" lon="-5.311217">
        <ele>2197.0</ele>
        <time>2013-05-12T12:14:15Z</time>
      </trkpt>
      <trkpt lat="40.426217" lon="-5.311283">
        <ele>2199.0</ele>
        <time>2013-05-12T12:14:16Z</time>
      </trkpt>
      <trkpt lat="40.426217" lon="-5.311350">
        <ele>2201.0</ele>
        <time>2013-05-12T12:14:17Z</time>
      </trkpt>
      <trkpt lat="40.426250" lon="-5.311417">
        <ele>2202.0</ele>
        <time>2013-05-12T12:14:18Z</time>
      </trkpt>
      <trkpt lat="40.426283" lon="-5.311483">
        <ele>2204.0</ele>
        <time>2013-05-12T12:14:19Z</time>
      </trkpt>
      <trkpt lat="40.426317" lon="-5.311533">
        <ele>2207.0</ele>
        <time>2013-05-12T12:14:20Z</time>
      </trkpt>
      <trkpt lat="40.426367" lon="-5.311583">
        <ele>2209.0</ele>
        <time>2013-05-12T12:14:21Z</time>
      </trkpt>
      <trkpt lat="40.426400" lon="-5.311617">
        <ele>2210.0</ele>
        <time>2013-05-12T12:14:22Z</time>
      </trkpt>
      <trkpt lat="40.426450" lon="-5.311667">
        <ele>2210.0</ele>
        <time>2013-05-12T12:14:23Z</time>
      </trkpt>
      <trkpt lat="40.426533" lon="-5.311683">
        <ele>2211.0</ele>
        <time>2013-05-12T12:14:24Z</time>
      </trkpt>
      <trkpt lat="40.426600" lon="-5.311683">
        <ele>2212.0</ele>
        <time>2013-05-12T12:14:25Z</time>
      </trkpt>
      <trkpt lat="40.426667" lon="-5.311667">
        <ele>2214.0</ele>
        <time>2013-05-12T12:14:26Z</time>
      </trkpt>
      <trkpt lat="40.426733" lon="-5.311617">
        <ele>2215.0</ele>
        <time>2013-05-12T12:14:27Z</time>
      </trkpt>
      <trkpt lat="40.426783" lon="-5.311567">
        <ele>2215.0</ele>
        <time>2013-05-12T12:14:28Z</time>
      </trkpt>
      <trkpt lat="40.426833" lon="-5.311500">
        <ele>2215.0</ele>
        <time>2013-05-12T12:14:29Z</time>
      </trkpt>
      <trkpt lat="40.426900" lon="-5.311433">
        <ele>2215.0</ele>
        <time>2013-05-12T12:14:30Z</time>
      </trkpt>
      <trkpt lat="40.426950" lon="-5.311333">
        <ele>2215.0</ele>
        <time>2013-05-12T12:14:31Z</time>
      </trkpt>
      <trkpt lat="40.426967" lon="-5.311217">
        <ele>2215.0</ele>
        <time>2013-05-12T12:14:32Z</time>
      </trkpt>
      <trkpt lat="40.426983" lon="-5.311083">
        <ele>2215.0</ele>
        <time>2013-05-12T12:14:33Z</time>
      </trkpt>
      <trkpt lat="40.426967" lon="-5.310933">
        <ele>2215.0</ele>
        <time>2013-05-12T12:14:34Z</time>
      </trkpt>
      <trkpt lat="40.426950" lon="-5.310767">
        <ele>2215.0</ele>
        <time>2013-05-12T12:14:35Z</time>
      </trkpt>
      <trkpt lat="40.426933" lon="-5.310617">
        <ele>2216.0</ele>
        <time>2013-05-12T12:14:36Z</time>
      </trkpt>
      <trkpt lat="40.426883" lon="-5.310483">
        <ele>2216.0</ele>
        <time>2013-05-12T12:14:37Z</time>
      </trkpt>
      <trkpt lat="40.426817" lon="-5.310350">
        <ele>2216.0</ele>
        <time>2013-05-12T12:14:38Z</time>
      </trkpt>
      <trkpt lat="40.426733" lon="-5.310233">
        <ele>2217.0</ele>
        <time>2013-05-12T12:14:39Z</time>
      </trkpt>
      <trkpt lat="40.426633" lon="-5.310133">
        <ele>2218.0</ele>
        <time>2013-05-12T12:14:40Z</time>
      </trkpt>
      <trkpt lat="40.426550" lon="-5.310050">
        <ele>2219.0</ele>
        <time>2013-05-12T12:14:41Z</time>
      </trkpt>
      <trkpt lat="40.426450" lon="-5.310000">
        <ele>2221.0</ele>
        <time>2013-05-12T12:14:42Z</time>
      </trkpt>
      <trkpt lat="40.426367" lon="-5.309950">
        <ele>2223.0</ele>
        <time>2013-05-12T12:14:43Z</time>
      </trkpt>
      <trkpt lat="40.426283" lon="-5.309933">
        <ele>2224.0</ele>
        <time>2013-05-12T12:14:44Z</time>
      </trkpt>
      <trkpt lat="40.426217" lon="-5.309917">
        <ele>2226.0</ele>
        <time>2013-05-12T12:14:45Z</time>
      </trkpt>
      <trkpt lat="40.426150" lon="-5.309950">
        <ele>2227.0</ele>
        <time>2013-05-12T12:14:46Z</time>
      </trkpt>
      <trkpt lat="40.426100" lon="-5.309983">
        <ele>2228.0</ele>
        <time>2013-05-12T12:14:47Z</time>
      </trkpt>
      <trkpt lat="40.426067" lon="-5.310050">
        <ele>2229.0</ele>
        <time>2013-05-12T12:14:48Z</time>
      </trkpt>
      <trkpt lat="40.426033" lon="-5.310100">
        <ele>2230.0</ele>
        <time>2013-05-12T12:14:49Z</time>
      </trkpt>
      <trkpt lat="40.426017" lon="-5.310150">
        <ele>2232.0</ele>
        <time>2013-05-12T12:14:50Z</time>
      </trkpt>
      <trkpt lat="40.426000" lon="-5.310217">
        <ele>2233.0</ele>
        <time>2013-05-12T12:14:51Z</time>
      </trkpt>
      <trkpt lat="40.426000" lon="-5.310283">
        <ele>2235.0</ele>
        <time>2013-05-12T12:14:52Z</time>
      </trkpt>
      <trkpt lat="40.426017" lon="-5.310367">
        <ele>2237.0</ele>
        <time>2013-05-12T12:14:53Z</time>
      </trkpt>
      <trkpt lat="40.426033" lon="-5.310433">
        <ele>2240.0</ele>
        <time>2013-05-12T12:14:54Z</time>
      </trkpt>
      <trkpt lat="40.426050" lon="-5.310483">
        <ele>2242.0</ele>
        <time>2013-05-12T12:14:55Z</time>
      </trkpt>
      <trkpt lat="40.426083" lon="-5.310533">
        <ele>2243.0</ele>
        <time>2013-05-12T12:14:56Z</time>
      </trkpt>
      <trkpt lat="40.426117" lon="-5.310583">
        <ele>2244.0</ele>
        <time>2013-05-12T12:14:57Z</time>
      </trkpt>
      <trkpt lat="40.426183" lon="-5.310617">
        <ele>2244.0</ele>
        <time>2013-05-12T12:14:58Z</time>
      </trkpt>
      <trkpt lat="40.426250" lon="-5.310633">
        <ele>2245.0</ele>
        <time>2013-05-12T12:14:59Z</time>
      </trkpt>
      <trkpt lat="40.426300" lon="-5.310633">
        <ele>2245.0</ele>
        <time>2013-05-12T12:15:00Z</time>
      </trkpt>
      <trkpt lat="40.426367" lon="-5.310617">
        <ele>2245.0</ele>
        <time>2013-05-12T12:15:01Z</time>
      </trkpt>
      <trkpt lat="40.426417" lon="-5.310600">
        <ele>2244.0</ele>
        <time>2013-05-12T12:15:02Z</time>
      </trkpt>
      <trkpt lat="40.426500" lon="-5.310567">
        <ele>2244.0</ele>
        <time>2013-05-12T12:15:03Z</time>
      </trkpt>
      <trkpt lat="40.426567" lon="-5.310500">
        <ele>2243.0</ele>
        <time>2013-05-12T12:15:04Z</time>
      </trkpt>
      <trkpt lat="40.426633" lon="-5.310400">
        <ele>2241.0</ele>
        <time>2013-05-12T12:15:05Z</time>
      </trkpt>
      <trkpt lat="40.426667" lon="-5.310283">
        <ele>2240.0</ele>
        <time>2013-05-12T12:15:06Z</time>
      </trkpt>
      <trkpt lat="40.426700" lon="-5.310150">
        <ele>2240.0</ele>
        <time>2013-05-12T12:15:07Z</time>
      </trkpt>
      <trkpt lat="40.426733" lon="-5.310017">
        <ele>2241.0</ele>
        <time>2013-05-12T12:15:08Z</time>
      </trkpt>
      <trkpt lat="40.426750" lon="-5.309867">
        <ele>2242.0</ele>
        <time>2013-05-12T12:15:09Z</time>
      </trkpt>
      <trkpt lat="40.426750" lon="-5.309733">
        <ele>2244.0</ele>
        <time>2013-05-12T12:15:10Z</time>
      </trkpt>
      <trkpt lat="40.426733" lon="-5.309583">
        <ele>2245.0</ele>
        <time>2013-05-12T12:15:11Z</time>
      </trkpt>
      <trkpt lat="40.426717" lon="-5.309450">
        <ele>2245.0</ele>
        <time>2013-05-12T12:15:12Z</time>
      </trkpt>
      <trkpt lat="40.426683" lon="-5.309300">
        <ele>2245.0</ele>
        <time>2013-05-12T12:15:13Z</time>
      </trkpt>
      <trkpt lat="40.426650" lon="-5.309167">
        <ele>2245.0</ele>
        <time>2013-05-12T12:15:14Z</time>
      </trkpt>
      <trkpt lat="40.426600" lon="-5.309033">
        <ele>2244.0</ele>
        <time>2013-05-12T12:15:15Z</time>
      </trkpt>
      <trkpt lat="40.426533" lon="-5.308883">
        <ele>2243.0</ele>
        <time>2013-05-12T12:15:16Z</time>
      </trkpt>
      <trkpt lat="40.426433" lon="-5.308750">
        <ele>2242.0</ele>
        <time>2013-05-12T12:15:17Z</time>
      </trkpt>
      <trkpt lat="40.426350" lon="-5.308667">
        <ele>2244.0</ele>
        <time>2013-05-12T12:15:18Z</time>
      </trkpt>
      <trkpt lat="40.426250" lon="-5.308600">
        <ele>2246.0</ele>
        <time>2013-05-12T12:15:19Z</time>
      </trkpt>
      <trkpt lat="40.426167" lon="-5.308550">
        <ele>2247.0</ele>
        <time>2013-05-12T12:15:20Z</time>
      </trkpt>
      <trkpt lat="40.426100" lon="-5.308517">
        <ele>2248.0</ele>
        <time>2013-05-12T12:15:21Z</time>
      </trkpt>
      <trkpt lat="40.426017" lon="-5.308517">
        <ele>2247.0</ele>
        <time>2013-05-12T12:15:22Z</time>
      </trkpt>
      <trkpt lat="40.425933" lon="-5.308533">
        <ele>2245.0</ele>
        <time>2013-05-12T12:15:23Z</time>
      </trkpt>
      <trkpt lat="40.425867" lon="-5.308583">
        <ele>2244.0</ele>
        <time>2013-05-12T12:15:24Z</time>
      </trkpt>
      <trkpt lat="40.425800" lon="-5.308650">
        <ele>2243.0</ele>
        <time>2013-05-12T12:15:25Z</time>
      </trkpt>
      <trkpt lat="40.425783" lon="-5.308750">
        <ele>2244.0</ele>
        <time>2013-05-12T12:15:26Z</time>
      </trkpt>
      <trkpt lat="40.425767" lon="-5.308833">
        <ele>2245.0</ele>
        <time>2013-05-12T12:15:27Z</time>
      </trkpt>
      <trkpt lat="40.425733" lon="-5.308900">
        <ele>2248.0</ele>
        <time>2013-05-12T12:15:28Z</time>
      </trkpt>
      <trkpt lat="40.425717" lon="-5.308950">
        <ele>2250.0</ele>
        <time>2013-05-12T12:15:29Z</time>
      </trkpt>
      <trkpt lat="40.425700" lon="-5.309000">
        <ele>2251.0</ele>
        <time>2013-05-12T12:15:30Z</time>
      </trkpt>
      <trkpt lat="40.425683" lon="-5.309083">
        <ele>2251.0</ele>
        <time>2013-05-12T12:15:31Z</time>
      </trkpt>
      <trkpt lat="40.425700" lon="-5.309167">
        <ele>2251.0</ele>
        <time>2013-05-12T12:15:32Z</time>
      </trkpt>
      <trkpt lat="40.425717" lon="-5.309233">
        <ele>2252.0</ele>
        <time>2013-05-12T12:15:33Z</time>
      </trkpt>
      <trkpt lat="40.425733" lon="-5.309300">
        <ele>2253.0</ele>
        <time>2013-05-12T12:15:34Z</time>
      </trkpt>
      <trkpt lat="40.425767" lon="-5.309350">
        <ele>2254.0</ele>
        <time>2013-05-12T12:15:35Z</time>
      </trkpt>
      <trkpt lat="40.425783" lon="-5.309400">
        <ele>2255.0</ele>
        <time>2013-05-12T12:15:36Z</time>
      </trkpt>
      <trkpt lat="40.425833" lon="-5.309433">
        <ele>2256.0</ele>
        <time>2013-05-12T12:15:37Z</time>
      </trkpt>
      <trkpt lat="40.425867" lon="-5.309467">
        <ele>2257.0</ele>
        <time>2013-05-12T12:15:38Z</time>
      </trkpt>
      <trkpt lat="40.425933" lon="-5.309500">
        <ele>2258.0</ele>
        <time>2013-05-12T12:15:39Z</time>
      </trkpt>
      <trkpt lat="40.426000" lon="-5.309517">
        <ele>2259.0</ele>
        <time>2013-05-12T12:15:40Z</time>
      </trkpt>
      <trkpt lat="40.426067" lon="-5.309533">
        <ele>2260.0</ele>
        <time>2013-05-12T12:15:41Z</time>
      </trkpt>
      <trkpt lat="40.426133" lon="-5.309550">
        <ele>2261.0</ele>
        <time>2013-05-12T12:15:42Z</time>
      </trkpt>
      <trkpt lat="40.426200" lon="-5.309567">
        <ele>2261.0</ele>
        <time>2013-05-12T12:15:43Z</time>
      </trkpt>
      <trkpt lat="40.426267" lon="-5.309600">
        <ele>2260.0</ele>
        <time>2013-05-12T12:15:44Z</time>
      </trkpt>
      <trkpt lat="40.426317" lon="-5.309650">
        <ele>2260.0</ele>
        <time>2013-05-12T12:15:45Z</time>
      </trkpt>
      <trkpt lat="40.426367" lon="-5.309700">
        <ele>2259.0</ele>
        <time>2013-05-12T12:15:46Z</time>
      </trkpt>
      <trkpt lat="40.426433" lon="-5.309717">
        <ele>2258.0</ele>
        <time>2013-05-12T12:15:47Z</time>
      </trkpt>
      <trkpt lat="40.426517" lon="-5.309733">
        <ele>2256.0</ele>
        <time>2013-05-12T12:15:48Z</time>
      </trkpt>
      <trkpt lat="40.426583" lon="-5.309750">
        <ele>2255.0</ele>
        <time>2013-05-12T12:15:49Z</time>
      </trkpt>
      <trkpt lat="40.426650" lon="-5.309800">
        <ele>2253.0</ele>
        <time>2013-05-12T12:15:50Z</time>
      </trkpt>
      <trkpt lat="40.426717" lon="-5.309850">
        <ele>2251.0</ele>
        <time>2013-05-12T12:15:51Z</time>
      </trkpt>
      <trkpt lat="40.426767" lon="-5.309900">
        <ele>2251.0</ele>
        <time>2013-05-12T12:15:52Z</time>
      </trkpt>
      <trkpt lat="40.426817" lon="-5.309950">
        <ele>2250.0</ele>
        <time>2013-05-12T12:15:53Z</time>
      </trkpt>
      <trkpt lat="40.426850" lon="-5.309983">
        <ele>2250.0</ele>
        <time>2013-05-12T12:15:54Z</time>
      </trkpt>
      <trkpt lat="40.426883" lon="-5.310017">
        <ele>2249.0</ele>
        <time>2013-05-12T12:15:55Z</time>
      </trkpt>
      <trkpt lat="40.426933" lon="-5.310067">
        <ele>2247.0</ele>
        <time>2013-05-12T12:15:56Z</time>
      </trkpt>
      <trkpt lat="40.426950" lon="-5.310133">
        <ele>2245.0</ele>
        <time>2013-05-12T12:15:57Z</time>
      </trkpt>
      <trkpt lat="40.426983" lon="-5.310200">
        <ele>2244.0</ele>
        <time>2013-05-12T12:15:58Z</time>
      </trkpt>
      <trkpt lat="40.427050" lon="-5.310267">
        <ele>2244.0</ele>
        <time>2013-05-12T12:15:59Z</time>
      </trkpt>
      <trkpt lat="40.427100" lon="-5.310333">
        <ele>2245.0</ele>
        <time>2013-05-12T12:16:00Z</time>
      </trkpt>
      <trkpt lat="40.427150" lon="-5.310400">
        <ele>2245.0</ele>
        <time>2013-05-12T12:16:01Z</time>
      </trkpt>
      <trkpt lat="40.427183" lon="-5.310467">
        <ele>2247.0</ele>
        <time>2013-05-12T12:16:02Z</time>
      </trkpt>
      <trkpt lat="40.427217" lon="-5.310533">
        <ele>2247.0</ele>
        <time>2013-05-12T12:16:03Z</time>
      </trkpt>
      <trkpt lat="40.427283" lon="-5.310617">
        <ele>2247.0</ele>
        <time>2013-05-12T12:16:04Z</time>
      </trkpt>
      <trkpt lat="40.427333" lon="-5.310683">
        <ele>2248.0</ele>
        <time>2013-05-12T12:16:05Z</time>
      </trkpt>
      <trkpt lat="40.427400" lon="-5.310750">
        <ele>2249.0</ele>
        <time>2013-05-12T12:16:06Z</time>
      </trkpt>
      <trkpt lat="40.427450" lon="-5.310833">
        <ele>2250.0</ele>
        <time>2013-05-12T12:16:07Z</time>
      </trkpt>
      <trkpt lat="40.427500" lon="-5.310917">
        <ele>2252.0</ele>
        <time>2013-05-12T12:16:08Z</time>
      </trkpt>
      <trkpt lat="40.427567" lon="-5.310983">
        <ele>2255.0</ele>
        <time>2013-05-12T12:16:09Z</time>
      </trkpt>
      <trkpt lat="40.427617" lon="-5.311050">
        <ele>2257.0</ele>
        <time>2013-05-12T12:16:10Z</time>
      </trkpt>
      <trkpt lat="40.427667" lon="-5.311100">
        <ele>2260.0</ele>
        <time>2013-05-12T12:16:11Z</time>
      </trkpt>
      <trkpt lat="40.427717" lon="-5.311150">
        <ele>2262.0</ele>
        <time>2013-05-12T12:16:12Z</time>
      </trkpt>
      <trkpt lat="40.427750" lon="-5.311183">
        <ele>2263.0</ele>
        <time>2013-05-12T12:16:13Z</time>
      </trkpt>
      <trkpt lat="40.427783" lon="-5.311233">
        <ele>2263.0</ele>
        <time>2013-05-12T12:16:14Z</time>
      </trkpt>
      <trkpt lat="40.427850" lon="-5.311267">
        <ele>2262.0</ele>
        <time>2013-05-12T12:16:15Z</time>
      </trkpt>
      <trkpt lat="40.427917" lon="-5.311283">
        <ele>2263.0</ele>
        <time>2013-05-12T12:16:16Z</time>
      </trkpt>
      <trkpt lat="40.427983" lon="-5.311317">
        <ele>2264.0</ele>
        <time>2013-05-12T12:16:17Z</time>
      </trkpt>
      <trkpt lat="40.428067" lon="-5.311317">
        <ele>2266.0</ele>
        <time>2013-05-12T12:16:18Z</time>
      </trkpt>
      <trkpt lat="40.428133" lon="-5.311333">
        <ele>2267.0</ele>
        <time>2013-05-12T12:16:19Z</time>
      </trkpt>
      <trkpt lat="40.428200" lon="-5.311367">
        <ele>2268.0</ele>
        <time>2013-05-12T12:16:20Z</time>
      </trkpt>
      <trkpt lat="40.428283" lon="-5.311400">
        <ele>2268.0</ele>
        <time>2013-05-12T12:16:21Z</time>
      </trkpt>
      <trkpt lat="40.428350" lon="-5.311450">
        <ele>2268.0</ele>
        <time>2013-05-12T12:16:22Z</time>
      </trkpt>
      <trkpt lat="40.428417" lon="-5.311533">
        <ele>2268.0</ele>
        <time>2013-05-12T12:16:23Z</time>
      </trkpt>
      <trkpt lat="40.428467" lon="-5.311617">
        <ele>2270.0</ele>
        <time>2013-05-12T12:16:24Z</time>
      </trkpt>
      <trkpt lat="40.428517" lon="-5.311700">
        <ele>2272.0</ele>
        <time>2013-05-12T12:16:25Z</time>
      </trkpt>
      <trkpt lat="40.428550" lon="-5.311767">
        <ele>2274.0</ele>
        <time>2013-05-12T12:16:26Z</time>
      </trkpt>
      <trkpt lat="40.428567" lon="-5.311833">
        <ele>2275.0</ele>
        <time>2013-05-12T12:16:27Z</time>
      </trkpt>
      <trkpt lat="40.428583" lon="-5.311917">
        <ele>2276.0</ele>
        <time>2013-05-12T12:16:28Z</time>
      </trkpt>
      <trkpt lat="40.428583" lon="-5.312017">
        <ele>2276.0</ele>
        <time>2013-05-12T12:16:29Z</time>
      </trkpt>
      <trkpt lat="40.428567" lon="-5.312100">
        <ele>2277.0</ele>
        <time>2013-05-12T12:16:30Z</time>
      </trkpt>
      <trkpt lat="40.428550" lon="-5.312200">
        <ele>2278.0</ele>
        <time>2013-05-12T12:16:31Z</time>
      </trkpt>
      <trkpt lat="40.428517" lon="-5.312267">
        <ele>2279.0</ele>
        <time>2013-05-12T12:16:32Z</time>
      </trkpt>
      <trkpt lat="40.428467" lon="-5.312333">
        <ele>2280.0</ele>
        <time>2013-05-12T12:16:33Z</time>
      </trkpt>
      <trkpt lat="40.428400" lon="-5.312383">
        <ele>2281.0</ele>
        <time>2013-05-12T12:16:34Z</time>
      </trkpt>
      <trkpt lat="40.428317" lon="-5.312450">
        <ele>2282.0</ele>
        <time>2013-05-12T12:16:35Z</time>
      </trkpt>
      <trkpt lat="40.428217" lon="-5.312483">
        <ele>2285.0</ele>
        <time>2013-05-12T12:16:36Z</time>
      </trkpt>
      <trkpt lat="40.428150" lon="-5.312517">
        <ele>2288.0</ele>
        <time>2013-05-12T12:16:37Z</time>
      </trkpt>
      <trkpt lat="40.428083" lon="-5.312533">
        <ele>2291.0</ele>
        <time>2013-05-12T12:16:38Z</time>
      </trkpt>
      <trkpt lat="40.428017" lon="-5.312550">
        <ele>2292.0</ele>
        <time>2013-05-12T12:16:39Z</time>
      </trkpt>
      <trkpt lat="40.427950" lon="-5.312567">
        <ele>2292.0</ele>
        <time>2013-05-12T12:16:40Z</time>
      </trkpt>
      <trkpt lat="40.427867" lon="-5.312600">
        <ele>2290.0</ele>
        <time>2013-05-12T12:16:41Z</time>
      </trkpt>
      <trkpt lat="40.427800" lon="-5.312683">
        <ele>2289.0</ele>
        <time>2013-05-12T12:16:42Z</time>
      </trkpt>
      <trkpt lat="40.427733" lon="-5.312783">
        <ele>2289.0</ele>
        <time>2013-05-12T12:16:43Z</time>
      </trkpt>
      <trkpt lat="40.427683" lon="-5.312883">
        <ele>2291.0</ele>
        <time>2013-05-12T12:16:44Z</time>
      </trkpt>
      <trkpt lat="40.427650" lon="-5.312983">
        <ele>2295.0</ele>
        <time>2013-05-12T12:16:45Z</time>
      </trkpt>
      <trkpt lat="40.427617" lon="-5.313083">
        <ele>2298.0</ele>
        <time>2013-05-12T12:16:46Z</time>
      </trkpt>
      <trkpt lat="40.427600" lon="-5.313183">
        <ele>2300.0</ele>
        <time>2013-05-12T12:16:47Z</time>
      </trkpt>
      <trkpt lat="40.427617" lon="-5.313283">
        <ele>2302.0</ele>
        <time>2013-05-12T12:16:48Z</time>
      </trkpt>
      <trkpt lat="40.427650" lon="-5.313367">
        <ele>2303.0</ele>
        <time>2013-05-12T12:16:49Z</time>
      </trkpt>
      <trkpt lat="40.427683" lon="-5.313467">
        <ele>2304.0</ele>
        <time>2013-05-12T12:16:50Z</time>
      </trkpt>
      <trkpt lat="40.427733" lon="-5.313567">
        <ele>2305.0</ele>
        <time>2013-05-12T12:16:51Z</time>
      </trkpt>
      <trkpt lat="40.427783" lon="-5.313650">
        <ele>2307.0</ele>
        <time>2013-05-12T12:16:52Z</time>
      </trkpt>
      <trkpt lat="40.427850" lon="-5.313717">
        <ele>2308.0</ele>
        <time>2013-05-12T12:16:53Z</time>
      </trkpt>
      <trkpt lat="40.427917" lon="-5.313750">
        <ele>2310.0</ele>
        <time>2013-05-12T12:16:54Z</time>
      </trkpt>
      <trkpt lat="40.428000" lon="-5.313767">
        <ele>2311.0</ele>
        <time>2013-05-12T12:16:55Z</time>
      </trkpt>
      <trkpt lat="40.428083" lon="-5.313767">
        <ele>2314.0</ele>
        <time>2013-05-12T12:16:56Z</time>
      </trkpt>
      <trkpt lat="40.428150" lon="-5.313750">
        <ele>2316.0</ele>
        <time>2013-05-12T12:16:57Z</time>
      </trkpt>
      <trkpt lat="40.428217" lon="-5.313717">
        <ele>2318.0</ele>
        <time>2013-05-12T12:16:58Z</time>
      </trkpt>
      <trkpt lat="40.428267" lon="-5.313650">
        <ele>2319.0</ele>
        <time>2013-05-12T12:16:59Z</time>
      </trkpt>
      <trkpt lat="40.428317" lon="-5.313567">
        <ele>2320.0</ele>
        <time>2013-05-12T12:17:00Z</time>
      </trkpt>
      <trkpt lat="40.428350" lon="-5.313467">
        <ele>2321.0</ele>
        <time>2013-05-12T12:17:01Z</time>
      </trkpt>
      <trkpt lat="40.428383" lon="-5.313333">
        <ele>2322.0</ele>
        <time>2013-05-12T12:17:02Z</time>
      </trkpt>
      <trkpt lat="40.428383" lon="-5.313200">
        <ele>2323.0</ele>
        <time>2013-05-12T12:17:03Z</time>
      </trkpt>
      <trkpt lat="40.428367" lon="-5.313067">
        <ele>2324.0</ele>
        <time>2013-05-12T12:17:04Z</time>
      </trkpt>
      <trkpt lat="40.428333" lon="-5.312933">
        <ele>2325.0</ele>
        <time>2013-05-12T12:17:05Z</time>
      </trkpt>
      <trkpt lat="40.428283" lon="-5.312800">
        <ele>2327.0</ele>
        <time>2013-05-12T12:17:06Z</time>
      </trkpt>
      <trkpt lat="40.428217" lon="-5.312683">
        <ele>2330.0</ele>
        <time>2013-05-12T12:17:07Z</time>
      </trkpt>
      <trkpt lat="40.428150" lon="-5.312583">
        <ele>2332.0</ele>
        <time>2013-05-12T12:17:08Z</time>
      </trkpt>
      <trkpt lat="40.428067" lon="-5.312517">
        <ele>2333.0</ele>
        <time>2013-05-12T12:17:09Z</time>
      </trkpt>
      <trkpt lat="40.427967" lon="-5.312483">
        <ele>2334.0</ele>
        <time>2013-05-12T12:17:10Z</time>
      </trkpt>
      <trkpt lat="40.427867" lon="-5.312467">
        <ele>2336.0</ele>
        <time>2013-05-12T12:17:11Z</time>
      </trkpt>
      <trkpt lat="40.427767" lon="-5.312483">
        <ele>2338.0</ele>
        <time>2013-05-12T12:17:12Z</time>
      </trkpt>
      <trkpt lat="40.427683" lon="-5.312517">
        <ele>2341.0</ele>
        <time>2013-05-12T12:17:13Z</time>
      </trkpt>
      <trkpt lat="40.427617" lon="-5.312550">
        <ele>2343.0</ele>
        <time>2013-05-12T12:17:14Z</time>
      </trkpt>
      <trkpt lat="40.427567" lon="-5.312600">
        <ele>2344.0</ele>
        <time>2013-05-12T12:17:15Z</time>
      </trkpt>
      <trkpt lat="40.427517" lon="-5.312683">
        <ele>2344.0</ele>
        <time>2013-05-12T12:17:16Z</time>
      </trkpt>
      <trkpt lat="40.427450" lon="-5.312767">
        <ele>2344.0</ele>
        <time>2013-05-12T12:17:17Z</time>
      </trkpt>
      <trkpt lat="40.427417" lon="-5.312883">
        <ele>2344.0</ele>
        <time>2013-05-12T12:17:18Z</time>
      </trkpt>
      <trkpt lat="40.427383" lon="-5.312983">
        <ele>2345.0</ele>
        <time>2013-05-12T12:17:19Z</time>
      </trkpt>
      <trkpt lat="40.427383" lon="-5.313083">
        <ele>2346.0</ele>
        <time>2013-05-12T12:17:20Z</time>
      </trkpt>
      <trkpt lat="40.427400" lon="-5.313183">
        <ele>2349.0</ele>
        <time>2013-05-12T12:17:21Z</time>
      </trkpt>
      <trkpt lat="40.427417" lon="-5.313250">
        <ele>2350.0</ele>
        <time>2013-05-12T12:17:22Z</time>
      </trkpt>
      <trkpt lat="40.427467" lon="-5.313317">
        <ele>2352.0</ele>
        <time>2013-05-12T12:17:23Z</time>
      </trkpt>
      <trkpt lat="40.427533" lon="-5.313367">
        <ele>2353.0</ele>
        <time>2013-05-12T12:17:24Z</time>
      </trkpt>
      <trkpt lat="40.427583" lon="-5.313400">
        <ele>2355.0</ele>
        <time>2013-05-12T12:17:25Z</time>
      </trkpt>
      <trkpt lat="40.427650" lon="-5.313433">
        <ele>2356.0</ele>
        <time>2013-05-12T12:17:26Z</time>
      </trkpt>
      <trkpt lat="40.427717" lon="-5.313433">
        <ele>2357.0</ele>
        <time>2013-05-12T12:17:27Z</time>
      </trkpt>
      <trkpt lat="40.427800" lon="-5.313417">
        <ele>2357.0</ele>
        <time>2013-05-12T12:17:28Z</time>
      </trkpt>
      <trkpt lat="40.427883" lon="-5.313367">
        <ele>2358.0</ele>
        <time>2013-05-12T12:17:29Z</time>
      </trkpt>
      <trkpt lat="40.427950" lon="-5.313317">
        <ele>2360.0</ele>
        <time>2013-05-12T12:17:30Z</time>
      </trkpt>
      <trkpt lat="40.428000" lon="-5.313250">
        <ele>2362.0</ele>
        <time>2013-05-12T12:17:31Z</time>
      </trkpt>
      <trkpt lat="40.428050" lon="-5.313167">
        <ele>2364.0</ele>
        <time>2013-05-12T12:17:32Z</time>
      </trkpt>
      <trkpt lat="40.428083" lon="-5.313083">
        <ele>2364.0</ele>
        <time>2013-05-12T12:17:33Z</time>
      </trkpt>
      <trkpt lat="40.428100" lon="-5.312967">
        <ele>2364.0</ele>
        <time>2013-05-12T12:17:34Z</time>
      </trkpt>
      <trkpt lat="40.428117" lon="-5.312833">
        <ele>2364.0</ele>
        <time>2013-05-12T12:17:35Z</time>
      </trkpt>
      <trkpt lat="40.428100" lon="-5.312683">
        <ele>2365.0</ele>
        <time>2013-05-12T12:17:36Z</time>
      </trkpt>
      <trkpt lat="40.428067" lon="-5.312550">
        <ele>2367.0</ele>
        <time>2013-05-12T12:17:37Z</time>
      </trkpt>
      <trkpt lat="40.428017" lon="-5.312433">
        <ele>2368.0</ele>
        <time>2013-05-12T12:17:38Z</time>
      </trkpt>
      <trkpt lat="40.427950" lon="-5.312333">
        <ele>2370.0</ele>
        <time>2013-05-12T12:17:39Z</time>
      </trkpt>
      <trkpt lat="40.427867" lon="-5.312250">
        <ele>2371.0</ele>
        <time>2013-05-12T12:17:40Z</time>
      </trkpt>
      <trkpt lat="40.427783" lon="-5.312183">
        <ele>2372.0</ele>
        <time>2013-05-12T12:17:41Z</time>
      </trkpt>
      <trkpt lat="40.427700" lon="-5.312133">
        <ele>2373.0</ele>
        <time>2013-05-12T12:17:42Z</time>
      </trkpt>
      <trkpt lat="40.427600" lon="-5.312133">
        <ele>2373.0</ele>
        <time>2013-05-12T12:17:43Z</time>
      </trkpt>
      <trkpt lat="40.427517" lon="-5.312150">
        <ele>2373.0</ele>
        <time>2013-05-12T12:17:44Z</time>
      </trkpt>
      <trkpt lat="40.427417" lon="-5.312183">
        <ele>2374.0</ele>
        <time>2013-05-12T12:17:45Z</time>
      </trkpt>
      <trkpt lat="40.427333" lon="-5.312250">
        <ele>2376.0</ele>
        <time>2013-05-12T12:17:46Z</time>
      </trkpt>
      <trkpt lat="40.427267" lon="-5.312300">
        <ele>2378.0</ele>
        <time>2013-05-12T12:17:47Z</time>
      </trkpt>
      <trkpt lat="40.427217" lon="-5.312367">
        <ele>2380.0</ele>
        <time>2013-05-12T12:17:48Z</time>
      </trkpt>
      <trkpt lat="40.427183" lon="-5.312433">
        <ele>2381.0</ele>
        <time>2013-05-12T12:17:49Z</time>
      </trkpt>
      <trkpt lat="40.427150" lon="-5.312500">
        <ele>2381.0</ele>
        <time>2013-05-12T12:17:50Z</time>
      </trkpt>
      <trkpt lat="40.427150" lon="-5.312583">
        <ele>2381.0</ele>
        <time>2013-05-12T12:17:51Z</time>
      </trkpt>
      <trkpt lat="40.427133" lon="-5.312683">
        <ele>2381.0</ele>
        <time>2013-05-12T12:17:52Z</time>
      </trkpt>
      <trkpt lat="40.427167" lon="-5.312767">
        <ele>2382.0</ele>
        <time>2013-05-12T12:17:53Z</time>
      </trkpt>
      <trkpt lat="40.427200" lon="-5.312850">
        <ele>2384.0</ele>
        <time>2013-05-12T12:17:54Z</time>
      </trkpt>
      <trkpt lat="40.427233" lon="-5.312900">
        <ele>2386.0</ele>
        <time>2013-05-12T12:17:55Z</time>
      </trkpt>
      <trkpt lat="40.427283" lon="-5.312950">
        <ele>2387.0</ele>
        <time>2013-05-12T12:17:56Z</time>
      </trkpt>
      <trkpt lat="40.427317" lon="-5.312983">
        <ele>2388.0</ele>
        <time>2013-05-12T12:17:57Z</time>
      </trkpt>
      <trkpt lat="40.427383" lon="-5.313017">
        <ele>2388.0</ele>
        <time>2013-05-12T12:17:58Z</time>
      </trkpt>
      <trkpt lat="40.427467" lon="-5.313017">
        <ele>2387.0</ele>
        <time>2013-05-12T12:17:59Z</time>
      </trkpt>
      <trkpt lat="40.427550" lon="-5.312967">
        <ele>2387.0</ele>
        <time>2013-05-12T12:18:00Z</time>
      </trkpt>
      <trkpt lat="40.427617" lon="-5.312917">
        <ele>2388.0</ele>
        <time>2013-05-12T12:18:01Z</time>
      </trkpt>
      <trkpt lat="40.427683" lon="-5.312850">
        <ele>2390.0</ele>
        <time>2013-05-12T12:18:02Z</time>
      </trkpt>
      <trkpt lat="40.427733" lon="-5.312783">
        <ele>2392.0</ele>
        <time>2013-05-12T12:18:03Z</time>
      </trkpt>
      <trkpt lat="40.427783" lon="-5.312733">
        <ele>2393.0</ele>
        <time>2013-05-12T12:18:04Z</time>
      </trkpt>
      <trkpt lat="40.427817" lon="-5.312650">
        <ele>2393.0</ele>
        <time>2013-05-12T12:18:05Z</time>
      </trkpt>
      <trkpt lat="40.427867" lon="-5.312550">
        <ele>2392.0</ele>
        <time>2013-05-12T12:18:06Z</time>
      </trkpt>
      <trkpt lat="40.427900" lon="-5.312433">
        <ele>2392.0</ele>
        <time>2013-05-12T12:18:07Z</time>
      </trkpt>
      <trkpt lat="40.427917" lon="-5.312300">
        <ele>2393.0</ele>
        <time>2013-05-12T12:18:08Z</time>
      </trkpt>
      <trkpt lat="40.427900" lon="-5.312183">
        <ele>2394.0</ele>
        <time>2013-05-12T12:18:09Z</time>
      </trkpt>
      <trkpt lat="40.427867" lon="-5.312067">
        <ele>2394.0</ele>
        <time>2013-05-12T12:18:10Z</time>
      </trkpt>
      <trkpt lat="40.427817" lon="-5.311950">
        <ele>2395.0</ele>
        <time>2013-05-12T12:18:11Z</time>
      </trkpt>
      <trkpt lat="40.427767" lon="-5.311850">
        <ele>2395.0</ele>
        <time>2013-05-12T12:18:12Z</time>
      </trkpt>
      <trkpt lat="40.427700" lon="-5.311750">
        <ele>2395.0</ele>
        <time>2013-05-12T12:18:13Z</time>
      </trkpt>
      <trkpt lat="40.427617" lon="-5.311650">
        <ele>2394.0</ele>
        <time>2013-05-12T12:18:14Z</time>
      </trkpt>
      <trkpt lat="40.427517" lon="-5.311583">
        <ele>2394.0</ele>
        <time>2013-05-12T12:18:15Z</time>
      </trkpt>
      <trkpt lat="40.427400" lon="-5.311533">
        <ele>2394.0</ele>
        <time>2013-05-12T12:18:16Z</time>
      </trkpt>
      <trkpt lat="40.427300" lon="-5.311500">
        <ele>2395.0</ele>
        <time>2013-05-12T12:18:17Z</time>
      </trkpt>
      <trkpt lat="40.427200" lon="-5.311500">
        <ele>2396.0</ele>
        <time>2013-05-12T12:18:18Z</time>
      </trkpt>
      <trkpt lat="40.427100" lon="-5.311533">
        <ele>2397.0</ele>
        <time>2013-05-12T12:18:19Z</time>
      </trkpt>
      <trkpt lat="40.427033" lon="-5.311583">
        <ele>2398.0</ele>
        <time>2013-05-12T12:18:20Z</time>
      </trkpt>
      <trkpt lat="40.426950" lon="-5.311633">
        <ele>2399.0</ele>
        <time>2013-05-12T12:18:21Z</time>
      </trkpt>
      <trkpt lat="40.426883" lon="-5.311683">
        <ele>2401.0</ele>
        <time>2013-05-12T12:18:22Z</time>
      </trkpt>
      <trkpt lat="40.426833" lon="-5.311733">
        <ele>2401.0</ele>
        <time>2013-05-12T12:18:23Z</time>
      </trkpt>
      <trkpt lat="40.426767" lon="-5.311800">
        <ele>2401.0</ele>
        <time>2013-05-12T12:18:24Z</time>
      </trkpt>
      <trkpt lat="40.426700" lon="-5.311867">
        <ele>2401.0</ele>
        <time>2013-05-12T12:18:25Z</time>
      </trkpt>
      <trkpt lat="40.426650" lon="-5.311950">
        <ele>2401.0</ele>
        <time>2013-05-12T12:18:26Z</time>
      </trkpt>
      <trkpt lat="40.426617" lon="-5.312033">
        <ele>2402.0</ele>
        <time>2013-05-12T12:18:27Z</time>
      </trkpt>
      <trkpt lat="40.426567" lon="-5.312100">
        <ele>2403.0</ele>
        <time>2013-05-12T12:18:28Z</time>
      </trkpt>
      <trkpt lat="40.426517" lon="-5.312183">
        <ele>2405.0</ele>
        <time>2013-05-12T12:18:29Z</time>
      </trkpt>
      <trkpt lat="40.426467" lon="-5.312250">
        <ele>2405.0</ele>
        <time>2013-05-12T12:18:30Z</time>
      </trkpt>
      <trkpt lat="40.426417" lon="-5.312333">
        <ele>2407.0</ele>
        <time>2013-05-12T12:18:31Z</time>
      </trkpt>
      <trkpt lat="40.426383" lon="-5.312417">
        <ele>2408.0</ele>
        <time>2013-05-12T12:18:32Z</time>
      </trkpt>
      <trkpt lat="40.426350" lon="-5.312483">
        <ele>2409.0</ele>
        <time>2013-05-12T12:18:33Z</time>
      </trkpt>
      <trkpt lat="40.426333" lon="-5.312550">
        <ele>2409.0</ele>
        <time>2013-05-12T12:18:34Z</time>
      </trkpt>
      <trkpt lat="40.426317" lon="-5.312633">
        <ele>2408.0</ele>
        <time>2013-05-12T12:18:35Z</time>
      </trkpt>
      <trkpt lat="40.426300" lon="-5.312717">
        <ele>2407.0</ele>
        <time>2013-05-12T12:18:36Z</time>
      </trkpt>
      <trkpt lat="40.426300" lon="-5.312800">
        <ele>2405.0</ele>
        <time>2013-05-12T12:18:37Z</time>
      </trkpt>
      <trkpt lat="40.426283" lon="-5.312917">
        <ele>2404.0</ele>
        <time>2013-05-12T12:18:38Z</time>
      </trkpt>
      <trkpt lat="40.426283" lon="-5.313033">
        <ele>2404.0</ele>
        <time>2013-05-12T12:18:39Z</time>
      </trkpt>
      <trkpt lat="40.426267" lon="-5.313133">
        <ele>2404.0</ele>
        <time>2013-05-12T12:18:40Z</time>
      </trkpt>
      <trkpt lat="40.426250" lon="-5.313250">
        <ele>2404.0</ele>
        <time>2013-05-12T12:18:41Z</time>
      </trkpt>
      <trkpt lat="40.426217" lon="-5.313350">
        <ele>2404.0</ele>
        <time>2013-05-12T12:18:42Z</time>
      </trkpt>
      <trkpt lat="40.426183" lon="-5.313467">
        <ele>2403.0</ele>
        <time>2013-05-12T12:18:43Z</time>
      </trkpt>
      <trkpt lat="40.426150" lon="-5.313567">
        <ele>2403.0</ele>
        <time>2013-05-12T12:18:44Z</time>
      </trkpt>
      <trkpt lat="40.426117" lon="-5.313683">
        <ele>2403.0</ele>
        <time>2013-05-12T12:18:45Z</time>
      </trkpt>
      <trkpt lat="40.426083" lon="-5.313783">
        <ele>2403.0</ele>
        <time>2013-05-12T12:18:46Z</time>
      </trkpt>
      <trkpt lat="40.426067" lon="-5.313883">
        <ele>2403.0</ele>
        <time>2013-05-12T12:18:47Z</time>
      </trkpt>
      <trkpt lat="40.426033" lon="-5.313983">
        <ele>2402.0</ele>
        <time>2013-05-12T12:18:48Z</time>
      </trkpt>
      <trkpt lat="40.426000" lon="-5.314083">
        <ele>2400.0</ele>
        <time>2013-05-12T12:18:49Z</time>
      </trkpt>
      <trkpt lat="40.425967" lon="-5.314200">
        <ele>2398.0</ele>
        <time>2013-05-12T12:18:50Z</time>
      </trkpt>
      <trkpt lat="40.425917" lon="-5.314300">
        <ele>2397.0</ele>
        <time>2013-05-12T12:18:51Z</time>
      </trkpt>
      <trkpt lat="40.425883" lon="-5.314417">
        <ele>2396.0</ele>
        <time>2013-05-12T12:18:52Z</time>
      </trkpt>
      <trkpt lat="40.425833" lon="-5.314500">
        <ele>2395.0</ele>
        <time>2013-05-12T12:18:53Z</time>
      </trkpt>
      <trkpt lat="40.425800" lon="-5.314583">
        <ele>2394.0</ele>
        <time>2013-05-12T12:18:54Z</time>
      </trkpt>
      <trkpt lat="40.425767" lon="-5.314683">
        <ele>2392.0</ele>
        <time>2013-05-12T12:18:55Z</time>
      </trkpt>
      <trkpt lat="40.425717" lon="-5.314783">
        <ele>2390.0</ele>
        <time>2013-05-12T12:18:56Z</time>
      </trkpt>
      <trkpt lat="40.425667" lon="-5.314883">
        <ele>2388.0</ele>
        <time>2013-05-12T12:18:57Z</time>
      </trkpt>
      <trkpt lat="40.425633" lon="-5.315000">
        <ele>2387.0</ele>
        <time>2013-05-12T12:18:58Z</time>
      </trkpt>
      <trkpt lat="40.425583" lon="-5.315100">
        <ele>2386.0</ele>
        <time>2013-05-12T12:18:59Z</time>
      </trkpt>
      <trkpt lat="40.425550" lon="-5.315200">
        <ele>2386.0</ele>
        <time>2013-05-12T12:19:00Z</time>
      </trkpt>
      <trkpt lat="40.425517" lon="-5.315283">
        <ele>2384.0</ele>
        <time>2013-05-12T12:19:01Z</time>
      </trkpt>
      <trkpt lat="40.425467" lon="-5.315383">
        <ele>2382.0</ele>
        <time>2013-05-12T12:19:02Z</time>
      </trkpt>
      <trkpt lat="40.425417" lon="-5.315500">
        <ele>2380.0</ele>
        <time>2013-05-12T12:19:03Z</time>
      </trkpt>
      <trkpt lat="40.425367" lon="-5.315617">
        <ele>2379.0</ele>
        <time>2013-05-12T12:19:04Z</time>
      </trkpt>
      <trkpt lat="40.425300" lon="-5.315733">
        <ele>2380.0</ele>
        <time>2013-05-12T12:19:05Z</time>
      </trkpt>
      <trkpt lat="40.425250" lon="-5.315833">
        <ele>2381.0</ele>
        <time>2013-05-12T12:19:06Z</time>
      </trkpt>
      <trkpt lat="40.425200" lon="-5.315917">
        <ele>2381.0</ele>
        <time>2013-05-12T12:19:07Z</time>
      </trkpt>
      <trkpt lat="40.425150" lon="-5.315983">
        <ele>2382.0</ele>
        <time>2013-05-12T12:19:08Z</time>
      </trkpt>
      <trkpt lat="40.425100" lon="-5.316067">
        <ele>2381.0</ele>
        <time>2013-05-12T12:19:09Z</time>
      </trkpt>
      <trkpt lat="40.425050" lon="-5.316167">
        <ele>2379.0</ele>
        <time>2013-05-12T12:19:10Z</time>
      </trkpt>
      <trkpt lat="40.425000" lon="-5.316267">
        <ele>2378.0</ele>
        <time>2013-05-12T12:19:11Z</time>
      </trkpt>
      <trkpt lat="40.424967" lon="-5.316367">
        <ele>2377.0</ele>
        <time>2013-05-12T12:19:12Z</time>
      </trkpt>
      <trkpt lat="40.424933" lon="-5.316483">
        <ele>2376.0</ele>
        <time>2013-05-12T12:19:13Z</time>
      </trkpt>
      <trkpt lat="40.424883" lon="-5.316583">
        <ele>2375.0</ele>
        <time>2013-05-12T12:19:14Z</time>
      </trkpt>
      <trkpt lat="40.424833" lon="-5.316683">
        <ele>2375.0</ele>
        <time>2013-05-12T12:19:15Z</time>
      </trkpt>
      <trkpt lat="40.424783" lon="-5.316767">
        <ele>2375.0</ele>
        <time>2013-05-12T12:19:16Z</time>
      </trkpt>
      <trkpt lat="40.424733" lon="-5.316867">
        <ele>2374.0</ele>
        <time>2013-05-12T12:19:17Z</time>
      </trkpt>
      <trkpt lat="40.424683" lon="-5.316967">
        <ele>2373.0</ele>
        <time>2013-05-12T12:19:18Z</time>
      </trkpt>
      <trkpt lat="40.424633" lon="-5.317067">
        <ele>2372.0</ele>
        <time>2013-05-12T12:19:19Z</time>
      </trkpt>
      <trkpt lat="40.424600" lon="-5.317167">
        <ele>2371.0</ele>
        <time>2013-05-12T12:19:20Z</time>
      </trkpt>
      <trkpt lat="40.424567" lon="-5.317283">
        <ele>2370.0</ele>
        <time>2013-05-12T12:19:21Z</time>
      </trkpt>
      <trkpt lat="40.424533" lon="-5.317383">
        <ele>2370.0</ele>
        <time>2013-05-12T12:19:22Z</time>
      </trkpt>
      <trkpt lat="40.424500" lon="-5.317483">
        <ele>2370.0</ele>
        <time>2013-05-12T12:19:23Z</time>
      </trkpt>
      <trkpt lat="40.424467" lon="-5.317583">
        <ele>2371.0</ele>
        <time>2013-05-12T12:19:24Z</time>
      </trkpt>
      <trkpt lat="40.424433" lon="-5.317683">
        <ele>2370.0</ele>
        <time>2013-05-12T12:19:25Z</time>
      </trkpt>
      <trkpt lat="40.424400" lon="-5.317800">
        <ele>2370.0</ele>
        <time>2013-05-12T12:19:26Z</time>
      </trkpt>
      <trkpt lat="40.424367" lon="-5.317900">
        <ele>2370.0</ele>
        <time>2013-05-12T12:19:27Z</time>
      </trkpt>
      <trkpt lat="40.424317" lon="-5.318017">
        <ele>2370.0</ele>
        <time>2013-05-12T12:19:28Z</time>
      </trkpt>
      <trkpt lat="40.424267" lon="-5.318117">
        <ele>2371.0</ele>
        <time>2013-05-12T12:19:29Z</time>
      </trkpt>
      <trkpt lat="40.424233" lon="-5.318217">
        <ele>2371.0</ele>
        <time>2013-05-12T12:19:30Z</time>
      </trkpt>
      <trkpt lat="40.424200" lon="-5.318317">
        <ele>2371.0</ele>
        <time>2013-05-12T12:19:31Z</time>
      </trkpt>
      <trkpt lat="40.424150" lon="-5.318417">
        <ele>2371.0</ele>
        <time>2013-05-12T12:19:32Z</time>
      </trkpt>
      <trkpt lat="40.424117" lon="-5.318517">
        <ele>2370.0</ele>
        <time>2013-05-12T12:19:33Z</time>
      </trkpt>
      <trkpt lat="40.424067" lon="-5.318633">
        <ele>2370.0</ele>
        <time>2013-05-12T12:19:34Z</time>
      </trkpt>
      <trkpt lat="40.424017" lon="-5.318733">
        <ele>2370.0</ele>
        <time>2013-05-12T12:19:35Z</time>
      </trkpt>
      <trkpt lat="40.423967" lon="-5.318833">
        <ele>2371.0</ele>
        <time>2013-05-12T12:19:36Z</time>
      </trkpt>
      <trkpt lat="40.423933" lon="-5.318933">
        <ele>2371.0</ele>
        <time>2013-05-12T12:19:37Z</time>
      </trkpt>
      <trkpt lat="40.423883" lon="-5.319017">
        <ele>2370.0</ele>
        <time>2013-05-12T12:19:38Z</time>
      </trkpt>
      <trkpt lat="40.423833" lon="-5.319117">
        <ele>2369.0</ele>
        <time>2013-05-12T12:19:39Z</time>
      </trkpt>
      <trkpt lat="40.423767" lon="-5.319217">
        <ele>2368.0</ele>
        <time>2013-05-12T12:19:40Z</time>
      </trkpt>
      <trkpt lat="40.423717" lon="-5.319333">
        <ele>2368.0</ele>
        <time>2013-05-12T12:19:41Z</time>
      </trkpt>
      <trkpt lat="40.423650" lon="-5.319450">
        <ele>2368.0</ele>
        <time>2013-05-12T12:19:42Z</time>
      </trkpt>
      <trkpt lat="40.423583" lon="-5.319567">
        <ele>2370.0</ele>
        <time>2013-05-12T12:19:43Z</time>
      </trkpt>
      <trkpt lat="40.423517" lon="-5.319700">
        <ele>2373.0</ele>
        <time>2013-05-12T12:19:44Z</time>
      </trkpt>
      <trkpt lat="40.423450" lon="-5.319817">
        <ele>2377.0</ele>
        <time>2013-05-12T12:19:45Z</time>
      </trkpt>
      <trkpt lat="40.423383" lon="-5.319933">
        <ele>2381.0</ele>
        <time>2013-05-12T12:19:46Z</time>
      </trkpt>
      <trkpt lat="40.423317" lon="-5.320050">
        <ele>2385.0</ele>
        <time>2013-05-12T12:19:47Z</time>
      </trkpt>
      <trkpt lat="40.423250" lon="-5.320133">
        <ele>2389.0</ele>
        <time>2013-05-12T12:19:48Z</time>
      </trkpt>
      <trkpt lat="40.423200" lon="-5.320217">
        <ele>2392.0</ele>
        <time>2013-05-12T12:19:49Z</time>
      </trkpt>
      <trkpt lat="40.423150" lon="-5.320300">
        <ele>2395.0</ele>
        <time>2013-05-12T12:19:50Z</time>
      </trkpt>
      <trkpt lat="40.423133" lon="-5.320367">
        <ele>2397.0</ele>
        <time>2013-05-12T12:19:51Z</time>
      </trkpt>
      <trkpt lat="40.423133" lon="-5.320433">
        <ele>2398.0</ele>
        <time>2013-05-12T12:19:52Z</time>
      </trkpt>
      <trkpt lat="40.423167" lon="-5.320467">
        <ele>2398.0</ele>
        <time>2013-05-12T12:19:53Z</time>
      </trkpt>
      <trkpt lat="40.423200" lon="-5.320500">
        <ele>2399.0</ele>
        <time>2013-05-12T12:19:54Z</time>
      </trkpt>
      <trkpt lat="40.423250" lon="-5.320500">
        <ele>2401.0</ele>
        <time>2013-05-12T12:19:55Z</time>
      </trkpt>
      <trkpt lat="40.423300" lon="-5.320483">
        <ele>2403.0</ele>
        <time>2013-05-12T12:19:56Z</time>
      </trkpt>
      <trkpt lat="40.423350" lon="-5.320450">
        <ele>2405.0</ele>
        <time>2013-05-12T12:19:57Z</time>
      </trkpt>
      <trkpt lat="40.423383" lon="-5.320383">
        <ele>2406.0</ele>
        <time>2013-05-12T12:19:58Z</time>
      </trkpt>
      <trkpt lat="40.423417" lon="-5.320300">
        <ele>2407.0</ele>
        <time>2013-05-12T12:19:59Z</time>
      </trkpt>
      <trkpt lat="40.423433" lon="-5.320200">
        <ele>2409.0</ele>
        <time>2013-05-12T12:20:00Z</time>
      </trkpt>
      <trkpt lat="40.423433" lon="-5.320083">
        <ele>2412.0</ele>
        <time>2013-05-12T12:20:01Z</time>
      </trkpt>
      <trkpt lat="40.423417" lon="-5.319950">
        <ele>2416.0</ele>
        <time>2013-05-12T12:20:02Z</time>
      </trkpt>
      <trkpt lat="40.423383" lon="-5.319833">
        <ele>2419.0</ele>
        <time>2013-05-12T12:20:03Z</time>
      </trkpt>
      <trkpt lat="40.423333" lon="-5.319733">
        <ele>2422.0</ele>
        <time>2013-05-12T12:20:04Z</time>
      </trkpt>
      <trkpt lat="40.423267" lon="-5.319633">
        <ele>2424.0</ele>
        <time>2013-05-12T12:20:05Z</time>
      </trkpt>
      <trkpt lat="40.423167" lon="-5.319550">
        <ele>2425.0</ele>
        <time>2013-05-12T12:20:06Z</time>
      </trkpt>
      <trkpt lat="40.423050" lon="-5.319500">
        <ele>2426.0</ele>
        <time>2013-05-12T12:20:07Z</time>
      </trkpt>
      <trkpt lat="40.422933" lon="-5.319467">
        <ele>2428.0</ele>
        <time>2013-05-12T12:20:08Z</time>
      </trkpt>
      <trkpt lat="40.422817" lon="-5.319483">
        <ele>2430.0</ele>
        <time>2013-05-12T12:20:09Z</time>
      </trkpt>
      <trkpt lat="40.422717" lon="-5.319500">
        <ele>2432.0</ele>
        <time>2013-05-12T12:20:10Z</time>
      </trkpt>
      <trkpt lat="40.422600" lon="-5.319567">
        <ele>2434.0</ele>
        <time>2013-05-12T12:20:11Z</time>
      </trkpt>
      <trkpt lat="40.422500" lon="-5.319617">
        <ele>2437.0</ele>
        <time>2013-05-12T12:20:12Z</time>
      </trkpt>
      <trkpt lat="40.422417" lon="-5.319700">
        <ele>2440.0</ele>
        <time>2013-05-12T12:20:13Z</time>
      </trkpt>
      <trkpt lat="40.422350" lon="-5.319767">
        <ele>2442.0</ele>
        <time>2013-05-12T12:20:14Z</time>
      </trkpt>
      <trkpt lat="40.422283" lon="-5.319833">
        <ele>2443.0</ele>
        <time>2013-05-12T12:20:15Z</time>
      </trkpt>
      <trkpt lat="40.422233" lon="-5.319917">
        <ele>2445.0</ele>
        <time>2013-05-12T12:20:16Z</time>
      </trkpt>
      <trkpt lat="40.422183" lon="-5.320017">
        <ele>2447.0</ele>
        <time>2013-05-12T12:20:17Z</time>
      </trkpt>
      <trkpt lat="40.422150" lon="-5.320117">
        <ele>2449.0</ele>
        <time>2013-05-12T12:20:18Z</time>
      </trkpt>
      <trkpt lat="40.422117" lon="-5.320233">
        <ele>2452.0</ele>
        <time>2013-05-12T12:20:19Z</time>
      </trkpt>
      <trkpt lat="40.422100" lon="-5.320317">
        <ele>2456.0</ele>
        <time>2013-05-12T12:20:20Z</time>
      </trkpt>
      <trkpt lat="40.422100" lon="-5.320383">
        <ele>2458.0</ele>
        <time>2013-05-12T12:20:21Z</time>
      </trkpt>
      <trkpt lat="40.422100" lon="-5.320467">
        <ele>2460.0</ele>
        <time>2013-05-12T12:20:22Z</time>
      </trkpt>
      <trkpt lat="40.422117" lon="-5.320533">
        <ele>2461.0</ele>
        <time>2013-05-12T12:20:23Z</time>
      </trkpt>
      <trkpt lat="40.422150" lon="-5.320583">
        <ele>2461.0</ele>
        <time>2013-05-12T12:20:24Z</time>
      </trkpt>
      <trkpt lat="40.422200" lon="-5.320650">
        <ele>2462.0</ele>
        <time>2013-05-12T12:20:25Z</time>
      </trkpt>
      <trkpt lat="40.422233" lon="-5.320717">
        <ele>2463.0</ele>
        <time>2013-05-12T12:20:26Z</time>
      </trkpt>
      <trkpt lat="40.422250" lon="-5.320767">
        <ele>2466.0</ele>
        <time>2013-05-12T12:20:27Z</time>
      </trkpt>
      <trkpt lat="40.422267" lon="-5.320800">
        <ele>2468.0</ele>
        <time>2013-05-12T12:20:28Z</time>
      </trkpt>
      <trkpt lat="40.422283" lon="-5.320817">
        <ele>2469.0</ele>
        <time>2013-05-12T12:20:29Z</time>
      </trkpt>
      <trkpt lat="40.422317" lon="-5.320817">
        <ele>2469.0</ele>
        <time>2013-05-12T12:20:30Z</time>
      </trkpt>
      <trkpt lat="40.422350" lon="-5.320800">
        <ele>2468.0</ele>
        <time>2013-05-12T12:20:31Z</time>
      </trkpt>
      <trkpt lat="40.422400" lon="-5.320783">
        <ele>2467.0</ele>
        <time>2013-05-12T12:20:32Z</time>
      </trkpt>
      <trkpt lat="40.422450" lon="-5.320750">
        <ele>2467.0</ele>
        <time>2013-05-12T12:20:33Z</time>
      </trkpt>
      <trkpt lat="40.422500" lon="-5.320733">
        <ele>2468.0</ele>
        <time>2013-05-12T12:20:34Z</time>
      </trkpt>
      <trkpt lat="40.422533" lon="-5.320750">
        <ele>2469.0</ele>
        <time>2013-05-12T12:20:35Z</time>
      </trkpt>
      <trkpt lat="40.422550" lon="-5.320817">
        <ele>2469.0</ele>
        <time>2013-05-12T12:20:36Z</time>
      </trkpt>
      <trkpt lat="40.422550" lon="-5.320900">
        <ele>2469.0</ele>
        <time>2013-05-12T12:20:37Z</time>
      </trkpt>
      <trkpt lat="40.422533" lon="-5.320983">
        <ele>2471.0</ele>
        <time>2013-05-12T12:20:38Z</time>
      </trkpt>
      <trkpt lat="40.422517" lon="-5.321067">
        <ele>2472.0</ele>
        <time>2013-05-12T12:20:39Z</time>
      </trkpt>
      <trkpt lat="40.422467" lon="-5.321133">
        <ele>2472.0</ele>
        <time>2013-05-12T12:20:40Z</time>
      </trkpt>
      <trkpt lat="40.422433" lon="-5.321217">
        <ele>2472.0</ele>
        <time>2013-05-12T12:20:41Z</time>
      </trkpt>
      <trkpt lat="40.422367" lon="-5.321317">
        <ele>2471.0</ele>
        <time>2013-05-12T12:20:42Z</time>
      </trkpt>
      <trkpt lat="40.422317" lon="-5.321417">
        <ele>2470.0</ele>
        <time>2013-05-12T12:20:43Z</time>
      </trkpt>
      <trkpt lat="40.422250" lon="-5.321517">
        <ele>2471.0</ele>
        <time>2013-05-12T12:20:44Z</time>
      </trkpt>
      <trkpt lat="40.422183" lon="-5.321617">
        <ele>2472.0</ele>
        <time>2013-05-12T12:20:45Z</time>
      </trkpt>
      <trkpt lat="40.422117" lon="-5.321683">
        <ele>2473.0</ele>
        <time>2013-05-12T12:20:46Z</time>
      </trkpt>
      <trkpt lat="40.422050" lon="-5.321767">
        <ele>2472.0</ele>
        <time>2013-05-12T12:20:47Z</time>
      </trkpt>
      <trkpt lat="40.421983" lon="-5.321850">
        <ele>2472.0</ele>
        <time>2013-05-12T12:20:48Z</time>
      </trkpt>
      <trkpt lat="40.421917" lon="-5.321933">
        <ele>2470.0</ele>
        <time>2013-05-12T12:20:49Z</time>
      </trkpt>
      <trkpt lat="40.421850" lon="-5.322050">
        <ele>2469.0</ele>
        <time>2013-05-12T12:20:50Z</time>
      </trkpt>
      <trkpt lat="40.421783" lon="-5.322167">
        <ele>2468.0</ele>
        <time>2013-05-12T12:20:51Z</time>
      </trkpt>
      <trkpt lat="40.421733" lon="-5.322283">
        <ele>2469.0</ele>
        <time>2013-05-12T12:20:52Z</time>
      </trkpt>
      <trkpt lat="40.421683" lon="-5.322383">
        <ele>2470.0</ele>
        <time>2013-05-12T12:20:53Z</time>
      </trkpt>
      <trkpt lat="40.421617" lon="-5.322467">
        <ele>2471.0</ele>
        <time>2013-05-12T12:20:54Z</time>
      </trkpt>
      <trkpt lat="40.421550" lon="-5.322550">
        <ele>2471.0</ele>
        <time>2013-05-12T12:20:55Z</time>
      </trkpt>
      <trkpt lat="40.421500" lon="-5.322650">
        <ele>2471.0</ele>
        <time>2013-05-12T12:20:56Z</time>
      </trkpt>
      <trkpt lat="40.421450" lon="-5.322750">
        <ele>2471.0</ele>
        <time>2013-05-12T12:20:57Z</time>
      </trkpt>
      <trkpt lat="40.421400" lon="-5.322850">
        <ele>2471.0</ele>
        <time>2013-05-12T12:20:58Z</time>
      </trkpt>
      <trkpt lat="40.421350" lon="-5.322933">
        <ele>2470.0</ele>
        <time>2013-05-12T12:20:59Z</time>
      </trkpt>
      <trkpt lat="40.421300" lon="-5.323017">
        <ele>2469.0</ele>
        <time>2013-05-12T12:21:00Z</time>
      </trkpt>
      <trkpt lat="40.421250" lon="-5.323117">
        <ele>2467.0</ele>
        <time>2013-05-12T12:21:01Z</time>
      </trkpt>
      <trkpt lat="40.421217" lon="-5.323217">
        <ele>2465.0</ele>
        <time>2013-05-12T12:21:02Z</time>
      </trkpt>
      <trkpt lat="40.421167" lon="-5.323317">
        <ele>2463.0</ele>
        <time>2013-05-12T12:21:03Z</time>
      </trkpt>
      <trkpt lat="40.421133" lon="-5.323417">
        <ele>2462.0</ele>
        <time>2013-05-12T12:21:04Z</time>
      </trkpt>
      <trkpt lat="40.421100" lon="-5.323517">
        <ele>2460.0</ele>
        <time>2013-05-12T12:21:05Z</time>
      </trkpt>
      <trkpt lat="40.421050" lon="-5.323600">
        <ele>2458.0</ele>
        <time>2013-05-12T12:21:06Z</time>
      </trkpt>
      <trkpt lat="40.421000" lon="-5.323717">
        <ele>2455.0</ele>
        <time>2013-05-12T12:21:07Z</time>
      </trkpt>
      <trkpt lat="40.420950" lon="-5.323817">
        <ele>2453.0</ele>
        <time>2013-05-12T12:21:08Z</time>
      </trkpt>
      <trkpt lat="40.420900" lon="-5.323933">
        <ele>2452.0</ele>
        <time>2013-05-12T12:21:09Z</time>
      </trkpt>
      <trkpt lat="40.420833" lon="-5.324033">
        <ele>2450.0</ele>
        <time>2013-05-12T12:21:10Z</time>
      </trkpt>
      <trkpt lat="40.420783" lon="-5.324133">
        <ele>2449.0</ele>
        <time>2013-05-12T12:21:11Z</time>
      </trkpt>
      <trkpt lat="40.420733" lon="-5.324217">
        <ele>2447.0</ele>
        <time>2013-05-12T12:21:12Z</time>
      </trkpt>
      <trkpt lat="40.420683" lon="-5.324300">
        <ele>2445.0</ele>
        <time>2013-05-12T12:21:13Z</time>
      </trkpt>
      <trkpt lat="40.420633" lon="-5.324383">
        <ele>2444.0</ele>
        <time>2013-05-12T12:21:14Z</time>
      </trkpt>
      <trkpt lat="40.420567" lon="-5.324467">
        <ele>2442.0</ele>
        <time>2013-05-12T12:21:15Z</time>
      </trkpt>
      <trkpt lat="40.420517" lon="-5.324550">
        <ele>2441.0</ele>
        <time>2013-05-12T12:21:16Z</time>
      </trkpt>
      <trkpt lat="40.420467" lon="-5.324617">
        <ele>2439.0</ele>
        <time>2013-05-12T12:21:17Z</time>
      </trkpt>
      <trkpt lat="40.420433" lon="-5.324700">
        <ele>2437.0</ele>
        <time>2013-05-12T12:21:18Z</time>
      </trkpt>
      <trkpt lat="40.420367" lon="-5.324767">
        <ele>2434.0</ele>
        <time>2013-05-12T12:21:19Z</time>
      </trkpt>
      <trkpt lat="40.420300" lon="-5.324867">
        <ele>2431.0</ele>
        <time>2013-05-12T12:21:20Z</time>
      </trkpt>
      <trkpt lat="40.420250" lon="-5.324950">
        <ele>2429.0</ele>
        <time>2013-05-12T12:21:21Z</time>
      </trkpt>
      <trkpt lat="40.420183" lon="-5.325050">
        <ele>2427.0</ele>
        <time>2013-05-12T12:21:22Z</time>
      </trkpt>
      <trkpt lat="40.420133" lon="-5.325117">
        <ele>2427.0</ele>
        <time>2013-05-12T12:21:23Z</time>
      </trkpt>
      <trkpt lat="40.420083" lon="-5.325200">
        <ele>2426.0</ele>
        <time>2013-05-12T12:21:24Z</time>
      </trkpt>
      <trkpt lat="40.420050" lon="-5.325267">
        <ele>2424.0</ele>
        <time>2013-05-12T12:21:25Z</time>
      </trkpt>
      <trkpt lat="40.420000" lon="-5.325333">
        <ele>2422.0</ele>
        <time>2013-05-12T12:21:26Z</time>
      </trkpt>
      <trkpt lat="40.419967" lon="-5.325400">
        <ele>2419.0</ele>
        <time>2013-05-12T12:21:27Z</time>
      </trkpt>
      <trkpt lat="40.419933" lon="-5.325483">
        <ele>2416.0</ele>
        <time>2013-05-12T12:21:28Z</time>
      </trkpt>
      <trkpt lat="40.419900" lon="-5.325567">
        <ele>2413.0</ele>
        <time>2013-05-12T12:21:29Z</time>
      </trkpt>
      <trkpt lat="40.419867" lon="-5.325633">
        <ele>2411.0</ele>
        <time>2013-05-12T12:21:30Z</time>
      </trkpt>
      <trkpt lat="40.419833" lon="-5.325717">
        <ele>2409.0</ele>
        <time>2013-05-12T12:21:31Z</time>
      </trkpt>
      <trkpt lat="40.419800" lon="-5.325783">
        <ele>2408.0</ele>
        <time>2013-05-12T12:21:32Z</time>
      </trkpt>
      <trkpt lat="40.419750" lon="-5.325850">
        <ele>2407.0</ele>
        <time>2013-05-12T12:21:33Z</time>
      </trkpt>
      <trkpt lat="40.419717" lon="-5.325900">
        <ele>2406.0</ele>
        <time>2013-05-12T12:21:34Z</time>
      </trkpt>
      <trkpt lat="40.419683" lon="-5.325933">
        <ele>2405.0</ele>
        <time>2013-05-12T12:21:35Z</time>
      </trkpt>
      <trkpt lat="40.419650" lon="-5.325983">
        <ele>2404.0</ele>
        <time>2013-05-12T12:21:36Z</time>
      </trkpt>
      <trkpt lat="40.419617" lon="-5.326017">
        <ele>2402.0</ele>
        <time>2013-05-12T12:21:37Z</time>
      </trkpt>
      <trkpt lat="40.419583" lon="-5.326050">
        <ele>2400.0</ele>
        <time>2013-05-12T12:21:38Z</time>
      </trkpt>
      <trkpt lat="40.419567" lon="-5.326100">
        <ele>2396.0</ele>
        <time>2013-05-12T12:21:39Z</time>
      </trkpt>
      <trkpt lat="40.419533" lon="-5.326133">
        <ele>2393.0</ele>
        <time>2013-05-12T12:21:40Z</time>
      </trkpt>
      <trkpt lat="40.419517" lon="-5.326200">
        <ele>2390.0</ele>
        <time>2013-05-12T12:21:41Z</time>
      </trkpt>
      <trkpt lat="40.419483" lon="-5.326250">
        <ele>2388.0</ele>
        <time>2013-05-12T12:21:42Z</time>
      </trkpt>
      <trkpt lat="40.419467" lon="-5.326283">
        <ele>2386.0</ele>
        <time>2013-05-12T12:21:43Z</time>
      </trkpt>
      <trkpt lat="40.419450" lon="-5.326333">
        <ele>2383.0</ele>
        <time>2013-05-12T12:21:44Z</time>
      </trkpt>
      <trkpt lat="40.419433" lon="-5.326383">
        <ele>2380.0</ele>
        <time>2013-05-12T12:21:45Z</time>
      </trkpt>
      <trkpt lat="40.419417" lon="-5.326433">
        <ele>2378.0</ele>
        <time>2013-05-12T12:21:46Z</time>
      </trkpt>
      <trkpt lat="40.419383" lon="-5.326500">
        <ele>2375.0</ele>
        <time>2013-05-12T12:21:47Z</time>
      </trkpt>
      <trkpt lat="40.419383" lon="-5.326550">
        <ele>2373.0</ele>
        <time>2013-05-12T12:21:48Z</time>
      </trkpt>
      <trkpt lat="40.419383" lon="-5.326567">
        <ele>2372.0</ele>
        <time>2013-05-12T12:21:49Z</time>
      </trkpt>
      <trkpt lat="40.419383" lon="-5.326600">
        <ele>2369.0</ele>
        <time>2013-05-12T12:21:50Z</time>
      </trkpt>
      <trkpt lat="40.419367" lon="-5.326617">
        <ele>2365.0</ele>
        <time>2013-05-12T12:21:51Z</time>
      </trkpt>
      <trkpt lat="40.419367" lon="-5.326667">
        <ele>2361.0</ele>
        <time>2013-05-12T12:21:52Z</time>
      </trkpt>
      <trkpt lat="40.419350" lon="-5.326717">
        <ele>2356.0</ele>
        <time>2013-05-12T12:21:53Z</time>
      </trkpt>
      <trkpt lat="40.419350" lon="-5.326800">
        <ele>2352.0</ele>
        <time>2013-05-12T12:21:54Z</time>
      </trkpt>
      <trkpt lat="40.419350" lon="-5.326867">
        <ele>2349.0</ele>
        <time>2013-05-12T12:21:55Z</time>
      </trkpt>
      <trkpt lat="40.419333" lon="-5.326933">
        <ele>2347.0</ele>
        <time>2013-05-12T12:21:56Z</time>
      </trkpt>
      <trkpt lat="40.419300" lon="-5.326983">
        <ele>2344.0</ele>
        <time>2013-05-12T12:21:57Z</time>
      </trkpt>
      <trkpt lat="40.419283" lon="-5.327033">
        <ele>2341.0</ele>
        <time>2013-05-12T12:21:58Z</time>
      </trkpt>
      <trkpt lat="40.419250" lon="-5.327100">
        <ele>2337.0</ele>
        <time>2013-05-12T12:21:59Z</time>
      </trkpt>
      <trkpt lat="40.419217" lon="-5.327150">
        <ele>2334.0</ele>
        <time>2013-05-12T12:22:00Z</time>
      </trkpt>
      <trkpt lat="40.419183" lon="-5.327217">
        <ele>2330.0</ele>
        <time>2013-05-12T12:22:01Z</time>
      </trkpt>
      <trkpt lat="40.419133" lon="-5.327283">
        <ele>2327.0</ele>
        <time>2013-05-12T12:22:02Z</time>
      </trkpt>
      <trkpt lat="40.419083" lon="-5.327333">
        <ele>2324.0</ele>
        <time>2013-05-12T12:22:03Z</time>
      </trkpt>
      <trkpt lat="40.419033" lon="-5.327400">
        <ele>2321.0</ele>
        <time>2013-05-12T12:22:04Z</time>
      </trkpt>
      <trkpt lat="40.419000" lon="-5.327467">
        <ele>2318.0</ele>
        <time>2013-05-12T12:22:05Z</time>
      </trkpt>
      <trkpt lat="40.418950" lon="-5.327550">
        <ele>2315.0</ele>
        <time>2013-05-12T12:22:06Z</time>
      </trkpt>
      <trkpt lat="40.418917" lon="-5.327617">
        <ele>2312.0</ele>
        <time>2013-05-12T12:22:07Z</time>
      </trkpt>
      <trkpt lat="40.418867" lon="-5.327683">
        <ele>2310.0</ele>
        <time>2013-05-12T12:22:08Z</time>
      </trkpt>
      <trkpt lat="40.418817" lon="-5.327750">
        <ele>2308.0</ele>
        <time>2013-05-12T12:22:09Z</time>
      </trkpt>
      <trkpt lat="40.418783" lon="-5.327817">
        <ele>2306.0</ele>
        <time>2013-05-12T12:22:10Z</time>
      </trkpt>
      <trkpt lat="40.418733" lon="-5.327883">
        <ele>2304.0</ele>
        <time>2013-05-12T12:22:11Z</time>
      </trkpt>
      <trkpt lat="40.418700" lon="-5.327950">
        <ele>2302.0</ele>
        <time>2013-05-12T12:22:12Z</time>
      </trkpt>
      <trkpt lat="40.418650" lon="-5.328033">
        <ele>2300.0</ele>
        <time>2013-05-12T12:22:13Z</time>
      </trkpt>
      <trkpt lat="40.418617" lon="-5.328117">
        <ele>2298.0</ele>
        <time>2013-05-12T12:22:14Z</time>
      </trkpt>
      <trkpt lat="40.418583" lon="-5.328200">
        <ele>2296.0</ele>
        <time>2013-05-12T12:22:15Z</time>
      </trkpt>
      <trkpt lat="40.418533" lon="-5.328267">
        <ele>2295.0</ele>
        <time>2013-05-12T12:22:16Z</time>
      </trkpt>
      <trkpt lat="40.418500" lon="-5.328333">
        <ele>2293.0</ele>
        <time>2013-05-12T12:22:17Z</time>
      </trkpt>
      <trkpt lat="40.418450" lon="-5.328400">
        <ele>2290.0</ele>
        <time>2013-05-12T12:22:18Z</time>
      </trkpt>
      <trkpt lat="40.418400" lon="-5.328483">
        <ele>2287.0</ele>
        <time>2013-05-12T12:22:19Z</time>
      </trkpt>
      <trkpt lat="40.418350" lon="-5.328567">
        <ele>2284.0</ele>
        <time>2013-05-12T12:22:20Z</time>
      </trkpt>
      <trkpt lat="40.418300" lon="-5.328667">
        <ele>2283.0</ele>
        <time>2013-05-12T12:22:21Z</time>
      </trkpt>
      <trkpt lat="40.418250" lon="-5.328767">
        <ele>2281.0</ele>
        <time>2013-05-12T12:22:22Z</time>
      </trkpt>
      <trkpt lat="40.418217" lon="-5.328850">
        <ele>2281.0</ele>
        <time>2013-05-12T12:22:23Z</time>
      </trkpt>
      <trkpt lat="40.418167" lon="-5.328933">
        <ele>2280.0</ele>
        <time>2013-05-12T12:22:24Z</time>
      </trkpt>
      <trkpt lat="40.418133" lon="-5.329033">
        <ele>2279.0</ele>
        <time>2013-05-12T12:22:25Z</time>
      </trkpt>
      <trkpt lat="40.418117" lon="-5.329117">
        <ele>2280.0</ele>
        <time>2013-05-12T12:22:26Z</time>
      </trkpt>
      <trkpt lat="40.418083" lon="-5.329233">
        <ele>2280.0</ele>
        <time>2013-05-12T12:22:27Z</time>
      </trkpt>
      <trkpt lat="40.418033" lon="-5.329350">
        <ele>2281.0</ele>
        <time>2013-05-12T12:22:28Z</time>
      </trkpt>
      <trkpt lat="40.417967" lon="-5.329467">
        <ele>2283.0</ele>
        <time>2013-05-12T12:22:29Z</time>
      </trkpt>
      <trkpt lat="40.417917" lon="-5.329567">
        <ele>2287.0</ele>
        <time>2013-05-12T12:22:30Z</time>
      </trkpt>
      <trkpt lat="40.417867" lon="-5.329667">
        <ele>2290.0</ele>
        <time>2013-05-12T12:22:31Z</time>
      </trkpt>
      <trkpt lat="40.417850" lon="-5.329750">
        <ele>2293.0</ele>
        <time>2013-05-12T12:22:32Z</time>
      </trkpt>
      <trkpt lat="40.417850" lon="-5.329833">
        <ele>2295.0</ele>
        <time>2013-05-12T12:22:33Z</time>
      </trkpt>
      <trkpt lat="40.417867" lon="-5.329900">
        <ele>2296.0</ele>
        <time>2013-05-12T12:22:34Z</time>
      </trkpt>
      <trkpt lat="40.417867" lon="-5.329950">
        <ele>2296.0</ele>
        <time>2013-05-12T12:22:35Z</time>
      </trkpt>
      <trkpt lat="40.417900" lon="-5.329983">
        <ele>2297.0</ele>
        <time>2013-05-12T12:22:36Z</time>
      </trkpt>
      <trkpt lat="40.417950" lon="-5.330000">
        <ele>2298.0</ele>
        <time>2013-05-12T12:22:37Z</time>
      </trkpt>
      <trkpt lat="40.418000" lon="-5.330017">
        <ele>2298.0</ele>
        <time>2013-05-12T12:22:38Z</time>
      </trkpt>
      <trkpt lat="40.418033" lon="-5.330033">
        <ele>2299.0</ele>
        <time>2013-05-12T12:22:39Z</time>
      </trkpt>
      <trkpt lat="40.418083" lon="-5.330050">
        <ele>2299.0</ele>
        <time>2013-05-12T12:22:40Z</time>
      </trkpt>
      <trkpt lat="40.418133" lon="-5.330067">
        <ele>2298.0</ele>
        <time>2013-05-12T12:22:41Z</time>
      </trkpt>
      <trkpt lat="40.418167" lon="-5.330067">
        <ele>2298.0</ele>
        <time>2013-05-12T12:22:42Z</time>
      </trkpt>
      <trkpt lat="40.418217" lon="-5.330017">
        <ele>2297.0</ele>
        <time>2013-05-12T12:22:43Z</time>
      </trkpt>
      <trkpt lat="40.418250" lon="-5.329917">
        <ele>2294.0</ele>
        <time>2013-05-12T12:22:44Z</time>
      </trkpt>
      <trkpt lat="40.418267" lon="-5.329783">
        <ele>2292.0</ele>
        <time>2013-05-12T12:22:45Z</time>
      </trkpt>
      <trkpt lat="40.418267" lon="-5.329633">
        <ele>2291.0</ele>
        <time>2013-05-12T12:22:46Z</time>
      </trkpt>
      <trkpt lat="40.418267" lon="-5.329467">
        <ele>2291.0</ele>
        <time>2013-05-12T12:22:47Z</time>
      </trkpt>
      <trkpt lat="40.418233" lon="-5.329300">
        <ele>2293.0</ele>
        <time>2013-05-12T12:22:48Z</time>
      </trkpt>
      <trkpt lat="40.418200" lon="-5.329150">
        <ele>2295.0</ele>
        <time>2013-05-12T12:22:49Z</time>
      </trkpt>
      <trkpt lat="40.418183" lon="-5.329033">
        <ele>2298.0</ele>
        <time>2013-05-12T12:22:50Z</time>
      </trkpt>
      <trkpt lat="40.418150" lon="-5.328900">
        <ele>2300.0</ele>
        <time>2013-05-12T12:22:51Z</time>
      </trkpt>
      <trkpt lat="40.418100" lon="-5.328783">
        <ele>2302.0</ele>
        <time>2013-05-12T12:22:52Z</time>
      </trkpt>
      <trkpt lat="40.418033" lon="-5.328650">
        <ele>2303.0</ele>
        <time>2013-05-12T12:22:53Z</time>
      </trkpt>
      <trkpt lat="40.417967" lon="-5.328550">
        <ele>2305.0</ele>
        <time>2013-05-12T12:22:54Z</time>
      </trkpt>
      <trkpt lat="40.417867" lon="-5.328467">
        <ele>2307.0</ele>
        <time>2013-05-12T12:22:55Z</time>
      </trkpt>
      <trkpt lat="40.417767" lon="-5.328417">
        <ele>2308.0</ele>
        <time>2013-05-12T12:22:56Z</time>
      </trkpt>
      <trkpt lat="40.417650" lon="-5.328383">
        <ele>2309.0</ele>
        <time>2013-05-12T12:22:57Z</time>
      </trkpt>
      <trkpt lat="40.417550" lon="-5.328400">
        <ele>2310.0</ele>
        <time>2013-05-12T12:22:58Z</time>
      </trkpt>
      <trkpt lat="40.417450" lon="-5.328433">
        <ele>2312.0</ele>
        <time>2013-05-12T12:22:59Z</time>
      </trkpt>
      <trkpt lat="40.417350" lon="-5.328467">
        <ele>2315.0</ele>
        <time>2013-05-12T12:23:00Z</time>
      </trkpt>
      <trkpt lat="40.417283" lon="-5.328500">
        <ele>2317.0</ele>
        <time>2013-05-12T12:23:01Z</time>
      </trkpt>
      <trkpt lat="40.417233" lon="-5.328533">
        <ele>2318.0</ele>
        <time>2013-05-12T12:23:02Z</time>
      </trkpt>
      <trkpt lat="40.417183" lon="-5.328583">
        <ele>2317.0</ele>
        <time>2013-05-12T12:23:03Z</time>
      </trkpt>
      <trkpt lat="40.417150" lon="-5.328650">
        <ele>2317.0</ele>
        <time>2013-05-12T12:23:04Z</time>
      </trkpt>
      <trkpt lat="40.417117" lon="-5.328733">
        <ele>2317.0</ele>
        <time>2013-05-12T12:23:05Z</time>
      </trkpt>
      <trkpt lat="40.417083" lon="-5.328817">
        <ele>2319.0</ele>
        <time>2013-05-12T12:23:06Z</time>
      </trkpt>
      <trkpt lat="40.417067" lon="-5.328883">
        <ele>2320.0</ele>
        <time>2013-05-12T12:23:07Z</time>
      </trkpt>
      <trkpt lat="40.417050" lon="-5.328933">
        <ele>2321.0</ele>
        <time>2013-05-12T12:23:08Z</time>
      </trkpt>
      <trkpt lat="40.417033" lon="-5.328983">
        <ele>2321.0</ele>
        <time>2013-05-12T12:23:09Z</time>
      </trkpt>
      <trkpt lat="40.417033" lon="-5.329050">
        <ele>2321.0</ele>
        <time>2013-05-12T12:23:10Z</time>
      </trkpt>
      <trkpt lat="40.417017" lon="-5.329117">
        <ele>2320.0</ele>
        <time>2013-05-12T12:23:11Z</time>
      </trkpt>
      <trkpt lat="40.417017" lon="-5.329200">
        <ele>2320.0</ele>
        <time>2013-05-12T12:23:12Z</time>
      </trkpt>
      <trkpt lat="40.416983" lon="-5.329250">
        <ele>2320.0</ele>
        <time>2013-05-12T12:23:13Z</time>
      </trkpt>
      <trkpt lat="40.416950" lon="-5.329317">
        <ele>2319.0</ele>
        <time>2013-05-12T12:23:14Z</time>
      </trkpt>
      <trkpt lat="40.416917" lon="-5.329400">
        <ele>2317.0</ele>
        <time>2013-05-12T12:23:15Z</time>
      </trkpt>
      <trkpt lat="40.416867" lon="-5.329500">
        <ele>2315.0</ele>
        <time>2013-05-12T12:23:16Z</time>
      </trkpt>
      <trkpt lat="40.416817" lon="-5.329600">
        <ele>2314.0</ele>
        <time>2013-05-12T12:23:17Z</time>
      </trkpt>
      <trkpt lat="40.416767" lon="-5.329717">
        <ele>2315.0</ele>
        <time>2013-05-12T12:23:18Z</time>
      </trkpt>
      <trkpt lat="40.416717" lon="-5.329817">
        <ele>2317.0</ele>
        <time>2013-05-12T12:23:19Z</time>
      </trkpt>
      <trkpt lat="40.416667" lon="-5.329900">
        <ele>2318.0</ele>
        <time>2013-05-12T12:23:20Z</time>
      </trkpt>
      <trkpt lat="40.416617" lon="-5.329967">
        <ele>2319.0</ele>
        <time>2013-05-12T12:23:21Z</time>
      </trkpt>
      <trkpt lat="40.416550" lon="-5.330050">
        <ele>2318.0</ele>
        <time>2013-05-12T12:23:22Z</time>
      </trkpt>
      <trkpt lat="40.416500" lon="-5.330133">
        <ele>2317.0</ele>
        <time>2013-05-12T12:23:23Z</time>
      </trkpt>
      <trkpt lat="40.416433" lon="-5.330250">
        <ele>2316.0</ele>
        <time>2013-05-12T12:23:24Z</time>
      </trkpt>
      <trkpt lat="40.416383" lon="-5.330350">
        <ele>2315.0</ele>
        <time>2013-05-12T12:23:25Z</time>
      </trkpt>
      <trkpt lat="40.416317" lon="-5.330450">
        <ele>2315.0</ele>
        <time>2013-05-12T12:23:26Z</time>
      </trkpt>
      <trkpt lat="40.416233" lon="-5.330550">
        <ele>2315.0</ele>
        <time>2013-05-12T12:23:27Z</time>
      </trkpt>
      <trkpt lat="40.416183" lon="-5.330650">
        <ele>2315.0</ele>
        <time>2013-05-12T12:23:28Z</time>
      </trkpt>
      <trkpt lat="40.416133" lon="-5.330733">
        <ele>2316.0</ele>
        <time>2013-05-12T12:23:29Z</time>
      </trkpt>
      <trkpt lat="40.416100" lon="-5.330833">
        <ele>2316.0</ele>
        <time>2013-05-12T12:23:30Z</time>
      </trkpt>
      <trkpt lat="40.416067" lon="-5.330933">
        <ele>2317.0</ele>
        <time>2013-05-12T12:23:31Z</time>
      </trkpt>
      <trkpt lat="40.416033" lon="-5.331033">
        <ele>2319.0</ele>
        <time>2013-05-12T12:23:32Z</time>
      </trkpt>
      <trkpt lat="40.416000" lon="-5.331117">
        <ele>2320.0</ele>
        <time>2013-05-12T12:23:33Z</time>
      </trkpt>
      <trkpt lat="40.415950" lon="-5.331200">
        <ele>2322.0</ele>
        <time>2013-05-12T12:23:34Z</time>
      </trkpt>
      <trkpt lat="40.415900" lon="-5.331283">
        <ele>2323.0</ele>
        <time>2013-05-12T12:23:35Z</time>
      </trkpt>
      <trkpt lat="40.415850" lon="-5.331383">
        <ele>2325.0</ele>
        <time>2013-05-12T12:23:36Z</time>
      </trkpt>
      <trkpt lat="40.415800" lon="-5.331467">
        <ele>2327.0</ele>
        <time>2013-05-12T12:23:37Z</time>
      </trkpt>
      <trkpt lat="40.415750" lon="-5.331517">
        <ele>2329.0</ele>
        <time>2013-05-12T12:23:38Z</time>
      </trkpt>
      <trkpt lat="40.415717" lon="-5.331567">
        <ele>2330.0</ele>
        <time>2013-05-12T12:23:39Z</time>
      </trkpt>
      <trkpt lat="40.415700" lon="-5.331617">
        <ele>2330.0</ele>
        <time>2013-05-12T12:23:40Z</time>
      </trkpt>
      <trkpt lat="40.415700" lon="-5.331667">
        <ele>2329.0</ele>
        <time>2013-05-12T12:23:41Z</time>
      </trkpt>
      <trkpt lat="40.415717" lon="-5.331717">
        <ele>2329.0</ele>
        <time>2013-05-12T12:23:42Z</time>
      </trkpt>
      <trkpt lat="40.415733" lon="-5.331767">
        <ele>2330.0</ele>
        <time>2013-05-12T12:23:43Z</time>
      </trkpt>
      <trkpt lat="40.415750" lon="-5.331800">
        <ele>2331.0</ele>
        <time>2013-05-12T12:23:44Z</time>
      </trkpt>
      <trkpt lat="40.415767" lon="-5.331783">
        <ele>2332.0</ele>
        <time>2013-05-12T12:23:45Z</time>
      </trkpt>
      <trkpt lat="40.415800" lon="-5.331750">
        <ele>2332.0</ele>
        <time>2013-05-12T12:23:46Z</time>
      </trkpt>
      <trkpt lat="40.415833" lon="-5.331683">
        <ele>2332.0</ele>
        <time>2013-05-12T12:23:47Z</time>
      </trkpt>
      <trkpt lat="40.415867" lon="-5.331600">
        <ele>2333.0</ele>
        <time>2013-05-12T12:23:48Z</time>
      </trkpt>
      <trkpt lat="40.415883" lon="-5.331500">
        <ele>2336.0</ele>
        <time>2013-05-12T12:23:49Z</time>
      </trkpt>
      <trkpt lat="40.415883" lon="-5.331400">
        <ele>2338.0</ele>
        <time>2013-05-12T12:23:50Z</time>
      </trkpt>
      <trkpt lat="40.415883" lon="-5.331300">
        <ele>2339.0</ele>
        <time>2013-05-12T12:23:51Z</time>
      </trkpt>
      <trkpt lat="40.415867" lon="-5.331183">
        <ele>2339.0</ele>
        <time>2013-05-12T12:23:52Z</time>
      </trkpt>
      <trkpt lat="40.415850" lon="-5.331033">
        <ele>2338.0</ele>
        <time>2013-05-12T12:23:53Z</time>
      </trkpt>
      <trkpt lat="40.415833" lon="-5.330883">
        <ele>2338.0</ele>
        <time>2013-05-12T12:23:54Z</time>
      </trkpt>
      <trkpt lat="40.415783" lon="-5.330733">
        <ele>2338.0</ele>
        <time>2013-05-12T12:23:55Z</time>
      </trkpt>
      <trkpt lat="40.415717" lon="-5.330583">
        <ele>2339.0</ele>
        <time>2013-05-12T12:23:56Z</time>
      </trkpt>
      <trkpt lat="40.415633" lon="-5.330450">
        <ele>2339.0</ele>
        <time>2013-05-12T12:23:57Z</time>
      </trkpt>
      <trkpt lat="40.415533" lon="-5.330333">
        <ele>2339.0</ele>
        <time>2013-05-12T12:23:58Z</time>
      </trkpt>
      <trkpt lat="40.415433" lon="-5.330217">
        <ele>2339.0</ele>
        <time>2013-05-12T12:23:59Z</time>
      </trkpt>
      <trkpt lat="40.415317" lon="-5.330100">
        <ele>2339.0</ele>
        <time>2013-05-12T12:24:00Z</time>
      </trkpt>
      <trkpt lat="40.415183" lon="-5.330000">
        <ele>2340.0</ele>
        <time>2013-05-12T12:24:01Z</time>
      </trkpt>
      <trkpt lat="40.415050" lon="-5.329950">
        <ele>2341.0</ele>
        <time>2013-05-12T12:24:02Z</time>
      </trkpt>
      <trkpt lat="40.414900" lon="-5.329933">
        <ele>2341.0</ele>
        <time>2013-05-12T12:24:03Z</time>
      </trkpt>
      <trkpt lat="40.414767" lon="-5.329950">
        <ele>2341.0</ele>
        <time>2013-05-12T12:24:04Z</time>
      </trkpt>
      <trkpt lat="40.414667" lon="-5.330017">
        <ele>2342.0</ele>
        <time>2013-05-12T12:24:05Z</time>
      </trkpt>
      <trkpt lat="40.414567" lon="-5.330083">
        <ele>2343.0</ele>
        <time>2013-05-12T12:24:06Z</time>
      </trkpt>
      <trkpt lat="40.414483" lon="-5.330133">
        <ele>2345.0</ele>
        <time>2013-05-12T12:24:07Z</time>
      </trkpt>
      <trkpt lat="40.414400" lon="-5.330200">
        <ele>2346.0</ele>
        <time>2013-05-12T12:24:08Z</time>
      </trkpt>
      <trkpt lat="40.414317" lon="-5.330250">
        <ele>2347.0</ele>
        <time>2013-05-12T12:24:09Z</time>
      </trkpt>
      <trkpt lat="40.414250" lon="-5.330317">
        <ele>2347.0</ele>
        <time>2013-05-12T12:24:10Z</time>
      </trkpt>
      <trkpt lat="40.414200" lon="-5.330400">
        <ele>2346.0</ele>
        <time>2013-05-12T12:24:11Z</time>
      </trkpt>
      <trkpt lat="40.414167" lon="-5.330483">
        <ele>2346.0</ele>
        <time>2013-05-12T12:24:12Z</time>
      </trkpt>
      <trkpt lat="40.414133" lon="-5.330567">
        <ele>2346.0</ele>
        <time>2013-05-12T12:24:13Z</time>
      </trkpt>
      <trkpt lat="40.414100" lon="-5.330650">
        <ele>2346.0</ele>
        <time>2013-05-12T12:24:14Z</time>
      </trkpt>
      <trkpt lat="40.414067" lon="-5.330733">
        <ele>2347.0</ele>
        <time>2013-05-12T12:24:15Z</time>
      </trkpt>
      <trkpt lat="40.414033" lon="-5.330800">
        <ele>2347.0</ele>
        <time>2013-05-12T12:24:16Z</time>
      </trkpt>
      <trkpt lat="40.414000" lon="-5.330867">
        <ele>2348.0</ele>
        <time>2013-05-12T12:24:17Z</time>
      </trkpt>
      <trkpt lat="40.413983" lon="-5.330933">
        <ele>2348.0</ele>
        <time>2013-05-12T12:24:18Z</time>
      </trkpt>
      <trkpt lat="40.413950" lon="-5.330983">
        <ele>2348.0</ele>
        <time>2013-05-12T12:24:19Z</time>
      </trkpt>
      <trkpt lat="40.413917" lon="-5.331033">
        <ele>2348.0</ele>
        <time>2013-05-12T12:24:20Z</time>
      </trkpt>
      <trkpt lat="40.413883" lon="-5.331100">
        <ele>2347.0</ele>
        <time>2013-05-12T12:24:21Z</time>
      </trkpt>
      <trkpt lat="40.413850" lon="-5.331167">
        <ele>2347.0</ele>
        <time>2013-05-12T12:24:22Z</time>
      </trkpt>
      <trkpt lat="40.413817" lon="-5.331233">
        <ele>2346.0</ele>
        <time>2013-05-12T12:24:23Z</time>
      </trkpt>
      <trkpt lat="40.413783" lon="-5.331317">
        <ele>2346.0</ele>
        <time>2013-05-12T12:24:24Z</time>
      </trkpt>
      <trkpt lat="40.413750" lon="-5.331400">
        <ele>2346.0</ele>
        <time>2013-05-12T12:24:25Z</time>
      </trkpt>
      <trkpt lat="40.413700" lon="-5.331500">
        <ele>2346.0</ele>
        <time>2013-05-12T12:24:26Z</time>
      </trkpt>
      <trkpt lat="40.413650" lon="-5.331583">
        <ele>2348.0</ele>
        <time>2013-05-12T12:24:27Z</time>
      </trkpt>
      <trkpt lat="40.413600" lon="-5.331667">
        <ele>2350.0</ele>
        <time>2013-05-12T12:24:28Z</time>
      </trkpt>
      <trkpt lat="40.413550" lon="-5.331733">
        <ele>2352.0</ele>
        <time>2013-05-12T12:24:29Z</time>
      </trkpt>
      <trkpt lat="40.413517" lon="-5.331817">
        <ele>2354.0</ele>
        <time>2013-05-12T12:24:30Z</time>
      </trkpt>
      <trkpt lat="40.413483" lon="-5.331883">
        <ele>2356.0</ele>
        <time>2013-05-12T12:24:31Z</time>
      </trkpt>
      <trkpt lat="40.413467" lon="-5.331950">
        <ele>2357.0</ele>
        <time>2013-05-12T12:24:32Z</time>
      </trkpt>
      <trkpt lat="40.413450" lon="-5.332050">
        <ele>2358.0</ele>
        <time>2013-05-12T12:24:33Z</time>
      </trkpt>
      <trkpt lat="40.413417" lon="-5.332133">
        <ele>2360.0</ele>
        <time>2013-05-12T12:24:34Z</time>
      </trkpt>
      <trkpt lat="40.413400" lon="-5.332200">
        <ele>2362.0</ele>
        <time>2013-05-12T12:24:35Z</time>
      </trkpt>
      <trkpt lat="40.413400" lon="-5.332250">
        <ele>2364.0</ele>
        <time>2013-05-12T12:24:36Z</time>
      </trkpt>
      <trkpt lat="40.413400" lon="-5.332300">
        <ele>2365.0</ele>
        <time>2013-05-12T12:24:37Z</time>
      </trkpt>
      <trkpt lat="40.413417" lon="-5.332333">
        <ele>2366.0</ele>
        <time>2013-05-12T12:24:38Z</time>
      </trkpt>
      <trkpt lat="40.413433" lon="-5.332350">
        <ele>2367.0</ele>
        <time>2013-05-12T12:24:39Z</time>
      </trkpt>
      <trkpt lat="40.413467" lon="-5.332367">
        <ele>2369.0</ele>
        <time>2013-05-12T12:24:40Z</time>
      </trkpt>
      <trkpt lat="40.413483" lon="-5.332367">
        <ele>2371.0</ele>
        <time>2013-05-12T12:24:41Z</time>
      </trkpt>
      <trkpt lat="40.413500" lon="-5.332350">
        <ele>2372.0</ele>
        <time>2013-05-12T12:24:42Z</time>
      </trkpt>
      <trkpt lat="40.413517" lon="-5.332300">
        <ele>2372.0</ele>
        <time>2013-05-12T12:24:43Z</time>
      </trkpt>
      <trkpt lat="40.413517" lon="-5.332217">
        <ele>2370.0</ele>
        <time>2013-05-12T12:24:44Z</time>
      </trkpt>
      <trkpt lat="40.413533" lon="-5.332100">
        <ele>2367.0</ele>
        <time>2013-05-12T12:24:45Z</time>
      </trkpt>
      <trkpt lat="40.413533" lon="-5.331967">
        <ele>2365.0</ele>
        <time>2013-05-12T12:24:46Z</time>
      </trkpt>
      <trkpt lat="40.413500" lon="-5.331800">
        <ele>2364.0</ele>
        <time>2013-05-12T12:24:47Z</time>
      </trkpt>
      <trkpt lat="40.413467" lon="-5.331650">
        <ele>2363.0</ele>
        <time>2013-05-12T12:24:48Z</time>
      </trkpt>
      <trkpt lat="40.413383" lon="-5.331483">
        <ele>2363.0</ele>
        <time>2013-05-12T12:24:49Z</time>
      </trkpt>
      <trkpt lat="40.413283" lon="-5.331350">
        <ele>2364.0</ele>
        <time>2013-05-12T12:24:50Z</time>
      </trkpt>
      <trkpt lat="40.413167" lon="-5.331217">
        <ele>2365.0</ele>
        <time>2013-05-12T12:24:51Z</time>
      </trkpt>
      <trkpt lat="40.413033" lon="-5.331100">
        <ele>2368.0</ele>
        <time>2013-05-12T12:24:52Z</time>
      </trkpt>
      <trkpt lat="40.412917" lon="-5.331000">
        <ele>2371.0</ele>
        <time>2013-05-12T12:24:53Z</time>
      </trkpt>
      <trkpt lat="40.412817" lon="-5.330933">
        <ele>2375.0</ele>
        <time>2013-05-12T12:24:54Z</time>
      </trkpt>
      <trkpt lat="40.412700" lon="-5.330867">
        <ele>2376.0</ele>
        <time>2013-05-12T12:24:55Z</time>
      </trkpt>
      <trkpt lat="40.412583" lon="-5.330817">
        <ele>2377.0</ele>
        <time>2013-05-12T12:24:56Z</time>
      </trkpt>
      <trkpt lat="40.412450" lon="-5.330783">
        <ele>2378.0</ele>
        <time>2013-05-12T12:24:57Z</time>
      </trkpt>
      <trkpt lat="40.412317" lon="-5.330767">
        <ele>2379.0</ele>
        <time>2013-05-12T12:24:58Z</time>
      </trkpt>
      <trkpt lat="40.412217" lon="-5.330767">
        <ele>2381.0</ele>
        <time>2013-05-12T12:24:59Z</time>
      </trkpt>
      <trkpt lat="40.412100" lon="-5.330800">
        <ele>2382.0</ele>
        <time>2013-05-12T12:25:00Z</time>
      </trkpt>
      <trkpt lat="40.412000" lon="-5.330850">
        <ele>2383.0</ele>
        <time>2013-05-12T12:25:01Z</time>
      </trkpt>
      <trkpt lat="40.411900" lon="-5.330917">
        <ele>2383.0</ele>
        <time>2013-05-12T12:25:02Z</time>
      </trkpt>
      <trkpt lat="40.411817" lon="-5.330983">
        <ele>2384.0</ele>
        <time>2013-05-12T12:25:03Z</time>
      </trkpt>
      <trkpt lat="40.411733" lon="-5.331050">
        <ele>2384.0</ele>
        <time>2013-05-12T12:25:04Z</time>
      </trkpt>
      <trkpt lat="40.411633" lon="-5.331117">
        <ele>2384.0</ele>
        <time>2013-05-12T12:25:05Z</time>
      </trkpt>
      <trkpt lat="40.411550" lon="-5.331183">
        <ele>2383.0</ele>
        <time>2013-05-12T12:25:06Z</time>
      </trkpt>
      <trkpt lat="40.411433" lon="-5.331250">
        <ele>2382.0</ele>
        <time>2013-05-12T12:25:07Z</time>
      </trkpt>
      <trkpt lat="40.411333" lon="-5.331350">
        <ele>2381.0</ele>
        <time>2013-05-12T12:25:08Z</time>
      </trkpt>
      <trkpt lat="40.411250" lon="-5.331433">
        <ele>2382.0</ele>
        <time>2013-05-12T12:25:09Z</time>
      </trkpt>
      <trkpt lat="40.411167" lon="-5.331517">
        <ele>2383.0</ele>
        <time>2013-05-12T12:25:10Z</time>
      </trkpt>
      <trkpt lat="40.411117" lon="-5.331600">
        <ele>2383.0</ele>
        <time>2013-05-12T12:25:11Z</time>
      </trkpt>
      <trkpt lat="40.411067" lon="-5.331683">
        <ele>2383.0</ele>
        <time>2013-05-12T12:25:12Z</time>
      </trkpt>
      <trkpt lat="40.411050" lon="-5.331767">
        <ele>2381.0</ele>
        <time>2013-05-12T12:25:13Z</time>
      </trkpt>
      <trkpt lat="40.411033" lon="-5.331867">
        <ele>2379.0</ele>
        <time>2013-05-12T12:25:14Z</time>
      </trkpt>
      <trkpt lat="40.411017" lon="-5.331983">
        <ele>2376.0</ele>
        <time>2013-05-12T12:25:15Z</time>
      </trkpt>
      <trkpt lat="40.410983" lon="-5.332117">
        <ele>2374.0</ele>
        <time>2013-05-12T12:25:16Z</time>
      </trkpt>
      <trkpt lat="40.410950" lon="-5.332233">
        <ele>2373.0</ele>
        <time>2013-05-12T12:25:17Z</time>
      </trkpt>
      <trkpt lat="40.410933" lon="-5.332350">
        <ele>2372.0</ele>
        <time>2013-05-12T12:25:18Z</time>
      </trkpt>
      <trkpt lat="40.410917" lon="-5.332433">
        <ele>2371.0</ele>
        <time>2013-05-12T12:25:19Z</time>
      </trkpt>
      <trkpt lat="40.410900" lon="-5.332533">
        <ele>2370.0</ele>
        <time>2013-05-12T12:25:20Z</time>
      </trkpt>
      <trkpt lat="40.410900" lon="-5.332617">
        <ele>2368.0</ele>
        <time>2013-05-12T12:25:21Z</time>
      </trkpt>
      <trkpt lat="40.410900" lon="-5.332717">
        <ele>2366.0</ele>
        <time>2013-05-12T12:25:22Z</time>
      </trkpt>
      <trkpt lat="40.410883" lon="-5.332833">
        <ele>2363.0</ele>
        <time>2013-05-12T12:25:23Z</time>
      </trkpt>
      <trkpt lat="40.410900" lon="-5.332933">
        <ele>2361.0</ele>
        <time>2013-05-12T12:25:24Z</time>
      </trkpt>
      <trkpt lat="40.410917" lon="-5.333033">
        <ele>2361.0</ele>
        <time>2013-05-12T12:25:25Z</time>
      </trkpt>
      <trkpt lat="40.410933" lon="-5.333117">
        <ele>2360.0</ele>
        <time>2013-05-12T12:25:26Z</time>
      </trkpt>
      <trkpt lat="40.410933" lon="-5.333183">
        <ele>2359.0</ele>
        <time>2013-05-12T12:25:27Z</time>
      </trkpt>
      <trkpt lat="40.410917" lon="-5.333250">
        <ele>2357.0</ele>
        <time>2013-05-12T12:25:28Z</time>
      </trkpt>
      <trkpt lat="40.410917" lon="-5.333333">
        <ele>2354.0</ele>
        <time>2013-05-12T12:25:29Z</time>
      </trkpt>
      <trkpt lat="40.410917" lon="-5.333433">
        <ele>2352.0</ele>
        <time>2013-05-12T12:25:30Z</time>
      </trkpt>
      <trkpt lat="40.410933" lon="-5.333533">
        <ele>2352.0</ele>
        <time>2013-05-12T12:25:31Z</time>
      </trkpt>
      <trkpt lat="40.410933" lon="-5.333633">
        <ele>2352.0</ele>
        <time>2013-05-12T12:25:32Z</time>
      </trkpt>
      <trkpt lat="40.410917" lon="-5.333717">
        <ele>2352.0</ele>
        <time>2013-05-12T12:25:33Z</time>
      </trkpt>
      <trkpt lat="40.410883" lon="-5.333800">
        <ele>2352.0</ele>
        <time>2013-05-12T12:25:34Z</time>
      </trkpt>
      <trkpt lat="40.410850" lon="-5.333883">
        <ele>2350.0</ele>
        <time>2013-05-12T12:25:35Z</time>
      </trkpt>
      <trkpt lat="40.410833" lon="-5.333983">
        <ele>2347.0</ele>
        <time>2013-05-12T12:25:36Z</time>
      </trkpt>
      <trkpt lat="40.410800" lon="-5.334083">
        <ele>2345.0</ele>
        <time>2013-05-12T12:25:37Z</time>
      </trkpt>
      <trkpt lat="40.410783" lon="-5.334200">
        <ele>2343.0</ele>
        <time>2013-05-12T12:25:38Z</time>
      </trkpt>
      <trkpt lat="40.410750" lon="-5.334317">
        <ele>2341.0</ele>
        <time>2013-05-12T12:25:39Z</time>
      </trkpt>
      <trkpt lat="40.410733" lon="-5.334433">
        <ele>2339.0</ele>
        <time>2013-05-12T12:25:40Z</time>
      </trkpt>
      <trkpt lat="40.410700" lon="-5.334533">
        <ele>2338.0</ele>
        <time>2013-05-12T12:25:41Z</time>
      </trkpt>
      <trkpt lat="40.410683" lon="-5.334650">
        <ele>2336.0</ele>
        <time>2013-05-12T12:25:42Z</time>
      </trkpt>
      <trkpt lat="40.410650" lon="-5.334750">
        <ele>2335.0</ele>
        <time>2013-05-12T12:25:43Z</time>
      </trkpt>
      <trkpt lat="40.410617" lon="-5.334867">
        <ele>2333.0</ele>
        <time>2013-05-12T12:25:44Z</time>
      </trkpt>
      <trkpt lat="40.410567" lon="-5.334967">
        <ele>2330.0</ele>
        <time>2013-05-12T12:25:45Z</time>
      </trkpt>
      <trkpt lat="40.410533" lon="-5.335100">
        <ele>2327.0</ele>
        <time>2013-05-12T12:25:46Z</time>
      </trkpt>
      <trkpt lat="40.410500" lon="-5.335217">
        <ele>2324.0</ele>
        <time>2013-05-12T12:25:47Z</time>
      </trkpt>
      <trkpt lat="40.410450" lon="-5.335350">
        <ele>2322.0</ele>
        <time>2013-05-12T12:25:48Z</time>
      </trkpt>
      <trkpt lat="40.410417" lon="-5.335467">
        <ele>2320.0</ele>
        <time>2013-05-12T12:25:49Z</time>
      </trkpt>
      <trkpt lat="40.410383" lon="-5.335567">
        <ele>2319.0</ele>
        <time>2013-05-12T12:25:50Z</time>
      </trkpt>
      <trkpt lat="40.410350" lon="-5.335667">
        <ele>2316.0</ele>
        <time>2013-05-12T12:25:51Z</time>
      </trkpt>
      <trkpt lat="40.410317" lon="-5.335783">
        <ele>2313.0</ele>
        <time>2013-05-12T12:25:52Z</time>
      </trkpt>
      <trkpt lat="40.410283" lon="-5.335900">
        <ele>2310.0</ele>
        <time>2013-05-12T12:25:53Z</time>
      </trkpt>
      <trkpt lat="40.410250" lon="-5.336017">
        <ele>2307.0</ele>
        <time>2013-05-12T12:25:54Z</time>
      </trkpt>
      <trkpt lat="40.410217" lon="-5.336117">
        <ele>2305.0</ele>
        <time>2013-05-12T12:25:55Z</time>
      </trkpt>
      <trkpt lat="40.410183" lon="-5.336217">
        <ele>2302.0</ele>
        <time>2013-05-12T12:25:56Z</time>
      </trkpt>
      <trkpt lat="40.410150" lon="-5.336317">
        <ele>2299.0</ele>
        <time>2013-05-12T12:25:57Z</time>
      </trkpt>
      <trkpt lat="40.410117" lon="-5.336417">
        <ele>2296.0</ele>
        <time>2013-05-12T12:25:58Z</time>
      </trkpt>
      <trkpt lat="40.410083" lon="-5.336517">
        <ele>2292.0</ele>
        <time>2013-05-12T12:25:59Z</time>
      </trkpt>
      <trkpt lat="40.410050" lon="-5.336617">
        <ele>2289.0</ele>
        <time>2013-05-12T12:26:00Z</time>
      </trkpt>
      <trkpt lat="40.410017" lon="-5.336700">
        <ele>2286.0</ele>
        <time>2013-05-12T12:26:01Z</time>
      </trkpt>
      <trkpt lat="40.410000" lon="-5.336800">
        <ele>2283.0</ele>
        <time>2013-05-12T12:26:02Z</time>
      </trkpt>
      <trkpt lat="40.409967" lon="-5.336883">
        <ele>2280.0</ele>
        <time>2013-05-12T12:26:03Z</time>
      </trkpt>
      <trkpt lat="40.409950" lon="-5.336967">
        <ele>2278.0</ele>
        <time>2013-05-12T12:26:04Z</time>
      </trkpt>
      <trkpt lat="40.409917" lon="-5.337033">
        <ele>2276.0</ele>
        <time>2013-05-12T12:26:05Z</time>
      </trkpt>
      <trkpt lat="40.409900" lon="-5.337083">
        <ele>2273.0</ele>
        <time>2013-05-12T12:26:06Z</time>
      </trkpt>
      <trkpt lat="40.409883" lon="-5.337150">
        <ele>2270.0</ele>
        <time>2013-05-12T12:26:07Z</time>
      </trkpt>
      <trkpt lat="40.409850" lon="-5.337233">
        <ele>2266.0</ele>
        <time>2013-05-12T12:26:08Z</time>
      </trkpt>
      <trkpt lat="40.409817" lon="-5.337317">
        <ele>2264.0</ele>
        <time>2013-05-12T12:26:09Z</time>
      </trkpt>
      <trkpt lat="40.409783" lon="-5.337417">
        <ele>2264.0</ele>
        <time>2013-05-12T12:26:10Z</time>
      </trkpt>
      <trkpt lat="40.409750" lon="-5.337500">
        <ele>2266.0</ele>
        <time>2013-05-12T12:26:11Z</time>
      </trkpt>
      <trkpt lat="40.409717" lon="-5.337583">
        <ele>2269.0</ele>
        <time>2013-05-12T12:26:12Z</time>
      </trkpt>
      <trkpt lat="40.409683" lon="-5.337667">
        <ele>2273.0</ele>
        <time>2013-05-12T12:26:13Z</time>
      </trkpt>
      <trkpt lat="40.409667" lon="-5.337733">
        <ele>2277.0</ele>
        <time>2013-05-12T12:26:14Z</time>
      </trkpt>
      <trkpt lat="40.409617" lon="-5.337800">
        <ele>2281.0</ele>
        <time>2013-05-12T12:26:15Z</time>
      </trkpt>
      <trkpt lat="40.409583" lon="-5.337867">
        <ele>2285.0</ele>
        <time>2013-05-12T12:26:16Z</time>
      </trkpt>
      <trkpt lat="40.409517" lon="-5.337933">
        <ele>2288.0</ele>
        <time>2013-05-12T12:26:17Z</time>
      </trkpt>
      <trkpt lat="40.409450" lon="-5.337983">
        <ele>2290.0</ele>
        <time>2013-05-12T12:26:18Z</time>
      </trkpt>
      <trkpt lat="40.409333" lon="-5.338033">
        <ele>2291.0</ele>
        <time>2013-05-12T12:26:19Z</time>
      </trkpt>
      <trkpt lat="40.409217" lon="-5.338083">
        <ele>2292.0</ele>
        <time>2013-05-12T12:26:20Z</time>
      </trkpt>
      <trkpt lat="40.409083" lon="-5.338100">
        <ele>2295.0</ele>
        <time>2013-05-12T12:26:21Z</time>
      </trkpt>
      <trkpt lat="40.408950" lon="-5.338083">
        <ele>2298.0</ele>
        <time>2013-05-12T12:26:22Z</time>
      </trkpt>
      <trkpt lat="40.408817" lon="-5.338017">
        <ele>2301.0</ele>
        <time>2013-05-12T12:26:23Z</time>
      </trkpt>
      <trkpt lat="40.408700" lon="-5.337917">
        <ele>2304.0</ele>
        <time>2013-05-12T12:26:24Z</time>
      </trkpt>
      <trkpt lat="40.408600" lon="-5.337783">
        <ele>2307.0</ele>
        <time>2013-05-12T12:26:25Z</time>
      </trkpt>
      <trkpt lat="40.408517" lon="-5.337667">
        <ele>2310.0</ele>
        <time>2013-05-12T12:26:26Z</time>
      </trkpt>
      <trkpt lat="40.408450" lon="-5.337567">
        <ele>2311.0</ele>
        <time>2013-05-12T12:26:27Z</time>
      </trkpt>
      <trkpt lat="40.408383" lon="-5.337467">
        <ele>2309.0</ele>
        <time>2013-05-12T12:26:28Z</time>
      </trkpt>
      <trkpt lat="40.408333" lon="-5.337350">
        <ele>2306.0</ele>
        <time>2013-05-12T12:26:29Z</time>
      </trkpt>
      <trkpt lat="40.408283" lon="-5.337200">
        <ele>2303.0</ele>
        <time>2013-05-12T12:26:30Z</time>
      </trkpt>
      <trkpt lat="40.408267" lon="-5.337033">
        <ele>2299.0</ele>
        <time>2013-05-12T12:26:31Z</time>
      </trkpt>
      <trkpt lat="40.408267" lon="-5.336900">
        <ele>2297.0</ele>
        <time>2013-05-12T12:26:32Z</time>
      </trkpt>
      <trkpt lat="40.408283" lon="-5.336800">
        <ele>2297.0</ele>
        <time>2013-05-12T12:26:33Z</time>
      </trkpt>
      <trkpt lat="40.408300" lon="-5.336750">
        <ele>2296.0</ele>
        <time>2013-05-12T12:26:34Z</time>
      </trkpt>
      <trkpt lat="40.408333" lon="-5.336733">
        <ele>2295.0</ele>
        <time>2013-05-12T12:26:35Z</time>
      </trkpt>
      <trkpt lat="40.408350" lon="-5.336733">
        <ele>2295.0</ele>
        <time>2013-05-12T12:26:36Z</time>
      </trkpt>
      <trkpt lat="40.408383" lon="-5.336717">
        <ele>2295.0</ele>
        <time>2013-05-12T12:26:37Z</time>
      </trkpt>
      <trkpt lat="40.408417" lon="-5.336717">
        <ele>2296.0</ele>
        <time>2013-05-12T12:26:38Z</time>
      </trkpt>
      <trkpt lat="40.408433" lon="-5.336733">
        <ele>2298.0</ele>
        <time>2013-05-12T12:26:39Z</time>
      </trkpt>
      <trkpt lat="40.408450" lon="-5.336767">
        <ele>2301.0</ele>
        <time>2013-05-12T12:26:40Z</time>
      </trkpt>
      <trkpt lat="40.408450" lon="-5.336800">
        <ele>2304.0</ele>
        <time>2013-05-12T12:26:41Z</time>
      </trkpt>
      <trkpt lat="40.408433" lon="-5.336817">
        <ele>2306.0</ele>
        <time>2013-05-12T12:26:42Z</time>
      </trkpt>
      <trkpt lat="40.408433" lon="-5.336850">
        <ele>2307.0</ele>
        <time>2013-05-12T12:26:43Z</time>
      </trkpt>
      <trkpt lat="40.408433" lon="-5.336900">
        <ele>2307.0</ele>
        <time>2013-05-12T12:26:44Z</time>
      </trkpt>
      <trkpt lat="40.408433" lon="-5.336983">
        <ele>2308.0</ele>
        <time>2013-05-12T12:26:45Z</time>
      </trkpt>
      <trkpt lat="40.408417" lon="-5.337067">
        <ele>2309.0</ele>
        <time>2013-05-12T12:26:46Z</time>
      </trkpt>
      <trkpt lat="40.408383" lon="-5.337133">
        <ele>2312.0</ele>
        <time>2013-05-12T12:26:47Z</time>
      </trkpt>
      <trkpt lat="40.408350" lon="-5.337200">
        <ele>2315.0</ele>
        <time>2013-05-12T12:26:48Z</time>
      </trkpt>
      <trkpt lat="40.408317" lon="-5.337267">
        <ele>2318.0</ele>
        <time>2013-05-12T12:26:49Z</time>
      </trkpt>
      <trkpt lat="40.408283" lon="-5.337333">
        <ele>2319.0</ele>
        <time>2013-05-12T12:26:50Z</time>
      </trkpt>
      <trkpt lat="40.408217" lon="-5.337400">
        <ele>2321.0</ele>
        <time>2013-05-12T12:26:51Z</time>
      </trkpt>
      <trkpt lat="40.408133" lon="-5.337483">
        <ele>2322.0</ele>
        <time>2013-05-12T12:26:52Z</time>
      </trkpt>
      <trkpt lat="40.408050" lon="-5.337550">
        <ele>2324.0</ele>
        <time>2013-05-12T12:26:53Z</time>
      </trkpt>
      <trkpt lat="40.407950" lon="-5.337617">
        <ele>2327.0</ele>
        <time>2013-05-12T12:26:54Z</time>
      </trkpt>
      <trkpt lat="40.407850" lon="-5.337667">
        <ele>2329.0</ele>
        <time>2013-05-12T12:26:55Z</time>
      </trkpt>
      <trkpt lat="40.407733" lon="-5.337717">
        <ele>2332.0</ele>
        <time>2013-05-12T12:26:56Z</time>
      </trkpt>
      <trkpt lat="40.407617" lon="-5.337767">
        <ele>2334.0</ele>
        <time>2013-05-12T12:26:57Z</time>
      </trkpt>
      <trkpt lat="40.407483" lon="-5.337783">
        <ele>2335.0</ele>
        <time>2013-05-12T12:26:58Z</time>
      </trkpt>
      <trkpt lat="40.407333" lon="-5.337783">
        <ele>2337.0</ele>
        <time>2013-05-12T12:26:59Z</time>
      </trkpt>
      <trkpt lat="40.407167" lon="-5.337733">
        <ele>2339.0</ele>
        <time>2013-05-12T12:27:00Z</time>
      </trkpt>
      <trkpt lat="40.407033" lon="-5.337650">
        <ele>2341.0</ele>
        <time>2013-05-12T12:27:01Z</time>
      </trkpt>
      <trkpt lat="40.406917" lon="-5.337567">
        <ele>2343.0</ele>
        <time>2013-05-12T12:27:02Z</time>
      </trkpt>
      <trkpt lat="40.406800" lon="-5.337467">
        <ele>2345.0</ele>
        <time>2013-05-12T12:27:03Z</time>
      </trkpt>
      <trkpt lat="40.406683" lon="-5.337350">
        <ele>2346.0</ele>
        <time>2013-05-12T12:27:04Z</time>
      </trkpt>
      <trkpt lat="40.406583" lon="-5.337233">
        <ele>2347.0</ele>
        <time>2013-05-12T12:27:05Z</time>
      </trkpt>
      <trkpt lat="40.406500" lon="-5.337100">
        <ele>2347.0</ele>
        <time>2013-05-12T12:27:06Z</time>
      </trkpt>
      <trkpt lat="40.406450" lon="-5.336950">
        <ele>2347.0</ele>
        <time>2013-05-12T12:27:07Z</time>
      </trkpt>
      <trkpt lat="40.406417" lon="-5.336817">
        <ele>2346.0</ele>
        <time>2013-05-12T12:27:08Z</time>
      </trkpt>
      <trkpt lat="40.406400" lon="-5.336667">
        <ele>2345.0</ele>
        <time>2013-05-12T12:27:09Z</time>
      </trkpt>
      <trkpt lat="40.406417" lon="-5.336533">
        <ele>2345.0</ele>
        <time>2013-05-12T12:27:10Z</time>
      </trkpt>
      <trkpt lat="40.406433" lon="-5.336433">
        <ele>2344.0</ele>
        <time>2013-05-12T12:27:11Z</time>
      </trkpt>
      <trkpt lat="40.406467" lon="-5.336350">
        <ele>2343.0</ele>
        <time>2013-05-12T12:27:12Z</time>
      </trkpt>
      <trkpt lat="40.406517" lon="-5.336300">
        <ele>2343.0</ele>
        <time>2013-05-12T12:27:13Z</time>
      </trkpt>
      <trkpt lat="40.406567" lon="-5.336283">
        <ele>2343.0</ele>
        <time>2013-05-12T12:27:14Z</time>
      </trkpt>
      <trkpt lat="40.406600" lon="-5.336317">
        <ele>2343.0</ele>
        <time>2013-05-12T12:27:15Z</time>
      </trkpt>
      <trkpt lat="40.406617" lon="-5.336367">
        <ele>2343.0</ele>
        <time>2013-05-12T12:27:16Z</time>
      </trkpt>
      <trkpt lat="40.406633" lon="-5.336450">
        <ele>2344.0</ele>
        <time>2013-05-12T12:27:17Z</time>
      </trkpt>
      <trkpt lat="40.406650" lon="-5.336517">
        <ele>2346.0</ele>
        <time>2013-05-12T12:27:18Z</time>
      </trkpt>
      <trkpt lat="40.406667" lon="-5.336583">
        <ele>2347.0</ele>
        <time>2013-05-12T12:27:19Z</time>
      </trkpt>
      <trkpt lat="40.406667" lon="-5.336650">
        <ele>2349.0</ele>
        <time>2013-05-12T12:27:20Z</time>
      </trkpt>
      <trkpt lat="40.406667" lon="-5.336733">
        <ele>2350.0</ele>
        <time>2013-05-12T12:27:21Z</time>
      </trkpt>
      <trkpt lat="40.406667" lon="-5.336817">
        <ele>2351.0</ele>
        <time>2013-05-12T12:27:22Z</time>
      </trkpt>
      <trkpt lat="40.406683" lon="-5.336917">
        <ele>2352.0</ele>
        <time>2013-05-12T12:27:23Z</time>
      </trkpt>
      <trkpt lat="40.406667" lon="-5.337017">
        <ele>2353.0</ele>
        <time>2013-05-12T12:27:24Z</time>
      </trkpt>
      <trkpt lat="40.406650" lon="-5.337117">
        <ele>2356.0</ele>
        <time>2013-05-12T12:27:25Z</time>
      </trkpt>
      <trkpt lat="40.406617" lon="-5.337183">
        <ele>2359.0</ele>
        <time>2013-05-12T12:27:26Z</time>
      </trkpt>
      <trkpt lat="40.406567" lon="-5.337267">
        <ele>2361.0</ele>
        <time>2013-05-12T12:27:27Z</time>
      </trkpt>
      <trkpt lat="40.406517" lon="-5.337350">
        <ele>2364.0</ele>
        <time>2013-05-12T12:27:28Z</time>
      </trkpt>
      <trkpt lat="40.406483" lon="-5.337433">
        <ele>2365.0</ele>
        <time>2013-05-12T12:27:29Z</time>
      </trkpt>
      <trkpt lat="40.406450" lon="-5.337517">
        <ele>2368.0</ele>
        <time>2013-05-12T12:27:30Z</time>
      </trkpt>
      <trkpt lat="40.406433" lon="-5.337567">
        <ele>2369.0</ele>
        <time>2013-05-12T12:27:31Z</time>
      </trkpt>
      <trkpt lat="40.406433" lon="-5.337600">
        <ele>2371.0</ele>
        <time>2013-05-12T12:27:32Z</time>
      </trkpt>
      <trkpt lat="40.406450" lon="-5.337633">
        <ele>2371.0</ele>
        <time>2013-05-12T12:27:33Z</time>
      </trkpt>
      <trkpt lat="40.406483" lon="-5.337650">
        <ele>2371.0</ele>
        <time>2013-05-12T12:27:34Z</time>
      </trkpt>
      <trkpt lat="40.406517" lon="-5.337633">
        <ele>2371.0</ele>
        <time>2013-05-12T12:27:35Z</time>
      </trkpt>
      <trkpt lat="40.406567" lon="-5.337583">
        <ele>2372.0</ele>
        <time>2013-05-12T12:27:36Z</time>
      </trkpt>
      <trkpt lat="40.406617" lon="-5.337533">
        <ele>2373.0</ele>
        <time>2013-05-12T12:27:37Z</time>
      </trkpt>
      <trkpt lat="40.406650" lon="-5.337467">
        <ele>2374.0</ele>
        <time>2013-05-12T12:27:38Z</time>
      </trkpt>
      <trkpt lat="40.406700" lon="-5.337433">
        <ele>2374.0</ele>
        <time>2013-05-12T12:27:39Z</time>
      </trkpt>
      <trkpt lat="40.406733" lon="-5.337450">
        <ele>2374.0</ele>
        <time>2013-05-12T12:27:40Z</time>
      </trkpt>
      <trkpt lat="40.406767" lon="-5.337483">
        <ele>2375.0</ele>
        <time>2013-05-12T12:27:41Z</time>
      </trkpt>
      <trkpt lat="40.406783" lon="-5.337517">
        <ele>2376.0</ele>
        <time>2013-05-12T12:27:42Z</time>
      </trkpt>
      <trkpt lat="40.406817" lon="-5.337550">
        <ele>2378.0</ele>
        <time>2013-05-12T12:27:43Z</time>
      </trkpt>
      <trkpt lat="40.406833" lon="-5.337600">
        <ele>2380.0</ele>
        <time>2013-05-12T12:27:44Z</time>
      </trkpt>
      <trkpt lat="40.406833" lon="-5.337650">
        <ele>2381.0</ele>
        <time>2013-05-12T12:27:45Z</time>
      </trkpt>
      <trkpt lat="40.406833" lon="-5.337700">
        <ele>2382.0</ele>
        <time>2013-05-12T12:27:46Z</time>
      </trkpt>
      <trkpt lat="40.406800" lon="-5.337783">
        <ele>2383.0</ele>
        <time>2013-05-12T12:27:47Z</time>
      </trkpt>
      <trkpt lat="40.406783" lon="-5.337867">
        <ele>2384.0</ele>
        <time>2013-05-12T12:27:48Z</time>
      </trkpt>
      <trkpt lat="40.406733" lon="-5.337933">
        <ele>2386.0</ele>
        <time>2013-05-12T12:27:49Z</time>
      </trkpt>
      <trkpt lat="40.406683" lon="-5.338000">
        <ele>2387.0</ele>
        <time>2013-05-12T12:27:50Z</time>
      </trkpt>
      <trkpt lat="40.406633" lon="-5.338067">
        <ele>2388.0</ele>
        <time>2013-05-12T12:27:51Z</time>
      </trkpt>
      <trkpt lat="40.406550" lon="-5.338133">
        <ele>2389.0</ele>
        <time>2013-05-12T12:27:52Z</time>
      </trkpt>
      <trkpt lat="40.406467" lon="-5.338200">
        <ele>2389.0</ele>
        <time>2013-05-12T12:27:53Z</time>
      </trkpt>
      <trkpt lat="40.406367" lon="-5.338267">
        <ele>2391.0</ele>
        <time>2013-05-12T12:27:54Z</time>
      </trkpt>
      <trkpt lat="40.406267" lon="-5.338333">
        <ele>2393.0</ele>
        <time>2013-05-12T12:27:55Z</time>
      </trkpt>
      <trkpt lat="40.406167" lon="-5.338383">
        <ele>2395.0</ele>
        <time>2013-05-12T12:27:56Z</time>
      </trkpt>
      <trkpt lat="40.406050" lon="-5.338417">
        <ele>2396.0</ele>
        <time>2013-05-12T12:27:57Z</time>
      </trkpt>
      <trkpt lat="40.405933" lon="-5.338450">
        <ele>2397.0</ele>
        <time>2013-05-12T12:27:58Z</time>
      </trkpt>
      <trkpt lat="40.405800" lon="-5.338467">
        <ele>2398.0</ele>
        <time>2013-05-12T12:27:59Z</time>
      </trkpt>
      <trkpt lat="40.405667" lon="-5.338450">
        <ele>2401.0</ele>
        <time>2013-05-12T12:28:00Z</time>
      </trkpt>
      <trkpt lat="40.405550" lon="-5.338400">
        <ele>2402.0</ele>
        <time>2013-05-12T12:28:01Z</time>
      </trkpt>
      <trkpt lat="40.405450" lon="-5.338333">
        <ele>2402.0</ele>
        <time>2013-05-12T12:28:02Z</time>
      </trkpt>
      <trkpt lat="40.405350" lon="-5.338267">
        <ele>2401.0</ele>
        <time>2013-05-12T12:28:03Z</time>
      </trkpt>
      <trkpt lat="40.405233" lon="-5.338233">
        <ele>2400.0</ele>
        <time>2013-05-12T12:28:04Z</time>
      </trkpt>
      <trkpt lat="40.405100" lon="-5.338233">
        <ele>2397.0</ele>
        <time>2013-05-12T12:28:05Z</time>
      </trkpt>
      <trkpt lat="40.404967" lon="-5.338300">
        <ele>2394.0</ele>
        <time>2013-05-12T12:28:06Z</time>
      </trkpt>
      <trkpt lat="40.404867" lon="-5.338383">
        <ele>2393.0</ele>
        <time>2013-05-12T12:28:07Z</time>
      </trkpt>
      <trkpt lat="40.404783" lon="-5.338483">
        <ele>2394.0</ele>
        <time>2013-05-12T12:28:08Z</time>
      </trkpt>
      <trkpt lat="40.404717" lon="-5.338567">
        <ele>2395.0</ele>
        <time>2013-05-12T12:28:09Z</time>
      </trkpt>
      <trkpt lat="40.404650" lon="-5.338633">
        <ele>2394.0</ele>
        <time>2013-05-12T12:28:10Z</time>
      </trkpt>
      <trkpt lat="40.404600" lon="-5.338700">
        <ele>2392.0</ele>
        <time>2013-05-12T12:28:11Z</time>
      </trkpt>
      <trkpt lat="40.404533" lon="-5.338783">
        <ele>2390.0</ele>
        <time>2013-05-12T12:28:12Z</time>
      </trkpt>
      <trkpt lat="40.404467" lon="-5.338867">
        <ele>2387.0</ele>
        <time>2013-05-12T12:28:13Z</time>
      </trkpt>
      <trkpt lat="40.404400" lon="-5.338967">
        <ele>2384.0</ele>
        <time>2013-05-12T12:28:14Z</time>
      </trkpt>
      <trkpt lat="40.404350" lon="-5.339067">
        <ele>2381.0</ele>
        <time>2013-05-12T12:28:15Z</time>
      </trkpt>
      <trkpt lat="40.404283" lon="-5.339183">
        <ele>2379.0</ele>
        <time>2013-05-12T12:28:16Z</time>
      </trkpt>
      <trkpt lat="40.404233" lon="-5.339283">
        <ele>2378.0</ele>
        <time>2013-05-12T12:28:17Z</time>
      </trkpt>
      <trkpt lat="40.404183" lon="-5.339400">
        <ele>2377.0</ele>
        <time>2013-05-12T12:28:18Z</time>
      </trkpt>
      <trkpt lat="40.404133" lon="-5.339500">
        <ele>2375.0</ele>
        <time>2013-05-12T12:28:19Z</time>
      </trkpt>
      <trkpt lat="40.404100" lon="-5.339600">
        <ele>2374.0</ele>
        <time>2013-05-12T12:28:20Z</time>
      </trkpt>
      <trkpt lat="40.404050" lon="-5.339717">
        <ele>2372.0</ele>
        <time>2013-05-12T12:28:21Z</time>
      </trkpt>
      <trkpt lat="40.404033" lon="-5.339833">
        <ele>2370.0</ele>
        <time>2013-05-12T12:28:22Z</time>
      </trkpt>
      <trkpt lat="40.404017" lon="-5.339933">
        <ele>2370.0</ele>
        <time>2013-05-12T12:28:23Z</time>
      </trkpt>
      <trkpt lat="40.404000" lon="-5.340050">
        <ele>2369.0</ele>
        <time>2013-05-12T12:28:24Z</time>
      </trkpt>
      <trkpt lat="40.403983" lon="-5.340167">
        <ele>2367.0</ele>
        <time>2013-05-12T12:28:25Z</time>
      </trkpt>
      <trkpt lat="40.403983" lon="-5.340283">
        <ele>2366.0</ele>
        <time>2013-05-12T12:28:26Z</time>
      </trkpt>
      <trkpt lat="40.403983" lon="-5.340417">
        <ele>2364.0</ele>
        <time>2013-05-12T12:28:27Z</time>
      </trkpt>
      <trkpt lat="40.403983" lon="-5.340550">
        <ele>2363.0</ele>
        <time>2013-05-12T12:28:28Z</time>
      </trkpt>
      <trkpt lat="40.403983" lon="-5.340700">
        <ele>2362.0</ele>
        <time>2013-05-12T12:28:29Z</time>
      </trkpt>
      <trkpt lat="40.403983" lon="-5.340833">
        <ele>2362.0</ele>
        <time>2013-05-12T12:28:30Z</time>
      </trkpt>
      <trkpt lat="40.403983" lon="-5.340967">
        <ele>2362.0</ele>
        <time>2013-05-12T12:28:31Z</time>
      </trkpt>
      <trkpt lat="40.403983" lon="-5.341083">
        <ele>2362.0</ele>
        <time>2013-05-12T12:28:32Z</time>
      </trkpt>
      <trkpt lat="40.403983" lon="-5.341200">
        <ele>2362.0</ele>
        <time>2013-05-12T12:28:33Z</time>
      </trkpt>
      <trkpt lat="40.403983" lon="-5.341317">
        <ele>2361.0</ele>
        <time>2013-05-12T12:28:34Z</time>
      </trkpt>
      <trkpt lat="40.403983" lon="-5.341450">
        <ele>2359.0</ele>
        <time>2013-05-12T12:28:35Z</time>
      </trkpt>
      <trkpt lat="40.403967" lon="-5.341567">
        <ele>2358.0</ele>
        <time>2013-05-12T12:28:36Z</time>
      </trkpt>
      <trkpt lat="40.403967" lon="-5.341683">
        <ele>2357.0</ele>
        <time>2013-05-12T12:28:37Z</time>
      </trkpt>
      <trkpt lat="40.403950" lon="-5.341800">
        <ele>2357.0</ele>
        <time>2013-05-12T12:28:38Z</time>
      </trkpt>
      <trkpt lat="40.403917" lon="-5.341900">
        <ele>2356.0</ele>
        <time>2013-05-12T12:28:39Z</time>
      </trkpt>
      <trkpt lat="40.403867" lon="-5.342017">
        <ele>2354.0</ele>
        <time>2013-05-12T12:28:40Z</time>
      </trkpt>
      <trkpt lat="40.403817" lon="-5.342133">
        <ele>2352.0</ele>
        <time>2013-05-12T12:28:41Z</time>
      </trkpt>
      <trkpt lat="40.403767" lon="-5.342250">
        <ele>2351.0</ele>
        <time>2013-05-12T12:28:42Z</time>
      </trkpt>
      <trkpt lat="40.403717" lon="-5.342350">
        <ele>2351.0</ele>
        <time>2013-05-12T12:28:43Z</time>
      </trkpt>
      <trkpt lat="40.403667" lon="-5.342450">
        <ele>2351.0</ele>
        <time>2013-05-12T12:28:44Z</time>
      </trkpt>
      <trkpt lat="40.403633" lon="-5.342550">
        <ele>2350.0</ele>
        <time>2013-05-12T12:28:45Z</time>
      </trkpt>
      <trkpt lat="40.403617" lon="-5.342667">
        <ele>2348.0</ele>
        <time>2013-05-12T12:28:46Z</time>
      </trkpt>
      <trkpt lat="40.403583" lon="-5.342800">
        <ele>2347.0</ele>
        <time>2013-05-12T12:28:47Z</time>
      </trkpt>
      <trkpt lat="40.403567" lon="-5.342933">
        <ele>2347.0</ele>
        <time>2013-05-12T12:28:48Z</time>
      </trkpt>
      <trkpt lat="40.403533" lon="-5.343050">
        <ele>2347.0</ele>
        <time>2013-05-12T12:28:49Z</time>
      </trkpt>
      <trkpt lat="40.403500" lon="-5.343167">
        <ele>2347.0</ele>
        <time>2013-05-12T12:28:50Z</time>
      </trkpt>
      <trkpt lat="40.403483" lon="-5.343283">
        <ele>2345.0</ele>
        <time>2013-05-12T12:28:51Z</time>
      </trkpt>
      <trkpt lat="40.403467" lon="-5.343417">
        <ele>2344.0</ele>
        <time>2013-05-12T12:28:52Z</time>
      </trkpt>
      <trkpt lat="40.403433" lon="-5.343550">
        <ele>2342.0</ele>
        <time>2013-05-12T12:28:53Z</time>
      </trkpt>
      <trkpt lat="40.403383" lon="-5.343700">
        <ele>2342.0</ele>
        <time>2013-05-12T12:28:54Z</time>
      </trkpt>
      <trkpt lat="40.403350" lon="-5.343833">
        <ele>2342.0</ele>
        <time>2013-05-12T12:28:55Z</time>
      </trkpt>
      <trkpt lat="40.403300" lon="-5.343967">
        <ele>2343.0</ele>
        <time>2013-05-12T12:28:56Z</time>
      </trkpt>
      <trkpt lat="40.403283" lon="-5.344083">
        <ele>2342.0</ele>
        <time>2013-05-12T12:28:57Z</time>
      </trkpt>
      <trkpt lat="40.403267" lon="-5.344183">
        <ele>2341.0</ele>
        <time>2013-05-12T12:28:58Z</time>
      </trkpt>
      <trkpt lat="40.403267" lon="-5.344300">
        <ele>2340.0</ele>
        <time>2013-05-12T12:28:59Z</time>
      </trkpt>
      <trkpt lat="40.403250" lon="-5.344417">
        <ele>2340.0</ele>
        <time>2013-05-12T12:29:00Z</time>
      </trkpt>
      <trkpt lat="40.403233" lon="-5.344517">
        <ele>2340.0</ele>
        <time>2013-05-12T12:29:01Z</time>
      </trkpt>
      <trkpt lat="40.403200" lon="-5.344617">
        <ele>2340.0</ele>
        <time>2013-05-12T12:29:02Z</time>
      </trkpt>
      <trkpt lat="40.403183" lon="-5.344717">
        <ele>2339.0</ele>
        <time>2013-05-12T12:29:03Z</time>
      </trkpt>
      <trkpt lat="40.403167" lon="-5.344833">
        <ele>2338.0</ele>
        <time>2013-05-12T12:29:04Z</time>
      </trkpt>
      <trkpt lat="40.403150" lon="-5.344950">
        <ele>2338.0</ele>
        <time>2013-05-12T12:29:05Z</time>
      </trkpt>
      <trkpt lat="40.403133" lon="-5.345083">
        <ele>2339.0</ele>
        <time>2013-05-12T12:29:06Z</time>
      </trkpt>
      <trkpt lat="40.403100" lon="-5.345183">
        <ele>2340.0</ele>
        <time>2013-05-12T12:29:07Z</time>
      </trkpt>
      <trkpt lat="40.403067" lon="-5.345283">
        <ele>2341.0</ele>
        <time>2013-05-12T12:29:08Z</time>
      </trkpt>
      <trkpt lat="40.403033" lon="-5.345367">
        <ele>2340.0</ele>
        <time>2013-05-12T12:29:09Z</time>
      </trkpt>
      <trkpt lat="40.403017" lon="-5.345467">
        <ele>2339.0</ele>
        <time>2013-05-12T12:29:10Z</time>
      </trkpt>
      <trkpt lat="40.402983" lon="-5.345583">
        <ele>2337.0</ele>
        <time>2013-05-12T12:29:11Z</time>
      </trkpt>
      <trkpt lat="40.402950" lon="-5.345683">
        <ele>2336.0</ele>
        <time>2013-05-12T12:29:12Z</time>
      </trkpt>
      <trkpt lat="40.402933" lon="-5.345800">
        <ele>2335.0</ele>
        <time>2013-05-12T12:29:13Z</time>
      </trkpt>
      <trkpt lat="40.402900" lon="-5.345917">
        <ele>2333.0</ele>
        <time>2013-05-12T12:29:14Z</time>
      </trkpt>
      <trkpt lat="40.402883" lon="-5.346033">
        <ele>2332.0</ele>
        <time>2013-05-12T12:29:15Z</time>
      </trkpt>
      <trkpt lat="40.402850" lon="-5.346133">
        <ele>2331.0</ele>
        <time>2013-05-12T12:29:16Z</time>
      </trkpt>
      <trkpt lat="40.402833" lon="-5.346250">
        <ele>2330.0</ele>
        <time>2013-05-12T12:29:17Z</time>
      </trkpt>
      <trkpt lat="40.402800" lon="-5.346367">
        <ele>2329.0</ele>
        <time>2013-05-12T12:29:18Z</time>
      </trkpt>
      <trkpt lat="40.402767" lon="-5.346500">
        <ele>2328.0</ele>
        <time>2013-05-12T12:29:19Z</time>
      </trkpt>
      <trkpt lat="40.402733" lon="-5.346633">
        <ele>2326.0</ele>
        <time>2013-05-12T12:29:20Z</time>
      </trkpt>
      <trkpt lat="40.402700" lon="-5.346767">
        <ele>2325.0</ele>
        <time>2013-05-12T12:29:21Z</time>
      </trkpt>
      <trkpt lat="40.402667" lon="-5.346900">
        <ele>2324.0</ele>
        <time>2013-05-12T12:29:22Z</time>
      </trkpt>
      <trkpt lat="40.402633" lon="-5.347033">
        <ele>2324.0</ele>
        <time>2013-05-12T12:29:23Z</time>
      </trkpt>
      <trkpt lat="40.402617" lon="-5.347133">
        <ele>2324.0</ele>
        <time>2013-05-12T12:29:24Z</time>
      </trkpt>
      <trkpt lat="40.402583" lon="-5.347233">
        <ele>2324.0</ele>
        <time>2013-05-12T12:29:25Z</time>
      </trkpt>
      <trkpt lat="40.402550" lon="-5.347333">
        <ele>2323.0</ele>
        <time>2013-05-12T12:29:26Z</time>
      </trkpt>
      <trkpt lat="40.402533" lon="-5.347433">
        <ele>2321.0</ele>
        <time>2013-05-12T12:29:27Z</time>
      </trkpt>
      <trkpt lat="40.402517" lon="-5.347533">
        <ele>2319.0</ele>
        <time>2013-05-12T12:29:28Z</time>
      </trkpt>
      <trkpt lat="40.402517" lon="-5.347633">
        <ele>2317.0</ele>
        <time>2013-05-12T12:29:29Z</time>
      </trkpt>
      <trkpt lat="40.402483" lon="-5.347733">
        <ele>2315.0</ele>
        <time>2013-05-12T12:29:30Z</time>
      </trkpt>
      <trkpt lat="40.402467" lon="-5.347833">
        <ele>2314.0</ele>
        <time>2013-05-12T12:29:31Z</time>
      </trkpt>
      <trkpt lat="40.402433" lon="-5.347933">
        <ele>2312.0</ele>
        <time>2013-05-12T12:29:32Z</time>
      </trkpt>
      <trkpt lat="40.402400" lon="-5.348017">
        <ele>2310.0</ele>
        <time>2013-05-12T12:29:33Z</time>
      </trkpt>
      <trkpt lat="40.402383" lon="-5.348117">
        <ele>2307.0</ele>
        <time>2013-05-12T12:29:34Z</time>
      </trkpt>
      <trkpt lat="40.402350" lon="-5.348217">
        <ele>2305.0</ele>
        <time>2013-05-12T12:29:35Z</time>
      </trkpt>
      <trkpt lat="40.402317" lon="-5.348317">
        <ele>2303.0</ele>
        <time>2013-05-12T12:29:36Z</time>
      </trkpt>
      <trkpt lat="40.402267" lon="-5.348433">
        <ele>2301.0</ele>
        <time>2013-05-12T12:29:37Z</time>
      </trkpt>
      <trkpt lat="40.402233" lon="-5.348533">
        <ele>2300.0</ele>
        <time>2013-05-12T12:29:38Z</time>
      </trkpt>
      <trkpt lat="40.402200" lon="-5.348617">
        <ele>2300.0</ele>
        <time>2013-05-12T12:29:39Z</time>
      </trkpt>
      <trkpt lat="40.402150" lon="-5.348700">
        <ele>2299.0</ele>
        <time>2013-05-12T12:29:40Z</time>
      </trkpt>
      <trkpt lat="40.402117" lon="-5.348800">
        <ele>2297.0</ele>
        <time>2013-05-12T12:29:41Z</time>
      </trkpt>
      <trkpt lat="40.402067" lon="-5.348900">
        <ele>2296.0</ele>
        <time>2013-05-12T12:29:42Z</time>
      </trkpt>
      <trkpt lat="40.402017" lon="-5.349000">
        <ele>2294.0</ele>
        <time>2013-05-12T12:29:43Z</time>
      </trkpt>
      <trkpt lat="40.401983" lon="-5.349100">
        <ele>2294.0</ele>
        <time>2013-05-12T12:29:44Z</time>
      </trkpt>
      <trkpt lat="40.401950" lon="-5.349200">
        <ele>2294.0</ele>
        <time>2013-05-12T12:29:45Z</time>
      </trkpt>
      <trkpt lat="40.401900" lon="-5.349283">
        <ele>2295.0</ele>
        <time>2013-05-12T12:29:46Z</time>
      </trkpt>
      <trkpt lat="40.401867" lon="-5.349383">
        <ele>2294.0</ele>
        <time>2013-05-12T12:29:47Z</time>
      </trkpt>
      <trkpt lat="40.401800" lon="-5.349483">
        <ele>2293.0</ele>
        <time>2013-05-12T12:29:48Z</time>
      </trkpt>
      <trkpt lat="40.401750" lon="-5.349600">
        <ele>2293.0</ele>
        <time>2013-05-12T12:29:49Z</time>
      </trkpt>
      <trkpt lat="40.401683" lon="-5.349717">
        <ele>2293.0</ele>
        <time>2013-05-12T12:29:50Z</time>
      </trkpt>
      <trkpt lat="40.401617" lon="-5.349817">
        <ele>2293.0</ele>
        <time>2013-05-12T12:29:51Z</time>
      </trkpt>
      <trkpt lat="40.401567" lon="-5.349933">
        <ele>2294.0</ele>
        <time>2013-05-12T12:29:52Z</time>
      </trkpt>
      <trkpt lat="40.401517" lon="-5.350050">
        <ele>2294.0</ele>
        <time>2013-05-12T12:29:53Z</time>
      </trkpt>
      <trkpt lat="40.401483" lon="-5.350183">
        <ele>2294.0</ele>
        <time>2013-05-12T12:29:54Z</time>
      </trkpt>
      <trkpt lat="40.401433" lon="-5.350300">
        <ele>2296.0</ele>
        <time>2013-05-12T12:29:55Z</time>
      </trkpt>
      <trkpt lat="40.401383" lon="-5.350433">
        <ele>2297.0</ele>
        <time>2013-05-12T12:29:56Z</time>
      </trkpt>
      <trkpt lat="40.401317" lon="-5.350550">
        <ele>2298.0</ele>
        <time>2013-05-12T12:29:57Z</time>
      </trkpt>
      <trkpt lat="40.401267" lon="-5.350650">
        <ele>2298.0</ele>
        <time>2013-05-12T12:29:58Z</time>
      </trkpt>
      <trkpt lat="40.401200" lon="-5.350767">
        <ele>2296.0</ele>
        <time>2013-05-12T12:29:59Z</time>
      </trkpt>
      <trkpt lat="40.401167" lon="-5.350883">
        <ele>2293.0</ele>
        <time>2013-05-12T12:30:00Z</time>
      </trkpt>
      <trkpt lat="40.401133" lon="-5.351000">
        <ele>2290.0</ele>
        <time>2013-05-12T12:30:01Z</time>
      </trkpt>
      <trkpt lat="40.401083" lon="-5.351150">
        <ele>2289.0</ele>
        <time>2013-05-12T12:30:02Z</time>
      </trkpt>
      <trkpt lat="40.401050" lon="-5.351283">
        <ele>2288.0</ele>
        <time>2013-05-12T12:30:03Z</time>
      </trkpt>
      <trkpt lat="40.401000" lon="-5.351400">
        <ele>2287.0</ele>
        <time>2013-05-12T12:30:04Z</time>
      </trkpt>
      <trkpt lat="40.400967" lon="-5.351517">
        <ele>2287.0</ele>
        <time>2013-05-12T12:30:05Z</time>
      </trkpt>
      <trkpt lat="40.400933" lon="-5.351633">
        <ele>2286.0</ele>
        <time>2013-05-12T12:30:06Z</time>
      </trkpt>
      <trkpt lat="40.400900" lon="-5.351750">
        <ele>2285.0</ele>
        <time>2013-05-12T12:30:07Z</time>
      </trkpt>
      <trkpt lat="40.400867" lon="-5.351883">
        <ele>2284.0</ele>
        <time>2013-05-12T12:30:08Z</time>
      </trkpt>
      <trkpt lat="40.400817" lon="-5.352017">
        <ele>2284.0</ele>
        <time>2013-05-12T12:30:09Z</time>
      </trkpt>
      <trkpt lat="40.400783" lon="-5.352133">
        <ele>2285.0</ele>
        <time>2013-05-12T12:30:10Z</time>
      </trkpt>
      <trkpt lat="40.400750" lon="-5.352250">
        <ele>2285.0</ele>
        <time>2013-05-12T12:30:11Z</time>
      </trkpt>
      <trkpt lat="40.400717" lon="-5.352350">
        <ele>2285.0</ele>
        <time>2013-05-12T12:30:12Z</time>
      </trkpt>
      <trkpt lat="40.400683" lon="-5.352467">
        <ele>2285.0</ele>
        <time>2013-05-12T12:30:13Z</time>
      </trkpt>
      <trkpt lat="40.400633" lon="-5.352583">
        <ele>2284.0</ele>
        <time>2013-05-12T12:30:14Z</time>
      </trkpt>
      <trkpt lat="40.400583" lon="-5.352700">
        <ele>2282.0</ele>
        <time>2013-05-12T12:30:15Z</time>
      </trkpt>
      <trkpt lat="40.400533" lon="-5.352833">
        <ele>2282.0</ele>
        <time>2013-05-12T12:30:16Z</time>
      </trkpt>
      <trkpt lat="40.400500" lon="-5.352950">
        <ele>2282.0</ele>
        <time>2013-05-12T12:30:17Z</time>
      </trkpt>
      <trkpt lat="40.400467" lon="-5.353067">
        <ele>2283.0</ele>
        <time>2013-05-12T12:30:18Z</time>
      </trkpt>
      <trkpt lat="40.400417" lon="-5.353167">
        <ele>2282.0</ele>
        <time>2013-05-12T12:30:19Z</time>
      </trkpt>
      <trkpt lat="40.400367" lon="-5.353267">
        <ele>2282.0</ele>
        <time>2013-05-12T12:30:20Z</time>
      </trkpt>
      <trkpt lat="40.400317" lon="-5.353383">
        <ele>2281.0</ele>
        <time>2013-05-12T12:30:21Z</time>
      </trkpt>
      <trkpt lat="40.400267" lon="-5.353500">
        <ele>2280.0</ele>
        <time>2013-05-12T12:30:22Z</time>
      </trkpt>
      <trkpt lat="40.400200" lon="-5.353633">
        <ele>2280.0</ele>
        <time>2013-05-12T12:30:23Z</time>
      </trkpt>
      <trkpt lat="40.400133" lon="-5.353733">
        <ele>2280.0</ele>
        <time>2013-05-12T12:30:24Z</time>
      </trkpt>
      <trkpt lat="40.400067" lon="-5.353850">
        <ele>2280.0</ele>
        <time>2013-05-12T12:30:25Z</time>
      </trkpt>
      <trkpt lat="40.400000" lon="-5.353967">
        <ele>2279.0</ele>
        <time>2013-05-12T12:30:26Z</time>
      </trkpt>
      <trkpt lat="40.399933" lon="-5.354083">
        <ele>2279.0</ele>
        <time>2013-05-12T12:30:27Z</time>
      </trkpt>
      <trkpt lat="40.399867" lon="-5.354200">
        <ele>2280.0</ele>
        <time>2013-05-12T12:30:28Z</time>
      </trkpt>
      <trkpt lat="40.399817" lon="-5.354300">
        <ele>2282.0</ele>
        <time>2013-05-12T12:30:29Z</time>
      </trkpt>
      <trkpt lat="40.399767" lon="-5.354400">
        <ele>2283.0</ele>
        <time>2013-05-12T12:30:30Z</time>
      </trkpt>
      <trkpt lat="40.399717" lon="-5.354483">
        <ele>2284.0</ele>
        <time>2013-05-12T12:30:31Z</time>
      </trkpt>
      <trkpt lat="40.399667" lon="-5.354567">
        <ele>2284.0</ele>
        <time>2013-05-12T12:30:32Z</time>
      </trkpt>
      <trkpt lat="40.399617" lon="-5.354667">
        <ele>2284.0</ele>
        <time>2013-05-12T12:30:33Z</time>
      </trkpt>
      <trkpt lat="40.399567" lon="-5.354767">
        <ele>2284.0</ele>
        <time>2013-05-12T12:30:34Z</time>
      </trkpt>
      <trkpt lat="40.399517" lon="-5.354867">
        <ele>2284.0</ele>
        <time>2013-05-12T12:30:35Z</time>
      </trkpt>
      <trkpt lat="40.399467" lon="-5.354967">
        <ele>2284.0</ele>
        <time>2013-05-12T12:30:36Z</time>
      </trkpt>
      <trkpt lat="40.399433" lon="-5.355050">
        <ele>2284.0</ele>
        <time>2013-05-12T12:30:37Z</time>
      </trkpt>
      <trkpt lat="40.399383" lon="-5.355150">
        <ele>2284.0</ele>
        <time>2013-05-12T12:30:38Z</time>
      </trkpt>
      <trkpt lat="40.399350" lon="-5.355233">
        <ele>2283.0</ele>
        <time>2013-05-12T12:30:39Z</time>
      </trkpt>
      <trkpt lat="40.399317" lon="-5.355333">
        <ele>2282.0</ele>
        <time>2013-05-12T12:30:40Z</time>
      </trkpt>
      <trkpt lat="40.399267" lon="-5.355450">
        <ele>2280.0</ele>
        <time>2013-05-12T12:30:41Z</time>
      </trkpt>
      <trkpt lat="40.399217" lon="-5.355550">
        <ele>2279.0</ele>
        <time>2013-05-12T12:30:42Z</time>
      </trkpt>
      <trkpt lat="40.399183" lon="-5.355667">
        <ele>2278.0</ele>
        <time>2013-05-12T12:30:43Z</time>
      </trkpt>
      <trkpt lat="40.399150" lon="-5.355767">
        <ele>2278.0</ele>
        <time>2013-05-12T12:30:44Z</time>
      </trkpt>
      <trkpt lat="40.399117" lon="-5.355867">
        <ele>2279.0</ele>
        <time>2013-05-12T12:30:45Z</time>
      </trkpt>
      <trkpt lat="40.399083" lon="-5.355950">
        <ele>2279.0</ele>
        <time>2013-05-12T12:30:46Z</time>
      </trkpt>
      <trkpt lat="40.399050" lon="-5.356017">
        <ele>2278.0</ele>
        <time>2013-05-12T12:30:47Z</time>
      </trkpt>
      <trkpt lat="40.399017" lon="-5.356117">
        <ele>2276.0</ele>
        <time>2013-05-12T12:30:48Z</time>
      </trkpt>
      <trkpt lat="40.398983" lon="-5.356217">
        <ele>2274.0</ele>
        <time>2013-05-12T12:30:49Z</time>
      </trkpt>
      <trkpt lat="40.398933" lon="-5.356333">
        <ele>2273.0</ele>
        <time>2013-05-12T12:30:50Z</time>
      </trkpt>
      <trkpt lat="40.398900" lon="-5.356433">
        <ele>2272.0</ele>
        <time>2013-05-12T12:30:51Z</time>
      </trkpt>
      <trkpt lat="40.398867" lon="-5.356533">
        <ele>2271.0</ele>
        <time>2013-05-12T12:30:52Z</time>
      </trkpt>
      <trkpt lat="40.398833" lon="-5.356633">
        <ele>2271.0</ele>
        <time>2013-05-12T12:30:53Z</time>
      </trkpt>
      <trkpt lat="40.398800" lon="-5.356733">
        <ele>2270.0</ele>
        <time>2013-05-12T12:30:54Z</time>
      </trkpt>
      <trkpt lat="40.398783" lon="-5.356850">
        <ele>2269.0</ele>
        <time>2013-05-12T12:30:55Z</time>
      </trkpt>
      <trkpt lat="40.398750" lon="-5.356950">
        <ele>2269.0</ele>
        <time>2013-05-12T12:30:56Z</time>
      </trkpt>
      <trkpt lat="40.398700" lon="-5.357067">
        <ele>2270.0</ele>
        <time>2013-05-12T12:30:57Z</time>
      </trkpt>
      <trkpt lat="40.398667" lon="-5.357167">
        <ele>2271.0</ele>
        <time>2013-05-12T12:30:58Z</time>
      </trkpt>
      <trkpt lat="40.398633" lon="-5.357250">
        <ele>2270.0</ele>
        <time>2013-05-12T12:30:59Z</time>
      </trkpt>
      <trkpt lat="40.398600" lon="-5.357317">
        <ele>2270.0</ele>
        <time>2013-05-12T12:31:00Z</time>
      </trkpt>
      <trkpt lat="40.398567" lon="-5.357400">
        <ele>2268.0</ele>
        <time>2013-05-12T12:31:01Z</time>
      </trkpt>
      <trkpt lat="40.398517" lon="-5.357500">
        <ele>2266.0</ele>
        <time>2013-05-12T12:31:02Z</time>
      </trkpt>
      <trkpt lat="40.398483" lon="-5.357600">
        <ele>2265.0</ele>
        <time>2013-05-12T12:31:03Z</time>
      </trkpt>
      <trkpt lat="40.398433" lon="-5.357700">
        <ele>2263.0</ele>
        <time>2013-05-12T12:31:04Z</time>
      </trkpt>
      <trkpt lat="40.398383" lon="-5.357817">
        <ele>2261.0</ele>
        <time>2013-05-12T12:31:05Z</time>
      </trkpt>
      <trkpt lat="40.398350" lon="-5.357917">
        <ele>2260.0</ele>
        <time>2013-05-12T12:31:06Z</time>
      </trkpt>
      <trkpt lat="40.398300" lon="-5.358033">
        <ele>2259.0</ele>
        <time>2013-05-12T12:31:07Z</time>
      </trkpt>
      <trkpt lat="40.398267" lon="-5.358150">
        <ele>2258.0</ele>
        <time>2013-05-12T12:31:08Z</time>
      </trkpt>
      <trkpt lat="40.398217" lon="-5.358250">
        <ele>2258.0</ele>
        <time>2013-05-12T12:31:09Z</time>
      </trkpt>
      <trkpt lat="40.398167" lon="-5.358350">
        <ele>2257.0</ele>
        <time>2013-05-12T12:31:10Z</time>
      </trkpt>
      <trkpt lat="40.398133" lon="-5.358450">
        <ele>2256.0</ele>
        <time>2013-05-12T12:31:11Z</time>
      </trkpt>
      <trkpt lat="40.398083" lon="-5.358550">
        <ele>2256.0</ele>
        <time>2013-05-12T12:31:12Z</time>
      </trkpt>
      <trkpt lat="40.398033" lon="-5.358633">
        <ele>2255.0</ele>
        <time>2013-05-12T12:31:13Z</time>
      </trkpt>
      <trkpt lat="40.398000" lon="-5.358733">
        <ele>2254.0</ele>
        <time>2013-05-12T12:31:14Z</time>
      </trkpt>
      <trkpt lat="40.397967" lon="-5.358817">
        <ele>2253.0</ele>
        <time>2013-05-12T12:31:15Z</time>
      </trkpt>
      <trkpt lat="40.397917" lon="-5.358900">
        <ele>2251.0</ele>
        <time>2013-05-12T12:31:16Z</time>
      </trkpt>
      <trkpt lat="40.397883" lon="-5.358983">
        <ele>2250.0</ele>
        <time>2013-05-12T12:31:17Z</time>
      </trkpt>
      <trkpt lat="40.397833" lon="-5.359067">
        <ele>2248.0</ele>
        <time>2013-05-12T12:31:18Z</time>
      </trkpt>
      <trkpt lat="40.397800" lon="-5.359133">
        <ele>2246.0</ele>
        <time>2013-05-12T12:31:19Z</time>
      </trkpt>
      <trkpt lat="40.397767" lon="-5.359200">
        <ele>2243.0</ele>
        <time>2013-05-12T12:31:20Z</time>
      </trkpt>
      <trkpt lat="40.397733" lon="-5.359267">
        <ele>2239.0</ele>
        <time>2013-05-12T12:31:21Z</time>
      </trkpt>
      <trkpt lat="40.397700" lon="-5.359367">
        <ele>2235.0</ele>
        <time>2013-05-12T12:31:22Z</time>
      </trkpt>
      <trkpt lat="40.397667" lon="-5.359467">
        <ele>2232.0</ele>
        <time>2013-05-12T12:31:23Z</time>
      </trkpt>
      <trkpt lat="40.397633" lon="-5.359550">
        <ele>2230.0</ele>
        <time>2013-05-12T12:31:24Z</time>
      </trkpt>
      <trkpt lat="40.397600" lon="-5.359650">
        <ele>2228.0</ele>
        <time>2013-05-12T12:31:25Z</time>
      </trkpt>
      <trkpt lat="40.397550" lon="-5.359733">
        <ele>2226.0</ele>
        <time>2013-05-12T12:31:26Z</time>
      </trkpt>
      <trkpt lat="40.397517" lon="-5.359817">
        <ele>2225.0</ele>
        <time>2013-05-12T12:31:27Z</time>
      </trkpt>
      <trkpt lat="40.397483" lon="-5.359900">
        <ele>2222.0</ele>
        <time>2013-05-12T12:31:28Z</time>
      </trkpt>
      <trkpt lat="40.397467" lon="-5.359983">
        <ele>2220.0</ele>
        <time>2013-05-12T12:31:29Z</time>
      </trkpt>
      <trkpt lat="40.397450" lon="-5.360083">
        <ele>2217.0</ele>
        <time>2013-05-12T12:31:30Z</time>
      </trkpt>
      <trkpt lat="40.397417" lon="-5.360167">
        <ele>2215.0</ele>
        <time>2013-05-12T12:31:31Z</time>
      </trkpt>
      <trkpt lat="40.397400" lon="-5.360250">
        <ele>2213.0</ele>
        <time>2013-05-12T12:31:32Z</time>
      </trkpt>
      <trkpt lat="40.397367" lon="-5.360333">
        <ele>2211.0</ele>
        <time>2013-05-12T12:31:33Z</time>
      </trkpt>
      <trkpt lat="40.397350" lon="-5.360400">
        <ele>2208.0</ele>
        <time>2013-05-12T12:31:34Z</time>
      </trkpt>
      <trkpt lat="40.397317" lon="-5.360483">
        <ele>2205.0</ele>
        <time>2013-05-12T12:31:35Z</time>
      </trkpt>
      <trkpt lat="40.397300" lon="-5.360567">
        <ele>2203.0</ele>
        <time>2013-05-12T12:31:36Z</time>
      </trkpt>
      <trkpt lat="40.397267" lon="-5.360650">
        <ele>2200.0</ele>
        <time>2013-05-12T12:31:37Z</time>
      </trkpt>
      <trkpt lat="40.397233" lon="-5.360733">
        <ele>2197.0</ele>
        <time>2013-05-12T12:31:38Z</time>
      </trkpt>
      <trkpt lat="40.397183" lon="-5.360817">
        <ele>2194.0</ele>
        <time>2013-05-12T12:31:39Z</time>
      </trkpt>
      <trkpt lat="40.397150" lon="-5.360900">
        <ele>2191.0</ele>
        <time>2013-05-12T12:31:40Z</time>
      </trkpt>
      <trkpt lat="40.397100" lon="-5.361000">
        <ele>2190.0</ele>
        <time>2013-05-12T12:31:41Z</time>
      </trkpt>
      <trkpt lat="40.397067" lon="-5.361100">
        <ele>2189.0</ele>
        <time>2013-05-12T12:31:42Z</time>
      </trkpt>
      <trkpt lat="40.397017" lon="-5.361183">
        <ele>2188.0</ele>
        <time>2013-05-12T12:31:43Z</time>
      </trkpt>
      <trkpt lat="40.396967" lon="-5.361283">
        <ele>2186.0</ele>
        <time>2013-05-12T12:31:44Z</time>
      </trkpt>
      <trkpt lat="40.396917" lon="-5.361400">
        <ele>2185.0</ele>
        <time>2013-05-12T12:31:45Z</time>
      </trkpt>
      <trkpt lat="40.396867" lon="-5.361500">
        <ele>2183.0</ele>
        <time>2013-05-12T12:31:46Z</time>
      </trkpt>
      <trkpt lat="40.396800" lon="-5.361600">
        <ele>2182.0</ele>
        <time>2013-05-12T12:31:47Z</time>
      </trkpt>
      <trkpt lat="40.396750" lon="-5.361683">
        <ele>2181.0</ele>
        <time>2013-05-12T12:31:48Z</time>
      </trkpt>
      <trkpt lat="40.396700" lon="-5.361783">
        <ele>2178.0</ele>
        <time>2013-05-12T12:31:49Z</time>
      </trkpt>
      <trkpt lat="40.396650" lon="-5.361900">
        <ele>2175.0</ele>
        <time>2013-05-12T12:31:50Z</time>
      </trkpt>
      <trkpt lat="40.396600" lon="-5.362017">
        <ele>2172.0</ele>
        <time>2013-05-12T12:31:51Z</time>
      </trkpt>
      <trkpt lat="40.396550" lon="-5.362133">
        <ele>2171.0</ele>
        <time>2013-05-12T12:31:52Z</time>
      </trkpt>
      <trkpt lat="40.396500" lon="-5.362250">
        <ele>2169.0</ele>
        <time>2013-05-12T12:31:53Z</time>
      </trkpt>
      <trkpt lat="40.396433" lon="-5.362350">
        <ele>2168.0</ele>
        <time>2013-05-12T12:31:54Z</time>
      </trkpt>
      <trkpt lat="40.396383" lon="-5.362450">
        <ele>2166.0</ele>
        <time>2013-05-12T12:31:55Z</time>
      </trkpt>
      <trkpt lat="40.396333" lon="-5.362533">
        <ele>2164.0</ele>
        <time>2013-05-12T12:31:56Z</time>
      </trkpt>
      <trkpt lat="40.396283" lon="-5.362633">
        <ele>2162.0</ele>
        <time>2013-05-12T12:31:57Z</time>
      </trkpt>
      <trkpt lat="40.396250" lon="-5.362733">
        <ele>2159.0</ele>
        <time>2013-05-12T12:31:58Z</time>
      </trkpt>
      <trkpt lat="40.396200" lon="-5.362833">
        <ele>2156.0</ele>
        <time>2013-05-12T12:31:59Z</time>
      </trkpt>
      <trkpt lat="40.396150" lon="-5.362933">
        <ele>2154.0</ele>
        <time>2013-05-12T12:32:00Z</time>
      </trkpt>
      <trkpt lat="40.396117" lon="-5.363033">
        <ele>2151.0</ele>
        <time>2013-05-12T12:32:01Z</time>
      </trkpt>
      <trkpt lat="40.396067" lon="-5.363133">
        <ele>2149.0</ele>
        <time>2013-05-12T12:32:02Z</time>
      </trkpt>
      <trkpt lat="40.396033" lon="-5.363233">
        <ele>2146.0</ele>
        <time>2013-05-12T12:32:03Z</time>
      </trkpt>
      <trkpt lat="40.396000" lon="-5.363333">
        <ele>2144.0</ele>
        <time>2013-05-12T12:32:04Z</time>
      </trkpt>
      <trkpt lat="40.395967" lon="-5.363450">
        <ele>2142.0</ele>
        <time>2013-05-12T12:32:05Z</time>
      </trkpt>
      <trkpt lat="40.395933" lon="-5.363550">
        <ele>2140.0</ele>
        <time>2013-05-12T12:32:06Z</time>
      </trkpt>
      <trkpt lat="40.395900" lon="-5.363650">
        <ele>2138.0</ele>
        <time>2013-05-12T12:32:07Z</time>
      </trkpt>
      <trkpt lat="40.395867" lon="-5.363750">
        <ele>2136.0</ele>
        <time>2013-05-12T12:32:08Z</time>
      </trkpt>
      <trkpt lat="40.395833" lon="-5.363850">
        <ele>2133.0</ele>
        <time>2013-05-12T12:32:09Z</time>
      </trkpt>
      <trkpt lat="40.395783" lon="-5.363967">
        <ele>2130.0</ele>
        <time>2013-05-12T12:32:10Z</time>
      </trkpt>
      <trkpt lat="40.395750" lon="-5.364067">
        <ele>2128.0</ele>
        <time>2013-05-12T12:32:11Z</time>
      </trkpt>
      <trkpt lat="40.395700" lon="-5.364183">
        <ele>2126.0</ele>
        <time>2013-05-12T12:32:12Z</time>
      </trkpt>
      <trkpt lat="40.395650" lon="-5.364283">
        <ele>2124.0</ele>
        <time>2013-05-12T12:32:13Z</time>
      </trkpt>
      <trkpt lat="40.395600" lon="-5.364383">
        <ele>2122.0</ele>
        <time>2013-05-12T12:32:14Z</time>
      </trkpt>
      <trkpt lat="40.395550" lon="-5.364483">
        <ele>2119.0</ele>
        <time>2013-05-12T12:32:15Z</time>
      </trkpt>
      <trkpt lat="40.395517" lon="-5.364583">
        <ele>2117.0</ele>
        <time>2013-05-12T12:32:16Z</time>
      </trkpt>
      <trkpt lat="40.395467" lon="-5.364700">
        <ele>2114.0</ele>
        <time>2013-05-12T12:32:17Z</time>
      </trkpt>
      <trkpt lat="40.395433" lon="-5.364800">
        <ele>2111.0</ele>
        <time>2013-05-12T12:32:18Z</time>
      </trkpt>
      <trkpt lat="40.395400" lon="-5.364917">
        <ele>2108.0</ele>
        <time>2013-05-12T12:32:19Z</time>
      </trkpt>
      <trkpt lat="40.395350" lon="-5.365033">
        <ele>2106.0</ele>
        <time>2013-05-12T12:32:20Z</time>
      </trkpt>
      <trkpt lat="40.395317" lon="-5.365133">
        <ele>2104.0</ele>
        <time>2013-05-12T12:32:21Z</time>
      </trkpt>
      <trkpt lat="40.395267" lon="-5.365233">
        <ele>2103.0</ele>
        <time>2013-05-12T12:32:22Z</time>
      </trkpt>
      <trkpt lat="40.395233" lon="-5.365350">
        <ele>2102.0</ele>
        <time>2013-05-12T12:32:23Z</time>
      </trkpt>
      <trkpt lat="40.395200" lon="-5.365450">
        <ele>2101.0</ele>
        <time>2013-05-12T12:32:24Z</time>
      </trkpt>
      <trkpt lat="40.395183" lon="-5.365567">
        <ele>2101.0</ele>
        <time>2013-05-12T12:32:25Z</time>
      </trkpt>
      <trkpt lat="40.395167" lon="-5.365650">
        <ele>2102.0</ele>
        <time>2013-05-12T12:32:26Z</time>
      </trkpt>
      <trkpt lat="40.395133" lon="-5.365750">
        <ele>2102.0</ele>
        <time>2013-05-12T12:32:27Z</time>
      </trkpt>
      <trkpt lat="40.395100" lon="-5.365833">
        <ele>2102.0</ele>
        <time>2013-05-12T12:32:28Z</time>
      </trkpt>
      <trkpt lat="40.395067" lon="-5.365950">
        <ele>2103.0</ele>
        <time>2013-05-12T12:32:29Z</time>
      </trkpt>
      <trkpt lat="40.395033" lon="-5.366050">
        <ele>2104.0</ele>
        <time>2013-05-12T12:32:30Z</time>
      </trkpt>
      <trkpt lat="40.395000" lon="-5.366167">
        <ele>2106.0</ele>
        <time>2013-05-12T12:32:31Z</time>
      </trkpt>
      <trkpt lat="40.394950" lon="-5.366250">
        <ele>2107.0</ele>
        <time>2013-05-12T12:32:32Z</time>
      </trkpt>
      <trkpt lat="40.394917" lon="-5.366350">
        <ele>2108.0</ele>
        <time>2013-05-12T12:32:33Z</time>
      </trkpt>
      <trkpt lat="40.394867" lon="-5.366433">
        <ele>2108.0</ele>
        <time>2013-05-12T12:32:34Z</time>
      </trkpt>
      <trkpt lat="40.394833" lon="-5.366550">
        <ele>2108.0</ele>
        <time>2013-05-12T12:32:35Z</time>
      </trkpt>
      <trkpt lat="40.394800" lon="-5.366650">
        <ele>2110.0</ele>
        <time>2013-05-12T12:32:36Z</time>
      </trkpt>
      <trkpt lat="40.394783" lon="-5.366750">
        <ele>2111.0</ele>
        <time>2013-05-12T12:32:37Z</time>
      </trkpt>
      <trkpt lat="40.394767" lon="-5.366833">
        <ele>2114.0</ele>
        <time>2013-05-12T12:32:38Z</time>
      </trkpt>
      <trkpt lat="40.394767" lon="-5.366917">
        <ele>2116.0</ele>
        <time>2013-05-12T12:32:39Z</time>
      </trkpt>
      <trkpt lat="40.394767" lon="-5.366983">
        <ele>2119.0</ele>
        <time>2013-05-12T12:32:40Z</time>
      </trkpt>
      <trkpt lat="40.394750" lon="-5.367033">
        <ele>2122.0</ele>
        <time>2013-05-12T12:32:41Z</time>
      </trkpt>
      <trkpt lat="40.394767" lon="-5.367050">
        <ele>2123.0</ele>
        <time>2013-05-12T12:32:42Z</time>
      </trkpt>
      <trkpt lat="40.394767" lon="-5.367067">
        <ele>2123.0</ele>
        <time>2013-05-12T12:32:43Z</time>
      </trkpt>
      <trkpt lat="40.394800" lon="-5.367067">
        <ele>2124.0</ele>
        <time>2013-05-12T12:32:44Z</time>
      </trkpt>
      <trkpt lat="40.394833" lon="-5.367050">
        <ele>2125.0</ele>
        <time>2013-05-12T12:32:45Z</time>
      </trkpt>
      <trkpt lat="40.394850" lon="-5.367033">
        <ele>2126.0</ele>
        <time>2013-05-12T12:32:46Z</time>
      </trkpt>
      <trkpt lat="40.394850" lon="-5.366967">
        <ele>2126.0</ele>
        <time>2013-05-12T12:32:47Z</time>
      </trkpt>
      <trkpt lat="40.394850" lon="-5.366867">
        <ele>2125.0</ele>
        <time>2013-05-12T12:32:48Z</time>
      </trkpt>
      <trkpt lat="40.394833" lon="-5.366767">
        <ele>2123.0</ele>
        <time>2013-05-12T12:32:49Z</time>
      </trkpt>
      <trkpt lat="40.394800" lon="-5.366650">
        <ele>2123.0</ele>
        <time>2013-05-12T12:32:50Z</time>
      </trkpt>
      <trkpt lat="40.394750" lon="-5.366517">
        <ele>2122.0</ele>
        <time>2013-05-12T12:32:51Z</time>
      </trkpt>
      <trkpt lat="40.394683" lon="-5.366417">
        <ele>2122.0</ele>
        <time>2013-05-12T12:32:52Z</time>
      </trkpt>
      <trkpt lat="40.394583" lon="-5.366300">
        <ele>2122.0</ele>
        <time>2013-05-12T12:32:53Z</time>
      </trkpt>
      <trkpt lat="40.394483" lon="-5.366217">
        <ele>2122.0</ele>
        <time>2013-05-12T12:32:54Z</time>
      </trkpt>
      <trkpt lat="40.394367" lon="-5.366133">
        <ele>2121.0</ele>
        <time>2013-05-12T12:32:55Z</time>
      </trkpt>
      <trkpt lat="40.394233" lon="-5.366083">
        <ele>2121.0</ele>
        <time>2013-05-12T12:32:56Z</time>
      </trkpt>
      <trkpt lat="40.394083" lon="-5.366033">
        <ele>2121.0</ele>
        <time>2013-05-12T12:32:57Z</time>
      </trkpt>
      <trkpt lat="40.393933" lon="-5.366017">
        <ele>2121.0</ele>
        <time>2013-05-12T12:32:58Z</time>
      </trkpt>
      <trkpt lat="40.393783" lon="-5.366033">
        <ele>2122.0</ele>
        <time>2013-05-12T12:32:59Z</time>
      </trkpt>
      <trkpt lat="40.393650" lon="-5.366083">
        <ele>2123.0</ele>
        <time>2013-05-12T12:33:00Z</time>
      </trkpt>
      <trkpt lat="40.393550" lon="-5.366150">
        <ele>2124.0</ele>
        <time>2013-05-12T12:33:01Z</time>
      </trkpt>
      <trkpt lat="40.393450" lon="-5.366233">
        <ele>2126.0</ele>
        <time>2013-05-12T12:33:02Z</time>
      </trkpt>
      <trkpt lat="40.393350" lon="-5.366317">
        <ele>2127.0</ele>
        <time>2013-05-12T12:33:03Z</time>
      </trkpt>
      <trkpt lat="40.393267" lon="-5.366417">
        <ele>2127.0</ele>
        <time>2013-05-12T12:33:04Z</time>
      </trkpt>
      <trkpt lat="40.393183" lon="-5.366517">
        <ele>2129.0</ele>
        <time>2013-05-12T12:33:05Z</time>
      </trkpt>
      <trkpt lat="40.393100" lon="-5.366650">
        <ele>2129.0</ele>
        <time>2013-05-12T12:33:06Z</time>
      </trkpt>
      <trkpt lat="40.393050" lon="-5.366783">
        <ele>2131.0</ele>
        <time>2013-05-12T12:33:07Z</time>
      </trkpt>
      <trkpt lat="40.393000" lon="-5.366917">
        <ele>2134.0</ele>
        <time>2013-05-12T12:33:08Z</time>
      </trkpt>
      <trkpt lat="40.392967" lon="-5.367033">
        <ele>2138.0</ele>
        <time>2013-05-12T12:33:09Z</time>
      </trkpt>
      <trkpt lat="40.392933" lon="-5.367133">
        <ele>2141.0</ele>
        <time>2013-05-12T12:33:10Z</time>
      </trkpt>
      <trkpt lat="40.392917" lon="-5.367200">
        <ele>2143.0</ele>
        <time>2013-05-12T12:33:11Z</time>
      </trkpt>
      <trkpt lat="40.392900" lon="-5.367283">
        <ele>2144.0</ele>
        <time>2013-05-12T12:33:12Z</time>
      </trkpt>
      <trkpt lat="40.392900" lon="-5.367383">
        <ele>2144.0</ele>
        <time>2013-05-12T12:33:13Z</time>
      </trkpt>
      <trkpt lat="40.392917" lon="-5.367450">
        <ele>2146.0</ele>
        <time>2013-05-12T12:33:14Z</time>
      </trkpt>
      <trkpt lat="40.392933" lon="-5.367517">
        <ele>2147.0</ele>
        <time>2013-05-12T12:33:15Z</time>
      </trkpt>
      <trkpt lat="40.392967" lon="-5.367533">
        <ele>2150.0</ele>
        <time>2013-05-12T12:33:16Z</time>
      </trkpt>
      <trkpt lat="40.392983" lon="-5.367550">
        <ele>2153.0</ele>
        <time>2013-05-12T12:33:17Z</time>
      </trkpt>
      <trkpt lat="40.393000" lon="-5.367550">
        <ele>2156.0</ele>
        <time>2013-05-12T12:33:18Z</time>
      </trkpt>
      <trkpt lat="40.393017" lon="-5.367533">
        <ele>2158.0</ele>
        <time>2013-05-12T12:33:19Z</time>
      </trkpt>
      <trkpt lat="40.393033" lon="-5.367483">
        <ele>2159.0</ele>
        <time>2013-05-12T12:33:20Z</time>
      </trkpt>
      <trkpt lat="40.393067" lon="-5.367417">
        <ele>2159.0</ele>
        <time>2013-05-12T12:33:21Z</time>
      </trkpt>
      <trkpt lat="40.393083" lon="-5.367333">
        <ele>2161.0</ele>
        <time>2013-05-12T12:33:22Z</time>
      </trkpt>
      <trkpt lat="40.393083" lon="-5.367250">
        <ele>2163.0</ele>
        <time>2013-05-12T12:33:23Z</time>
      </trkpt>
      <trkpt lat="40.393050" lon="-5.367167">
        <ele>2165.0</ele>
        <time>2013-05-12T12:33:24Z</time>
      </trkpt>
      <trkpt lat="40.393017" lon="-5.367067">
        <ele>2166.0</ele>
        <time>2013-05-12T12:33:25Z</time>
      </trkpt>
      <trkpt lat="40.392967" lon="-5.366967">
        <ele>2168.0</ele>
        <time>2013-05-12T12:33:26Z</time>
      </trkpt>
      <trkpt lat="40.392900" lon="-5.366850">
        <ele>2170.0</ele>
        <time>2013-05-12T12:33:27Z</time>
      </trkpt>
      <trkpt lat="40.392817" lon="-5.366750">
        <ele>2172.0</ele>
        <time>2013-05-12T12:33:28Z</time>
      </trkpt>
      <trkpt lat="40.392700" lon="-5.366667">
        <ele>2173.0</ele>
        <time>2013-05-12T12:33:29Z</time>
      </trkpt>
      <trkpt lat="40.392583" lon="-5.366617">
        <ele>2172.0</ele>
        <time>2013-05-12T12:33:30Z</time>
      </trkpt>
      <trkpt lat="40.392433" lon="-5.366583">
        <ele>2171.0</ele>
        <time>2013-05-12T12:33:31Z</time>
      </trkpt>
      <trkpt lat="40.392283" lon="-5.366550">
        <ele>2171.0</ele>
        <time>2013-05-12T12:33:32Z</time>
      </trkpt>
      <trkpt lat="40.392117" lon="-5.366500">
        <ele>2173.0</ele>
        <time>2013-05-12T12:33:33Z</time>
      </trkpt>
      <trkpt lat="40.391967" lon="-5.366483">
        <ele>2177.0</ele>
        <time>2013-05-12T12:33:34Z</time>
      </trkpt>
      <trkpt lat="40.391833" lon="-5.366483">
        <ele>2181.0</ele>
        <time>2013-05-12T12:33:35Z</time>
      </trkpt>
      <trkpt lat="40.391717" lon="-5.366517">
        <ele>2184.0</ele>
        <time>2013-05-12T12:33:36Z</time>
      </trkpt>
      <trkpt lat="40.391600" lon="-5.366567">
        <ele>2185.0</ele>
        <time>2013-05-12T12:33:37Z</time>
      </trkpt>
      <trkpt lat="40.391483" lon="-5.366650">
        <ele>2186.0</ele>
        <time>2013-05-12T12:33:38Z</time>
      </trkpt>
      <trkpt lat="40.391383" lon="-5.366750">
        <ele>2187.0</ele>
        <time>2013-05-12T12:33:39Z</time>
      </trkpt>
      <trkpt lat="40.391317" lon="-5.366867">
        <ele>2188.0</ele>
        <time>2013-05-12T12:33:40Z</time>
      </trkpt>
      <trkpt lat="40.391283" lon="-5.366967">
        <ele>2190.0</ele>
        <time>2013-05-12T12:33:41Z</time>
      </trkpt>
      <trkpt lat="40.391267" lon="-5.367067">
        <ele>2192.0</ele>
        <time>2013-05-12T12:33:42Z</time>
      </trkpt>
      <trkpt lat="40.391250" lon="-5.367150">
        <ele>2194.0</ele>
        <time>2013-05-12T12:33:43Z</time>
      </trkpt>
      <trkpt lat="40.391233" lon="-5.367217">
        <ele>2195.0</ele>
        <time>2013-05-12T12:33:44Z</time>
      </trkpt>
      <trkpt lat="40.391233" lon="-5.367283">
        <ele>2197.0</ele>
        <time>2013-05-12T12:33:45Z</time>
      </trkpt>
      <trkpt lat="40.391250" lon="-5.367333">
        <ele>2197.0</ele>
        <time>2013-05-12T12:33:46Z</time>
      </trkpt>
      <trkpt lat="40.391267" lon="-5.367367">
        <ele>2198.0</ele>
        <time>2013-05-12T12:33:47Z</time>
      </trkpt>
      <trkpt lat="40.391317" lon="-5.367367">
        <ele>2198.0</ele>
        <time>2013-05-12T12:33:48Z</time>
      </trkpt>
      <trkpt lat="40.391350" lon="-5.367317">
        <ele>2198.0</ele>
        <time>2013-05-12T12:33:49Z</time>
      </trkpt>
      <trkpt lat="40.391400" lon="-5.367250">
        <ele>2200.0</ele>
        <time>2013-05-12T12:33:50Z</time>
      </trkpt>
      <trkpt lat="40.391417" lon="-5.367183">
        <ele>2203.0</ele>
        <time>2013-05-12T12:33:51Z</time>
      </trkpt>
      <trkpt lat="40.391417" lon="-5.367100">
        <ele>2205.0</ele>
        <time>2013-05-12T12:33:52Z</time>
      </trkpt>
      <trkpt lat="40.391400" lon="-5.367000">
        <ele>2206.0</ele>
        <time>2013-05-12T12:33:53Z</time>
      </trkpt>
      <trkpt lat="40.391367" lon="-5.366900">
        <ele>2206.0</ele>
        <time>2013-05-12T12:33:54Z</time>
      </trkpt>
      <trkpt lat="40.391317" lon="-5.366750">
        <ele>2205.0</ele>
        <time>2013-05-12T12:33:55Z</time>
      </trkpt>
      <trkpt lat="40.391250" lon="-5.366600">
        <ele>2207.0</ele>
        <time>2013-05-12T12:33:56Z</time>
      </trkpt>
      <trkpt lat="40.391167" lon="-5.366483">
        <ele>2212.0</ele>
        <time>2013-05-12T12:33:57Z</time>
      </trkpt>
      <trkpt lat="40.391083" lon="-5.366400">
        <ele>2216.0</ele>
        <time>2013-05-12T12:33:58Z</time>
      </trkpt>
      <trkpt lat="40.390983" lon="-5.366333">
        <ele>2218.0</ele>
        <time>2013-05-12T12:33:59Z</time>
      </trkpt>
      <trkpt lat="40.390883" lon="-5.366267">
        <ele>2219.0</ele>
        <time>2013-05-12T12:34:00Z</time>
      </trkpt>
      <trkpt lat="40.390783" lon="-5.366183">
        <ele>2219.0</ele>
        <time>2013-05-12T12:34:01Z</time>
      </trkpt>
      <trkpt lat="40.390683" lon="-5.366100">
        <ele>2218.0</ele>
        <time>2013-05-12T12:34:02Z</time>
      </trkpt>
      <trkpt lat="40.390550" lon="-5.366033">
        <ele>2219.0</ele>
        <time>2013-05-12T12:34:03Z</time>
      </trkpt>
      <trkpt lat="40.390433" lon="-5.365967">
        <ele>2220.0</ele>
        <time>2013-05-12T12:34:04Z</time>
      </trkpt>
      <trkpt lat="40.390317" lon="-5.365933">
        <ele>2222.0</ele>
        <time>2013-05-12T12:34:05Z</time>
      </trkpt>
      <trkpt lat="40.390183" lon="-5.365933">
        <ele>2222.0</ele>
        <time>2013-05-12T12:34:06Z</time>
      </trkpt>
      <trkpt lat="40.390050" lon="-5.365950">
        <ele>2223.0</ele>
        <time>2013-05-12T12:34:07Z</time>
      </trkpt>
      <trkpt lat="40.389917" lon="-5.366000">
        <ele>2223.0</ele>
        <time>2013-05-12T12:34:08Z</time>
      </trkpt>
      <trkpt lat="40.389800" lon="-5.366067">
        <ele>2224.0</ele>
        <time>2013-05-12T12:34:09Z</time>
      </trkpt>
      <trkpt lat="40.389700" lon="-5.366133">
        <ele>2225.0</ele>
        <time>2013-05-12T12:34:10Z</time>
      </trkpt>
      <trkpt lat="40.389600" lon="-5.366217">
        <ele>2227.0</ele>
        <time>2013-05-12T12:34:11Z</time>
      </trkpt>
      <trkpt lat="40.389500" lon="-5.366300">
        <ele>2228.0</ele>
        <time>2013-05-12T12:34:12Z</time>
      </trkpt>
      <trkpt lat="40.389417" lon="-5.366400">
        <ele>2229.0</ele>
        <time>2013-05-12T12:34:13Z</time>
      </trkpt>
      <trkpt lat="40.389350" lon="-5.366500">
        <ele>2230.0</ele>
        <time>2013-05-12T12:34:14Z</time>
      </trkpt>
      <trkpt lat="40.389300" lon="-5.366583">
        <ele>2231.0</ele>
        <time>2013-05-12T12:34:15Z</time>
      </trkpt>
      <trkpt lat="40.389267" lon="-5.366683">
        <ele>2232.0</ele>
        <time>2013-05-12T12:34:16Z</time>
      </trkpt>
      <trkpt lat="40.389250" lon="-5.366767">
        <ele>2232.0</ele>
        <time>2013-05-12T12:34:17Z</time>
      </trkpt>
      <trkpt lat="40.389250" lon="-5.366833">
        <ele>2232.0</ele>
        <time>2013-05-12T12:34:18Z</time>
      </trkpt>
      <trkpt lat="40.389267" lon="-5.366900">
        <ele>2232.0</ele>
        <time>2013-05-12T12:34:19Z</time>
      </trkpt>
      <trkpt lat="40.389300" lon="-5.366933">
        <ele>2231.0</ele>
        <time>2013-05-12T12:34:20Z</time>
      </trkpt>
      <trkpt lat="40.389333" lon="-5.366967">
        <ele>2231.0</ele>
        <time>2013-05-12T12:34:21Z</time>
      </trkpt>
      <trkpt lat="40.389383" lon="-5.366983">
        <ele>2231.0</ele>
        <time>2013-05-12T12:34:22Z</time>
      </trkpt>
      <trkpt lat="40.389433" lon="-5.366967">
        <ele>2230.0</ele>
        <time>2013-05-12T12:34:23Z</time>
      </trkpt>
      <trkpt lat="40.389483" lon="-5.366917">
        <ele>2230.0</ele>
        <time>2013-05-12T12:34:24Z</time>
      </trkpt>
      <trkpt lat="40.389533" lon="-5.366867">
        <ele>2230.0</ele>
        <time>2013-05-12T12:34:25Z</time>
      </trkpt>
      <trkpt lat="40.389583" lon="-5.366800">
        <ele>2230.0</ele>
        <time>2013-05-12T12:34:26Z</time>
      </trkpt>
      <trkpt lat="40.389617" lon="-5.366717">
        <ele>2230.0</ele>
        <time>2013-05-12T12:34:27Z</time>
      </trkpt>
      <trkpt lat="40.389633" lon="-5.366600">
        <ele>2231.0</ele>
        <time>2013-05-12T12:34:28Z</time>
      </trkpt>
      <trkpt lat="40.389650" lon="-5.366467">
        <ele>2231.0</ele>
        <time>2013-05-12T12:34:29Z</time>
      </trkpt>
      <trkpt lat="40.389667" lon="-5.366333">
        <ele>2233.0</ele>
        <time>2013-05-12T12:34:30Z</time>
      </trkpt>
      <trkpt lat="40.389667" lon="-5.366200">
        <ele>2235.0</ele>
        <time>2013-05-12T12:34:31Z</time>
      </trkpt>
      <trkpt lat="40.389650" lon="-5.366100">
        <ele>2237.0</ele>
        <time>2013-05-12T12:34:32Z</time>
      </trkpt>
      <trkpt lat="40.389633" lon="-5.366000">
        <ele>2237.0</ele>
        <time>2013-05-12T12:34:33Z</time>
      </trkpt>
      <trkpt lat="40.389617" lon="-5.365867">
        <ele>2236.0</ele>
        <time>2013-05-12T12:34:34Z</time>
      </trkpt>
      <trkpt lat="40.389617" lon="-5.365717">
        <ele>2236.0</ele>
        <time>2013-05-12T12:34:35Z</time>
      </trkpt>
      <trkpt lat="40.389583" lon="-5.365550">
        <ele>2235.0</ele>
        <time>2013-05-12T12:34:36Z</time>
      </trkpt>
      <trkpt lat="40.389533" lon="-5.365383">
        <ele>2235.0</ele>
        <time>2013-05-12T12:34:37Z</time>
      </trkpt>
      <trkpt lat="40.389450" lon="-5.365233">
        <ele>2237.0</ele>
        <time>2013-05-12T12:34:38Z</time>
      </trkpt>
      <trkpt lat="40.389367" lon="-5.365100">
        <ele>2239.0</ele>
        <time>2013-05-12T12:34:39Z</time>
      </trkpt>
      <trkpt lat="40.389283" lon="-5.365000">
        <ele>2241.0</ele>
        <time>2013-05-12T12:34:40Z</time>
      </trkpt>
      <trkpt lat="40.389183" lon="-5.364917">
        <ele>2243.0</ele>
        <time>2013-05-12T12:34:41Z</time>
      </trkpt>
      <trkpt lat="40.389083" lon="-5.364833">
        <ele>2244.0</ele>
        <time>2013-05-12T12:34:42Z</time>
      </trkpt>
      <trkpt lat="40.388967" lon="-5.364767">
        <ele>2244.0</ele>
        <time>2013-05-12T12:34:43Z</time>
      </trkpt>
      <trkpt lat="40.388850" lon="-5.364733">
        <ele>2244.0</ele>
        <time>2013-05-12T12:34:44Z</time>
      </trkpt>
      <trkpt lat="40.388717" lon="-5.364717">
        <ele>2244.0</ele>
        <time>2013-05-12T12:34:45Z</time>
      </trkpt>
      <trkpt lat="40.388583" lon="-5.364717">
        <ele>2245.0</ele>
        <time>2013-05-12T12:34:46Z</time>
      </trkpt>
      <trkpt lat="40.388467" lon="-5.364733">
        <ele>2246.0</ele>
        <time>2013-05-12T12:34:47Z</time>
      </trkpt>
      <trkpt lat="40.388367" lon="-5.364767">
        <ele>2249.0</ele>
        <time>2013-05-12T12:34:48Z</time>
      </trkpt>
      <trkpt lat="40.388267" lon="-5.364800">
        <ele>2251.0</ele>
        <time>2013-05-12T12:34:49Z</time>
      </trkpt>
      <trkpt lat="40.388167" lon="-5.364850">
        <ele>2253.0</ele>
        <time>2013-05-12T12:34:50Z</time>
      </trkpt>
      <trkpt lat="40.388067" lon="-5.364900">
        <ele>2255.0</ele>
        <time>2013-05-12T12:34:51Z</time>
      </trkpt>
      <trkpt lat="40.387983" lon="-5.364967">
        <ele>2257.0</ele>
        <time>2013-05-12T12:34:52Z</time>
      </trkpt>
      <trkpt lat="40.387900" lon="-5.365033">
        <ele>2259.0</ele>
        <time>2013-05-12T12:34:53Z</time>
      </trkpt>
      <trkpt lat="40.387833" lon="-5.365100">
        <ele>2262.0</ele>
        <time>2013-05-12T12:34:54Z</time>
      </trkpt>
      <trkpt lat="40.387767" lon="-5.365167">
        <ele>2263.0</ele>
        <time>2013-05-12T12:34:55Z</time>
      </trkpt>
      <trkpt lat="40.387717" lon="-5.365250">
        <ele>2265.0</ele>
        <time>2013-05-12T12:34:56Z</time>
      </trkpt>
      <trkpt lat="40.387683" lon="-5.365333">
        <ele>2266.0</ele>
        <time>2013-05-12T12:34:57Z</time>
      </trkpt>
      <trkpt lat="40.387683" lon="-5.365400">
        <ele>2267.0</ele>
        <time>2013-05-12T12:34:58Z</time>
      </trkpt>
      <trkpt lat="40.387683" lon="-5.365467">
        <ele>2268.0</ele>
        <time>2013-05-12T12:34:59Z</time>
      </trkpt>
      <trkpt lat="40.387700" lon="-5.365517">
        <ele>2270.0</ele>
        <time>2013-05-12T12:35:00Z</time>
      </trkpt>
      <trkpt lat="40.387717" lon="-5.365550">
        <ele>2271.0</ele>
        <time>2013-05-12T12:35:01Z</time>
      </trkpt>
      <trkpt lat="40.387733" lon="-5.365583">
        <ele>2271.0</ele>
        <time>2013-05-12T12:35:02Z</time>
      </trkpt>
      <trkpt lat="40.387767" lon="-5.365600">
        <ele>2271.0</ele>
        <time>2013-05-12T12:35:03Z</time>
      </trkpt>
      <trkpt lat="40.387817" lon="-5.365617">
        <ele>2271.0</ele>
        <time>2013-05-12T12:35:04Z</time>
      </trkpt>
      <trkpt lat="40.387867" lon="-5.365600">
        <ele>2271.0</ele>
        <time>2013-05-12T12:35:05Z</time>
      </trkpt>
      <trkpt lat="40.387917" lon="-5.365583">
        <ele>2272.0</ele>
        <time>2013-05-12T12:35:06Z</time>
      </trkpt>
      <trkpt lat="40.387967" lon="-5.365533">
        <ele>2273.0</ele>
        <time>2013-05-12T12:35:07Z</time>
      </trkpt>
      <trkpt lat="40.388000" lon="-5.365483">
        <ele>2275.0</ele>
        <time>2013-05-12T12:35:08Z</time>
      </trkpt>
      <trkpt lat="40.388033" lon="-5.365400">
        <ele>2277.0</ele>
        <time>2013-05-12T12:35:09Z</time>
      </trkpt>
      <trkpt lat="40.388067" lon="-5.365300">
        <ele>2278.0</ele>
        <time>2013-05-12T12:35:10Z</time>
      </trkpt>
      <trkpt lat="40.388067" lon="-5.365167">
        <ele>2278.0</ele>
        <time>2013-05-12T12:35:11Z</time>
      </trkpt>
      <trkpt lat="40.388050" lon="-5.365033">
        <ele>2279.0</ele>
        <time>2013-05-12T12:35:12Z</time>
      </trkpt>
      <trkpt lat="40.388033" lon="-5.364883">
        <ele>2282.0</ele>
        <time>2013-05-12T12:35:13Z</time>
      </trkpt>
      <trkpt lat="40.387983" lon="-5.364733">
        <ele>2284.0</ele>
        <time>2013-05-12T12:35:14Z</time>
      </trkpt>
      <trkpt lat="40.387950" lon="-5.364617">
        <ele>2286.0</ele>
        <time>2013-05-12T12:35:15Z</time>
      </trkpt>
      <trkpt lat="40.387883" lon="-5.364517">
        <ele>2288.0</ele>
        <time>2013-05-12T12:35:16Z</time>
      </trkpt>
      <trkpt lat="40.387817" lon="-5.364400">
        <ele>2288.0</ele>
        <time>2013-05-12T12:35:17Z</time>
      </trkpt>
      <trkpt lat="40.387733" lon="-5.364300">
        <ele>2288.0</ele>
        <time>2013-05-12T12:35:18Z</time>
      </trkpt>
      <trkpt lat="40.387617" lon="-5.364200">
        <ele>2288.0</ele>
        <time>2013-05-12T12:35:19Z</time>
      </trkpt>
      <trkpt lat="40.387500" lon="-5.364117">
        <ele>2288.0</ele>
        <time>2013-05-12T12:35:20Z</time>
      </trkpt>
      <trkpt lat="40.387367" lon="-5.364050">
        <ele>2290.0</ele>
        <time>2013-05-12T12:35:21Z</time>
      </trkpt>
      <trkpt lat="40.387233" lon="-5.364017">
        <ele>2293.0</ele>
        <time>2013-05-12T12:35:22Z</time>
      </trkpt>
      <trkpt lat="40.387133" lon="-5.364017">
        <ele>2295.0</ele>
        <time>2013-05-12T12:35:23Z</time>
      </trkpt>
      <trkpt lat="40.387017" lon="-5.364033">
        <ele>2296.0</ele>
        <time>2013-05-12T12:35:24Z</time>
      </trkpt>
      <trkpt lat="40.386917" lon="-5.364067">
        <ele>2297.0</ele>
        <time>2013-05-12T12:35:25Z</time>
      </trkpt>
      <trkpt lat="40.386833" lon="-5.364117">
        <ele>2298.0</ele>
        <time>2013-05-12T12:35:26Z</time>
      </trkpt>
      <trkpt lat="40.386750" lon="-5.364167">
        <ele>2299.0</ele>
        <time>2013-05-12T12:35:27Z</time>
      </trkpt>
      <trkpt lat="40.386683" lon="-5.364233">
        <ele>2301.0</ele>
        <time>2013-05-12T12:35:28Z</time>
      </trkpt>
      <trkpt lat="40.386650" lon="-5.364317">
        <ele>2302.0</ele>
        <time>2013-05-12T12:35:29Z</time>
      </trkpt>
      <trkpt lat="40.386617" lon="-5.364383">
        <ele>2303.0</ele>
        <time>2013-05-12T12:35:30Z</time>
      </trkpt>
      <trkpt lat="40.386633" lon="-5.364450">
        <ele>2304.0</ele>
        <time>2013-05-12T12:35:31Z</time>
      </trkpt>
      <trkpt lat="40.386650" lon="-5.364500">
        <ele>2305.0</ele>
        <time>2013-05-12T12:35:32Z</time>
      </trkpt>
      <trkpt lat="40.386683" lon="-5.364517">
        <ele>2306.0</ele>
        <time>2013-05-12T12:35:33Z</time>
      </trkpt>
      <trkpt lat="40.386717" lon="-5.364533">
        <ele>2307.0</ele>
        <time>2013-05-12T12:35:34Z</time>
      </trkpt>
      <trkpt lat="40.386750" lon="-5.364517">
        <ele>2307.0</ele>
        <time>2013-05-12T12:35:35Z</time>
      </trkpt>
      <trkpt lat="40.386800" lon="-5.364500">
        <ele>2308.0</ele>
        <time>2013-05-12T12:35:36Z</time>
      </trkpt>
      <trkpt lat="40.386850" lon="-5.364483">
        <ele>2309.0</ele>
        <time>2013-05-12T12:35:37Z</time>
      </trkpt>
      <trkpt lat="40.386883" lon="-5.364433">
        <ele>2310.0</ele>
        <time>2013-05-12T12:35:38Z</time>
      </trkpt>
      <trkpt lat="40.386917" lon="-5.364350">
        <ele>2310.0</ele>
        <time>2013-05-12T12:35:39Z</time>
      </trkpt>
      <trkpt lat="40.386933" lon="-5.364250">
        <ele>2310.0</ele>
        <time>2013-05-12T12:35:40Z</time>
      </trkpt>
      <trkpt lat="40.386950" lon="-5.364133">
        <ele>2310.0</ele>
        <time>2013-05-12T12:35:41Z</time>
      </trkpt>
      <trkpt lat="40.386950" lon="-5.364017">
        <ele>2311.0</ele>
        <time>2013-05-12T12:35:42Z</time>
      </trkpt>
      <trkpt lat="40.386950" lon="-5.363900">
        <ele>2313.0</ele>
        <time>2013-05-12T12:35:43Z</time>
      </trkpt>
      <trkpt lat="40.386950" lon="-5.363767">
        <ele>2315.0</ele>
        <time>2013-05-12T12:35:44Z</time>
      </trkpt>
      <trkpt lat="40.386917" lon="-5.363633">
        <ele>2316.0</ele>
        <time>2013-05-12T12:35:45Z</time>
      </trkpt>
      <trkpt lat="40.386850" lon="-5.363483">
        <ele>2317.0</ele>
        <time>2013-05-12T12:35:46Z</time>
      </trkpt>
      <trkpt lat="40.386783" lon="-5.363350">
        <ele>2317.0</ele>
        <time>2013-05-12T12:35:47Z</time>
      </trkpt>
      <trkpt lat="40.386683" lon="-5.363217">
        <ele>2318.0</ele>
        <time>2013-05-12T12:35:48Z</time>
      </trkpt>
      <trkpt lat="40.386567" lon="-5.363117">
        <ele>2320.0</ele>
        <time>2013-05-12T12:35:49Z</time>
      </trkpt>
      <trkpt lat="40.386467" lon="-5.363050">
        <ele>2321.0</ele>
        <time>2013-05-12T12:35:50Z</time>
      </trkpt>
      <trkpt lat="40.386350" lon="-5.362983">
        <ele>2322.0</ele>
        <time>2013-05-12T12:35:51Z</time>
      </trkpt>
      <trkpt lat="40.386233" lon="-5.362950">
        <ele>2323.0</ele>
        <time>2013-05-12T12:35:52Z</time>
      </trkpt>
      <trkpt lat="40.386117" lon="-5.362933">
        <ele>2324.0</ele>
        <time>2013-05-12T12:35:53Z</time>
      </trkpt>
      <trkpt lat="40.386000" lon="-5.362933">
        <ele>2326.0</ele>
        <time>2013-05-12T12:35:54Z</time>
      </trkpt>
      <trkpt lat="40.385900" lon="-5.362950">
        <ele>2330.0</ele>
        <time>2013-05-12T12:35:55Z</time>
      </trkpt>
      <trkpt lat="40.385800" lon="-5.362967">
        <ele>2334.0</ele>
        <time>2013-05-12T12:35:56Z</time>
      </trkpt>
      <trkpt lat="40.385717" lon="-5.362983">
        <ele>2337.0</ele>
        <time>2013-05-12T12:35:57Z</time>
      </trkpt>
      <trkpt lat="40.385650" lon="-5.363017">
        <ele>2339.0</ele>
        <time>2013-05-12T12:35:58Z</time>
      </trkpt>
      <trkpt lat="40.385583" lon="-5.363067">
        <ele>2340.0</ele>
        <time>2013-05-12T12:35:59Z</time>
      </trkpt>
      <trkpt lat="40.385517" lon="-5.363133">
        <ele>2340.0</ele>
        <time>2013-05-12T12:36:00Z</time>
      </trkpt>
      <trkpt lat="40.385467" lon="-5.363217">
        <ele>2341.0</ele>
        <time>2013-05-12T12:36:01Z</time>
      </trkpt>
      <trkpt lat="40.385433" lon="-5.363283">
        <ele>2342.0</ele>
        <time>2013-05-12T12:36:02Z</time>
      </trkpt>
      <trkpt lat="40.385417" lon="-5.363367">
        <ele>2343.0</ele>
        <time>2013-05-12T12:36:03Z</time>
      </trkpt>
      <trkpt lat="40.385433" lon="-5.363417">
        <ele>2344.0</ele>
        <time>2013-05-12T12:36:04Z</time>
      </trkpt>
      <trkpt lat="40.385450" lon="-5.363450">
        <ele>2345.0</ele>
        <time>2013-05-12T12:36:05Z</time>
      </trkpt>
      <trkpt lat="40.385467" lon="-5.363483">
        <ele>2345.0</ele>
        <time>2013-05-12T12:36:06Z</time>
      </trkpt>
      <trkpt lat="40.385500" lon="-5.363517">
        <ele>2346.0</ele>
        <time>2013-05-12T12:36:07Z</time>
      </trkpt>
      <trkpt lat="40.385550" lon="-5.363550">
        <ele>2345.0</ele>
        <time>2013-05-12T12:36:08Z</time>
      </trkpt>
      <trkpt lat="40.385600" lon="-5.363567">
        <ele>2346.0</ele>
        <time>2013-05-12T12:36:09Z</time>
      </trkpt>
      <trkpt lat="40.385650" lon="-5.363550">
        <ele>2347.0</ele>
        <time>2013-05-12T12:36:10Z</time>
      </trkpt>
      <trkpt lat="40.385683" lon="-5.363533">
        <ele>2348.0</ele>
        <time>2013-05-12T12:36:11Z</time>
      </trkpt>
      <trkpt lat="40.385733" lon="-5.363483">
        <ele>2348.0</ele>
        <time>2013-05-12T12:36:12Z</time>
      </trkpt>
      <trkpt lat="40.385783" lon="-5.363433">
        <ele>2349.0</ele>
        <time>2013-05-12T12:36:13Z</time>
      </trkpt>
      <trkpt lat="40.385833" lon="-5.363367">
        <ele>2350.0</ele>
        <time>2013-05-12T12:36:14Z</time>
      </trkpt>
      <trkpt lat="40.385883" lon="-5.363283">
        <ele>2351.0</ele>
        <time>2013-05-12T12:36:15Z</time>
      </trkpt>
      <trkpt lat="40.385933" lon="-5.363200">
        <ele>2352.0</ele>
        <time>2013-05-12T12:36:16Z</time>
      </trkpt>
      <trkpt lat="40.385983" lon="-5.363083">
        <ele>2355.0</ele>
        <time>2013-05-12T12:36:17Z</time>
      </trkpt>
      <trkpt lat="40.386017" lon="-5.362967">
        <ele>2359.0</ele>
        <time>2013-05-12T12:36:18Z</time>
      </trkpt>
      <trkpt lat="40.386033" lon="-5.362850">
        <ele>2361.0</ele>
        <time>2013-05-12T12:36:19Z</time>
      </trkpt>
      <trkpt lat="40.386033" lon="-5.362733">
        <ele>2362.0</ele>
        <time>2013-05-12T12:36:20Z</time>
      </trkpt>
      <trkpt lat="40.386033" lon="-5.362617">
        <ele>2362.0</ele>
        <time>2013-05-12T12:36:21Z</time>
      </trkpt>
      <trkpt lat="40.386017" lon="-5.362467">
        <ele>2362.0</ele>
        <time>2013-05-12T12:36:22Z</time>
      </trkpt>
      <trkpt lat="40.386017" lon="-5.362300">
        <ele>2362.0</ele>
        <time>2013-05-12T12:36:23Z</time>
      </trkpt>
      <trkpt lat="40.386000" lon="-5.362150">
        <ele>2364.0</ele>
        <time>2013-05-12T12:36:24Z</time>
      </trkpt>
      <trkpt lat="40.385967" lon="-5.362017">
        <ele>2366.0</ele>
        <time>2013-05-12T12:36:25Z</time>
      </trkpt>
      <trkpt lat="40.385900" lon="-5.361900">
        <ele>2368.0</ele>
        <time>2013-05-12T12:36:26Z</time>
      </trkpt>
      <trkpt lat="40.385833" lon="-5.361800">
        <ele>2368.0</ele>
        <time>2013-05-12T12:36:27Z</time>
      </trkpt>
      <trkpt lat="40.385750" lon="-5.361700">
        <ele>2368.0</ele>
        <time>2013-05-12T12:36:28Z</time>
      </trkpt>
      <trkpt lat="40.385667" lon="-5.361583">
        <ele>2368.0</ele>
        <time>2013-05-12T12:36:29Z</time>
      </trkpt>
      <trkpt lat="40.385567" lon="-5.361467">
        <ele>2367.0</ele>
        <time>2013-05-12T12:36:30Z</time>
      </trkpt>
      <trkpt lat="40.385467" lon="-5.361367">
        <ele>2366.0</ele>
        <time>2013-05-12T12:36:31Z</time>
      </trkpt>
      <trkpt lat="40.385333" lon="-5.361300">
        <ele>2365.0</ele>
        <time>2013-05-12T12:36:32Z</time>
      </trkpt>
      <trkpt lat="40.385200" lon="-5.361283">
        <ele>2363.0</ele>
        <time>2013-05-12T12:36:33Z</time>
      </trkpt>
      <trkpt lat="40.385083" lon="-5.361300">
        <ele>2362.0</ele>
        <time>2013-05-12T12:36:34Z</time>
      </trkpt>
      <trkpt lat="40.384983" lon="-5.361350">
        <ele>2362.0</ele>
        <time>2013-05-12T12:36:35Z</time>
      </trkpt>
      <trkpt lat="40.384900" lon="-5.361417">
        <ele>2363.0</ele>
        <time>2013-05-12T12:36:36Z</time>
      </trkpt>
      <trkpt lat="40.384817" lon="-5.361467">
        <ele>2364.0</ele>
        <time>2013-05-12T12:36:37Z</time>
      </trkpt>
      <trkpt lat="40.384767" lon="-5.361517">
        <ele>2364.0</ele>
        <time>2013-05-12T12:36:38Z</time>
      </trkpt>
      <trkpt lat="40.384717" lon="-5.361583">
        <ele>2365.0</ele>
        <time>2013-05-12T12:36:39Z</time>
      </trkpt>
      <trkpt lat="40.384667" lon="-5.361667">
        <ele>2365.0</ele>
        <time>2013-05-12T12:36:40Z</time>
      </trkpt>
      <trkpt lat="40.384633" lon="-5.361750">
        <ele>2366.0</ele>
        <time>2013-05-12T12:36:41Z</time>
      </trkpt>
      <trkpt lat="40.384617" lon="-5.361833">
        <ele>2368.0</ele>
        <time>2013-05-12T12:36:42Z</time>
      </trkpt>
      <trkpt lat="40.384617" lon="-5.361900">
        <ele>2370.0</ele>
        <time>2013-05-12T12:36:43Z</time>
      </trkpt>
      <trkpt lat="40.384617" lon="-5.361950">
        <ele>2371.0</ele>
        <time>2013-05-12T12:36:44Z</time>
      </trkpt>
      <trkpt lat="40.384633" lon="-5.362000">
        <ele>2373.0</ele>
        <time>2013-05-12T12:36:45Z</time>
      </trkpt>
      <trkpt lat="40.384633" lon="-5.362050">
        <ele>2374.0</ele>
        <time>2013-05-12T12:36:46Z</time>
      </trkpt>
      <trkpt lat="40.384650" lon="-5.362083">
        <ele>2374.0</ele>
        <time>2013-05-12T12:36:47Z</time>
      </trkpt>
      <trkpt lat="40.384683" lon="-5.362133">
        <ele>2374.0</ele>
        <time>2013-05-12T12:36:48Z</time>
      </trkpt>
      <trkpt lat="40.384733" lon="-5.362150">
        <ele>2374.0</ele>
        <time>2013-05-12T12:36:49Z</time>
      </trkpt>
      <trkpt lat="40.384783" lon="-5.362167">
        <ele>2374.0</ele>
        <time>2013-05-12T12:36:50Z</time>
      </trkpt>
      <trkpt lat="40.384833" lon="-5.362200">
        <ele>2376.0</ele>
        <time>2013-05-12T12:36:51Z</time>
      </trkpt>
      <trkpt lat="40.384883" lon="-5.362217">
        <ele>2378.0</ele>
        <time>2013-05-12T12:36:52Z</time>
      </trkpt>
      <trkpt lat="40.384933" lon="-5.362217">
        <ele>2381.0</ele>
        <time>2013-05-12T12:36:53Z</time>
      </trkpt>
      <trkpt lat="40.384950" lon="-5.362200">
        <ele>2382.0</ele>
        <time>2013-05-12T12:36:54Z</time>
      </trkpt>
      <trkpt lat="40.384983" lon="-5.362167">
        <ele>2382.0</ele>
        <time>2013-05-12T12:36:55Z</time>
      </trkpt>
      <trkpt lat="40.385017" lon="-5.362150">
        <ele>2381.0</ele>
        <time>2013-05-12T12:36:56Z</time>
      </trkpt>
      <trkpt lat="40.385083" lon="-5.362100">
        <ele>2380.0</ele>
        <time>2013-05-12T12:36:57Z</time>
      </trkpt>
      <trkpt lat="40.385150" lon="-5.362067">
        <ele>2381.0</ele>
        <time>2013-05-12T12:36:58Z</time>
      </trkpt>
      <trkpt lat="40.385200" lon="-5.362017">
        <ele>2382.0</ele>
        <time>2013-05-12T12:36:59Z</time>
      </trkpt>
      <trkpt lat="40.385250" lon="-5.361950">
        <ele>2383.0</ele>
        <time>2013-05-12T12:37:00Z</time>
      </trkpt>
      <trkpt lat="40.385283" lon="-5.361850">
        <ele>2384.0</ele>
        <time>2013-05-12T12:37:01Z</time>
      </trkpt>
      <trkpt lat="40.385317" lon="-5.361750">
        <ele>2383.0</ele>
        <time>2013-05-12T12:37:02Z</time>
      </trkpt>
      <trkpt lat="40.385333" lon="-5.361650">
        <ele>2382.0</ele>
        <time>2013-05-12T12:37:03Z</time>
      </trkpt>
      <trkpt lat="40.385383" lon="-5.361517">
        <ele>2381.0</ele>
        <time>2013-05-12T12:37:04Z</time>
      </trkpt>
      <trkpt lat="40.385400" lon="-5.361367">
        <ele>2381.0</ele>
        <time>2013-05-12T12:37:05Z</time>
      </trkpt>
      <trkpt lat="40.385383" lon="-5.361217">
        <ele>2383.0</ele>
        <time>2013-05-12T12:37:06Z</time>
      </trkpt>
      <trkpt lat="40.385350" lon="-5.361067">
        <ele>2384.0</ele>
        <time>2013-05-12T12:37:07Z</time>
      </trkpt>
      <trkpt lat="40.385317" lon="-5.360933">
        <ele>2385.0</ele>
        <time>2013-05-12T12:37:08Z</time>
      </trkpt>
      <trkpt lat="40.385267" lon="-5.360800">
        <ele>2386.0</ele>
        <time>2013-05-12T12:37:09Z</time>
      </trkpt>
      <trkpt lat="40.385217" lon="-5.360683">
        <ele>2386.0</ele>
        <time>2013-05-12T12:37:10Z</time>
      </trkpt>
      <trkpt lat="40.385133" lon="-5.360550">
        <ele>2385.0</ele>
        <time>2013-05-12T12:37:11Z</time>
      </trkpt>
      <trkpt lat="40.385033" lon="-5.360450">
        <ele>2384.0</ele>
        <time>2013-05-12T12:37:12Z</time>
      </trkpt>
      <trkpt lat="40.384917" lon="-5.360350">
        <ele>2384.0</ele>
        <time>2013-05-12T12:37:13Z</time>
      </trkpt>
      <trkpt lat="40.384800" lon="-5.360317">
        <ele>2384.0</ele>
        <time>2013-05-12T12:37:14Z</time>
      </trkpt>
      <trkpt lat="40.384667" lon="-5.360300">
        <ele>2384.0</ele>
        <time>2013-05-12T12:37:15Z</time>
      </trkpt>
      <trkpt lat="40.384567" lon="-5.360333">
        <ele>2385.0</ele>
        <time>2013-05-12T12:37:16Z</time>
      </trkpt>
      <trkpt lat="40.384450" lon="-5.360367">
        <ele>2386.0</ele>
        <time>2013-05-12T12:37:17Z</time>
      </trkpt>
      <trkpt lat="40.384350" lon="-5.360417">
        <ele>2389.0</ele>
        <time>2013-05-12T12:37:18Z</time>
      </trkpt>
      <trkpt lat="40.384267" lon="-5.360450">
        <ele>2392.0</ele>
        <time>2013-05-12T12:37:19Z</time>
      </trkpt>
      <trkpt lat="40.384200" lon="-5.360517">
        <ele>2394.0</ele>
        <time>2013-05-12T12:37:20Z</time>
      </trkpt>
      <trkpt lat="40.384133" lon="-5.360567">
        <ele>2394.0</ele>
        <time>2013-05-12T12:37:21Z</time>
      </trkpt>
      <trkpt lat="40.384083" lon="-5.360633">
        <ele>2395.0</ele>
        <time>2013-05-12T12:37:22Z</time>
      </trkpt>
      <trkpt lat="40.384033" lon="-5.360700">
        <ele>2395.0</ele>
        <time>2013-05-12T12:37:23Z</time>
      </trkpt>
      <trkpt lat="40.384000" lon="-5.360767">
        <ele>2394.0</ele>
        <time>2013-05-12T12:37:24Z</time>
      </trkpt>
      <trkpt lat="40.383967" lon="-5.360833">
        <ele>2394.0</ele>
        <time>2013-05-12T12:37:25Z</time>
      </trkpt>
      <trkpt lat="40.383950" lon="-5.360917">
        <ele>2394.0</ele>
        <time>2013-05-12T12:37:26Z</time>
      </trkpt>
      <trkpt lat="40.383933" lon="-5.361000">
        <ele>2395.0</ele>
        <time>2013-05-12T12:37:27Z</time>
      </trkpt>
      <trkpt lat="40.383933" lon="-5.361100">
        <ele>2396.0</ele>
        <time>2013-05-12T12:37:28Z</time>
      </trkpt>
      <trkpt lat="40.383933" lon="-5.361183">
        <ele>2397.0</ele>
        <time>2013-05-12T12:37:29Z</time>
      </trkpt>
      <trkpt lat="40.383933" lon="-5.361283">
        <ele>2400.0</ele>
        <time>2013-05-12T12:37:30Z</time>
      </trkpt>
      <trkpt lat="40.383917" lon="-5.361350">
        <ele>2403.0</ele>
        <time>2013-05-12T12:37:31Z</time>
      </trkpt>
      <trkpt lat="40.383900" lon="-5.361417">
        <ele>2405.0</ele>
        <time>2013-05-12T12:37:32Z</time>
      </trkpt>
      <trkpt lat="40.383883" lon="-5.361483">
        <ele>2406.0</ele>
        <time>2013-05-12T12:37:33Z</time>
      </trkpt>
      <trkpt lat="40.383883" lon="-5.361550">
        <ele>2406.0</ele>
        <time>2013-05-12T12:37:34Z</time>
      </trkpt>
      <trkpt lat="40.383883" lon="-5.361600">
        <ele>2406.0</ele>
        <time>2013-05-12T12:37:35Z</time>
      </trkpt>
      <trkpt lat="40.383900" lon="-5.361650">
        <ele>2405.0</ele>
        <time>2013-05-12T12:37:36Z</time>
      </trkpt>
      <trkpt lat="40.383950" lon="-5.361683">
        <ele>2404.0</ele>
        <time>2013-05-12T12:37:37Z</time>
      </trkpt>
      <trkpt lat="40.384000" lon="-5.361683">
        <ele>2403.0</ele>
        <time>2013-05-12T12:37:38Z</time>
      </trkpt>
      <trkpt lat="40.384050" lon="-5.361667">
        <ele>2403.0</ele>
        <time>2013-05-12T12:37:39Z</time>
      </trkpt>
      <trkpt lat="40.384100" lon="-5.361633">
        <ele>2403.0</ele>
        <time>2013-05-12T12:37:40Z</time>
      </trkpt>
      <trkpt lat="40.384133" lon="-5.361600">
        <ele>2403.0</ele>
        <time>2013-05-12T12:37:41Z</time>
      </trkpt>
      <trkpt lat="40.384167" lon="-5.361550">
        <ele>2403.0</ele>
        <time>2013-05-12T12:37:42Z</time>
      </trkpt>
      <trkpt lat="40.384200" lon="-5.361483">
        <ele>2401.0</ele>
        <time>2013-05-12T12:37:43Z</time>
      </trkpt>
      <trkpt lat="40.384233" lon="-5.361400">
        <ele>2399.0</ele>
        <time>2013-05-12T12:37:44Z</time>
      </trkpt>
      <trkpt lat="40.384267" lon="-5.361283">
        <ele>2398.0</ele>
        <time>2013-05-12T12:37:45Z</time>
      </trkpt>
      <trkpt lat="40.384267" lon="-5.361150">
        <ele>2397.0</ele>
        <time>2013-05-12T12:37:46Z</time>
      </trkpt>
      <trkpt lat="40.384267" lon="-5.361017">
        <ele>2397.0</ele>
        <time>2013-05-12T12:37:47Z</time>
      </trkpt>
      <trkpt lat="40.384233" lon="-5.360883">
        <ele>2396.0</ele>
        <time>2013-05-12T12:37:48Z</time>
      </trkpt>
      <trkpt lat="40.384200" lon="-5.360750">
        <ele>2395.0</ele>
        <time>2013-05-12T12:37:49Z</time>
      </trkpt>
      <trkpt lat="40.384133" lon="-5.360600">
        <ele>2393.0</ele>
        <time>2013-05-12T12:37:50Z</time>
      </trkpt>
      <trkpt lat="40.384050" lon="-5.360467">
        <ele>2391.0</ele>
        <time>2013-05-12T12:37:51Z</time>
      </trkpt>
      <trkpt lat="40.383917" lon="-5.360350">
        <ele>2390.0</ele>
        <time>2013-05-12T12:37:52Z</time>
      </trkpt>
      <trkpt lat="40.383800" lon="-5.360267">
        <ele>2389.0</ele>
        <time>2013-05-12T12:37:53Z</time>
      </trkpt>
      <trkpt lat="40.383667" lon="-5.360233">
        <ele>2390.0</ele>
        <time>2013-05-12T12:37:54Z</time>
      </trkpt>
      <trkpt lat="40.383533" lon="-5.360217">
        <ele>2390.0</ele>
        <time>2013-05-12T12:37:55Z</time>
      </trkpt>
      <trkpt lat="40.383417" lon="-5.360233">
        <ele>2390.0</ele>
        <time>2013-05-12T12:37:56Z</time>
      </trkpt>
      <trkpt lat="40.383317" lon="-5.360250">
        <ele>2390.0</ele>
        <time>2013-05-12T12:37:57Z</time>
      </trkpt>
      <trkpt lat="40.383233" lon="-5.360300">
        <ele>2389.0</ele>
        <time>2013-05-12T12:37:58Z</time>
      </trkpt>
      <trkpt lat="40.383133" lon="-5.360350">
        <ele>2389.0</ele>
        <time>2013-05-12T12:37:59Z</time>
      </trkpt>
      <trkpt lat="40.383050" lon="-5.360417">
        <ele>2388.0</ele>
        <time>2013-05-12T12:38:00Z</time>
      </trkpt>
      <trkpt lat="40.382967" lon="-5.360483">
        <ele>2387.0</ele>
        <time>2013-05-12T12:38:01Z</time>
      </trkpt>
      <trkpt lat="40.382900" lon="-5.360550">
        <ele>2388.0</ele>
        <time>2013-05-12T12:38:02Z</time>
      </trkpt>
      <trkpt lat="40.382817" lon="-5.360633">
        <ele>2388.0</ele>
        <time>2013-05-12T12:38:03Z</time>
      </trkpt>
      <trkpt lat="40.382767" lon="-5.360700">
        <ele>2388.0</ele>
        <time>2013-05-12T12:38:04Z</time>
      </trkpt>
      <trkpt lat="40.382717" lon="-5.360767">
        <ele>2387.0</ele>
        <time>2013-05-12T12:38:05Z</time>
      </trkpt>
      <trkpt lat="40.382683" lon="-5.360833">
        <ele>2386.0</ele>
        <time>2013-05-12T12:38:06Z</time>
      </trkpt>
      <trkpt lat="40.382650" lon="-5.360917">
        <ele>2385.0</ele>
        <time>2013-05-12T12:38:07Z</time>
      </trkpt>
      <trkpt lat="40.382617" lon="-5.361000">
        <ele>2384.0</ele>
        <time>2013-05-12T12:38:08Z</time>
      </trkpt>
      <trkpt lat="40.382583" lon="-5.361067">
        <ele>2384.0</ele>
        <time>2013-05-12T12:38:09Z</time>
      </trkpt>
      <trkpt lat="40.382550" lon="-5.361133">
        <ele>2383.0</ele>
        <time>2013-05-12T12:38:10Z</time>
      </trkpt>
      <trkpt lat="40.382517" lon="-5.361217">
        <ele>2383.0</ele>
        <time>2013-05-12T12:38:11Z</time>
      </trkpt>
      <trkpt lat="40.382500" lon="-5.361283">
        <ele>2383.0</ele>
        <time>2013-05-12T12:38:12Z</time>
      </trkpt>
      <trkpt lat="40.382483" lon="-5.361367">
        <ele>2382.0</ele>
        <time>2013-05-12T12:38:13Z</time>
      </trkpt>
      <trkpt lat="40.382467" lon="-5.361450">
        <ele>2382.0</ele>
        <time>2013-05-12T12:38:14Z</time>
      </trkpt>
      <trkpt lat="40.382433" lon="-5.361517">
        <ele>2382.0</ele>
        <time>2013-05-12T12:38:15Z</time>
      </trkpt>
      <trkpt lat="40.382417" lon="-5.361600">
        <ele>2382.0</ele>
        <time>2013-05-12T12:38:16Z</time>
      </trkpt>
      <trkpt lat="40.382383" lon="-5.361667">
        <ele>2381.0</ele>
        <time>2013-05-12T12:38:17Z</time>
      </trkpt>
      <trkpt lat="40.382350" lon="-5.361750">
        <ele>2380.0</ele>
        <time>2013-05-12T12:38:18Z</time>
      </trkpt>
      <trkpt lat="40.382317" lon="-5.361833">
        <ele>2379.0</ele>
        <time>2013-05-12T12:38:19Z</time>
      </trkpt>
      <trkpt lat="40.382283" lon="-5.361917">
        <ele>2378.0</ele>
        <time>2013-05-12T12:38:20Z</time>
      </trkpt>
      <trkpt lat="40.382250" lon="-5.362017">
        <ele>2376.0</ele>
        <time>2013-05-12T12:38:21Z</time>
      </trkpt>
      <trkpt lat="40.382217" lon="-5.362117">
        <ele>2376.0</ele>
        <time>2013-05-12T12:38:22Z</time>
      </trkpt>
      <trkpt lat="40.382183" lon="-5.362233">
        <ele>2375.0</ele>
        <time>2013-05-12T12:38:23Z</time>
      </trkpt>
      <trkpt lat="40.382167" lon="-5.362333">
        <ele>2375.0</ele>
        <time>2013-05-12T12:38:24Z</time>
      </trkpt>
      <trkpt lat="40.382133" lon="-5.362433">
        <ele>2375.0</ele>
        <time>2013-05-12T12:38:25Z</time>
      </trkpt>
      <trkpt lat="40.382100" lon="-5.362533">
        <ele>2375.0</ele>
        <time>2013-05-12T12:38:26Z</time>
      </trkpt>
      <trkpt lat="40.382050" lon="-5.362650">
        <ele>2375.0</ele>
        <time>2013-05-12T12:38:27Z</time>
      </trkpt>
      <trkpt lat="40.382017" lon="-5.362750">
        <ele>2375.0</ele>
        <time>2013-05-12T12:38:28Z</time>
      </trkpt>
      <trkpt lat="40.381983" lon="-5.362867">
        <ele>2375.0</ele>
        <time>2013-05-12T12:38:29Z</time>
      </trkpt>
      <trkpt lat="40.381950" lon="-5.362983">
        <ele>2376.0</ele>
        <time>2013-05-12T12:38:30Z</time>
      </trkpt>
      <trkpt lat="40.381900" lon="-5.363083">
        <ele>2377.0</ele>
        <time>2013-05-12T12:38:31Z</time>
      </trkpt>
      <trkpt lat="40.381867" lon="-5.363167">
        <ele>2377.0</ele>
        <time>2013-05-12T12:38:32Z</time>
      </trkpt>
      <trkpt lat="40.381817" lon="-5.363267">
        <ele>2376.0</ele>
        <time>2013-05-12T12:38:33Z</time>
      </trkpt>
      <trkpt lat="40.381783" lon="-5.363350">
        <ele>2375.0</ele>
        <time>2013-05-12T12:38:34Z</time>
      </trkpt>
      <trkpt lat="40.381733" lon="-5.363467">
        <ele>2373.0</ele>
        <time>2013-05-12T12:38:35Z</time>
      </trkpt>
      <trkpt lat="40.381700" lon="-5.363567">
        <ele>2373.0</ele>
        <time>2013-05-12T12:38:36Z</time>
      </trkpt>
      <trkpt lat="40.381667" lon="-5.363667">
        <ele>2372.0</ele>
        <time>2013-05-12T12:38:37Z</time>
      </trkpt>
      <trkpt lat="40.381633" lon="-5.363767">
        <ele>2372.0</ele>
        <time>2013-05-12T12:38:38Z</time>
      </trkpt>
      <trkpt lat="40.381600" lon="-5.363867">
        <ele>2372.0</ele>
        <time>2013-05-12T12:38:39Z</time>
      </trkpt>
      <trkpt lat="40.381567" lon="-5.363950">
        <ele>2372.0</ele>
        <time>2013-05-12T12:38:40Z</time>
      </trkpt>
      <trkpt lat="40.381533" lon="-5.364050">
        <ele>2371.0</ele>
        <time>2013-05-12T12:38:41Z</time>
      </trkpt>
      <trkpt lat="40.381500" lon="-5.364150">
        <ele>2369.0</ele>
        <time>2013-05-12T12:38:42Z</time>
      </trkpt>
      <trkpt lat="40.381483" lon="-5.364250">
        <ele>2368.0</ele>
        <time>2013-05-12T12:38:43Z</time>
      </trkpt>
      <trkpt lat="40.381467" lon="-5.364350">
        <ele>2366.0</ele>
        <time>2013-05-12T12:38:44Z</time>
      </trkpt>
      <trkpt lat="40.381433" lon="-5.364450">
        <ele>2366.0</ele>
        <time>2013-05-12T12:38:45Z</time>
      </trkpt>
      <trkpt lat="40.381417" lon="-5.364550">
        <ele>2365.0</ele>
        <time>2013-05-12T12:38:46Z</time>
      </trkpt>
      <trkpt lat="40.381400" lon="-5.364633">
        <ele>2364.0</ele>
        <time>2013-05-12T12:38:47Z</time>
      </trkpt>
      <trkpt lat="40.381367" lon="-5.364717">
        <ele>2362.0</ele>
        <time>2013-05-12T12:38:48Z</time>
      </trkpt>
      <trkpt lat="40.381350" lon="-5.364800">
        <ele>2358.0</ele>
        <time>2013-05-12T12:38:49Z</time>
      </trkpt>
      <trkpt lat="40.381333" lon="-5.364900">
        <ele>2355.0</ele>
        <time>2013-05-12T12:38:50Z</time>
      </trkpt>
      <trkpt lat="40.381300" lon="-5.365033">
        <ele>2351.0</ele>
        <time>2013-05-12T12:38:51Z</time>
      </trkpt>
      <trkpt lat="40.381267" lon="-5.365150">
        <ele>2349.0</ele>
        <time>2013-05-12T12:38:52Z</time>
      </trkpt>
      <trkpt lat="40.381233" lon="-5.365250">
        <ele>2348.0</ele>
        <time>2013-05-12T12:38:53Z</time>
      </trkpt>
      <trkpt lat="40.381217" lon="-5.365333">
        <ele>2347.0</ele>
        <time>2013-05-12T12:38:54Z</time>
      </trkpt>
      <trkpt lat="40.381183" lon="-5.365400">
        <ele>2347.0</ele>
        <time>2013-05-12T12:38:55Z</time>
      </trkpt>
      <trkpt lat="40.381150" lon="-5.365450">
        <ele>2345.0</ele>
        <time>2013-05-12T12:38:56Z</time>
      </trkpt>
      <trkpt lat="40.381117" lon="-5.365517">
        <ele>2343.0</ele>
        <time>2013-05-12T12:38:57Z</time>
      </trkpt>
      <trkpt lat="40.381067" lon="-5.365583">
        <ele>2341.0</ele>
        <time>2013-05-12T12:38:58Z</time>
      </trkpt>
      <trkpt lat="40.381033" lon="-5.365683">
        <ele>2338.0</ele>
        <time>2013-05-12T12:38:59Z</time>
      </trkpt>
      <trkpt lat="40.381000" lon="-5.365767">
        <ele>2337.0</ele>
        <time>2013-05-12T12:39:00Z</time>
      </trkpt>
      <trkpt lat="40.380967" lon="-5.365850">
        <ele>2338.0</ele>
        <time>2013-05-12T12:39:01Z</time>
      </trkpt>
      <trkpt lat="40.380933" lon="-5.365917">
        <ele>2338.0</ele>
        <time>2013-05-12T12:39:02Z</time>
      </trkpt>
      <trkpt lat="40.380900" lon="-5.365983">
        <ele>2338.0</ele>
        <time>2013-05-12T12:39:03Z</time>
      </trkpt>
      <trkpt lat="40.380867" lon="-5.366067">
        <ele>2337.0</ele>
        <time>2013-05-12T12:39:04Z</time>
      </trkpt>
      <trkpt lat="40.380833" lon="-5.366150">
        <ele>2335.0</ele>
        <time>2013-05-12T12:39:05Z</time>
      </trkpt>
      <trkpt lat="40.380817" lon="-5.366233">
        <ele>2333.0</ele>
        <time>2013-05-12T12:39:06Z</time>
      </trkpt>
      <trkpt lat="40.380783" lon="-5.366333">
        <ele>2333.0</ele>
        <time>2013-05-12T12:39:07Z</time>
      </trkpt>
      <trkpt lat="40.380767" lon="-5.366433">
        <ele>2334.0</ele>
        <time>2013-05-12T12:39:08Z</time>
      </trkpt>
      <trkpt lat="40.380733" lon="-5.366517">
        <ele>2335.0</ele>
        <time>2013-05-12T12:39:09Z</time>
      </trkpt>
      <trkpt lat="40.380700" lon="-5.366583">
        <ele>2335.0</ele>
        <time>2013-05-12T12:39:10Z</time>
      </trkpt>
      <trkpt lat="40.380667" lon="-5.366650">
        <ele>2334.0</ele>
        <time>2013-05-12T12:39:11Z</time>
      </trkpt>
      <trkpt lat="40.380650" lon="-5.366733">
        <ele>2332.0</ele>
        <time>2013-05-12T12:39:12Z</time>
      </trkpt>
      <trkpt lat="40.380617" lon="-5.366833">
        <ele>2331.0</ele>
        <time>2013-05-12T12:39:13Z</time>
      </trkpt>
      <trkpt lat="40.380600" lon="-5.366933">
        <ele>2331.0</ele>
        <time>2013-05-12T12:39:14Z</time>
      </trkpt>
      <trkpt lat="40.380567" lon="-5.367033">
        <ele>2332.0</ele>
        <time>2013-05-12T12:39:15Z</time>
      </trkpt>
      <trkpt lat="40.380550" lon="-5.367117">
        <ele>2334.0</ele>
        <time>2013-05-12T12:39:16Z</time>
      </trkpt>
      <trkpt lat="40.380517" lon="-5.367183">
        <ele>2335.0</ele>
        <time>2013-05-12T12:39:17Z</time>
      </trkpt>
      <trkpt lat="40.380483" lon="-5.367267">
        <ele>2335.0</ele>
        <time>2013-05-12T12:39:18Z</time>
      </trkpt>
      <trkpt lat="40.380433" lon="-5.367350">
        <ele>2335.0</ele>
        <time>2013-05-12T12:39:19Z</time>
      </trkpt>
      <trkpt lat="40.380383" lon="-5.367450">
        <ele>2335.0</ele>
        <time>2013-05-12T12:39:20Z</time>
      </trkpt>
      <trkpt lat="40.380333" lon="-5.367567">
        <ele>2336.0</ele>
        <time>2013-05-12T12:39:21Z</time>
      </trkpt>
      <trkpt lat="40.380283" lon="-5.367650">
        <ele>2338.0</ele>
        <time>2013-05-12T12:39:22Z</time>
      </trkpt>
      <trkpt lat="40.380233" lon="-5.367750">
        <ele>2339.0</ele>
        <time>2013-05-12T12:39:23Z</time>
      </trkpt>
      <trkpt lat="40.380183" lon="-5.367850">
        <ele>2340.0</ele>
        <time>2013-05-12T12:39:24Z</time>
      </trkpt>
      <trkpt lat="40.380133" lon="-5.367967">
        <ele>2340.0</ele>
        <time>2013-05-12T12:39:25Z</time>
      </trkpt>
      <trkpt lat="40.380083" lon="-5.368083">
        <ele>2340.0</ele>
        <time>2013-05-12T12:39:26Z</time>
      </trkpt>
      <trkpt lat="40.380050" lon="-5.368200">
        <ele>2341.0</ele>
        <time>2013-05-12T12:39:27Z</time>
      </trkpt>
      <trkpt lat="40.380017" lon="-5.368300">
        <ele>2342.0</ele>
        <time>2013-05-12T12:39:28Z</time>
      </trkpt>
      <trkpt lat="40.379983" lon="-5.368417">
        <ele>2343.0</ele>
        <time>2013-05-12T12:39:29Z</time>
      </trkpt>
      <trkpt lat="40.379950" lon="-5.368517">
        <ele>2343.0</ele>
        <time>2013-05-12T12:39:30Z</time>
      </trkpt>
      <trkpt lat="40.379917" lon="-5.368617">
        <ele>2344.0</ele>
        <time>2013-05-12T12:39:31Z</time>
      </trkpt>
      <trkpt lat="40.379883" lon="-5.368717">
        <ele>2344.0</ele>
        <time>2013-05-12T12:39:32Z</time>
      </trkpt>
      <trkpt lat="40.379833" lon="-5.368817">
        <ele>2345.0</ele>
        <time>2013-05-12T12:39:33Z</time>
      </trkpt>
      <trkpt lat="40.379800" lon="-5.368900">
        <ele>2346.0</ele>
        <time>2013-05-12T12:39:34Z</time>
      </trkpt>
      <trkpt lat="40.379767" lon="-5.368983">
        <ele>2347.0</ele>
        <time>2013-05-12T12:39:35Z</time>
      </trkpt>
      <trkpt lat="40.379717" lon="-5.369083">
        <ele>2347.0</ele>
        <time>2013-05-12T12:39:36Z</time>
      </trkpt>
      <trkpt lat="40.379667" lon="-5.369167">
        <ele>2347.0</ele>
        <time>2013-05-12T12:39:37Z</time>
      </trkpt>
      <trkpt lat="40.379617" lon="-5.369267">
        <ele>2349.0</ele>
        <time>2013-05-12T12:39:38Z</time>
      </trkpt>
      <trkpt lat="40.379550" lon="-5.369350">
        <ele>2350.0</ele>
        <time>2013-05-12T12:39:39Z</time>
      </trkpt>
      <trkpt lat="40.379500" lon="-5.369433">
        <ele>2351.0</ele>
        <time>2013-05-12T12:39:40Z</time>
      </trkpt>
      <trkpt lat="40.379450" lon="-5.369517">
        <ele>2352.0</ele>
        <time>2013-05-12T12:39:41Z</time>
      </trkpt>
      <trkpt lat="40.379383" lon="-5.369617">
        <ele>2353.0</ele>
        <time>2013-05-12T12:39:42Z</time>
      </trkpt>
      <trkpt lat="40.379317" lon="-5.369717">
        <ele>2354.0</ele>
        <time>2013-05-12T12:39:43Z</time>
      </trkpt>
      <trkpt lat="40.379267" lon="-5.369800">
        <ele>2355.0</ele>
        <time>2013-05-12T12:39:44Z</time>
      </trkpt>
      <trkpt lat="40.379200" lon="-5.369883">
        <ele>2355.0</ele>
        <time>2013-05-12T12:39:45Z</time>
      </trkpt>
      <trkpt lat="40.379150" lon="-5.369967">
        <ele>2355.0</ele>
        <time>2013-05-12T12:39:46Z</time>
      </trkpt>
      <trkpt lat="40.379083" lon="-5.370067">
        <ele>2354.0</ele>
        <time>2013-05-12T12:39:47Z</time>
      </trkpt>
      <trkpt lat="40.379033" lon="-5.370167">
        <ele>2353.0</ele>
        <time>2013-05-12T12:39:48Z</time>
      </trkpt>
      <trkpt lat="40.378983" lon="-5.370267">
        <ele>2354.0</ele>
        <time>2013-05-12T12:39:49Z</time>
      </trkpt>
      <trkpt lat="40.378933" lon="-5.370367">
        <ele>2354.0</ele>
        <time>2013-05-12T12:39:50Z</time>
      </trkpt>
      <trkpt lat="40.378883" lon="-5.370467">
        <ele>2356.0</ele>
        <time>2013-05-12T12:39:51Z</time>
      </trkpt>
      <trkpt lat="40.378817" lon="-5.370550">
        <ele>2358.0</ele>
        <time>2013-05-12T12:39:52Z</time>
      </trkpt>
      <trkpt lat="40.378767" lon="-5.370633">
        <ele>2359.0</ele>
        <time>2013-05-12T12:39:53Z</time>
      </trkpt>
      <trkpt lat="40.378717" lon="-5.370717">
        <ele>2359.0</ele>
        <time>2013-05-12T12:39:54Z</time>
      </trkpt>
      <trkpt lat="40.378683" lon="-5.370800">
        <ele>2359.0</ele>
        <time>2013-05-12T12:39:55Z</time>
      </trkpt>
      <trkpt lat="40.378667" lon="-5.370900">
        <ele>2357.0</ele>
        <time>2013-05-12T12:39:56Z</time>
      </trkpt>
      <trkpt lat="40.378667" lon="-5.370983">
        <ele>2356.0</ele>
        <time>2013-05-12T12:39:57Z</time>
      </trkpt>
      <trkpt lat="40.378650" lon="-5.371067">
        <ele>2356.0</ele>
        <time>2013-05-12T12:39:58Z</time>
      </trkpt>
      <trkpt lat="40.378600" lon="-5.371150">
        <ele>2355.0</ele>
        <time>2013-05-12T12:39:59Z</time>
      </trkpt>
      <trkpt lat="40.378550" lon="-5.371250">
        <ele>2353.0</ele>
        <time>2013-05-12T12:40:00Z</time>
      </trkpt>
      <trkpt lat="40.378500" lon="-5.371333">
        <ele>2352.0</ele>
        <time>2013-05-12T12:40:01Z</time>
      </trkpt>
      <trkpt lat="40.378433" lon="-5.371433">
        <ele>2351.0</ele>
        <time>2013-05-12T12:40:02Z</time>
      </trkpt>
      <trkpt lat="40.378367" lon="-5.371533">
        <ele>2349.0</ele>
        <time>2013-05-12T12:40:03Z</time>
      </trkpt>
      <trkpt lat="40.378300" lon="-5.371633">
        <ele>2347.0</ele>
        <time>2013-05-12T12:40:04Z</time>
      </trkpt>
      <trkpt lat="40.378250" lon="-5.371750">
        <ele>2345.0</ele>
        <time>2013-05-12T12:40:05Z</time>
      </trkpt>
      <trkpt lat="40.378183" lon="-5.371850">
        <ele>2343.0</ele>
        <time>2013-05-12T12:40:06Z</time>
      </trkpt>
      <trkpt lat="40.378133" lon="-5.371950">
        <ele>2340.0</ele>
        <time>2013-05-12T12:40:07Z</time>
      </trkpt>
      <trkpt lat="40.378067" lon="-5.372067">
        <ele>2338.0</ele>
        <time>2013-05-12T12:40:08Z</time>
      </trkpt>
      <trkpt lat="40.378017" lon="-5.372200">
        <ele>2335.0</ele>
        <time>2013-05-12T12:40:09Z</time>
      </trkpt>
      <trkpt lat="40.377950" lon="-5.372333">
        <ele>2334.0</ele>
        <time>2013-05-12T12:40:10Z</time>
      </trkpt>
      <trkpt lat="40.377883" lon="-5.372483">
        <ele>2333.0</ele>
        <time>2013-05-12T12:40:11Z</time>
      </trkpt>
      <trkpt lat="40.377800" lon="-5.372600">
        <ele>2334.0</ele>
        <time>2013-05-12T12:40:12Z</time>
      </trkpt>
      <trkpt lat="40.377750" lon="-5.372717">
        <ele>2335.0</ele>
        <time>2013-05-12T12:40:13Z</time>
      </trkpt>
      <trkpt lat="40.377700" lon="-5.372833">
        <ele>2336.0</ele>
        <time>2013-05-12T12:40:14Z</time>
      </trkpt>
      <trkpt lat="40.377667" lon="-5.372933">
        <ele>2336.0</ele>
        <time>2013-05-12T12:40:15Z</time>
      </trkpt>
      <trkpt lat="40.377633" lon="-5.373050">
        <ele>2335.0</ele>
        <time>2013-05-12T12:40:16Z</time>
      </trkpt>
      <trkpt lat="40.377583" lon="-5.373167">
        <ele>2334.0</ele>
        <time>2013-05-12T12:40:17Z</time>
      </trkpt>
      <trkpt lat="40.377533" lon="-5.373283">
        <ele>2333.0</ele>
        <time>2013-05-12T12:40:18Z</time>
      </trkpt>
      <trkpt lat="40.377483" lon="-5.373400">
        <ele>2332.0</ele>
        <time>2013-05-12T12:40:19Z</time>
      </trkpt>
      <trkpt lat="40.377417" lon="-5.373517">
        <ele>2331.0</ele>
        <time>2013-05-12T12:40:20Z</time>
      </trkpt>
      <trkpt lat="40.377367" lon="-5.373617">
        <ele>2329.0</ele>
        <time>2013-05-12T12:40:21Z</time>
      </trkpt>
      <trkpt lat="40.377333" lon="-5.373717">
        <ele>2327.0</ele>
        <time>2013-05-12T12:40:22Z</time>
      </trkpt>
      <trkpt lat="40.377283" lon="-5.373817">
        <ele>2325.0</ele>
        <time>2013-05-12T12:40:23Z</time>
      </trkpt>
      <trkpt lat="40.377250" lon="-5.373900">
        <ele>2322.0</ele>
        <time>2013-05-12T12:40:24Z</time>
      </trkpt>
      <trkpt lat="40.377217" lon="-5.374000">
        <ele>2321.0</ele>
        <time>2013-05-12T12:40:25Z</time>
      </trkpt>
      <trkpt lat="40.377183" lon="-5.374100">
        <ele>2319.0</ele>
        <time>2013-05-12T12:40:26Z</time>
      </trkpt>
      <trkpt lat="40.377167" lon="-5.374200">
        <ele>2319.0</ele>
        <time>2013-05-12T12:40:27Z</time>
      </trkpt>
      <trkpt lat="40.377133" lon="-5.374317">
        <ele>2319.0</ele>
        <time>2013-05-12T12:40:28Z</time>
      </trkpt>
      <trkpt lat="40.377117" lon="-5.374417">
        <ele>2321.0</ele>
        <time>2013-05-12T12:40:29Z</time>
      </trkpt>
      <trkpt lat="40.377083" lon="-5.374500">
        <ele>2323.0</ele>
        <time>2013-05-12T12:40:30Z</time>
      </trkpt>
      <trkpt lat="40.377050" lon="-5.374583">
        <ele>2323.0</ele>
        <time>2013-05-12T12:40:31Z</time>
      </trkpt>
      <trkpt lat="40.377017" lon="-5.374667">
        <ele>2323.0</ele>
        <time>2013-05-12T12:40:32Z</time>
      </trkpt>
      <trkpt lat="40.376983" lon="-5.374750">
        <ele>2323.0</ele>
        <time>2013-05-12T12:40:33Z</time>
      </trkpt>
      <trkpt lat="40.376967" lon="-5.374833">
        <ele>2323.0</ele>
        <time>2013-05-12T12:40:34Z</time>
      </trkpt>
      <trkpt lat="40.376967" lon="-5.374900">
        <ele>2324.0</ele>
        <time>2013-05-12T12:40:35Z</time>
      </trkpt>
      <trkpt lat="40.376967" lon="-5.374967">
        <ele>2324.0</ele>
        <time>2013-05-12T12:40:36Z</time>
      </trkpt>
      <trkpt lat="40.376967" lon="-5.375033">
        <ele>2325.0</ele>
        <time>2013-05-12T12:40:37Z</time>
      </trkpt>
      <trkpt lat="40.376950" lon="-5.375117">
        <ele>2325.0</ele>
        <time>2013-05-12T12:40:38Z</time>
      </trkpt>
      <trkpt lat="40.376933" lon="-5.375200">
        <ele>2325.0</ele>
        <time>2013-05-12T12:40:39Z</time>
      </trkpt>
      <trkpt lat="40.376933" lon="-5.375283">
        <ele>2326.0</ele>
        <time>2013-05-12T12:40:40Z</time>
      </trkpt>
      <trkpt lat="40.376917" lon="-5.375367">
        <ele>2327.0</ele>
        <time>2013-05-12T12:40:41Z</time>
      </trkpt>
      <trkpt lat="40.376917" lon="-5.375450">
        <ele>2328.0</ele>
        <time>2013-05-12T12:40:42Z</time>
      </trkpt>
      <trkpt lat="40.376900" lon="-5.375533">
        <ele>2328.0</ele>
        <time>2013-05-12T12:40:43Z</time>
      </trkpt>
      <trkpt lat="40.376883" lon="-5.375617">
        <ele>2329.0</ele>
        <time>2013-05-12T12:40:44Z</time>
      </trkpt>
      <trkpt lat="40.376850" lon="-5.375700">
        <ele>2330.0</ele>
        <time>2013-05-12T12:40:45Z</time>
      </trkpt>
      <trkpt lat="40.376833" lon="-5.375767">
        <ele>2331.0</ele>
        <time>2013-05-12T12:40:46Z</time>
      </trkpt>
      <trkpt lat="40.376833" lon="-5.375833">
        <ele>2331.0</ele>
        <time>2013-05-12T12:40:47Z</time>
      </trkpt>
      <trkpt lat="40.376867" lon="-5.375883">
        <ele>2330.0</ele>
        <time>2013-05-12T12:40:48Z</time>
      </trkpt>
      <trkpt lat="40.376883" lon="-5.375917">
        <ele>2330.0</ele>
        <time>2013-05-12T12:40:49Z</time>
      </trkpt>
      <trkpt lat="40.376917" lon="-5.375950">
        <ele>2331.0</ele>
        <time>2013-05-12T12:40:50Z</time>
      </trkpt>
      <trkpt lat="40.376950" lon="-5.375967">
        <ele>2333.0</ele>
        <time>2013-05-12T12:40:51Z</time>
      </trkpt>
      <trkpt lat="40.376983" lon="-5.375983">
        <ele>2334.0</ele>
        <time>2013-05-12T12:40:52Z</time>
      </trkpt>
      <trkpt lat="40.377017" lon="-5.375983">
        <ele>2334.0</ele>
        <time>2013-05-12T12:40:53Z</time>
      </trkpt>
      <trkpt lat="40.377067" lon="-5.375967">
        <ele>2335.0</ele>
        <time>2013-05-12T12:40:54Z</time>
      </trkpt>
      <trkpt lat="40.377100" lon="-5.375950">
        <ele>2335.0</ele>
        <time>2013-05-12T12:40:55Z</time>
      </trkpt>
      <trkpt lat="40.377150" lon="-5.375900">
        <ele>2336.0</ele>
        <time>2013-05-12T12:40:56Z</time>
      </trkpt>
      <trkpt lat="40.377167" lon="-5.375833">
        <ele>2336.0</ele>
        <time>2013-05-12T12:40:57Z</time>
      </trkpt>
      <trkpt lat="40.377200" lon="-5.375750">
        <ele>2337.0</ele>
        <time>2013-05-12T12:40:58Z</time>
      </trkpt>
      <trkpt lat="40.377200" lon="-5.375650">
        <ele>2337.0</ele>
        <time>2013-05-12T12:40:59Z</time>
      </trkpt>
      <trkpt lat="40.377217" lon="-5.375550">
        <ele>2337.0</ele>
        <time>2013-05-12T12:41:00Z</time>
      </trkpt>
      <trkpt lat="40.377200" lon="-5.375417">
        <ele>2336.0</ele>
        <time>2013-05-12T12:41:01Z</time>
      </trkpt>
      <trkpt lat="40.377150" lon="-5.375283">
        <ele>2335.0</ele>
        <time>2013-05-12T12:41:02Z</time>
      </trkpt>
      <trkpt lat="40.377083" lon="-5.375117">
        <ele>2334.0</ele>
        <time>2013-05-12T12:41:03Z</time>
      </trkpt>
      <trkpt lat="40.377000" lon="-5.374967">
        <ele>2334.0</ele>
        <time>2013-05-12T12:41:04Z</time>
      </trkpt>
      <trkpt lat="40.376900" lon="-5.374850">
        <ele>2334.0</ele>
        <time>2013-05-12T12:41:05Z</time>
      </trkpt>
      <trkpt lat="40.376783" lon="-5.374733">
        <ele>2335.0</ele>
        <time>2013-05-12T12:41:06Z</time>
      </trkpt>
      <trkpt lat="40.376667" lon="-5.374667">
        <ele>2336.0</ele>
        <time>2013-05-12T12:41:07Z</time>
      </trkpt>
      <trkpt lat="40.376533" lon="-5.374617">
        <ele>2335.0</ele>
        <time>2013-05-12T12:41:08Z</time>
      </trkpt>
      <trkpt lat="40.376400" lon="-5.374617">
        <ele>2334.0</ele>
        <time>2013-05-12T12:41:09Z</time>
      </trkpt>
      <trkpt lat="40.376250" lon="-5.374633">
        <ele>2334.0</ele>
        <time>2013-05-12T12:41:10Z</time>
      </trkpt>
      <trkpt lat="40.376117" lon="-5.374683">
        <ele>2335.0</ele>
        <time>2013-05-12T12:41:11Z</time>
      </trkpt>
      <trkpt lat="40.376017" lon="-5.374767">
        <ele>2337.0</ele>
        <time>2013-05-12T12:41:12Z</time>
      </trkpt>
      <trkpt lat="40.375950" lon="-5.374833">
        <ele>2337.0</ele>
        <time>2013-05-12T12:41:13Z</time>
      </trkpt>
      <trkpt lat="40.375883" lon="-5.374900">
        <ele>2337.0</ele>
        <time>2013-05-12T12:41:14Z</time>
      </trkpt>
      <trkpt lat="40.375817" lon="-5.374983">
        <ele>2336.0</ele>
        <time>2013-05-12T12:41:15Z</time>
      </trkpt>
      <trkpt lat="40.375750" lon="-5.375083">
        <ele>2334.0</ele>
        <time>2013-05-12T12:41:16Z</time>
      </trkpt>
      <trkpt lat="40.375700" lon="-5.375217">
        <ele>2332.0</ele>
        <time>2013-05-12T12:41:17Z</time>
      </trkpt>
      <trkpt lat="40.375667" lon="-5.375333">
        <ele>2333.0</ele>
        <time>2013-05-12T12:41:18Z</time>
      </trkpt>
      <trkpt lat="40.375617" lon="-5.375433">
        <ele>2335.0</ele>
        <time>2013-05-12T12:41:19Z</time>
      </trkpt>
      <trkpt lat="40.375567" lon="-5.375517">
        <ele>2336.0</ele>
        <time>2013-05-12T12:41:20Z</time>
      </trkpt>
      <trkpt lat="40.375500" lon="-5.375583">
        <ele>2337.0</ele>
        <time>2013-05-12T12:41:21Z</time>
      </trkpt>
      <trkpt lat="40.375450" lon="-5.375667">
        <ele>2336.0</ele>
        <time>2013-05-12T12:41:22Z</time>
      </trkpt>
      <trkpt lat="40.375400" lon="-5.375767">
        <ele>2334.0</ele>
        <time>2013-05-12T12:41:23Z</time>
      </trkpt>
      <trkpt lat="40.375350" lon="-5.375867">
        <ele>2332.0</ele>
        <time>2013-05-12T12:41:24Z</time>
      </trkpt>
      <trkpt lat="40.375317" lon="-5.375967">
        <ele>2331.0</ele>
        <time>2013-05-12T12:41:25Z</time>
      </trkpt>
      <trkpt lat="40.375283" lon="-5.376067">
        <ele>2331.0</ele>
        <time>2013-05-12T12:41:26Z</time>
      </trkpt>
      <trkpt lat="40.375233" lon="-5.376167">
        <ele>2331.0</ele>
        <time>2013-05-12T12:41:27Z</time>
      </trkpt>
      <trkpt lat="40.375200" lon="-5.376250">
        <ele>2330.0</ele>
        <time>2013-05-12T12:41:28Z</time>
      </trkpt>
      <trkpt lat="40.375150" lon="-5.376333">
        <ele>2330.0</ele>
        <time>2013-05-12T12:41:29Z</time>
      </trkpt>
      <trkpt lat="40.375117" lon="-5.376417">
        <ele>2328.0</ele>
        <time>2013-05-12T12:41:30Z</time>
      </trkpt>
      <trkpt lat="40.375083" lon="-5.376500">
        <ele>2326.0</ele>
        <time>2013-05-12T12:41:31Z</time>
      </trkpt>
      <trkpt lat="40.375067" lon="-5.376600">
        <ele>2325.0</ele>
        <time>2013-05-12T12:41:32Z</time>
      </trkpt>
      <trkpt lat="40.375033" lon="-5.376700">
        <ele>2324.0</ele>
        <time>2013-05-12T12:41:33Z</time>
      </trkpt>
      <trkpt lat="40.375000" lon="-5.376800">
        <ele>2323.0</ele>
        <time>2013-05-12T12:41:34Z</time>
      </trkpt>
      <trkpt lat="40.374967" lon="-5.376883">
        <ele>2323.0</ele>
        <time>2013-05-12T12:41:35Z</time>
      </trkpt>
      <trkpt lat="40.374933" lon="-5.376950">
        <ele>2323.0</ele>
        <time>2013-05-12T12:41:36Z</time>
      </trkpt>
      <trkpt lat="40.374917" lon="-5.377033">
        <ele>2322.0</ele>
        <time>2013-05-12T12:41:37Z</time>
      </trkpt>
      <trkpt lat="40.374883" lon="-5.377117">
        <ele>2320.0</ele>
        <time>2013-05-12T12:41:38Z</time>
      </trkpt>
      <trkpt lat="40.374850" lon="-5.377200">
        <ele>2319.0</ele>
        <time>2013-05-12T12:41:39Z</time>
      </trkpt>
      <trkpt lat="40.374833" lon="-5.377283">
        <ele>2318.0</ele>
        <time>2013-05-12T12:41:40Z</time>
      </trkpt>
      <trkpt lat="40.374800" lon="-5.377367">
        <ele>2317.0</ele>
        <time>2013-05-12T12:41:41Z</time>
      </trkpt>
      <trkpt lat="40.374767" lon="-5.377450">
        <ele>2316.0</ele>
        <time>2013-05-12T12:41:42Z</time>
      </trkpt>
      <trkpt lat="40.374733" lon="-5.377517">
        <ele>2315.0</ele>
        <time>2013-05-12T12:41:43Z</time>
      </trkpt>
      <trkpt lat="40.374700" lon="-5.377600">
        <ele>2314.0</ele>
        <time>2013-05-12T12:41:44Z</time>
      </trkpt>
      <trkpt lat="40.374683" lon="-5.377683">
        <ele>2312.0</ele>
        <time>2013-05-12T12:41:45Z</time>
      </trkpt>
      <trkpt lat="40.374650" lon="-5.377783">
        <ele>2310.0</ele>
        <time>2013-05-12T12:41:46Z</time>
      </trkpt>
      <trkpt lat="40.374617" lon="-5.377867">
        <ele>2310.0</ele>
        <time>2013-05-12T12:41:47Z</time>
      </trkpt>
      <trkpt lat="40.374583" lon="-5.377950">
        <ele>2309.0</ele>
        <time>2013-05-12T12:41:48Z</time>
      </trkpt>
      <trkpt lat="40.374567" lon="-5.378017">
        <ele>2307.0</ele>
        <time>2013-05-12T12:41:49Z</time>
      </trkpt>
      <trkpt lat="40.374550" lon="-5.378083">
        <ele>2304.0</ele>
        <time>2013-05-12T12:41:50Z</time>
      </trkpt>
      <trkpt lat="40.374517" lon="-5.378167">
        <ele>2301.0</ele>
        <time>2013-05-12T12:41:51Z</time>
      </trkpt>
      <trkpt lat="40.374500" lon="-5.378267">
        <ele>2299.0</ele>
        <time>2013-05-12T12:41:52Z</time>
      </trkpt>
      <trkpt lat="40.374483" lon="-5.378350">
        <ele>2297.0</ele>
        <time>2013-05-12T12:41:53Z</time>
      </trkpt>
      <trkpt lat="40.374467" lon="-5.378433">
        <ele>2296.0</ele>
        <time>2013-05-12T12:41:54Z</time>
      </trkpt>
      <trkpt lat="40.374450" lon="-5.378500">
        <ele>2295.0</ele>
        <time>2013-05-12T12:41:55Z</time>
      </trkpt>
      <trkpt lat="40.374433" lon="-5.378583">
        <ele>2294.0</ele>
        <time>2013-05-12T12:41:56Z</time>
      </trkpt>
      <trkpt lat="40.374417" lon="-5.378667">
        <ele>2291.0</ele>
        <time>2013-05-12T12:41:57Z</time>
      </trkpt>
      <trkpt lat="40.374417" lon="-5.378750">
        <ele>2288.0</ele>
        <time>2013-05-12T12:41:58Z</time>
      </trkpt>
      <trkpt lat="40.374400" lon="-5.378850">
        <ele>2286.0</ele>
        <time>2013-05-12T12:41:59Z</time>
      </trkpt>
      <trkpt lat="40.374383" lon="-5.378950">
        <ele>2286.0</ele>
        <time>2013-05-12T12:42:00Z</time>
      </trkpt>
      <trkpt lat="40.374367" lon="-5.379033">
        <ele>2286.0</ele>
        <time>2013-05-12T12:42:01Z</time>
      </trkpt>
      <trkpt lat="40.374350" lon="-5.379100">
        <ele>2286.0</ele>
        <time>2013-05-12T12:42:02Z</time>
      </trkpt>
      <trkpt lat="40.374333" lon="-5.379167">
        <ele>2286.0</ele>
        <time>2013-05-12T12:42:03Z</time>
      </trkpt>
      <trkpt lat="40.374317" lon="-5.379217">
        <ele>2285.0</ele>
        <time>2013-05-12T12:42:04Z</time>
      </trkpt>
      <trkpt lat="40.374300" lon="-5.379300">
        <ele>2283.0</ele>
        <time>2013-05-12T12:42:05Z</time>
      </trkpt>
      <trkpt lat="40.374283" lon="-5.379367">
        <ele>2282.0</ele>
        <time>2013-05-12T12:42:06Z</time>
      </trkpt>
      <trkpt lat="40.374267" lon="-5.379450">
        <ele>2281.0</ele>
        <time>2013-05-12T12:42:07Z</time>
      </trkpt>
      <trkpt lat="40.374267" lon="-5.379517">
        <ele>2281.0</ele>
        <time>2013-05-12T12:42:08Z</time>
      </trkpt>
      <trkpt lat="40.374250" lon="-5.379583">
        <ele>2281.0</ele>
        <time>2013-05-12T12:42:09Z</time>
      </trkpt>
      <trkpt lat="40.374233" lon="-5.379650">
        <ele>2280.0</ele>
        <time>2013-05-12T12:42:10Z</time>
      </trkpt>
      <trkpt lat="40.374217" lon="-5.379717">
        <ele>2279.0</ele>
        <time>2013-05-12T12:42:11Z</time>
      </trkpt>
      <trkpt lat="40.374200" lon="-5.379800">
        <ele>2279.0</ele>
        <time>2013-05-12T12:42:12Z</time>
      </trkpt>
      <trkpt lat="40.374167" lon="-5.379867">
        <ele>2278.0</ele>
        <time>2013-05-12T12:42:13Z</time>
      </trkpt>
      <trkpt lat="40.374150" lon="-5.379950">
        <ele>2277.0</ele>
        <time>2013-05-12T12:42:14Z</time>
      </trkpt>
      <trkpt lat="40.374133" lon="-5.380033">
        <ele>2276.0</ele>
        <time>2013-05-12T12:42:15Z</time>
      </trkpt>
      <trkpt lat="40.374117" lon="-5.380100">
        <ele>2275.0</ele>
        <time>2013-05-12T12:42:16Z</time>
      </trkpt>
      <trkpt lat="40.374117" lon="-5.380167">
        <ele>2273.0</ele>
        <time>2013-05-12T12:42:17Z</time>
      </trkpt>
      <trkpt lat="40.374117" lon="-5.380233">
        <ele>2271.0</ele>
        <time>2013-05-12T12:42:18Z</time>
      </trkpt>
      <trkpt lat="40.374117" lon="-5.380300">
        <ele>2268.0</ele>
        <time>2013-05-12T12:42:19Z</time>
      </trkpt>
      <trkpt lat="40.374100" lon="-5.380383">
        <ele>2266.0</ele>
        <time>2013-05-12T12:42:20Z</time>
      </trkpt>
      <trkpt lat="40.374100" lon="-5.380467">
        <ele>2263.0</ele>
        <time>2013-05-12T12:42:21Z</time>
      </trkpt>
      <trkpt lat="40.374100" lon="-5.380567">
        <ele>2262.0</ele>
        <time>2013-05-12T12:42:22Z</time>
      </trkpt>
      <trkpt lat="40.374083" lon="-5.380633">
        <ele>2262.0</ele>
        <time>2013-05-12T12:42:23Z</time>
      </trkpt>
      <trkpt lat="40.374083" lon="-5.380717">
        <ele>2261.0</ele>
        <time>2013-05-12T12:42:24Z</time>
      </trkpt>
      <trkpt lat="40.374067" lon="-5.380783">
        <ele>2259.0</ele>
        <time>2013-05-12T12:42:25Z</time>
      </trkpt>
      <trkpt lat="40.374067" lon="-5.380850">
        <ele>2257.0</ele>
        <time>2013-05-12T12:42:26Z</time>
      </trkpt>
      <trkpt lat="40.374050" lon="-5.380933">
        <ele>2254.0</ele>
        <time>2013-05-12T12:42:27Z</time>
      </trkpt>
      <trkpt lat="40.374050" lon="-5.381033">
        <ele>2251.0</ele>
        <time>2013-05-12T12:42:28Z</time>
      </trkpt>
      <trkpt lat="40.374050" lon="-5.381117">
        <ele>2251.0</ele>
        <time>2013-05-12T12:42:29Z</time>
      </trkpt>
      <trkpt lat="40.374050" lon="-5.381183">
        <ele>2250.0</ele>
        <time>2013-05-12T12:42:30Z</time>
      </trkpt>
      <trkpt lat="40.374050" lon="-5.381233">
        <ele>2248.0</ele>
        <time>2013-05-12T12:42:31Z</time>
      </trkpt>
      <trkpt lat="40.374050" lon="-5.381300">
        <ele>2246.0</ele>
        <time>2013-05-12T12:42:32Z</time>
      </trkpt>
      <trkpt lat="40.374033" lon="-5.381367">
        <ele>2243.0</ele>
        <time>2013-05-12T12:42:33Z</time>
      </trkpt>
      <trkpt lat="40.374033" lon="-5.381433">
        <ele>2241.0</ele>
        <time>2013-05-12T12:42:34Z</time>
      </trkpt>
      <trkpt lat="40.374017" lon="-5.381517">
        <ele>2239.0</ele>
        <time>2013-05-12T12:42:35Z</time>
      </trkpt>
      <trkpt lat="40.374000" lon="-5.381583">
        <ele>2237.0</ele>
        <time>2013-05-12T12:42:36Z</time>
      </trkpt>
      <trkpt lat="40.373983" lon="-5.381667">
        <ele>2235.0</ele>
        <time>2013-05-12T12:42:37Z</time>
      </trkpt>
      <trkpt lat="40.373983" lon="-5.381750">
        <ele>2233.0</ele>
        <time>2013-05-12T12:42:38Z</time>
      </trkpt>
      <trkpt lat="40.374000" lon="-5.381817">
        <ele>2232.0</ele>
        <time>2013-05-12T12:42:39Z</time>
      </trkpt>
      <trkpt lat="40.374000" lon="-5.381883">
        <ele>2232.0</ele>
        <time>2013-05-12T12:42:40Z</time>
      </trkpt>
      <trkpt lat="40.373983" lon="-5.381950">
        <ele>2231.0</ele>
        <time>2013-05-12T12:42:41Z</time>
      </trkpt>
      <trkpt lat="40.373967" lon="-5.382000">
        <ele>2231.0</ele>
        <time>2013-05-12T12:42:42Z</time>
      </trkpt>
      <trkpt lat="40.373950" lon="-5.382050">
        <ele>2229.0</ele>
        <time>2013-05-12T12:42:43Z</time>
      </trkpt>
      <trkpt lat="40.373917" lon="-5.382100">
        <ele>2226.0</ele>
        <time>2013-05-12T12:42:44Z</time>
      </trkpt>
      <trkpt lat="40.373883" lon="-5.382150">
        <ele>2223.0</ele>
        <time>2013-05-12T12:42:45Z</time>
      </trkpt>
      <trkpt lat="40.373833" lon="-5.382217">
        <ele>2218.0</ele>
        <time>2013-05-12T12:42:46Z</time>
      </trkpt>
      <trkpt lat="40.373800" lon="-5.382317">
        <ele>2214.0</ele>
        <time>2013-05-12T12:42:47Z</time>
      </trkpt>
      <trkpt lat="40.373767" lon="-5.382417">
        <ele>2210.0</ele>
        <time>2013-05-12T12:42:48Z</time>
      </trkpt>
      <trkpt lat="40.373733" lon="-5.382517">
        <ele>2207.0</ele>
        <time>2013-05-12T12:42:49Z</time>
      </trkpt>
      <trkpt lat="40.373700" lon="-5.382617">
        <ele>2205.0</ele>
        <time>2013-05-12T12:42:50Z</time>
      </trkpt>
      <trkpt lat="40.373683" lon="-5.382700">
        <ele>2204.0</ele>
        <time>2013-05-12T12:42:51Z</time>
      </trkpt>
      <trkpt lat="40.373667" lon="-5.382783">
        <ele>2202.0</ele>
        <time>2013-05-12T12:42:52Z</time>
      </trkpt>
      <trkpt lat="40.373650" lon="-5.382850">
        <ele>2200.0</ele>
        <time>2013-05-12T12:42:53Z</time>
      </trkpt>
      <trkpt lat="40.373650" lon="-5.382933">
        <ele>2197.0</ele>
        <time>2013-05-12T12:42:54Z</time>
      </trkpt>
      <trkpt lat="40.373650" lon="-5.383033">
        <ele>2195.0</ele>
        <time>2013-05-12T12:42:55Z</time>
      </trkpt>
      <trkpt lat="40.373650" lon="-5.383117">
        <ele>2194.0</ele>
        <time>2013-05-12T12:42:56Z</time>
      </trkpt>
      <trkpt lat="40.373650" lon="-5.383183">
        <ele>2194.0</ele>
        <time>2013-05-12T12:42:57Z</time>
      </trkpt>
      <trkpt lat="40.373650" lon="-5.383250">
        <ele>2193.0</ele>
        <time>2013-05-12T12:42:58Z</time>
      </trkpt>
      <trkpt lat="40.373633" lon="-5.383300">
        <ele>2191.0</ele>
        <time>2013-05-12T12:42:59Z</time>
      </trkpt>
      <trkpt lat="40.373633" lon="-5.383367">
        <ele>2188.0</ele>
        <time>2013-05-12T12:43:00Z</time>
      </trkpt>
      <trkpt lat="40.373600" lon="-5.383450">
        <ele>2185.0</ele>
        <time>2013-05-12T12:43:01Z</time>
      </trkpt>
      <trkpt lat="40.373583" lon="-5.383550">
        <ele>2181.0</ele>
        <time>2013-05-12T12:43:02Z</time>
      </trkpt>
      <trkpt lat="40.373533" lon="-5.383650">
        <ele>2180.0</ele>
        <time>2013-05-12T12:43:03Z</time>
      </trkpt>
      <trkpt lat="40.373483" lon="-5.383733">
        <ele>2179.0</ele>
        <time>2013-05-12T12:43:04Z</time>
      </trkpt>
      <trkpt lat="40.373433" lon="-5.383817">
        <ele>2178.0</ele>
        <time>2013-05-12T12:43:05Z</time>
      </trkpt>
      <trkpt lat="40.373383" lon="-5.383883">
        <ele>2177.0</ele>
        <time>2013-05-12T12:43:06Z</time>
      </trkpt>
      <trkpt lat="40.373317" lon="-5.383950">
        <ele>2177.0</ele>
        <time>2013-05-12T12:43:07Z</time>
      </trkpt>
      <trkpt lat="40.373250" lon="-5.384017">
        <ele>2175.0</ele>
        <time>2013-05-12T12:43:08Z</time>
      </trkpt>
      <trkpt lat="40.373183" lon="-5.384100">
        <ele>2174.0</ele>
        <time>2013-05-12T12:43:09Z</time>
      </trkpt>
      <trkpt lat="40.373133" lon="-5.384167">
        <ele>2172.0</ele>
        <time>2013-05-12T12:43:10Z</time>
      </trkpt>
      <trkpt lat="40.373067" lon="-5.384267">
        <ele>2170.0</ele>
        <time>2013-05-12T12:43:11Z</time>
      </trkpt>
      <trkpt lat="40.373033" lon="-5.384350">
        <ele>2168.0</ele>
        <time>2013-05-12T12:43:12Z</time>
      </trkpt>
      <trkpt lat="40.372983" lon="-5.384433">
        <ele>2168.0</ele>
        <time>2013-05-12T12:43:13Z</time>
      </trkpt>
      <trkpt lat="40.372950" lon="-5.384500">
        <ele>2168.0</ele>
        <time>2013-05-12T12:43:14Z</time>
      </trkpt>
      <trkpt lat="40.372900" lon="-5.384567">
        <ele>2167.0</ele>
        <time>2013-05-12T12:43:15Z</time>
      </trkpt>
      <trkpt lat="40.372867" lon="-5.384650">
        <ele>2166.0</ele>
        <time>2013-05-12T12:43:16Z</time>
      </trkpt>
      <trkpt lat="40.372850" lon="-5.384717">
        <ele>2163.0</ele>
        <time>2013-05-12T12:43:17Z</time>
      </trkpt>
      <trkpt lat="40.372833" lon="-5.384817">
        <ele>2162.0</ele>
        <time>2013-05-12T12:43:18Z</time>
      </trkpt>
      <trkpt lat="40.372817" lon="-5.384900">
        <ele>2160.0</ele>
        <time>2013-05-12T12:43:19Z</time>
      </trkpt>
      <trkpt lat="40.372800" lon="-5.384983">
        <ele>2160.0</ele>
        <time>2013-05-12T12:43:20Z</time>
      </trkpt>
      <trkpt lat="40.372783" lon="-5.385050">
        <ele>2160.0</ele>
        <time>2013-05-12T12:43:21Z</time>
      </trkpt>
      <trkpt lat="40.372767" lon="-5.385117">
        <ele>2159.0</ele>
        <time>2013-05-12T12:43:22Z</time>
      </trkpt>
      <trkpt lat="40.372750" lon="-5.385183">
        <ele>2157.0</ele>
        <time>2013-05-12T12:43:23Z</time>
      </trkpt>
      <trkpt lat="40.372750" lon="-5.385250">
        <ele>2154.0</ele>
        <time>2013-05-12T12:43:24Z</time>
      </trkpt>
      <trkpt lat="40.372750" lon="-5.385333">
        <ele>2152.0</ele>
        <time>2013-05-12T12:43:25Z</time>
      </trkpt>
      <trkpt lat="40.372750" lon="-5.385417">
        <ele>2150.0</ele>
        <time>2013-05-12T12:43:26Z</time>
      </trkpt>
      <trkpt lat="40.372733" lon="-5.385500">
        <ele>2149.0</ele>
        <time>2013-05-12T12:43:27Z</time>
      </trkpt>
      <trkpt lat="40.372733" lon="-5.385567">
        <ele>2148.0</ele>
        <time>2013-05-12T12:43:28Z</time>
      </trkpt>
      <trkpt lat="40.372717" lon="-5.385633">
        <ele>2146.0</ele>
        <time>2013-05-12T12:43:29Z</time>
      </trkpt>
      <trkpt lat="40.372717" lon="-5.385717">
        <ele>2144.0</ele>
        <time>2013-05-12T12:43:30Z</time>
      </trkpt>
      <trkpt lat="40.372717" lon="-5.385800">
        <ele>2141.0</ele>
        <time>2013-05-12T12:43:31Z</time>
      </trkpt>
      <trkpt lat="40.372717" lon="-5.385883">
        <ele>2139.0</ele>
        <time>2013-05-12T12:43:32Z</time>
      </trkpt>
      <trkpt lat="40.372717" lon="-5.385967">
        <ele>2137.0</ele>
        <time>2013-05-12T12:43:33Z</time>
      </trkpt>
      <trkpt lat="40.372717" lon="-5.386050">
        <ele>2137.0</ele>
        <time>2013-05-12T12:43:34Z</time>
      </trkpt>
      <trkpt lat="40.372717" lon="-5.386133">
        <ele>2135.0</ele>
        <time>2013-05-12T12:43:35Z</time>
      </trkpt>
      <trkpt lat="40.372717" lon="-5.386200">
        <ele>2133.0</ele>
        <time>2013-05-12T12:43:36Z</time>
      </trkpt>
      <trkpt lat="40.372717" lon="-5.386283">
        <ele>2130.0</ele>
        <time>2013-05-12T12:43:37Z</time>
      </trkpt>
      <trkpt lat="40.372733" lon="-5.386367">
        <ele>2126.0</ele>
        <time>2013-05-12T12:43:38Z</time>
      </trkpt>
      <trkpt lat="40.372750" lon="-5.386467">
        <ele>2123.0</ele>
        <time>2013-05-12T12:43:39Z</time>
      </trkpt>
      <trkpt lat="40.372750" lon="-5.386550">
        <ele>2122.0</ele>
        <time>2013-05-12T12:43:40Z</time>
      </trkpt>
      <trkpt lat="40.372767" lon="-5.386633">
        <ele>2122.0</ele>
        <time>2013-05-12T12:43:41Z</time>
      </trkpt>
      <trkpt lat="40.372767" lon="-5.386700">
        <ele>2121.0</ele>
        <time>2013-05-12T12:43:42Z</time>
      </trkpt>
      <trkpt lat="40.372783" lon="-5.386750">
        <ele>2118.0</ele>
        <time>2013-05-12T12:43:43Z</time>
      </trkpt>
      <trkpt lat="40.372783" lon="-5.386833">
        <ele>2115.0</ele>
        <time>2013-05-12T12:43:44Z</time>
      </trkpt>
      <trkpt lat="40.372783" lon="-5.386917">
        <ele>2111.0</ele>
        <time>2013-05-12T12:43:45Z</time>
      </trkpt>
      <trkpt lat="40.372800" lon="-5.387000">
        <ele>2108.0</ele>
        <time>2013-05-12T12:43:46Z</time>
      </trkpt>
      <trkpt lat="40.372817" lon="-5.387067">
        <ele>2106.0</ele>
        <time>2013-05-12T12:43:47Z</time>
      </trkpt>
      <trkpt lat="40.372850" lon="-5.387117">
        <ele>2105.0</ele>
        <time>2013-05-12T12:43:48Z</time>
      </trkpt>
      <trkpt lat="40.372867" lon="-5.387150">
        <ele>2102.0</ele>
        <time>2013-05-12T12:43:49Z</time>
      </trkpt>
      <trkpt lat="40.372900" lon="-5.387183">
        <ele>2099.0</ele>
        <time>2013-05-12T12:43:50Z</time>
      </trkpt>
      <trkpt lat="40.372933" lon="-5.387233">
        <ele>2096.0</ele>
        <time>2013-05-12T12:43:51Z</time>
      </trkpt>
      <trkpt lat="40.372950" lon="-5.387283">
        <ele>2092.0</ele>
        <time>2013-05-12T12:43:52Z</time>
      </trkpt>
      <trkpt lat="40.372983" lon="-5.387333">
        <ele>2088.0</ele>
        <time>2013-05-12T12:43:53Z</time>
      </trkpt>
      <trkpt lat="40.373017" lon="-5.387383">
        <ele>2085.0</ele>
        <time>2013-05-12T12:43:54Z</time>
      </trkpt>
      <trkpt lat="40.373033" lon="-5.387450">
        <ele>2081.0</ele>
        <time>2013-05-12T12:43:55Z</time>
      </trkpt>
      <trkpt lat="40.373050" lon="-5.387517">
        <ele>2077.0</ele>
        <time>2013-05-12T12:43:56Z</time>
      </trkpt>
      <trkpt lat="40.373067" lon="-5.387583">
        <ele>2074.0</ele>
        <time>2013-05-12T12:43:57Z</time>
      </trkpt>
      <trkpt lat="40.373083" lon="-5.387667">
        <ele>2071.0</ele>
        <time>2013-05-12T12:43:58Z</time>
      </trkpt>
      <trkpt lat="40.373100" lon="-5.387733">
        <ele>2068.0</ele>
        <time>2013-05-12T12:43:59Z</time>
      </trkpt>
      <trkpt lat="40.373117" lon="-5.387783">
        <ele>2064.0</ele>
        <time>2013-05-12T12:44:00Z</time>
      </trkpt>
      <trkpt lat="40.373150" lon="-5.387850">
        <ele>2060.0</ele>
        <time>2013-05-12T12:44:01Z</time>
      </trkpt>
      <trkpt lat="40.373167" lon="-5.387917">
        <ele>2057.0</ele>
        <time>2013-05-12T12:44:02Z</time>
      </trkpt>
      <trkpt lat="40.373200" lon="-5.387983">
        <ele>2054.0</ele>
        <time>2013-05-12T12:44:03Z</time>
      </trkpt>
      <trkpt lat="40.373217" lon="-5.388050">
        <ele>2051.0</ele>
        <time>2013-05-12T12:44:04Z</time>
      </trkpt>
      <trkpt lat="40.373250" lon="-5.388100">
        <ele>2049.0</ele>
        <time>2013-05-12T12:44:05Z</time>
      </trkpt>
      <trkpt lat="40.373267" lon="-5.388167">
        <ele>2046.0</ele>
        <time>2013-05-12T12:44:06Z</time>
      </trkpt>
      <trkpt lat="40.373300" lon="-5.388233">
        <ele>2043.0</ele>
        <time>2013-05-12T12:44:07Z</time>
      </trkpt>
      <trkpt lat="40.373333" lon="-5.388283">
        <ele>2039.0</ele>
        <time>2013-05-12T12:44:08Z</time>
      </trkpt>
      <trkpt lat="40.373367" lon="-5.388350">
        <ele>2037.0</ele>
        <time>2013-05-12T12:44:09Z</time>
      </trkpt>
      <trkpt lat="40.373383" lon="-5.388400">
        <ele>2036.0</ele>
        <time>2013-05-12T12:44:10Z</time>
      </trkpt>
      <trkpt lat="40.373400" lon="-5.388450">
        <ele>2035.0</ele>
        <time>2013-05-12T12:44:11Z</time>
      </trkpt>
      <trkpt lat="40.373400" lon="-5.388500">
        <ele>2033.0</ele>
        <time>2013-05-12T12:44:12Z</time>
      </trkpt>
      <trkpt lat="40.373417" lon="-5.388533">
        <ele>2031.0</ele>
        <time>2013-05-12T12:44:13Z</time>
      </trkpt>
      <trkpt lat="40.373433" lon="-5.388600">
        <ele>2028.0</ele>
        <time>2013-05-12T12:44:14Z</time>
      </trkpt>
      <trkpt lat="40.373467" lon="-5.388667">
        <ele>2026.0</ele>
        <time>2013-05-12T12:44:15Z</time>
      </trkpt>
      <trkpt lat="40.373483" lon="-5.388733">
        <ele>2025.0</ele>
        <time>2013-05-12T12:44:16Z</time>
      </trkpt>
      <trkpt lat="40.373483" lon="-5.388783">
        <ele>2025.0</ele>
        <time>2013-05-12T12:44:17Z</time>
      </trkpt>
      <trkpt lat="40.373483" lon="-5.388817">
        <ele>2023.0</ele>
        <time>2013-05-12T12:44:18Z</time>
      </trkpt>
      <trkpt lat="40.373467" lon="-5.388867">
        <ele>2020.0</ele>
        <time>2013-05-12T12:44:19Z</time>
      </trkpt>
      <trkpt lat="40.373483" lon="-5.388933">
        <ele>2015.0</ele>
        <time>2013-05-12T12:44:20Z</time>
      </trkpt>
      <trkpt lat="40.373500" lon="-5.389033">
        <ele>2011.0</ele>
        <time>2013-05-12T12:44:21Z</time>
      </trkpt>
      <trkpt lat="40.373517" lon="-5.389117">
        <ele>2008.0</ele>
        <time>2013-05-12T12:44:22Z</time>
      </trkpt>
      <trkpt lat="40.373517" lon="-5.389200">
        <ele>2007.0</ele>
        <time>2013-05-12T12:44:23Z</time>
      </trkpt>
      <trkpt lat="40.373533" lon="-5.389250">
        <ele>2006.0</ele>
        <time>2013-05-12T12:44:24Z</time>
      </trkpt>
      <trkpt lat="40.373517" lon="-5.389317">
        <ele>2005.0</ele>
        <time>2013-05-12T12:44:25Z</time>
      </trkpt>
      <trkpt lat="40.373517" lon="-5.389350">
        <ele>2002.0</ele>
        <time>2013-05-12T12:44:26Z</time>
      </trkpt>
      <trkpt lat="40.373517" lon="-5.389417">
        <ele>1999.0</ele>
        <time>2013-05-12T12:44:27Z</time>
      </trkpt>
      <trkpt lat="40.373533" lon="-5.389483">
        <ele>1995.0</ele>
        <time>2013-05-12T12:44:28Z</time>
      </trkpt>
      <trkpt lat="40.373550" lon="-5.389550">
        <ele>1992.0</ele>
        <time>2013-05-12T12:44:29Z</time>
      </trkpt>
      <trkpt lat="40.373567" lon="-5.389617">
        <ele>1989.0</ele>
        <time>2013-05-12T12:44:30Z</time>
      </trkpt>
      <trkpt lat="40.373583" lon="-5.389683">
        <ele>1987.0</ele>
        <time>2013-05-12T12:44:31Z</time>
      </trkpt>
      <trkpt lat="40.373617" lon="-5.389750">
        <ele>1984.0</ele>
        <time>2013-05-12T12:44:32Z</time>
      </trkpt>
      <trkpt lat="40.373633" lon="-5.389783">
        <ele>1983.0</ele>
        <time>2013-05-12T12:44:33Z</time>
      </trkpt>
      <trkpt lat="40.373650" lon="-5.389817">
        <ele>1980.0</ele>
        <time>2013-05-12T12:44:34Z</time>
      </trkpt>
      <trkpt lat="40.373650" lon="-5.389850">
        <ele>1976.0</ele>
        <time>2013-05-12T12:44:35Z</time>
      </trkpt>
      <trkpt lat="40.373683" lon="-5.389900">
        <ele>1972.0</ele>
        <time>2013-05-12T12:44:36Z</time>
      </trkpt>
      <trkpt lat="40.373700" lon="-5.389950">
        <ele>1968.0</ele>
        <time>2013-05-12T12:44:37Z</time>
      </trkpt>
      <trkpt lat="40.373733" lon="-5.390017">
        <ele>1965.0</ele>
        <time>2013-05-12T12:44:38Z</time>
      </trkpt>
      <trkpt lat="40.373783" lon="-5.390067">
        <ele>1963.0</ele>
        <time>2013-05-12T12:44:39Z</time>
      </trkpt>
      <trkpt lat="40.373817" lon="-5.390100">
        <ele>1962.0</ele>
        <time>2013-05-12T12:44:40Z</time>
      </trkpt>
      <trkpt lat="40.373850" lon="-5.390133">
        <ele>1961.0</ele>
        <time>2013-05-12T12:44:41Z</time>
      </trkpt>
      <trkpt lat="40.373867" lon="-5.390167">
        <ele>1959.0</ele>
        <time>2013-05-12T12:44:42Z</time>
      </trkpt>
      <trkpt lat="40.373900" lon="-5.390200">
        <ele>1956.0</ele>
        <time>2013-05-12T12:44:43Z</time>
      </trkpt>
      <trkpt lat="40.373933" lon="-5.390250">
        <ele>1953.0</ele>
        <time>2013-05-12T12:44:44Z</time>
      </trkpt>
      <trkpt lat="40.373983" lon="-5.390300">
        <ele>1950.0</ele>
        <time>2013-05-12T12:44:45Z</time>
      </trkpt>
      <trkpt lat="40.374017" lon="-5.390383">
        <ele>1948.0</ele>
        <time>2013-05-12T12:44:46Z</time>
      </trkpt>
      <trkpt lat="40.374050" lon="-5.390450">
        <ele>1947.0</ele>
        <time>2013-05-12T12:44:47Z</time>
      </trkpt>
      <trkpt lat="40.374067" lon="-5.390500">
        <ele>1947.0</ele>
        <time>2013-05-12T12:44:48Z</time>
      </trkpt>
      <trkpt lat="40.374100" lon="-5.390533">
        <ele>1947.0</ele>
        <time>2013-05-12T12:44:49Z</time>
      </trkpt>
      <trkpt lat="40.374133" lon="-5.390567">
        <ele>1944.0</ele>
        <time>2013-05-12T12:44:50Z</time>
      </trkpt>
      <trkpt lat="40.374167" lon="-5.390600">
        <ele>1941.0</ele>
        <time>2013-05-12T12:44:51Z</time>
      </trkpt>
      <trkpt lat="40.374217" lon="-5.390633">
        <ele>1938.0</ele>
        <time>2013-05-12T12:44:52Z</time>
      </trkpt>
      <trkpt lat="40.374283" lon="-5.390700">
        <ele>1936.0</ele>
        <time>2013-05-12T12:44:53Z</time>
      </trkpt>
      <trkpt lat="40.374333" lon="-5.390750">
        <ele>1935.0</ele>
        <time>2013-05-12T12:44:54Z</time>
      </trkpt>
      <trkpt lat="40.374400" lon="-5.390783">
        <ele>1935.0</ele>
        <time>2013-05-12T12:44:55Z</time>
      </trkpt>
      <trkpt lat="40.374450" lon="-5.390800">
        <ele>1935.0</ele>
        <time>2013-05-12T12:44:56Z</time>
      </trkpt>
      <trkpt lat="40.374517" lon="-5.390800">
        <ele>1935.0</ele>
        <time>2013-05-12T12:44:57Z</time>
      </trkpt>
      <trkpt lat="40.374567" lon="-5.390833">
        <ele>1935.0</ele>
        <time>2013-05-12T12:44:58Z</time>
      </trkpt>
      <trkpt lat="40.374617" lon="-5.390850">
        <ele>1935.0</ele>
        <time>2013-05-12T12:44:59Z</time>
      </trkpt>
      <trkpt lat="40.374667" lon="-5.390867">
        <ele>1934.0</ele>
        <time>2013-05-12T12:45:00Z</time>
      </trkpt>
      <trkpt lat="40.374717" lon="-5.390900">
        <ele>1933.0</ele>
        <time>2013-05-12T12:45:01Z</time>
      </trkpt>
      <trkpt lat="40.374783" lon="-5.390917">
        <ele>1932.0</ele>
        <time>2013-05-12T12:45:02Z</time>
      </trkpt>
      <trkpt lat="40.374833" lon="-5.390967">
        <ele>1931.0</ele>
        <time>2013-05-12T12:45:03Z</time>
      </trkpt>
      <trkpt lat="40.374883" lon="-5.391000">
        <ele>1930.0</ele>
        <time>2013-05-12T12:45:04Z</time>
      </trkpt>
      <trkpt lat="40.374917" lon="-5.391050">
        <ele>1930.0</ele>
        <time>2013-05-12T12:45:05Z</time>
      </trkpt>
      <trkpt lat="40.374933" lon="-5.391100">
        <ele>1930.0</ele>
        <time>2013-05-12T12:45:06Z</time>
      </trkpt>
      <trkpt lat="40.374967" lon="-5.391133">
        <ele>1930.0</ele>
        <time>2013-05-12T12:45:07Z</time>
      </trkpt>
      <trkpt lat="40.374983" lon="-5.391167">
        <ele>1931.0</ele>
        <time>2013-05-12T12:45:08Z</time>
      </trkpt>
      <trkpt lat="40.375000" lon="-5.391183">
        <ele>1931.0</ele>
        <time>2013-05-12T12:45:09Z</time>
      </trkpt>
      <trkpt lat="40.375017" lon="-5.391233">
        <ele>1931.0</ele>
        <time>2013-05-12T12:45:10Z</time>
      </trkpt>
      <trkpt lat="40.375017" lon="-5.391300">
        <ele>1931.0</ele>
        <time>2013-05-12T12:45:11Z</time>
      </trkpt>
      <trkpt lat="40.375017" lon="-5.391383">
        <ele>1931.0</ele>
        <time>2013-05-12T12:45:12Z</time>
      </trkpt>
      <trkpt lat="40.375000" lon="-5.391467">
        <ele>1933.0</ele>
        <time>2013-05-12T12:45:13Z</time>
      </trkpt>
      <trkpt lat="40.375000" lon="-5.391533">
        <ele>1935.0</ele>
        <time>2013-05-12T12:45:14Z</time>
      </trkpt>
      <trkpt lat="40.375000" lon="-5.391567">
        <ele>1936.0</ele>
        <time>2013-05-12T12:45:15Z</time>
      </trkpt>
      <trkpt lat="40.375017" lon="-5.391600">
        <ele>1935.0</ele>
        <time>2013-05-12T12:45:16Z</time>
      </trkpt>
      <trkpt lat="40.375033" lon="-5.391650">
        <ele>1934.0</ele>
        <time>2013-05-12T12:45:17Z</time>
      </trkpt>
      <trkpt lat="40.375067" lon="-5.391717">
        <ele>1932.0</ele>
        <time>2013-05-12T12:45:18Z</time>
      </trkpt>
      <trkpt lat="40.375100" lon="-5.391800">
        <ele>1932.0</ele>
        <time>2013-05-12T12:45:19Z</time>
      </trkpt>
      <trkpt lat="40.375117" lon="-5.391867">
        <ele>1933.0</ele>
        <time>2013-05-12T12:45:20Z</time>
      </trkpt>
      <trkpt lat="40.375133" lon="-5.391917">
        <ele>1934.0</ele>
        <time>2013-05-12T12:45:21Z</time>
      </trkpt>
      <trkpt lat="40.375150" lon="-5.391950">
        <ele>1935.0</ele>
        <time>2013-05-12T12:45:22Z</time>
      </trkpt>
      <trkpt lat="40.375150" lon="-5.392017">
        <ele>1934.0</ele>
        <time>2013-05-12T12:45:23Z</time>
      </trkpt>
      <trkpt lat="40.375167" lon="-5.392067">
        <ele>1933.0</ele>
        <time>2013-05-12T12:45:24Z</time>
      </trkpt>
      <trkpt lat="40.375200" lon="-5.392150">
        <ele>1932.0</ele>
        <time>2013-05-12T12:45:25Z</time>
      </trkpt>
      <trkpt lat="40.375217" lon="-5.392217">
        <ele>1933.0</ele>
        <time>2013-05-12T12:45:26Z</time>
      </trkpt>
      <trkpt lat="40.375233" lon="-5.392283">
        <ele>1934.0</ele>
        <time>2013-05-12T12:45:27Z</time>
      </trkpt>
      <trkpt lat="40.375233" lon="-5.392333">
        <ele>1935.0</ele>
        <time>2013-05-12T12:45:28Z</time>
      </trkpt>
      <trkpt lat="40.375233" lon="-5.392383">
        <ele>1936.0</ele>
        <time>2013-05-12T12:45:29Z</time>
      </trkpt>
      <trkpt lat="40.375233" lon="-5.392450">
        <ele>1936.0</ele>
        <time>2013-05-12T12:45:30Z</time>
      </trkpt>
      <trkpt lat="40.375233" lon="-5.392517">
        <ele>1936.0</ele>
        <time>2013-05-12T12:45:31Z</time>
      </trkpt>
      <trkpt lat="40.375233" lon="-5.392567">
        <ele>1937.0</ele>
        <time>2013-05-12T12:45:32Z</time>
      </trkpt>
      <trkpt lat="40.375233" lon="-5.392633">
        <ele>1937.0</ele>
        <time>2013-05-12T12:45:33Z</time>
      </trkpt>
      <trkpt lat="40.375233" lon="-5.392700">
        <ele>1938.0</ele>
        <time>2013-05-12T12:45:34Z</time>
      </trkpt>
      <trkpt lat="40.375217" lon="-5.392783">
        <ele>1939.0</ele>
        <time>2013-05-12T12:45:35Z</time>
      </trkpt>
      <trkpt lat="40.375217" lon="-5.392850">
        <ele>1940.0</ele>
        <time>2013-05-12T12:45:36Z</time>
      </trkpt>
      <trkpt lat="40.375183" lon="-5.392950">
        <ele>1941.0</ele>
        <time>2013-05-12T12:45:37Z</time>
      </trkpt>
      <trkpt lat="40.375167" lon="-5.393033">
        <ele>1942.0</ele>
        <time>2013-05-12T12:45:38Z</time>
      </trkpt>
      <trkpt lat="40.375133" lon="-5.393133">
        <ele>1942.0</ele>
        <time>2013-05-12T12:45:39Z</time>
      </trkpt>
      <trkpt lat="40.375117" lon="-5.393233">
        <ele>1944.0</ele>
        <time>2013-05-12T12:45:40Z</time>
      </trkpt>
      <trkpt lat="40.375117" lon="-5.393317">
        <ele>1947.0</ele>
        <time>2013-05-12T12:45:41Z</time>
      </trkpt>
      <trkpt lat="40.375133" lon="-5.393367">
        <ele>1948.0</ele>
        <time>2013-05-12T12:45:42Z</time>
      </trkpt>
      <trkpt lat="40.375150" lon="-5.393383">
        <ele>1949.0</ele>
        <time>2013-05-12T12:45:43Z</time>
      </trkpt>
      <trkpt lat="40.375183" lon="-5.393400">
        <ele>1949.0</ele>
        <time>2013-05-12T12:45:44Z</time>
      </trkpt>
      <trkpt lat="40.375217" lon="-5.393400">
        <ele>1949.0</ele>
        <time>2013-05-12T12:45:45Z</time>
      </trkpt>
      <trkpt lat="40.375250" lon="-5.393417">
        <ele>1948.0</ele>
        <time>2013-05-12T12:45:46Z</time>
      </trkpt>
      <trkpt lat="40.375300" lon="-5.393400">
        <ele>1947.0</ele>
        <time>2013-05-12T12:45:47Z</time>
      </trkpt>
      <trkpt lat="40.375367" lon="-5.393367">
        <ele>1947.0</ele>
        <time>2013-05-12T12:45:48Z</time>
      </trkpt>
      <trkpt lat="40.375433" lon="-5.393300">
        <ele>1948.0</ele>
        <time>2013-05-12T12:45:49Z</time>
      </trkpt>
      <trkpt lat="40.375483" lon="-5.393217">
        <ele>1949.0</ele>
        <time>2013-05-12T12:45:50Z</time>
      </trkpt>
      <trkpt lat="40.375517" lon="-5.393133">
        <ele>1951.0</ele>
        <time>2013-05-12T12:45:51Z</time>
      </trkpt>
      <trkpt lat="40.375550" lon="-5.393050">
        <ele>1952.0</ele>
        <time>2013-05-12T12:45:52Z</time>
      </trkpt>
      <trkpt lat="40.375583" lon="-5.392933">
        <ele>1953.0</ele>
        <time>2013-05-12T12:45:53Z</time>
      </trkpt>
      <trkpt lat="40.375633" lon="-5.392800">
        <ele>1953.0</ele>
        <time>2013-05-12T12:45:54Z</time>
      </trkpt>
      <trkpt lat="40.375650" lon="-5.392617">
        <ele>1954.0</ele>
        <time>2013-05-12T12:45:55Z</time>
      </trkpt>
      <trkpt lat="40.375633" lon="-5.392450">
        <ele>1957.0</ele>
        <time>2013-05-12T12:45:56Z</time>
      </trkpt>
      <trkpt lat="40.375583" lon="-5.392300">
        <ele>1960.0</ele>
        <time>2013-05-12T12:45:57Z</time>
      </trkpt>
      <trkpt lat="40.375533" lon="-5.392167">
        <ele>1963.0</ele>
        <time>2013-05-12T12:45:58Z</time>
      </trkpt>
      <trkpt lat="40.375467" lon="-5.392050">
        <ele>1965.0</ele>
        <time>2013-05-12T12:45:59Z</time>
      </trkpt>
      <trkpt lat="40.375383" lon="-5.391967">
        <ele>1966.0</ele>
        <time>2013-05-12T12:46:00Z</time>
      </trkpt>
      <trkpt lat="40.375283" lon="-5.391883">
        <ele>1966.0</ele>
        <time>2013-05-12T12:46:01Z</time>
      </trkpt>
      <trkpt lat="40.375167" lon="-5.391817">
        <ele>1966.0</ele>
        <time>2013-05-12T12:46:02Z</time>
      </trkpt>
      <trkpt lat="40.375033" lon="-5.391800">
        <ele>1966.0</ele>
        <time>2013-05-12T12:46:03Z</time>
      </trkpt>
      <trkpt lat="40.374917" lon="-5.391833">
        <ele>1967.0</ele>
        <time>2013-05-12T12:46:04Z</time>
      </trkpt>
      <trkpt lat="40.374833" lon="-5.391900">
        <ele>1967.0</ele>
        <time>2013-05-12T12:46:05Z</time>
      </trkpt>
      <trkpt lat="40.374783" lon="-5.391983">
        <ele>1969.0</ele>
        <time>2013-05-12T12:46:06Z</time>
      </trkpt>
      <trkpt lat="40.374750" lon="-5.392033">
        <ele>1972.0</ele>
        <time>2013-05-12T12:46:07Z</time>
      </trkpt>
      <trkpt lat="40.374717" lon="-5.392083">
        <ele>1974.0</ele>
        <time>2013-05-12T12:46:08Z</time>
      </trkpt>
      <trkpt lat="40.374700" lon="-5.392117">
        <ele>1975.0</ele>
        <time>2013-05-12T12:46:09Z</time>
      </trkpt>
      <trkpt lat="40.374667" lon="-5.392167">
        <ele>1975.0</ele>
        <time>2013-05-12T12:46:10Z</time>
      </trkpt>
      <trkpt lat="40.374667" lon="-5.392233">
        <ele>1975.0</ele>
        <time>2013-05-12T12:46:11Z</time>
      </trkpt>
      <trkpt lat="40.374650" lon="-5.392317">
        <ele>1974.0</ele>
        <time>2013-05-12T12:46:12Z</time>
      </trkpt>
      <trkpt lat="40.374650" lon="-5.392417">
        <ele>1975.0</ele>
        <time>2013-05-12T12:46:13Z</time>
      </trkpt>
      <trkpt lat="40.374650" lon="-5.392483">
        <ele>1977.0</ele>
        <time>2013-05-12T12:46:14Z</time>
      </trkpt>
      <trkpt lat="40.374633" lon="-5.392550">
        <ele>1978.0</ele>
        <time>2013-05-12T12:46:15Z</time>
      </trkpt>
      <trkpt lat="40.374633" lon="-5.392600">
        <ele>1979.0</ele>
        <time>2013-05-12T12:46:16Z</time>
      </trkpt>
      <trkpt lat="40.374650" lon="-5.392667">
        <ele>1979.0</ele>
        <time>2013-05-12T12:46:17Z</time>
      </trkpt>
      <trkpt lat="40.374667" lon="-5.392733">
        <ele>1979.0</ele>
        <time>2013-05-12T12:46:18Z</time>
      </trkpt>
      <trkpt lat="40.374700" lon="-5.392783">
        <ele>1980.0</ele>
        <time>2013-05-12T12:46:19Z</time>
      </trkpt>
      <trkpt lat="40.374733" lon="-5.392817">
        <ele>1982.0</ele>
        <time>2013-05-12T12:46:20Z</time>
      </trkpt>
      <trkpt lat="40.374767" lon="-5.392817">
        <ele>1983.0</ele>
        <time>2013-05-12T12:46:21Z</time>
      </trkpt>
      <trkpt lat="40.374800" lon="-5.392800">
        <ele>1984.0</ele>
        <time>2013-05-12T12:46:22Z</time>
      </trkpt>
      <trkpt lat="40.374850" lon="-5.392783">
        <ele>1984.0</ele>
        <time>2013-05-12T12:46:23Z</time>
      </trkpt>
      <trkpt lat="40.374900" lon="-5.392767">
        <ele>1986.0</ele>
        <time>2013-05-12T12:46:24Z</time>
      </trkpt>
      <trkpt lat="40.374967" lon="-5.392717">
        <ele>1988.0</ele>
        <time>2013-05-12T12:46:25Z</time>
      </trkpt>
      <trkpt lat="40.375017" lon="-5.392633">
        <ele>1991.0</ele>
        <time>2013-05-12T12:46:26Z</time>
      </trkpt>
      <trkpt lat="40.375067" lon="-5.392550">
        <ele>1994.0</ele>
        <time>2013-05-12T12:46:27Z</time>
      </trkpt>
      <trkpt lat="40.375100" lon="-5.392433">
        <ele>1997.0</ele>
        <time>2013-05-12T12:46:28Z</time>
      </trkpt>
      <trkpt lat="40.375117" lon="-5.392317">
        <ele>2000.0</ele>
        <time>2013-05-12T12:46:29Z</time>
      </trkpt>
      <trkpt lat="40.375133" lon="-5.392183">
        <ele>2002.0</ele>
        <time>2013-05-12T12:46:30Z</time>
      </trkpt>
      <trkpt lat="40.375133" lon="-5.392033">
        <ele>2003.0</ele>
        <time>2013-05-12T12:46:31Z</time>
      </trkpt>
      <trkpt lat="40.375117" lon="-5.391850">
        <ele>2005.0</ele>
        <time>2013-05-12T12:46:32Z</time>
      </trkpt>
      <trkpt lat="40.375050" lon="-5.391683">
        <ele>2007.0</ele>
        <time>2013-05-12T12:46:33Z</time>
      </trkpt>
      <trkpt lat="40.374967" lon="-5.391550">
        <ele>2011.0</ele>
        <time>2013-05-12T12:46:34Z</time>
      </trkpt>
      <trkpt lat="40.374883" lon="-5.391433">
        <ele>2016.0</ele>
        <time>2013-05-12T12:46:35Z</time>
      </trkpt>
      <trkpt lat="40.374800" lon="-5.391350">
        <ele>2021.0</ele>
        <time>2013-05-12T12:46:36Z</time>
      </trkpt>
      <trkpt lat="40.374700" lon="-5.391300">
        <ele>2025.0</ele>
        <time>2013-05-12T12:46:37Z</time>
      </trkpt>
      <trkpt lat="40.374600" lon="-5.391267">
        <ele>2026.0</ele>
        <time>2013-05-12T12:46:38Z</time>
      </trkpt>
      <trkpt lat="40.374500" lon="-5.391267">
        <ele>2027.0</ele>
        <time>2013-05-12T12:46:39Z</time>
      </trkpt>
      <trkpt lat="40.374400" lon="-5.391317">
        <ele>2027.0</ele>
        <time>2013-05-12T12:46:40Z</time>
      </trkpt>
      <trkpt lat="40.374317" lon="-5.391383">
        <ele>2029.0</ele>
        <time>2013-05-12T12:46:41Z</time>
      </trkpt>
      <trkpt lat="40.374267" lon="-5.391450">
        <ele>2031.0</ele>
        <time>2013-05-12T12:46:42Z</time>
      </trkpt>
      <trkpt lat="40.374233" lon="-5.391533">
        <ele>2033.0</ele>
        <time>2013-05-12T12:46:43Z</time>
      </trkpt>
      <trkpt lat="40.374200" lon="-5.391600">
        <ele>2035.0</ele>
        <time>2013-05-12T12:46:44Z</time>
      </trkpt>
      <trkpt lat="40.374150" lon="-5.391667">
        <ele>2036.0</ele>
        <time>2013-05-12T12:46:45Z</time>
      </trkpt>
      <trkpt lat="40.374117" lon="-5.391750">
        <ele>2037.0</ele>
        <time>2013-05-12T12:46:46Z</time>
      </trkpt>
      <trkpt lat="40.374100" lon="-5.391850">
        <ele>2039.0</ele>
        <time>2013-05-12T12:46:47Z</time>
      </trkpt>
      <trkpt lat="40.374100" lon="-5.391917">
        <ele>2039.0</ele>
        <time>2013-05-12T12:46:48Z</time>
      </trkpt>
      <trkpt lat="40.374133" lon="-5.391983">
        <ele>2040.0</ele>
        <time>2013-05-12T12:46:49Z</time>
      </trkpt>
      <trkpt lat="40.374150" lon="-5.392017">
        <ele>2042.0</ele>
        <time>2013-05-12T12:46:50Z</time>
      </trkpt>
      <trkpt lat="40.374150" lon="-5.392033">
        <ele>2042.0</ele>
        <time>2013-05-12T12:46:51Z</time>
      </trkpt>
      <trkpt lat="40.374183" lon="-5.392050">
        <ele>2042.0</ele>
        <time>2013-05-12T12:46:52Z</time>
      </trkpt>
      <trkpt lat="40.374217" lon="-5.392050">
        <ele>2041.0</ele>
        <time>2013-05-12T12:46:53Z</time>
      </trkpt>
      <trkpt lat="40.374250" lon="-5.392050">
        <ele>2040.0</ele>
        <time>2013-05-12T12:46:54Z</time>
      </trkpt>
      <trkpt lat="40.374300" lon="-5.392050">
        <ele>2040.0</ele>
        <time>2013-05-12T12:46:55Z</time>
      </trkpt>
      <trkpt lat="40.374350" lon="-5.392050">
        <ele>2040.0</ele>
        <time>2013-05-12T12:46:56Z</time>
      </trkpt>
      <trkpt lat="40.374383" lon="-5.392067">
        <ele>2041.0</ele>
        <time>2013-05-12T12:46:57Z</time>
      </trkpt>
      <trkpt lat="40.374400" lon="-5.392100">
        <ele>2041.0</ele>
        <time>2013-05-12T12:46:58Z</time>
      </trkpt>
      <trkpt lat="40.374417" lon="-5.392150">
        <ele>2041.0</ele>
        <time>2013-05-12T12:46:59Z</time>
      </trkpt>
      <trkpt lat="40.374400" lon="-5.392217">
        <ele>2041.0</ele>
        <time>2013-05-12T12:47:00Z</time>
      </trkpt>
      <trkpt lat="40.374383" lon="-5.392283">
        <ele>2041.0</ele>
        <time>2013-05-12T12:47:01Z</time>
      </trkpt>
      <trkpt lat="40.374383" lon="-5.392350">
        <ele>2041.0</ele>
        <time>2013-05-12T12:47:02Z</time>
      </trkpt>
      <trkpt lat="40.374367" lon="-5.392433">
        <ele>2040.0</ele>
        <time>2013-05-12T12:47:03Z</time>
      </trkpt>
      <trkpt lat="40.374350" lon="-5.392533">
        <ele>2039.0</ele>
        <time>2013-05-12T12:47:04Z</time>
      </trkpt>
      <trkpt lat="40.374333" lon="-5.392617">
        <ele>2040.0</ele>
        <time>2013-05-12T12:47:05Z</time>
      </trkpt>
      <trkpt lat="40.374300" lon="-5.392700">
        <ele>2042.0</ele>
        <time>2013-05-12T12:47:06Z</time>
      </trkpt>
      <trkpt lat="40.374267" lon="-5.392783">
        <ele>2043.0</ele>
        <time>2013-05-12T12:47:07Z</time>
      </trkpt>
      <trkpt lat="40.374250" lon="-5.392883">
        <ele>2045.0</ele>
        <time>2013-05-12T12:47:08Z</time>
      </trkpt>
      <trkpt lat="40.374217" lon="-5.392967">
        <ele>2047.0</ele>
        <time>2013-05-12T12:47:09Z</time>
      </trkpt>
      <trkpt lat="40.374200" lon="-5.393067">
        <ele>2050.0</ele>
        <time>2013-05-12T12:47:10Z</time>
      </trkpt>
      <trkpt lat="40.374183" lon="-5.393150">
        <ele>2054.0</ele>
        <time>2013-05-12T12:47:11Z</time>
      </trkpt>
      <trkpt lat="40.374167" lon="-5.393217">
        <ele>2059.0</ele>
        <time>2013-05-12T12:47:12Z</time>
      </trkpt>
      <trkpt lat="40.374150" lon="-5.393267">
        <ele>2064.0</ele>
        <time>2013-05-12T12:47:13Z</time>
      </trkpt>
      <trkpt lat="40.374150" lon="-5.393283">
        <ele>2068.0</ele>
        <time>2013-05-12T12:47:14Z</time>
      </trkpt>
      <trkpt lat="40.374167" lon="-5.393300">
        <ele>2071.0</ele>
        <time>2013-05-12T12:47:15Z</time>
      </trkpt>
      <trkpt lat="40.374183" lon="-5.393283">
        <ele>2073.0</ele>
        <time>2013-05-12T12:47:16Z</time>
      </trkpt>
      <trkpt lat="40.374217" lon="-5.393267">
        <ele>2075.0</ele>
        <time>2013-05-12T12:47:17Z</time>
      </trkpt>
      <trkpt lat="40.374267" lon="-5.393217">
        <ele>2077.0</ele>
        <time>2013-05-12T12:47:18Z</time>
      </trkpt>
      <trkpt lat="40.374300" lon="-5.393150">
        <ele>2081.0</ele>
        <time>2013-05-12T12:47:19Z</time>
      </trkpt>
      <trkpt lat="40.374333" lon="-5.393050">
        <ele>2085.0</ele>
        <time>2013-05-12T12:47:20Z</time>
      </trkpt>
      <trkpt lat="40.374333" lon="-5.392950">
        <ele>2088.0</ele>
        <time>2013-05-12T12:47:21Z</time>
      </trkpt>
      <trkpt lat="40.374333" lon="-5.392817">
        <ele>2091.0</ele>
        <time>2013-05-12T12:47:22Z</time>
      </trkpt>
      <trkpt lat="40.374333" lon="-5.392683">
        <ele>2093.0</ele>
        <time>2013-05-12T12:47:23Z</time>
      </trkpt>
      <trkpt lat="40.374300" lon="-5.392533">
        <ele>2096.0</ele>
        <time>2013-05-12T12:47:24Z</time>
      </trkpt>
      <trkpt lat="40.374250" lon="-5.392383">
        <ele>2098.0</ele>
        <time>2013-05-12T12:47:25Z</time>
      </trkpt>
      <trkpt lat="40.374167" lon="-5.392233">
        <ele>2101.0</ele>
        <time>2013-05-12T12:47:26Z</time>
      </trkpt>
      <trkpt lat="40.374083" lon="-5.392117">
        <ele>2104.0</ele>
        <time>2013-05-12T12:47:27Z</time>
      </trkpt>
      <trkpt lat="40.373967" lon="-5.392033">
        <ele>2107.0</ele>
        <time>2013-05-12T12:47:28Z</time>
      </trkpt>
      <trkpt lat="40.373867" lon="-5.391983">
        <ele>2110.0</ele>
        <time>2013-05-12T12:47:29Z</time>
      </trkpt>
      <trkpt lat="40.373750" lon="-5.391967">
        <ele>2111.0</ele>
        <time>2013-05-12T12:47:30Z</time>
      </trkpt>
      <trkpt lat="40.373633" lon="-5.391950">
        <ele>2113.0</ele>
        <time>2013-05-12T12:47:31Z</time>
      </trkpt>
      <trkpt lat="40.373517" lon="-5.391983">
        <ele>2115.0</ele>
        <time>2013-05-12T12:47:32Z</time>
      </trkpt>
      <trkpt lat="40.373417" lon="-5.392050">
        <ele>2116.0</ele>
        <time>2013-05-12T12:47:33Z</time>
      </trkpt>
      <trkpt lat="40.373367" lon="-5.392117">
        <ele>2119.0</ele>
        <time>2013-05-12T12:47:34Z</time>
      </trkpt>
      <trkpt lat="40.373317" lon="-5.392200">
        <ele>2123.0</ele>
        <time>2013-05-12T12:47:35Z</time>
      </trkpt>
      <trkpt lat="40.373283" lon="-5.392250">
        <ele>2126.0</ele>
        <time>2013-05-12T12:47:36Z</time>
      </trkpt>
      <trkpt lat="40.373267" lon="-5.392317">
        <ele>2130.0</ele>
        <time>2013-05-12T12:47:37Z</time>
      </trkpt>
      <trkpt lat="40.373233" lon="-5.392367">
        <ele>2133.0</ele>
        <time>2013-05-12T12:47:38Z</time>
      </trkpt>
      <trkpt lat="40.373217" lon="-5.392433">
        <ele>2135.0</ele>
        <time>2013-05-12T12:47:39Z</time>
      </trkpt>
      <trkpt lat="40.373233" lon="-5.392500">
        <ele>2137.0</ele>
        <time>2013-05-12T12:47:40Z</time>
      </trkpt>
      <trkpt lat="40.373267" lon="-5.392533">
        <ele>2140.0</ele>
        <time>2013-05-12T12:47:41Z</time>
      </trkpt>
      <trkpt lat="40.373283" lon="-5.392550">
        <ele>2143.0</ele>
        <time>2013-05-12T12:47:42Z</time>
      </trkpt>
      <trkpt lat="40.373317" lon="-5.392550">
        <ele>2146.0</ele>
        <time>2013-05-12T12:47:43Z</time>
      </trkpt>
      <trkpt lat="40.373350" lon="-5.392533">
        <ele>2149.0</ele>
        <time>2013-05-12T12:47:44Z</time>
      </trkpt>
      <trkpt lat="40.373383" lon="-5.392483">
        <ele>2152.0</ele>
        <time>2013-05-12T12:47:45Z</time>
      </trkpt>
      <trkpt lat="40.373417" lon="-5.392400">
        <ele>2153.0</ele>
        <time>2013-05-12T12:47:46Z</time>
      </trkpt>
      <trkpt lat="40.373433" lon="-5.392283">
        <ele>2155.0</ele>
        <time>2013-05-12T12:47:47Z</time>
      </trkpt>
      <trkpt lat="40.373433" lon="-5.392117">
        <ele>2158.0</ele>
        <time>2013-05-12T12:47:48Z</time>
      </trkpt>
      <trkpt lat="40.373417" lon="-5.391967">
        <ele>2162.0</ele>
        <time>2013-05-12T12:47:49Z</time>
      </trkpt>
      <trkpt lat="40.373400" lon="-5.391817">
        <ele>2166.0</ele>
        <time>2013-05-12T12:47:50Z</time>
      </trkpt>
      <trkpt lat="40.373367" lon="-5.391683">
        <ele>2170.0</ele>
        <time>2013-05-12T12:47:51Z</time>
      </trkpt>
      <trkpt lat="40.373350" lon="-5.391567">
        <ele>2172.0</ele>
        <time>2013-05-12T12:47:52Z</time>
      </trkpt>
      <trkpt lat="40.373317" lon="-5.391433">
        <ele>2174.0</ele>
        <time>2013-05-12T12:47:53Z</time>
      </trkpt>
      <trkpt lat="40.373267" lon="-5.391283">
        <ele>2175.0</ele>
        <time>2013-05-12T12:47:54Z</time>
      </trkpt>
      <trkpt lat="40.373217" lon="-5.391133">
        <ele>2177.0</ele>
        <time>2013-05-12T12:47:55Z</time>
      </trkpt>
      <trkpt lat="40.373117" lon="-5.391000">
        <ele>2180.0</ele>
        <time>2013-05-12T12:47:56Z</time>
      </trkpt>
      <trkpt lat="40.373017" lon="-5.390883">
        <ele>2184.0</ele>
        <time>2013-05-12T12:47:57Z</time>
      </trkpt>
      <trkpt lat="40.372883" lon="-5.390817">
        <ele>2188.0</ele>
        <time>2013-05-12T12:47:58Z</time>
      </trkpt>
      <trkpt lat="40.372767" lon="-5.390800">
        <ele>2191.0</ele>
        <time>2013-05-12T12:47:59Z</time>
      </trkpt>
      <trkpt lat="40.372650" lon="-5.390800">
        <ele>2193.0</ele>
        <time>2013-05-12T12:48:00Z</time>
      </trkpt>
      <trkpt lat="40.372550" lon="-5.390833">
        <ele>2195.0</ele>
        <time>2013-05-12T12:48:01Z</time>
      </trkpt>
      <trkpt lat="40.372450" lon="-5.390883">
        <ele>2197.0</ele>
        <time>2013-05-12T12:48:02Z</time>
      </trkpt>
      <trkpt lat="40.372400" lon="-5.390967">
        <ele>2199.0</ele>
        <time>2013-05-12T12:48:03Z</time>
      </trkpt>
      <trkpt lat="40.372350" lon="-5.391050">
        <ele>2202.0</ele>
        <time>2013-05-12T12:48:04Z</time>
      </trkpt>
      <trkpt lat="40.372333" lon="-5.391117">
        <ele>2206.0</ele>
        <time>2013-05-12T12:48:05Z</time>
      </trkpt>
      <trkpt lat="40.372317" lon="-5.391183">
        <ele>2210.0</ele>
        <time>2013-05-12T12:48:06Z</time>
      </trkpt>
      <trkpt lat="40.372317" lon="-5.391217">
        <ele>2212.0</ele>
        <time>2013-05-12T12:48:07Z</time>
      </trkpt>
      <trkpt lat="40.372300" lon="-5.391250">
        <ele>2214.0</ele>
        <time>2013-05-12T12:48:08Z</time>
      </trkpt>
      <trkpt lat="40.372300" lon="-5.391300">
        <ele>2215.0</ele>
        <time>2013-05-12T12:48:09Z</time>
      </trkpt>
      <trkpt lat="40.372317" lon="-5.391350">
        <ele>2217.0</ele>
        <time>2013-05-12T12:48:10Z</time>
      </trkpt>
      <trkpt lat="40.372350" lon="-5.391383">
        <ele>2220.0</ele>
        <time>2013-05-12T12:48:11Z</time>
      </trkpt>
      <trkpt lat="40.372383" lon="-5.391400">
        <ele>2225.0</ele>
        <time>2013-05-12T12:48:12Z</time>
      </trkpt>
      <trkpt lat="40.372400" lon="-5.391383">
        <ele>2229.0</ele>
        <time>2013-05-12T12:48:13Z</time>
      </trkpt>
      <trkpt lat="40.372417" lon="-5.391333">
        <ele>2232.0</ele>
        <time>2013-05-12T12:48:14Z</time>
      </trkpt>
      <trkpt lat="40.372417" lon="-5.391283">
        <ele>2235.0</ele>
        <time>2013-05-12T12:48:15Z</time>
      </trkpt>
      <trkpt lat="40.372433" lon="-5.391217">
        <ele>2236.0</ele>
        <time>2013-05-12T12:48:16Z</time>
      </trkpt>
      <trkpt lat="40.372450" lon="-5.391133">
        <ele>2236.0</ele>
        <time>2013-05-12T12:48:17Z</time>
      </trkpt>
      <trkpt lat="40.372450" lon="-5.391017">
        <ele>2238.0</ele>
        <time>2013-05-12T12:48:18Z</time>
      </trkpt>
      <trkpt lat="40.372450" lon="-5.390883">
        <ele>2240.0</ele>
        <time>2013-05-12T12:48:19Z</time>
      </trkpt>
      <trkpt lat="40.372433" lon="-5.390767">
        <ele>2243.0</ele>
        <time>2013-05-12T12:48:20Z</time>
      </trkpt>
      <trkpt lat="40.372400" lon="-5.390650">
        <ele>2246.0</ele>
        <time>2013-05-12T12:48:21Z</time>
      </trkpt>
      <trkpt lat="40.372367" lon="-5.390533">
        <ele>2248.0</ele>
        <time>2013-05-12T12:48:22Z</time>
      </trkpt>
      <trkpt lat="40.372283" lon="-5.390400">
        <ele>2249.0</ele>
        <time>2013-05-12T12:48:23Z</time>
      </trkpt>
      <trkpt lat="40.372183" lon="-5.390283">
        <ele>2249.0</ele>
        <time>2013-05-12T12:48:24Z</time>
      </trkpt>
      <trkpt lat="40.372067" lon="-5.390167">
        <ele>2251.0</ele>
        <time>2013-05-12T12:48:25Z</time>
      </trkpt>
      <trkpt lat="40.371933" lon="-5.390100">
        <ele>2254.0</ele>
        <time>2013-05-12T12:48:26Z</time>
      </trkpt>
      <trkpt lat="40.371800" lon="-5.390083">
        <ele>2256.0</ele>
        <time>2013-05-12T12:48:27Z</time>
      </trkpt>
      <trkpt lat="40.371683" lon="-5.390100">
        <ele>2258.0</ele>
        <time>2013-05-12T12:48:28Z</time>
      </trkpt>
      <trkpt lat="40.371583" lon="-5.390167">
        <ele>2260.0</ele>
        <time>2013-05-12T12:48:29Z</time>
      </trkpt>
      <trkpt lat="40.371517" lon="-5.390233">
        <ele>2263.0</ele>
        <time>2013-05-12T12:48:30Z</time>
      </trkpt>
      <trkpt lat="40.371450" lon="-5.390317">
        <ele>2266.0</ele>
        <time>2013-05-12T12:48:31Z</time>
      </trkpt>
      <trkpt lat="40.371400" lon="-5.390383">
        <ele>2269.0</ele>
        <time>2013-05-12T12:48:32Z</time>
      </trkpt>
      <trkpt lat="40.371367" lon="-5.390450">
        <ele>2271.0</ele>
        <time>2013-05-12T12:48:33Z</time>
      </trkpt>
      <trkpt lat="40.371317" lon="-5.390500">
        <ele>2273.0</ele>
        <time>2013-05-12T12:48:34Z</time>
      </trkpt>
      <trkpt lat="40.371300" lon="-5.390567">
        <ele>2275.0</ele>
        <time>2013-05-12T12:48:35Z</time>
      </trkpt>
      <trkpt lat="40.371300" lon="-5.390617">
        <ele>2277.0</ele>
        <time>2013-05-12T12:48:36Z</time>
      </trkpt>
      <trkpt lat="40.371333" lon="-5.390667">
        <ele>2279.0</ele>
        <time>2013-05-12T12:48:37Z</time>
      </trkpt>
      <trkpt lat="40.371350" lon="-5.390683">
        <ele>2282.0</ele>
        <time>2013-05-12T12:48:38Z</time>
      </trkpt>
      <trkpt lat="40.371367" lon="-5.390683">
        <ele>2286.0</ele>
        <time>2013-05-12T12:48:39Z</time>
      </trkpt>
      <trkpt lat="40.371367" lon="-5.390683">
        <ele>2289.0</ele>
        <time>2013-05-12T12:48:40Z</time>
      </trkpt>
      <trkpt lat="40.371383" lon="-5.390667">
        <ele>2292.0</ele>
        <time>2013-05-12T12:48:41Z</time>
      </trkpt>
      <trkpt lat="40.371417" lon="-5.390633">
        <ele>2294.0</ele>
        <time>2013-05-12T12:48:42Z</time>
      </trkpt>
      <trkpt lat="40.371467" lon="-5.390583">
        <ele>2297.0</ele>
        <time>2013-05-12T12:48:43Z</time>
      </trkpt>
      <trkpt lat="40.371500" lon="-5.390517">
        <ele>2301.0</ele>
        <time>2013-05-12T12:48:44Z</time>
      </trkpt>
      <trkpt lat="40.371533" lon="-5.390433">
        <ele>2306.0</ele>
        <time>2013-05-12T12:48:45Z</time>
      </trkpt>
      <trkpt lat="40.371550" lon="-5.390333">
        <ele>2311.0</ele>
        <time>2013-05-12T12:48:46Z</time>
      </trkpt>
      <trkpt lat="40.371533" lon="-5.390217">
        <ele>2315.0</ele>
        <time>2013-05-12T12:48:47Z</time>
      </trkpt>
      <trkpt lat="40.371517" lon="-5.390083">
        <ele>2317.0</ele>
        <time>2013-05-12T12:48:48Z</time>
      </trkpt>
      <trkpt lat="40.371483" lon="-5.389950">
        <ele>2319.0</ele>
        <time>2013-05-12T12:48:49Z</time>
      </trkpt>
      <trkpt lat="40.371433" lon="-5.389800">
        <ele>2319.0</ele>
        <time>2013-05-12T12:48:50Z</time>
      </trkpt>
      <trkpt lat="40.371367" lon="-5.389667">
        <ele>2321.0</ele>
        <time>2013-05-12T12:48:51Z</time>
      </trkpt>
      <trkpt lat="40.371267" lon="-5.389550">
        <ele>2322.0</ele>
        <time>2013-05-12T12:48:52Z</time>
      </trkpt>
      <trkpt lat="40.371133" lon="-5.389483">
        <ele>2323.0</ele>
        <time>2013-05-12T12:48:53Z</time>
      </trkpt>
      <trkpt lat="40.370983" lon="-5.389467">
        <ele>2324.0</ele>
        <time>2013-05-12T12:48:54Z</time>
      </trkpt>
      <trkpt lat="40.370850" lon="-5.389483">
        <ele>2326.0</ele>
        <time>2013-05-12T12:48:55Z</time>
      </trkpt>
      <trkpt lat="40.370733" lon="-5.389533">
        <ele>2328.0</ele>
        <time>2013-05-12T12:48:56Z</time>
      </trkpt>
      <trkpt lat="40.370633" lon="-5.389583">
        <ele>2331.0</ele>
        <time>2013-05-12T12:48:57Z</time>
      </trkpt>
      <trkpt lat="40.370550" lon="-5.389650">
        <ele>2332.0</ele>
        <time>2013-05-12T12:48:58Z</time>
      </trkpt>
      <trkpt lat="40.370467" lon="-5.389717">
        <ele>2333.0</ele>
        <time>2013-05-12T12:48:59Z</time>
      </trkpt>
      <trkpt lat="40.370400" lon="-5.389800">
        <ele>2332.0</ele>
        <time>2013-05-12T12:49:00Z</time>
      </trkpt>
      <trkpt lat="40.370333" lon="-5.389917">
        <ele>2332.0</ele>
        <time>2013-05-12T12:49:01Z</time>
      </trkpt>
      <trkpt lat="40.370283" lon="-5.390033">
        <ele>2333.0</ele>
        <time>2013-05-12T12:49:02Z</time>
      </trkpt>
      <trkpt lat="40.370250" lon="-5.390150">
        <ele>2336.0</ele>
        <time>2013-05-12T12:49:03Z</time>
      </trkpt>
      <trkpt lat="40.370200" lon="-5.390250">
        <ele>2341.0</ele>
        <time>2013-05-12T12:49:04Z</time>
      </trkpt>
      <trkpt lat="40.370167" lon="-5.390333">
        <ele>2346.0</ele>
        <time>2013-05-12T12:49:05Z</time>
      </trkpt>
      <trkpt lat="40.370133" lon="-5.390400">
        <ele>2350.0</ele>
        <time>2013-05-12T12:49:06Z</time>
      </trkpt>
      <trkpt lat="40.370117" lon="-5.390467">
        <ele>2352.0</ele>
        <time>2013-05-12T12:49:07Z</time>
      </trkpt>
      <trkpt lat="40.370117" lon="-5.390533">
        <ele>2352.0</ele>
        <time>2013-05-12T12:49:08Z</time>
      </trkpt>
      <trkpt lat="40.370117" lon="-5.390600">
        <ele>2352.0</ele>
        <time>2013-05-12T12:49:09Z</time>
      </trkpt>
      <trkpt lat="40.370117" lon="-5.390650">
        <ele>2352.0</ele>
        <time>2013-05-12T12:49:10Z</time>
      </trkpt>
      <trkpt lat="40.370167" lon="-5.390683">
        <ele>2351.0</ele>
        <time>2013-05-12T12:49:11Z</time>
      </trkpt>
      <trkpt lat="40.370217" lon="-5.390667">
        <ele>2351.0</ele>
        <time>2013-05-12T12:49:12Z</time>
      </trkpt>
      <trkpt lat="40.370267" lon="-5.390633">
        <ele>2353.0</ele>
        <time>2013-05-12T12:49:13Z</time>
      </trkpt>
      <trkpt lat="40.370317" lon="-5.390600">
        <ele>2356.0</ele>
        <time>2013-05-12T12:49:14Z</time>
      </trkpt>
      <trkpt lat="40.370350" lon="-5.390550">
        <ele>2360.0</ele>
        <time>2013-05-12T12:49:15Z</time>
      </trkpt>
      <trkpt lat="40.370383" lon="-5.390500">
        <ele>2362.0</ele>
        <time>2013-05-12T12:49:16Z</time>
      </trkpt>
      <trkpt lat="40.370417" lon="-5.390417">
        <ele>2364.0</ele>
        <time>2013-05-12T12:49:17Z</time>
      </trkpt>
      <trkpt lat="40.370450" lon="-5.390317">
        <ele>2366.0</ele>
        <time>2013-05-12T12:49:18Z</time>
      </trkpt>
      <trkpt lat="40.370483" lon="-5.390183">
        <ele>2368.0</ele>
        <time>2013-05-12T12:49:19Z</time>
      </trkpt>
      <trkpt lat="40.370483" lon="-5.390033">
        <ele>2372.0</ele>
        <time>2013-05-12T12:49:20Z</time>
      </trkpt>
      <trkpt lat="40.370467" lon="-5.389883">
        <ele>2376.0</ele>
        <time>2013-05-12T12:49:21Z</time>
      </trkpt>
      <trkpt lat="40.370433" lon="-5.389750">
        <ele>2379.0</ele>
        <time>2013-05-12T12:49:22Z</time>
      </trkpt>
      <trkpt lat="40.370383" lon="-5.389633">
        <ele>2382.0</ele>
        <time>2013-05-12T12:49:23Z</time>
      </trkpt>
      <trkpt lat="40.370300" lon="-5.389500">
        <ele>2384.0</ele>
        <time>2013-05-12T12:49:24Z</time>
      </trkpt>
      <trkpt lat="40.370183" lon="-5.389367">
        <ele>2386.0</ele>
        <time>2013-05-12T12:49:25Z</time>
      </trkpt>
      <trkpt lat="40.370050" lon="-5.389283">
        <ele>2389.0</ele>
        <time>2013-05-12T12:49:26Z</time>
      </trkpt>
      <trkpt lat="40.369900" lon="-5.389233">
        <ele>2393.0</ele>
        <time>2013-05-12T12:49:27Z</time>
      </trkpt>
      <trkpt lat="40.369767" lon="-5.389250">
        <ele>2396.0</ele>
        <time>2013-05-12T12:49:28Z</time>
      </trkpt>
      <trkpt lat="40.369667" lon="-5.389300">
        <ele>2398.0</ele>
        <time>2013-05-12T12:49:29Z</time>
      </trkpt>
      <trkpt lat="40.369567" lon="-5.389367">
        <ele>2400.0</ele>
        <time>2013-05-12T12:49:30Z</time>
      </trkpt>
      <trkpt lat="40.369483" lon="-5.389417">
        <ele>2401.0</ele>
        <time>2013-05-12T12:49:31Z</time>
      </trkpt>
      <trkpt lat="40.369367" lon="-5.389483">
        <ele>2402.0</ele>
        <time>2013-05-12T12:49:32Z</time>
      </trkpt>
      <trkpt lat="40.369267" lon="-5.389550">
        <ele>2403.0</ele>
        <time>2013-05-12T12:49:33Z</time>
      </trkpt>
      <trkpt lat="40.369167" lon="-5.389633">
        <ele>2405.0</ele>
        <time>2013-05-12T12:49:34Z</time>
      </trkpt>
      <trkpt lat="40.369100" lon="-5.389750">
        <ele>2406.0</ele>
        <time>2013-05-12T12:49:35Z</time>
      </trkpt>
      <trkpt lat="40.369067" lon="-5.389867">
        <ele>2407.0</ele>
        <time>2013-05-12T12:49:36Z</time>
      </trkpt>
      <trkpt lat="40.369067" lon="-5.389967">
        <ele>2409.0</ele>
        <time>2013-05-12T12:49:37Z</time>
      </trkpt>
      <trkpt lat="40.369067" lon="-5.390050">
        <ele>2413.0</ele>
        <time>2013-05-12T12:49:38Z</time>
      </trkpt>
      <trkpt lat="40.369050" lon="-5.390100">
        <ele>2415.0</ele>
        <time>2013-05-12T12:49:39Z</time>
      </trkpt>
      <trkpt lat="40.369050" lon="-5.390167">
        <ele>2416.0</ele>
        <time>2013-05-12T12:49:40Z</time>
      </trkpt>
      <trkpt lat="40.369050" lon="-5.390217">
        <ele>2416.0</ele>
        <time>2013-05-12T12:49:41Z</time>
      </trkpt>
      <trkpt lat="40.369067" lon="-5.390283">
        <ele>2415.0</ele>
        <time>2013-05-12T12:49:42Z</time>
      </trkpt>
      <trkpt lat="40.369117" lon="-5.390350">
        <ele>2414.0</ele>
        <time>2013-05-12T12:49:43Z</time>
      </trkpt>
      <trkpt lat="40.369150" lon="-5.390400">
        <ele>2414.0</ele>
        <time>2013-05-12T12:49:44Z</time>
      </trkpt>
      <trkpt lat="40.369183" lon="-5.390450">
        <ele>2414.0</ele>
        <time>2013-05-12T12:49:45Z</time>
      </trkpt>
      <trkpt lat="40.369200" lon="-5.390517">
        <ele>2414.0</ele>
        <time>2013-05-12T12:49:46Z</time>
      </trkpt>
      <trkpt lat="40.369233" lon="-5.390583">
        <ele>2414.0</ele>
        <time>2013-05-12T12:49:47Z</time>
      </trkpt>
      <trkpt lat="40.369250" lon="-5.390667">
        <ele>2413.0</ele>
        <time>2013-05-12T12:49:48Z</time>
      </trkpt>
      <trkpt lat="40.369283" lon="-5.390750">
        <ele>2413.0</ele>
        <time>2013-05-12T12:49:49Z</time>
      </trkpt>
      <trkpt lat="40.369300" lon="-5.390833">
        <ele>2413.0</ele>
        <time>2013-05-12T12:49:50Z</time>
      </trkpt>
      <trkpt lat="40.369317" lon="-5.390917">
        <ele>2414.0</ele>
        <time>2013-05-12T12:49:51Z</time>
      </trkpt>
      <trkpt lat="40.369333" lon="-5.391000">
        <ele>2415.0</ele>
        <time>2013-05-12T12:49:52Z</time>
      </trkpt>
      <trkpt lat="40.369350" lon="-5.391083">
        <ele>2416.0</ele>
        <time>2013-05-12T12:49:53Z</time>
      </trkpt>
      <trkpt lat="40.369367" lon="-5.391167">
        <ele>2417.0</ele>
        <time>2013-05-12T12:49:54Z</time>
      </trkpt>
      <trkpt lat="40.369383" lon="-5.391250">
        <ele>2418.0</ele>
        <time>2013-05-12T12:49:55Z</time>
      </trkpt>
      <trkpt lat="40.369400" lon="-5.391317">
        <ele>2419.0</ele>
        <time>2013-05-12T12:49:56Z</time>
      </trkpt>
      <trkpt lat="40.369417" lon="-5.391383">
        <ele>2419.0</ele>
        <time>2013-05-12T12:49:57Z</time>
      </trkpt>
      <trkpt lat="40.369433" lon="-5.391433">
        <ele>2419.0</ele>
        <time>2013-05-12T12:49:58Z</time>
      </trkpt>
      <trkpt lat="40.369467" lon="-5.391517">
        <ele>2418.0</ele>
        <time>2013-05-12T12:49:59Z</time>
      </trkpt>
      <trkpt lat="40.369483" lon="-5.391600">
        <ele>2418.0</ele>
        <time>2013-05-12T12:50:00Z</time>
      </trkpt>
      <trkpt lat="40.369500" lon="-5.391700">
        <ele>2418.0</ele>
        <time>2013-05-12T12:50:01Z</time>
      </trkpt>
      <trkpt lat="40.369500" lon="-5.391800">
        <ele>2418.0</ele>
        <time>2013-05-12T12:50:02Z</time>
      </trkpt>
      <trkpt lat="40.369517" lon="-5.391883">
        <ele>2419.0</ele>
        <time>2013-05-12T12:50:03Z</time>
      </trkpt>
      <trkpt lat="40.369533" lon="-5.391967">
        <ele>2419.0</ele>
        <time>2013-05-12T12:50:04Z</time>
      </trkpt>
      <trkpt lat="40.369550" lon="-5.392050">
        <ele>2420.0</ele>
        <time>2013-05-12T12:50:05Z</time>
      </trkpt>
      <trkpt lat="40.369567" lon="-5.392133">
        <ele>2421.0</ele>
        <time>2013-05-12T12:50:06Z</time>
      </trkpt>
      <trkpt lat="40.369550" lon="-5.392217">
        <ele>2421.0</ele>
        <time>2013-05-12T12:50:07Z</time>
      </trkpt>
      <trkpt lat="40.369550" lon="-5.392300">
        <ele>2422.0</ele>
        <time>2013-05-12T12:50:08Z</time>
      </trkpt>
      <trkpt lat="40.369550" lon="-5.392367">
        <ele>2422.0</ele>
        <time>2013-05-12T12:50:09Z</time>
      </trkpt>
      <trkpt lat="40.369550" lon="-5.392417">
        <ele>2421.0</ele>
        <time>2013-05-12T12:50:10Z</time>
      </trkpt>
      <trkpt lat="40.369567" lon="-5.392483">
        <ele>2420.0</ele>
        <time>2013-05-12T12:50:11Z</time>
      </trkpt>
      <trkpt lat="40.369567" lon="-5.392533">
        <ele>2419.0</ele>
        <time>2013-05-12T12:50:12Z</time>
      </trkpt>
      <trkpt lat="40.369567" lon="-5.392600">
        <ele>2419.0</ele>
        <time>2013-05-12T12:50:13Z</time>
      </trkpt>
      <trkpt lat="40.369567" lon="-5.392650">
        <ele>2418.0</ele>
        <time>2013-05-12T12:50:14Z</time>
      </trkpt>
      <trkpt lat="40.369583" lon="-5.392700">
        <ele>2416.0</ele>
        <time>2013-05-12T12:50:15Z</time>
      </trkpt>
      <trkpt lat="40.369617" lon="-5.392750">
        <ele>2414.0</ele>
        <time>2013-05-12T12:50:16Z</time>
      </trkpt>
      <trkpt lat="40.369633" lon="-5.392800">
        <ele>2412.0</ele>
        <time>2013-05-12T12:50:17Z</time>
      </trkpt>
      <trkpt lat="40.369667" lon="-5.392850">
        <ele>2411.0</ele>
        <time>2013-05-12T12:50:18Z</time>
      </trkpt>
      <trkpt lat="40.369683" lon="-5.392883">
        <ele>2409.0</ele>
        <time>2013-05-12T12:50:19Z</time>
      </trkpt>
      <trkpt lat="40.369700" lon="-5.392933">
        <ele>2406.0</ele>
        <time>2013-05-12T12:50:20Z</time>
      </trkpt>
      <trkpt lat="40.369700" lon="-5.393000">
        <ele>2404.0</ele>
        <time>2013-05-12T12:50:21Z</time>
      </trkpt>
      <trkpt lat="40.369700" lon="-5.393050">
        <ele>2401.0</ele>
        <time>2013-05-12T12:50:22Z</time>
      </trkpt>
      <trkpt lat="40.369700" lon="-5.393100">
        <ele>2399.0</ele>
        <time>2013-05-12T12:50:23Z</time>
      </trkpt>
      <trkpt lat="40.369700" lon="-5.393167">
        <ele>2396.0</ele>
        <time>2013-05-12T12:50:24Z</time>
      </trkpt>
      <trkpt lat="40.369700" lon="-5.393233">
        <ele>2394.0</ele>
        <time>2013-05-12T12:50:25Z</time>
      </trkpt>
      <trkpt lat="40.369683" lon="-5.393300">
        <ele>2393.0</ele>
        <time>2013-05-12T12:50:26Z</time>
      </trkpt>
      <trkpt lat="40.369667" lon="-5.393367">
        <ele>2392.0</ele>
        <time>2013-05-12T12:50:27Z</time>
      </trkpt>
      <trkpt lat="40.369650" lon="-5.393433">
        <ele>2392.0</ele>
        <time>2013-05-12T12:50:28Z</time>
      </trkpt>
      <trkpt lat="40.369633" lon="-5.393483">
        <ele>2391.0</ele>
        <time>2013-05-12T12:50:29Z</time>
      </trkpt>
      <trkpt lat="40.369617" lon="-5.393533">
        <ele>2390.0</ele>
        <time>2013-05-12T12:50:30Z</time>
      </trkpt>
      <trkpt lat="40.369600" lon="-5.393583">
        <ele>2388.0</ele>
        <time>2013-05-12T12:50:31Z</time>
      </trkpt>
      <trkpt lat="40.369583" lon="-5.393650">
        <ele>2385.0</ele>
        <time>2013-05-12T12:50:32Z</time>
      </trkpt>
      <trkpt lat="40.369567" lon="-5.393700">
        <ele>2383.0</ele>
        <time>2013-05-12T12:50:33Z</time>
      </trkpt>
      <trkpt lat="40.369567" lon="-5.393767">
        <ele>2381.0</ele>
        <time>2013-05-12T12:50:34Z</time>
      </trkpt>
      <trkpt lat="40.369550" lon="-5.393817">
        <ele>2379.0</ele>
        <time>2013-05-12T12:50:35Z</time>
      </trkpt>
      <trkpt lat="40.369550" lon="-5.393867">
        <ele>2377.0</ele>
        <time>2013-05-12T12:50:36Z</time>
      </trkpt>
      <trkpt lat="40.369533" lon="-5.393933">
        <ele>2376.0</ele>
        <time>2013-05-12T12:50:37Z</time>
      </trkpt>
      <trkpt lat="40.369550" lon="-5.393983">
        <ele>2374.0</ele>
        <time>2013-05-12T12:50:38Z</time>
      </trkpt>
      <trkpt lat="40.369550" lon="-5.394033">
        <ele>2372.0</ele>
        <time>2013-05-12T12:50:39Z</time>
      </trkpt>
      <trkpt lat="40.369550" lon="-5.394100">
        <ele>2371.0</ele>
        <time>2013-05-12T12:50:40Z</time>
      </trkpt>
      <trkpt lat="40.369550" lon="-5.394150">
        <ele>2370.0</ele>
        <time>2013-05-12T12:50:41Z</time>
      </trkpt>
      <trkpt lat="40.369567" lon="-5.394200">
        <ele>2369.0</ele>
        <time>2013-05-12T12:50:42Z</time>
      </trkpt>
      <trkpt lat="40.369567" lon="-5.394267">
        <ele>2368.0</ele>
        <time>2013-05-12T12:50:43Z</time>
      </trkpt>
      <trkpt lat="40.369583" lon="-5.394333">
        <ele>2367.0</ele>
        <time>2013-05-12T12:50:44Z</time>
      </trkpt>
      <trkpt lat="40.369600" lon="-5.394400">
        <ele>2367.0</ele>
        <time>2013-05-12T12:50:45Z</time>
      </trkpt>
      <trkpt lat="40.369600" lon="-5.394450">
        <ele>2367.0</ele>
        <time>2013-05-12T12:50:46Z</time>
      </trkpt>
      <trkpt lat="40.369600" lon="-5.394500">
        <ele>2367.0</ele>
        <time>2013-05-12T12:50:47Z</time>
      </trkpt>
      <trkpt lat="40.369600" lon="-5.394550">
        <ele>2366.0</ele>
        <time>2013-05-12T12:50:48Z</time>
      </trkpt>
      <trkpt lat="40.369600" lon="-5.394617">
        <ele>2365.0</ele>
        <time>2013-05-12T12:50:49Z</time>
      </trkpt>
      <trkpt lat="40.369600" lon="-5.394667">
        <ele>2363.0</ele>
        <time>2013-05-12T12:50:50Z</time>
      </trkpt>
      <trkpt lat="40.369600" lon="-5.394733">
        <ele>2361.0</ele>
        <time>2013-05-12T12:50:51Z</time>
      </trkpt>
      <trkpt lat="40.369600" lon="-5.394800">
        <ele>2360.0</ele>
        <time>2013-05-12T12:50:52Z</time>
      </trkpt>
      <trkpt lat="40.369617" lon="-5.394883">
        <ele>2358.0</ele>
        <time>2013-05-12T12:50:53Z</time>
      </trkpt>
      <trkpt lat="40.369617" lon="-5.394950">
        <ele>2357.0</ele>
        <time>2013-05-12T12:50:54Z</time>
      </trkpt>
      <trkpt lat="40.369617" lon="-5.395033">
        <ele>2355.0</ele>
        <time>2013-05-12T12:50:55Z</time>
      </trkpt>
      <trkpt lat="40.369600" lon="-5.395100">
        <ele>2354.0</ele>
        <time>2013-05-12T12:50:56Z</time>
      </trkpt>
      <trkpt lat="40.369583" lon="-5.395183">
        <ele>2353.0</ele>
        <time>2013-05-12T12:50:57Z</time>
      </trkpt>
      <trkpt lat="40.369583" lon="-5.395250">
        <ele>2351.0</ele>
        <time>2013-05-12T12:50:58Z</time>
      </trkpt>
      <trkpt lat="40.369583" lon="-5.395300">
        <ele>2349.0</ele>
        <time>2013-05-12T12:50:59Z</time>
      </trkpt>
      <trkpt lat="40.369583" lon="-5.395367">
        <ele>2347.0</ele>
        <time>2013-05-12T12:51:00Z</time>
      </trkpt>
      <trkpt lat="40.369600" lon="-5.395450">
        <ele>2345.0</ele>
        <time>2013-05-12T12:51:01Z</time>
      </trkpt>
      <trkpt lat="40.369617" lon="-5.395533">
        <ele>2343.0</ele>
        <time>2013-05-12T12:51:02Z</time>
      </trkpt>
      <trkpt lat="40.369617" lon="-5.395617">
        <ele>2342.0</ele>
        <time>2013-05-12T12:51:03Z</time>
      </trkpt>
      <trkpt lat="40.369633" lon="-5.395700">
        <ele>2341.0</ele>
        <time>2013-05-12T12:51:04Z</time>
      </trkpt>
      <trkpt lat="40.369650" lon="-5.395767">
        <ele>2339.0</ele>
        <time>2013-05-12T12:51:05Z</time>
      </trkpt>
      <trkpt lat="40.369667" lon="-5.395850">
        <ele>2337.0</ele>
        <time>2013-05-12T12:51:06Z</time>
      </trkpt>
      <trkpt lat="40.369683" lon="-5.395933">
        <ele>2335.0</ele>
        <time>2013-05-12T12:51:07Z</time>
      </trkpt>
      <trkpt lat="40.369683" lon="-5.396017">
        <ele>2333.0</ele>
        <time>2013-05-12T12:51:08Z</time>
      </trkpt>
      <trkpt lat="40.369700" lon="-5.396100">
        <ele>2331.0</ele>
        <time>2013-05-12T12:51:09Z</time>
      </trkpt>
      <trkpt lat="40.369717" lon="-5.396183">
        <ele>2329.0</ele>
        <time>2013-05-12T12:51:10Z</time>
      </trkpt>
      <trkpt lat="40.369717" lon="-5.396267">
        <ele>2328.0</ele>
        <time>2013-05-12T12:51:11Z</time>
      </trkpt>
      <trkpt lat="40.369733" lon="-5.396367">
        <ele>2326.0</ele>
        <time>2013-05-12T12:51:12Z</time>
      </trkpt>
      <trkpt lat="40.369750" lon="-5.396467">
        <ele>2324.0</ele>
        <time>2013-05-12T12:51:13Z</time>
      </trkpt>
      <trkpt lat="40.369767" lon="-5.396550">
        <ele>2323.0</ele>
        <time>2013-05-12T12:51:14Z</time>
      </trkpt>
      <trkpt lat="40.369783" lon="-5.396650">
        <ele>2322.0</ele>
        <time>2013-05-12T12:51:15Z</time>
      </trkpt>
      <trkpt lat="40.369783" lon="-5.396750">
        <ele>2322.0</ele>
        <time>2013-05-12T12:51:16Z</time>
      </trkpt>
      <trkpt lat="40.369800" lon="-5.396867">
        <ele>2322.0</ele>
        <time>2013-05-12T12:51:17Z</time>
      </trkpt>
      <trkpt lat="40.369800" lon="-5.396967">
        <ele>2321.0</ele>
        <time>2013-05-12T12:51:18Z</time>
      </trkpt>
      <trkpt lat="40.369817" lon="-5.397083">
        <ele>2322.0</ele>
        <time>2013-05-12T12:51:19Z</time>
      </trkpt>
      <trkpt lat="40.369817" lon="-5.397183">
        <ele>2323.0</ele>
        <time>2013-05-12T12:51:20Z</time>
      </trkpt>
      <trkpt lat="40.369817" lon="-5.397300">
        <ele>2325.0</ele>
        <time>2013-05-12T12:51:21Z</time>
      </trkpt>
      <trkpt lat="40.369817" lon="-5.397400">
        <ele>2327.0</ele>
        <time>2013-05-12T12:51:22Z</time>
      </trkpt>
      <trkpt lat="40.369817" lon="-5.397483">
        <ele>2328.0</ele>
        <time>2013-05-12T12:51:23Z</time>
      </trkpt>
      <trkpt lat="40.369817" lon="-5.397567">
        <ele>2329.0</ele>
        <time>2013-05-12T12:51:24Z</time>
      </trkpt>
      <trkpt lat="40.369833" lon="-5.397650">
        <ele>2330.0</ele>
        <time>2013-05-12T12:51:25Z</time>
      </trkpt>
      <trkpt lat="40.369850" lon="-5.397717">
        <ele>2331.0</ele>
        <time>2013-05-12T12:51:26Z</time>
      </trkpt>
      <trkpt lat="40.369850" lon="-5.397800">
        <ele>2332.0</ele>
        <time>2013-05-12T12:51:27Z</time>
      </trkpt>
      <trkpt lat="40.369850" lon="-5.397867">
        <ele>2334.0</ele>
        <time>2013-05-12T12:51:28Z</time>
      </trkpt>
      <trkpt lat="40.369850" lon="-5.397933">
        <ele>2335.0</ele>
        <time>2013-05-12T12:51:29Z</time>
      </trkpt>
      <trkpt lat="40.369833" lon="-5.398000">
        <ele>2336.0</ele>
        <time>2013-05-12T12:51:30Z</time>
      </trkpt>
      <trkpt lat="40.369850" lon="-5.398083">
        <ele>2337.0</ele>
        <time>2013-05-12T12:51:31Z</time>
      </trkpt>
      <trkpt lat="40.369883" lon="-5.398150">
        <ele>2340.0</ele>
        <time>2013-05-12T12:51:32Z</time>
      </trkpt>
      <trkpt lat="40.369933" lon="-5.398200">
        <ele>2342.0</ele>
        <time>2013-05-12T12:51:33Z</time>
      </trkpt>
      <trkpt lat="40.369983" lon="-5.398200">
        <ele>2346.0</ele>
        <time>2013-05-12T12:51:34Z</time>
      </trkpt>
      <trkpt lat="40.370017" lon="-5.398200">
        <ele>2349.0</ele>
        <time>2013-05-12T12:51:35Z</time>
      </trkpt>
      <trkpt lat="40.370067" lon="-5.398167">
        <ele>2352.0</ele>
        <time>2013-05-12T12:51:36Z</time>
      </trkpt>
      <trkpt lat="40.370117" lon="-5.398117">
        <ele>2353.0</ele>
        <time>2013-05-12T12:51:37Z</time>
      </trkpt>
      <trkpt lat="40.370150" lon="-5.398067">
        <ele>2354.0</ele>
        <time>2013-05-12T12:51:38Z</time>
      </trkpt>
      <trkpt lat="40.370217" lon="-5.397983">
        <ele>2354.0</ele>
        <time>2013-05-12T12:51:39Z</time>
      </trkpt>
      <trkpt lat="40.370267" lon="-5.397867">
        <ele>2354.0</ele>
        <time>2013-05-12T12:51:40Z</time>
      </trkpt>
      <trkpt lat="40.370300" lon="-5.397767">
        <ele>2356.0</ele>
        <time>2013-05-12T12:51:41Z</time>
      </trkpt>
      <trkpt lat="40.370317" lon="-5.397667">
        <ele>2357.0</ele>
        <time>2013-05-12T12:51:42Z</time>
      </trkpt>
      <trkpt lat="40.370333" lon="-5.397583">
        <ele>2357.0</ele>
        <time>2013-05-12T12:51:43Z</time>
      </trkpt>
      <trkpt lat="40.370350" lon="-5.397483">
        <ele>2357.0</ele>
        <time>2013-05-12T12:51:44Z</time>
      </trkpt>
      <trkpt lat="40.370350" lon="-5.397367">
        <ele>2356.0</ele>
        <time>2013-05-12T12:51:45Z</time>
      </trkpt>
      <trkpt lat="40.370317" lon="-5.397250">
        <ele>2355.0</ele>
        <time>2013-05-12T12:51:46Z</time>
      </trkpt>
      <trkpt lat="40.370267" lon="-5.397133">
        <ele>2355.0</ele>
        <time>2013-05-12T12:51:47Z</time>
      </trkpt>
      <trkpt lat="40.370167" lon="-5.397050">
        <ele>2357.0</ele>
        <time>2013-05-12T12:51:48Z</time>
      </trkpt>
      <trkpt lat="40.370067" lon="-5.396983">
        <ele>2359.0</ele>
        <time>2013-05-12T12:51:49Z</time>
      </trkpt>
      <trkpt lat="40.369967" lon="-5.396967">
        <ele>2359.0</ele>
        <time>2013-05-12T12:51:50Z</time>
      </trkpt>
      <trkpt lat="40.369867" lon="-5.396967">
        <ele>2359.0</ele>
        <time>2013-05-12T12:51:51Z</time>
      </trkpt>
      <trkpt lat="40.369750" lon="-5.397000">
        <ele>2359.0</ele>
        <time>2013-05-12T12:51:52Z</time>
      </trkpt>
      <trkpt lat="40.369633" lon="-5.397033">
        <ele>2359.0</ele>
        <time>2013-05-12T12:51:53Z</time>
      </trkpt>
      <trkpt lat="40.369550" lon="-5.397083">
        <ele>2359.0</ele>
        <time>2013-05-12T12:51:54Z</time>
      </trkpt>
      <trkpt lat="40.369467" lon="-5.397167">
        <ele>2358.0</ele>
        <time>2013-05-12T12:51:55Z</time>
      </trkpt>
      <trkpt lat="40.369417" lon="-5.397267">
        <ele>2357.0</ele>
        <time>2013-05-12T12:51:56Z</time>
      </trkpt>
      <trkpt lat="40.369383" lon="-5.397383">
        <ele>2359.0</ele>
        <time>2013-05-12T12:51:57Z</time>
      </trkpt>
      <trkpt lat="40.369350" lon="-5.397483">
        <ele>2361.0</ele>
        <time>2013-05-12T12:51:58Z</time>
      </trkpt>
      <trkpt lat="40.369317" lon="-5.397567">
        <ele>2364.0</ele>
        <time>2013-05-12T12:51:59Z</time>
      </trkpt>
      <trkpt lat="40.369267" lon="-5.397667">
        <ele>2366.0</ele>
        <time>2013-05-12T12:52:00Z</time>
      </trkpt>
      <trkpt lat="40.369200" lon="-5.397767">
        <ele>2367.0</ele>
        <time>2013-05-12T12:52:01Z</time>
      </trkpt>
      <trkpt lat="40.369167" lon="-5.397867">
        <ele>2368.0</ele>
        <time>2013-05-12T12:52:02Z</time>
      </trkpt>
      <trkpt lat="40.369117" lon="-5.397950">
        <ele>2370.0</ele>
        <time>2013-05-12T12:52:03Z</time>
      </trkpt>
      <trkpt lat="40.369083" lon="-5.398050">
        <ele>2372.0</ele>
        <time>2013-05-12T12:52:04Z</time>
      </trkpt>
      <trkpt lat="40.369033" lon="-5.398133">
        <ele>2374.0</ele>
        <time>2013-05-12T12:52:05Z</time>
      </trkpt>
      <trkpt lat="40.369000" lon="-5.398217">
        <ele>2376.0</ele>
        <time>2013-05-12T12:52:06Z</time>
      </trkpt>
      <trkpt lat="40.368983" lon="-5.398300">
        <ele>2378.0</ele>
        <time>2013-05-12T12:52:07Z</time>
      </trkpt>
      <trkpt lat="40.368967" lon="-5.398367">
        <ele>2380.0</ele>
        <time>2013-05-12T12:52:08Z</time>
      </trkpt>
      <trkpt lat="40.368950" lon="-5.398433">
        <ele>2383.0</ele>
        <time>2013-05-12T12:52:09Z</time>
      </trkpt>
      <trkpt lat="40.368933" lon="-5.398500">
        <ele>2385.0</ele>
        <time>2013-05-12T12:52:10Z</time>
      </trkpt>
      <trkpt lat="40.368933" lon="-5.398550">
        <ele>2387.0</ele>
        <time>2013-05-12T12:52:11Z</time>
      </trkpt>
      <trkpt lat="40.368917" lon="-5.398600">
        <ele>2388.0</ele>
        <time>2013-05-12T12:52:12Z</time>
      </trkpt>
      <trkpt lat="40.368917" lon="-5.398667">
        <ele>2390.0</ele>
        <time>2013-05-12T12:52:13Z</time>
      </trkpt>
      <trkpt lat="40.368933" lon="-5.398733">
        <ele>2391.0</ele>
        <time>2013-05-12T12:52:14Z</time>
      </trkpt>
      <trkpt lat="40.368950" lon="-5.398800">
        <ele>2393.0</ele>
        <time>2013-05-12T12:52:15Z</time>
      </trkpt>
      <trkpt lat="40.368967" lon="-5.398867">
        <ele>2396.0</ele>
        <time>2013-05-12T12:52:16Z</time>
      </trkpt>
      <trkpt lat="40.368983" lon="-5.398917">
        <ele>2400.0</ele>
        <time>2013-05-12T12:52:17Z</time>
      </trkpt>
      <trkpt lat="40.369000" lon="-5.398967">
        <ele>2403.0</ele>
        <time>2013-05-12T12:52:18Z</time>
      </trkpt>
      <trkpt lat="40.369000" lon="-5.399017">
        <ele>2405.0</ele>
        <time>2013-05-12T12:52:19Z</time>
      </trkpt>
      <trkpt lat="40.369000" lon="-5.399083">
        <ele>2408.0</ele>
        <time>2013-05-12T12:52:20Z</time>
      </trkpt>
      <trkpt lat="40.369000" lon="-5.399183">
        <ele>2410.0</ele>
        <time>2013-05-12T12:52:21Z</time>
      </trkpt>
      <trkpt lat="40.369000" lon="-5.399250">
        <ele>2412.0</ele>
        <time>2013-05-12T12:52:22Z</time>
      </trkpt>
      <trkpt lat="40.369017" lon="-5.399317">
        <ele>2415.0</ele>
        <time>2013-05-12T12:52:23Z</time>
      </trkpt>
      <trkpt lat="40.369050" lon="-5.399350">
        <ele>2417.0</ele>
        <time>2013-05-12T12:52:24Z</time>
      </trkpt>
      <trkpt lat="40.369100" lon="-5.399367">
        <ele>2418.0</ele>
        <time>2013-05-12T12:52:25Z</time>
      </trkpt>
      <trkpt lat="40.369167" lon="-5.399383">
        <ele>2419.0</ele>
        <time>2013-05-12T12:52:26Z</time>
      </trkpt>
      <trkpt lat="40.369250" lon="-5.399417">
        <ele>2420.0</ele>
        <time>2013-05-12T12:52:27Z</time>
      </trkpt>
      <trkpt lat="40.369317" lon="-5.399450">
        <ele>2422.0</ele>
        <time>2013-05-12T12:52:28Z</time>
      </trkpt>
      <trkpt lat="40.369367" lon="-5.399500">
        <ele>2425.0</ele>
        <time>2013-05-12T12:52:29Z</time>
      </trkpt>
      <trkpt lat="40.369400" lon="-5.399533">
        <ele>2426.0</ele>
        <time>2013-05-12T12:52:30Z</time>
      </trkpt>
      <trkpt lat="40.369417" lon="-5.399550">
        <ele>2428.0</ele>
        <time>2013-05-12T12:52:31Z</time>
      </trkpt>
      <trkpt lat="40.369450" lon="-5.399583">
        <ele>2428.0</ele>
        <time>2013-05-12T12:52:32Z</time>
      </trkpt>
      <trkpt lat="40.369467" lon="-5.399633">
        <ele>2427.0</ele>
        <time>2013-05-12T12:52:33Z</time>
      </trkpt>
      <trkpt lat="40.369483" lon="-5.399683">
        <ele>2426.0</ele>
        <time>2013-05-12T12:52:34Z</time>
      </trkpt>
      <trkpt lat="40.369500" lon="-5.399750">
        <ele>2425.0</ele>
        <time>2013-05-12T12:52:35Z</time>
      </trkpt>
      <trkpt lat="40.369483" lon="-5.399817">
        <ele>2425.0</ele>
        <time>2013-05-12T12:52:36Z</time>
      </trkpt>
      <trkpt lat="40.369467" lon="-5.399883">
        <ele>2426.0</ele>
        <time>2013-05-12T12:52:37Z</time>
      </trkpt>
      <trkpt lat="40.369450" lon="-5.399933">
        <ele>2426.0</ele>
        <time>2013-05-12T12:52:38Z</time>
      </trkpt>
      <trkpt lat="40.369433" lon="-5.400000">
        <ele>2427.0</ele>
        <time>2013-05-12T12:52:39Z</time>
      </trkpt>
      <trkpt lat="40.369417" lon="-5.400067">
        <ele>2427.0</ele>
        <time>2013-05-12T12:52:40Z</time>
      </trkpt>
      <trkpt lat="40.369400" lon="-5.400167">
        <ele>2428.0</ele>
        <time>2013-05-12T12:52:41Z</time>
      </trkpt>
      <trkpt lat="40.369400" lon="-5.400250">
        <ele>2429.0</ele>
        <time>2013-05-12T12:52:42Z</time>
      </trkpt>
      <trkpt lat="40.369417" lon="-5.400333">
        <ele>2430.0</ele>
        <time>2013-05-12T12:52:43Z</time>
      </trkpt>
      <trkpt lat="40.369417" lon="-5.400417">
        <ele>2432.0</ele>
        <time>2013-05-12T12:52:44Z</time>
      </trkpt>
      <trkpt lat="40.369433" lon="-5.400500">
        <ele>2433.0</ele>
        <time>2013-05-12T12:52:45Z</time>
      </trkpt>
      <trkpt lat="40.369433" lon="-5.400583">
        <ele>2433.0</ele>
        <time>2013-05-12T12:52:46Z</time>
      </trkpt>
      <trkpt lat="40.369433" lon="-5.400667">
        <ele>2432.0</ele>
        <time>2013-05-12T12:52:47Z</time>
      </trkpt>
      <trkpt lat="40.369450" lon="-5.400750">
        <ele>2432.0</ele>
        <time>2013-05-12T12:52:48Z</time>
      </trkpt>
      <trkpt lat="40.369483" lon="-5.400833">
        <ele>2432.0</ele>
        <time>2013-05-12T12:52:49Z</time>
      </trkpt>
      <trkpt lat="40.369517" lon="-5.400917">
        <ele>2434.0</ele>
        <time>2013-05-12T12:52:50Z</time>
      </trkpt>
      <trkpt lat="40.369550" lon="-5.400983">
        <ele>2436.0</ele>
        <time>2013-05-12T12:52:51Z</time>
      </trkpt>
      <trkpt lat="40.369583" lon="-5.401050">
        <ele>2437.0</ele>
        <time>2013-05-12T12:52:52Z</time>
      </trkpt>
      <trkpt lat="40.369617" lon="-5.401100">
        <ele>2437.0</ele>
        <time>2013-05-12T12:52:53Z</time>
      </trkpt>
      <trkpt lat="40.369650" lon="-5.401167">
        <ele>2436.0</ele>
        <time>2013-05-12T12:52:54Z</time>
      </trkpt>
      <trkpt lat="40.369683" lon="-5.401233">
        <ele>2436.0</ele>
        <time>2013-05-12T12:52:55Z</time>
      </trkpt>
      <trkpt lat="40.369733" lon="-5.401300">
        <ele>2435.0</ele>
        <time>2013-05-12T12:52:56Z</time>
      </trkpt>
      <trkpt lat="40.369767" lon="-5.401367">
        <ele>2435.0</ele>
        <time>2013-05-12T12:52:57Z</time>
      </trkpt>
      <trkpt lat="40.369817" lon="-5.401417">
        <ele>2434.0</ele>
        <time>2013-05-12T12:52:58Z</time>
      </trkpt>
      <trkpt lat="40.369867" lon="-5.401450">
        <ele>2434.0</ele>
        <time>2013-05-12T12:52:59Z</time>
      </trkpt>
      <trkpt lat="40.369917" lon="-5.401483">
        <ele>2433.0</ele>
        <time>2013-05-12T12:53:00Z</time>
      </trkpt>
      <trkpt lat="40.369950" lon="-5.401517">
        <ele>2431.0</ele>
        <time>2013-05-12T12:53:01Z</time>
      </trkpt>
      <trkpt lat="40.370000" lon="-5.401567">
        <ele>2428.0</ele>
        <time>2013-05-12T12:53:02Z</time>
      </trkpt>
      <trkpt lat="40.370050" lon="-5.401633">
        <ele>2424.0</ele>
        <time>2013-05-12T12:53:03Z</time>
      </trkpt>
      <trkpt lat="40.370083" lon="-5.401700">
        <ele>2421.0</ele>
        <time>2013-05-12T12:53:04Z</time>
      </trkpt>
      <trkpt lat="40.370117" lon="-5.401800">
        <ele>2419.0</ele>
        <time>2013-05-12T12:53:05Z</time>
      </trkpt>
      <trkpt lat="40.370133" lon="-5.401883">
        <ele>2418.0</ele>
        <time>2013-05-12T12:53:06Z</time>
      </trkpt>
      <trkpt lat="40.370150" lon="-5.401967">
        <ele>2416.0</ele>
        <time>2013-05-12T12:53:07Z</time>
      </trkpt>
      <trkpt lat="40.370150" lon="-5.402050">
        <ele>2414.0</ele>
        <time>2013-05-12T12:53:08Z</time>
      </trkpt>
      <trkpt lat="40.370150" lon="-5.402133">
        <ele>2410.0</ele>
        <time>2013-05-12T12:53:09Z</time>
      </trkpt>
      <trkpt lat="40.370150" lon="-5.402217">
        <ele>2407.0</ele>
        <time>2013-05-12T12:53:10Z</time>
      </trkpt>
      <trkpt lat="40.370150" lon="-5.402317">
        <ele>2404.0</ele>
        <time>2013-05-12T12:53:11Z</time>
      </trkpt>
      <trkpt lat="40.370167" lon="-5.402417">
        <ele>2400.0</ele>
        <time>2013-05-12T12:53:12Z</time>
      </trkpt>
      <trkpt lat="40.370167" lon="-5.402517">
        <ele>2397.0</ele>
        <time>2013-05-12T12:53:13Z</time>
      </trkpt>
      <trkpt lat="40.370167" lon="-5.402617">
        <ele>2394.0</ele>
        <time>2013-05-12T12:53:14Z</time>
      </trkpt>
      <trkpt lat="40.370183" lon="-5.402717">
        <ele>2390.0</ele>
        <time>2013-05-12T12:53:15Z</time>
      </trkpt>
      <trkpt lat="40.370183" lon="-5.402833">
        <ele>2385.0</ele>
        <time>2013-05-12T12:53:16Z</time>
      </trkpt>
      <trkpt lat="40.370217" lon="-5.402950">
        <ele>2382.0</ele>
        <time>2013-05-12T12:53:17Z</time>
      </trkpt>
      <trkpt lat="40.370233" lon="-5.403083">
        <ele>2382.0</ele>
        <time>2013-05-12T12:53:18Z</time>
      </trkpt>
      <trkpt lat="40.370250" lon="-5.403167">
        <ele>2384.0</ele>
        <time>2013-05-12T12:53:19Z</time>
      </trkpt>
      <trkpt lat="40.370267" lon="-5.403233">
        <ele>2385.0</ele>
        <time>2013-05-12T12:53:20Z</time>
      </trkpt>
      <trkpt lat="40.370267" lon="-5.403317">
        <ele>2385.0</ele>
        <time>2013-05-12T12:53:21Z</time>
      </trkpt>
      <trkpt lat="40.370267" lon="-5.403383">
        <ele>2384.0</ele>
        <time>2013-05-12T12:53:22Z</time>
      </trkpt>
      <trkpt lat="40.370267" lon="-5.403483">
        <ele>2382.0</ele>
        <time>2013-05-12T12:53:23Z</time>
      </trkpt>
      <trkpt lat="40.370267" lon="-5.403583">
        <ele>2380.0</ele>
        <time>2013-05-12T12:53:24Z</time>
      </trkpt>
      <trkpt lat="40.370267" lon="-5.403700">
        <ele>2379.0</ele>
        <time>2013-05-12T12:53:25Z</time>
      </trkpt>
      <trkpt lat="40.370283" lon="-5.403833">
        <ele>2377.0</ele>
        <time>2013-05-12T12:53:26Z</time>
      </trkpt>
      <trkpt lat="40.370283" lon="-5.403950">
        <ele>2376.0</ele>
        <time>2013-05-12T12:53:27Z</time>
      </trkpt>
      <trkpt lat="40.370300" lon="-5.404067">
        <ele>2375.0</ele>
        <time>2013-05-12T12:53:28Z</time>
      </trkpt>
      <trkpt lat="40.370317" lon="-5.404150">
        <ele>2374.0</ele>
        <time>2013-05-12T12:53:29Z</time>
      </trkpt>
      <trkpt lat="40.370333" lon="-5.404250">
        <ele>2371.0</ele>
        <time>2013-05-12T12:53:30Z</time>
      </trkpt>
      <trkpt lat="40.370350" lon="-5.404350">
        <ele>2367.0</ele>
        <time>2013-05-12T12:53:31Z</time>
      </trkpt>
      <trkpt lat="40.370383" lon="-5.404450">
        <ele>2363.0</ele>
        <time>2013-05-12T12:53:32Z</time>
      </trkpt>
      <trkpt lat="40.370400" lon="-5.404583">
        <ele>2359.0</ele>
        <time>2013-05-12T12:53:33Z</time>
      </trkpt>
      <trkpt lat="40.370433" lon="-5.404717">
        <ele>2358.0</ele>
        <time>2013-05-12T12:53:34Z</time>
      </trkpt>
      <trkpt lat="40.370483" lon="-5.404817">
        <ele>2357.0</ele>
        <time>2013-05-12T12:53:35Z</time>
      </trkpt>
      <trkpt lat="40.370533" lon="-5.404900">
        <ele>2358.0</ele>
        <time>2013-05-12T12:53:36Z</time>
      </trkpt>
      <trkpt lat="40.370583" lon="-5.404967">
        <ele>2358.0</ele>
        <time>2013-05-12T12:53:37Z</time>
      </trkpt>
      <trkpt lat="40.370633" lon="-5.405017">
        <ele>2357.0</ele>
        <time>2013-05-12T12:53:38Z</time>
      </trkpt>
      <trkpt lat="40.370700" lon="-5.405083">
        <ele>2355.0</ele>
        <time>2013-05-12T12:53:39Z</time>
      </trkpt>
      <trkpt lat="40.370783" lon="-5.405133">
        <ele>2353.0</ele>
        <time>2013-05-12T12:53:40Z</time>
      </trkpt>
      <trkpt lat="40.370867" lon="-5.405217">
        <ele>2354.0</ele>
        <time>2013-05-12T12:53:41Z</time>
      </trkpt>
      <trkpt lat="40.370950" lon="-5.405267">
        <ele>2357.0</ele>
        <time>2013-05-12T12:53:42Z</time>
      </trkpt>
      <trkpt lat="40.371000" lon="-5.405300">
        <ele>2358.0</ele>
        <time>2013-05-12T12:53:43Z</time>
      </trkpt>
      <trkpt lat="40.371050" lon="-5.405317">
        <ele>2355.0</ele>
        <time>2013-05-12T12:53:44Z</time>
      </trkpt>
      <trkpt lat="40.371117" lon="-5.405333">
        <ele>2352.0</ele>
        <time>2013-05-12T12:53:45Z</time>
      </trkpt>
      <trkpt lat="40.371200" lon="-5.405367">
        <ele>2348.0</ele>
        <time>2013-05-12T12:53:46Z</time>
      </trkpt>
      <trkpt lat="40.371317" lon="-5.405400">
        <ele>2345.0</ele>
        <time>2013-05-12T12:53:47Z</time>
      </trkpt>
      <trkpt lat="40.371400" lon="-5.405467">
        <ele>2345.0</ele>
        <time>2013-05-12T12:53:48Z</time>
      </trkpt>
      <trkpt lat="40.371467" lon="-5.405533">
        <ele>2347.0</ele>
        <time>2013-05-12T12:53:49Z</time>
      </trkpt>
      <trkpt lat="40.371483" lon="-5.405633">
        <ele>2348.0</ele>
        <time>2013-05-12T12:53:50Z</time>
      </trkpt>
      <trkpt lat="40.371517" lon="-5.405717">
        <ele>2348.0</ele>
        <time>2013-05-12T12:53:51Z</time>
      </trkpt>
      <trkpt lat="40.371533" lon="-5.405800">
        <ele>2346.0</ele>
        <time>2013-05-12T12:53:52Z</time>
      </trkpt>
      <trkpt lat="40.371550" lon="-5.405900">
        <ele>2343.0</ele>
        <time>2013-05-12T12:53:53Z</time>
      </trkpt>
      <trkpt lat="40.371567" lon="-5.406017">
        <ele>2340.0</ele>
        <time>2013-05-12T12:53:54Z</time>
      </trkpt>
      <trkpt lat="40.371583" lon="-5.406150">
        <ele>2337.0</ele>
        <time>2013-05-12T12:53:55Z</time>
      </trkpt>
      <trkpt lat="40.371583" lon="-5.406267">
        <ele>2336.0</ele>
        <time>2013-05-12T12:53:56Z</time>
      </trkpt>
      <trkpt lat="40.371600" lon="-5.406367">
        <ele>2335.0</ele>
        <time>2013-05-12T12:53:57Z</time>
      </trkpt>
      <trkpt lat="40.371633" lon="-5.406467">
        <ele>2333.0</ele>
        <time>2013-05-12T12:53:58Z</time>
      </trkpt>
      <trkpt lat="40.371667" lon="-5.406550">
        <ele>2331.0</ele>
        <time>2013-05-12T12:53:59Z</time>
      </trkpt>
      <trkpt lat="40.371700" lon="-5.406633">
        <ele>2327.0</ele>
        <time>2013-05-12T12:54:00Z</time>
      </trkpt>
      <trkpt lat="40.371733" lon="-5.406750">
        <ele>2325.0</ele>
        <time>2013-05-12T12:54:01Z</time>
      </trkpt>
      <trkpt lat="40.371767" lon="-5.406833">
        <ele>2322.0</ele>
        <time>2013-05-12T12:54:02Z</time>
      </trkpt>
      <trkpt lat="40.371800" lon="-5.406933">
        <ele>2320.0</ele>
        <time>2013-05-12T12:54:03Z</time>
      </trkpt>
      <trkpt lat="40.371833" lon="-5.407017">
        <ele>2318.0</ele>
        <time>2013-05-12T12:54:04Z</time>
      </trkpt>
      <trkpt lat="40.371867" lon="-5.407100">
        <ele>2315.0</ele>
        <time>2013-05-12T12:54:05Z</time>
      </trkpt>
      <trkpt lat="40.371883" lon="-5.407200">
        <ele>2313.0</ele>
        <time>2013-05-12T12:54:06Z</time>
      </trkpt>
      <trkpt lat="40.371917" lon="-5.407283">
        <ele>2310.0</ele>
        <time>2013-05-12T12:54:07Z</time>
      </trkpt>
      <trkpt lat="40.371933" lon="-5.407383">
        <ele>2307.0</ele>
        <time>2013-05-12T12:54:08Z</time>
      </trkpt>
      <trkpt lat="40.371950" lon="-5.407467">
        <ele>2304.0</ele>
        <time>2013-05-12T12:54:09Z</time>
      </trkpt>
      <trkpt lat="40.371983" lon="-5.407567">
        <ele>2301.0</ele>
        <time>2013-05-12T12:54:10Z</time>
      </trkpt>
      <trkpt lat="40.372017" lon="-5.407667">
        <ele>2297.0</ele>
        <time>2013-05-12T12:54:11Z</time>
      </trkpt>
      <trkpt lat="40.372050" lon="-5.407767">
        <ele>2294.0</ele>
        <time>2013-05-12T12:54:12Z</time>
      </trkpt>
      <trkpt lat="40.372067" lon="-5.407883">
        <ele>2292.0</ele>
        <time>2013-05-12T12:54:13Z</time>
      </trkpt>
      <trkpt lat="40.372100" lon="-5.408000">
        <ele>2290.0</ele>
        <time>2013-05-12T12:54:14Z</time>
      </trkpt>
      <trkpt lat="40.372117" lon="-5.408100">
        <ele>2288.0</ele>
        <time>2013-05-12T12:54:15Z</time>
      </trkpt>
      <trkpt lat="40.372133" lon="-5.408200">
        <ele>2286.0</ele>
        <time>2013-05-12T12:54:16Z</time>
      </trkpt>
      <trkpt lat="40.372150" lon="-5.408283">
        <ele>2284.0</ele>
        <time>2013-05-12T12:54:17Z</time>
      </trkpt>
      <trkpt lat="40.372167" lon="-5.408383">
        <ele>2281.0</ele>
        <time>2013-05-12T12:54:18Z</time>
      </trkpt>
      <trkpt lat="40.372183" lon="-5.408483">
        <ele>2278.0</ele>
        <time>2013-05-12T12:54:19Z</time>
      </trkpt>
      <trkpt lat="40.372217" lon="-5.408567">
        <ele>2275.0</ele>
        <time>2013-05-12T12:54:20Z</time>
      </trkpt>
      <trkpt lat="40.372250" lon="-5.408650">
        <ele>2273.0</ele>
        <time>2013-05-12T12:54:21Z</time>
      </trkpt>
      <trkpt lat="40.372283" lon="-5.408717">
        <ele>2270.0</ele>
        <time>2013-05-12T12:54:22Z</time>
      </trkpt>
      <trkpt lat="40.372300" lon="-5.408783">
        <ele>2267.0</ele>
        <time>2013-05-12T12:54:23Z</time>
      </trkpt>
      <trkpt lat="40.372317" lon="-5.408867">
        <ele>2264.0</ele>
        <time>2013-05-12T12:54:24Z</time>
      </trkpt>
      <trkpt lat="40.372350" lon="-5.408950">
        <ele>2260.0</ele>
        <time>2013-05-12T12:54:25Z</time>
      </trkpt>
      <trkpt lat="40.372350" lon="-5.409050">
        <ele>2257.0</ele>
        <time>2013-05-12T12:54:26Z</time>
      </trkpt>
      <trkpt lat="40.372367" lon="-5.409133">
        <ele>2255.0</ele>
        <time>2013-05-12T12:54:27Z</time>
      </trkpt>
      <trkpt lat="40.372383" lon="-5.409217">
        <ele>2253.0</ele>
        <time>2013-05-12T12:54:28Z</time>
      </trkpt>
      <trkpt lat="40.372400" lon="-5.409300">
        <ele>2252.0</ele>
        <time>2013-05-12T12:54:29Z</time>
      </trkpt>
      <trkpt lat="40.372400" lon="-5.409383">
        <ele>2250.0</ele>
        <time>2013-05-12T12:54:30Z</time>
      </trkpt>
      <trkpt lat="40.372400" lon="-5.409467">
        <ele>2247.0</ele>
        <time>2013-05-12T12:54:31Z</time>
      </trkpt>
      <trkpt lat="40.372400" lon="-5.409567">
        <ele>2245.0</ele>
        <time>2013-05-12T12:54:32Z</time>
      </trkpt>
      <trkpt lat="40.372417" lon="-5.409667">
        <ele>2243.0</ele>
        <time>2013-05-12T12:54:33Z</time>
      </trkpt>
      <trkpt lat="40.372433" lon="-5.409750">
        <ele>2241.0</ele>
        <time>2013-05-12T12:54:34Z</time>
      </trkpt>
      <trkpt lat="40.372450" lon="-5.409850">
        <ele>2240.0</ele>
        <time>2013-05-12T12:54:35Z</time>
      </trkpt>
      <trkpt lat="40.372450" lon="-5.409933">
        <ele>2239.0</ele>
        <time>2013-05-12T12:54:36Z</time>
      </trkpt>
      <trkpt lat="40.372467" lon="-5.410000">
        <ele>2238.0</ele>
        <time>2013-05-12T12:54:37Z</time>
      </trkpt>
      <trkpt lat="40.372467" lon="-5.410067">
        <ele>2237.0</ele>
        <time>2013-05-12T12:54:38Z</time>
      </trkpt>
      <trkpt lat="40.372483" lon="-5.410150">
        <ele>2235.0</ele>
        <time>2013-05-12T12:54:39Z</time>
      </trkpt>
      <trkpt lat="40.372500" lon="-5.410233">
        <ele>2232.0</ele>
        <time>2013-05-12T12:54:40Z</time>
      </trkpt>
      <trkpt lat="40.372517" lon="-5.410317">
        <ele>2231.0</ele>
        <time>2013-05-12T12:54:41Z</time>
      </trkpt>
      <trkpt lat="40.372517" lon="-5.410400">
        <ele>2229.0</ele>
        <time>2013-05-12T12:54:42Z</time>
      </trkpt>
      <trkpt lat="40.372517" lon="-5.410500">
        <ele>2228.0</ele>
        <time>2013-05-12T12:54:43Z</time>
      </trkpt>
      <trkpt lat="40.372500" lon="-5.410583">
        <ele>2227.0</ele>
        <time>2013-05-12T12:54:44Z</time>
      </trkpt>
      <trkpt lat="40.372483" lon="-5.410683">
        <ele>2226.0</ele>
        <time>2013-05-12T12:54:45Z</time>
      </trkpt>
      <trkpt lat="40.372483" lon="-5.410783">
        <ele>2224.0</ele>
        <time>2013-05-12T12:54:46Z</time>
      </trkpt>
      <trkpt lat="40.372467" lon="-5.410883">
        <ele>2222.0</ele>
        <time>2013-05-12T12:54:47Z</time>
      </trkpt>
      <trkpt lat="40.372467" lon="-5.410983">
        <ele>2221.0</ele>
        <time>2013-05-12T12:54:48Z</time>
      </trkpt>
      <trkpt lat="40.372450" lon="-5.411067">
        <ele>2220.0</ele>
        <time>2013-05-12T12:54:49Z</time>
      </trkpt>
      <trkpt lat="40.372450" lon="-5.411167">
        <ele>2219.0</ele>
        <time>2013-05-12T12:54:50Z</time>
      </trkpt>
      <trkpt lat="40.372433" lon="-5.411250">
        <ele>2218.0</ele>
        <time>2013-05-12T12:54:51Z</time>
      </trkpt>
      <trkpt lat="40.372433" lon="-5.411333">
        <ele>2216.0</ele>
        <time>2013-05-12T12:54:52Z</time>
      </trkpt>
      <trkpt lat="40.372450" lon="-5.411417">
        <ele>2213.0</ele>
        <time>2013-05-12T12:54:53Z</time>
      </trkpt>
      <trkpt lat="40.372450" lon="-5.411517">
        <ele>2212.0</ele>
        <time>2013-05-12T12:54:54Z</time>
      </trkpt>
      <trkpt lat="40.372433" lon="-5.411617">
        <ele>2211.0</ele>
        <time>2013-05-12T12:54:55Z</time>
      </trkpt>
      <trkpt lat="40.372433" lon="-5.411700">
        <ele>2211.0</ele>
        <time>2013-05-12T12:54:56Z</time>
      </trkpt>
      <trkpt lat="40.372417" lon="-5.411783">
        <ele>2211.0</ele>
        <time>2013-05-12T12:54:57Z</time>
      </trkpt>
      <trkpt lat="40.372417" lon="-5.411867">
        <ele>2211.0</ele>
        <time>2013-05-12T12:54:58Z</time>
      </trkpt>
      <trkpt lat="40.372417" lon="-5.411950">
        <ele>2211.0</ele>
        <time>2013-05-12T12:54:59Z</time>
      </trkpt>
      <trkpt lat="40.372417" lon="-5.412050">
        <ele>2212.0</ele>
        <time>2013-05-12T12:55:00Z</time>
      </trkpt>
      <trkpt lat="40.372417" lon="-5.412133">
        <ele>2214.0</ele>
        <time>2013-05-12T12:55:01Z</time>
      </trkpt>
      <trkpt lat="40.372383" lon="-5.412217">
        <ele>2215.0</ele>
        <time>2013-05-12T12:55:02Z</time>
      </trkpt>
      <trkpt lat="40.372367" lon="-5.412283">
        <ele>2216.0</ele>
        <time>2013-05-12T12:55:03Z</time>
      </trkpt>
      <trkpt lat="40.372383" lon="-5.412367">
        <ele>2215.0</ele>
        <time>2013-05-12T12:55:04Z</time>
      </trkpt>
      <trkpt lat="40.372400" lon="-5.412450">
        <ele>2215.0</ele>
        <time>2013-05-12T12:55:05Z</time>
      </trkpt>
      <trkpt lat="40.372433" lon="-5.412533">
        <ele>2216.0</ele>
        <time>2013-05-12T12:55:06Z</time>
      </trkpt>
      <trkpt lat="40.372467" lon="-5.412583">
        <ele>2219.0</ele>
        <time>2013-05-12T12:55:07Z</time>
      </trkpt>
      <trkpt lat="40.372483" lon="-5.412650">
        <ele>2222.0</ele>
        <time>2013-05-12T12:55:08Z</time>
      </trkpt>
      <trkpt lat="40.372483" lon="-5.412700">
        <ele>2224.0</ele>
        <time>2013-05-12T12:55:09Z</time>
      </trkpt>
      <trkpt lat="40.372483" lon="-5.412750">
        <ele>2224.0</ele>
        <time>2013-05-12T12:55:10Z</time>
      </trkpt>
      <trkpt lat="40.372483" lon="-5.412833">
        <ele>2223.0</ele>
        <time>2013-05-12T12:55:11Z</time>
      </trkpt>
      <trkpt lat="40.372483" lon="-5.412933">
        <ele>2222.0</ele>
        <time>2013-05-12T12:55:12Z</time>
      </trkpt>
      <trkpt lat="40.372483" lon="-5.413067">
        <ele>2224.0</ele>
        <time>2013-05-12T12:55:13Z</time>
      </trkpt>
      <trkpt lat="40.372467" lon="-5.413183">
        <ele>2227.0</ele>
        <time>2013-05-12T12:55:14Z</time>
      </trkpt>
      <trkpt lat="40.372450" lon="-5.413283">
        <ele>2230.0</ele>
        <time>2013-05-12T12:55:15Z</time>
      </trkpt>
      <trkpt lat="40.372433" lon="-5.413367">
        <ele>2232.0</ele>
        <time>2013-05-12T12:55:16Z</time>
      </trkpt>
      <trkpt lat="40.372433" lon="-5.413467">
        <ele>2233.0</ele>
        <time>2013-05-12T12:55:17Z</time>
      </trkpt>
      <trkpt lat="40.372450" lon="-5.413550">
        <ele>2234.0</ele>
        <time>2013-05-12T12:55:18Z</time>
      </trkpt>
      <trkpt lat="40.372483" lon="-5.413633">
        <ele>2236.0</ele>
        <time>2013-05-12T12:55:19Z</time>
      </trkpt>
      <trkpt lat="40.372517" lon="-5.413700">
        <ele>2238.0</ele>
        <time>2013-05-12T12:55:20Z</time>
      </trkpt>
      <trkpt lat="40.372567" lon="-5.413750">
        <ele>2242.0</ele>
        <time>2013-05-12T12:55:21Z</time>
      </trkpt>
      <trkpt lat="40.372600" lon="-5.413750">
        <ele>2245.0</ele>
        <time>2013-05-12T12:55:22Z</time>
      </trkpt>
      <trkpt lat="40.372633" lon="-5.413733">
        <ele>2248.0</ele>
        <time>2013-05-12T12:55:23Z</time>
      </trkpt>
      <trkpt lat="40.372667" lon="-5.413700">
        <ele>2250.0</ele>
        <time>2013-05-12T12:55:24Z</time>
      </trkpt>
      <trkpt lat="40.372700" lon="-5.413650">
        <ele>2252.0</ele>
        <time>2013-05-12T12:55:25Z</time>
      </trkpt>
      <trkpt lat="40.372700" lon="-5.413533">
        <ele>2253.0</ele>
        <time>2013-05-12T12:55:26Z</time>
      </trkpt>
      <trkpt lat="40.372700" lon="-5.413400">
        <ele>2254.0</ele>
        <time>2013-05-12T12:55:27Z</time>
      </trkpt>
      <trkpt lat="40.372650" lon="-5.413250">
        <ele>2257.0</ele>
        <time>2013-05-12T12:55:28Z</time>
      </trkpt>
      <trkpt lat="40.372583" lon="-5.413133">
        <ele>2260.0</ele>
        <time>2013-05-12T12:55:29Z</time>
      </trkpt>
      <trkpt lat="40.372517" lon="-5.413033">
        <ele>2263.0</ele>
        <time>2013-05-12T12:55:30Z</time>
      </trkpt>
      <trkpt lat="40.372433" lon="-5.412950">
        <ele>2265.0</ele>
        <time>2013-05-12T12:55:31Z</time>
      </trkpt>
      <trkpt lat="40.372350" lon="-5.412883">
        <ele>2266.0</ele>
        <time>2013-05-12T12:55:32Z</time>
      </trkpt>
      <trkpt lat="40.372233" lon="-5.412817">
        <ele>2266.0</ele>
        <time>2013-05-12T12:55:33Z</time>
      </trkpt>
      <trkpt lat="40.372100" lon="-5.412800">
        <ele>2266.0</ele>
        <time>2013-05-12T12:55:34Z</time>
      </trkpt>
      <trkpt lat="40.371967" lon="-5.412817">
        <ele>2267.0</ele>
        <time>2013-05-12T12:55:35Z</time>
      </trkpt>
      <trkpt lat="40.371833" lon="-5.412867">
        <ele>2269.0</ele>
        <time>2013-05-12T12:55:36Z</time>
      </trkpt>
      <trkpt lat="40.371733" lon="-5.412967">
        <ele>2272.0</ele>
        <time>2013-05-12T12:55:37Z</time>
      </trkpt>
      <trkpt lat="40.371650" lon="-5.413050">
        <ele>2276.0</ele>
        <time>2013-05-12T12:55:38Z</time>
      </trkpt>
      <trkpt lat="40.371583" lon="-5.413133">
        <ele>2279.0</ele>
        <time>2013-05-12T12:55:39Z</time>
      </trkpt>
      <trkpt lat="40.371517" lon="-5.413233">
        <ele>2281.0</ele>
        <time>2013-05-12T12:55:40Z</time>
      </trkpt>
      <trkpt lat="40.371467" lon="-5.413333">
        <ele>2283.0</ele>
        <time>2013-05-12T12:55:41Z</time>
      </trkpt>
      <trkpt lat="40.371433" lon="-5.413450">
        <ele>2284.0</ele>
        <time>2013-05-12T12:55:42Z</time>
      </trkpt>
      <trkpt lat="40.371433" lon="-5.413567">
        <ele>2285.0</ele>
        <time>2013-05-12T12:55:43Z</time>
      </trkpt>
      <trkpt lat="40.371450" lon="-5.413667">
        <ele>2287.0</ele>
        <time>2013-05-12T12:55:44Z</time>
      </trkpt>
      <trkpt lat="40.371483" lon="-5.413750">
        <ele>2290.0</ele>
        <time>2013-05-12T12:55:45Z</time>
      </trkpt>
      <trkpt lat="40.371517" lon="-5.413783">
        <ele>2293.0</ele>
        <time>2013-05-12T12:55:46Z</time>
      </trkpt>
      <trkpt lat="40.371567" lon="-5.413817">
        <ele>2295.0</ele>
        <time>2013-05-12T12:55:47Z</time>
      </trkpt>
      <trkpt lat="40.371617" lon="-5.413817">
        <ele>2298.0</ele>
        <time>2013-05-12T12:55:48Z</time>
      </trkpt>
      <trkpt lat="40.371667" lon="-5.413800">
        <ele>2301.0</ele>
        <time>2013-05-12T12:55:49Z</time>
      </trkpt>
      <trkpt lat="40.371717" lon="-5.413750">
        <ele>2304.0</ele>
        <time>2013-05-12T12:55:50Z</time>
      </trkpt>
      <trkpt lat="40.371767" lon="-5.413683">
        <ele>2307.0</ele>
        <time>2013-05-12T12:55:51Z</time>
      </trkpt>
      <trkpt lat="40.371783" lon="-5.413583">
        <ele>2311.0</ele>
        <time>2013-05-12T12:55:52Z</time>
      </trkpt>
      <trkpt lat="40.371800" lon="-5.413483">
        <ele>2314.0</ele>
        <time>2013-05-12T12:55:53Z</time>
      </trkpt>
      <trkpt lat="40.371817" lon="-5.413383">
        <ele>2318.0</ele>
        <time>2013-05-12T12:55:54Z</time>
      </trkpt>
      <trkpt lat="40.371800" lon="-5.413267">
        <ele>2321.0</ele>
        <time>2013-05-12T12:55:55Z</time>
      </trkpt>
      <trkpt lat="40.371750" lon="-5.413150">
        <ele>2323.0</ele>
        <time>2013-05-12T12:55:56Z</time>
      </trkpt>
      <trkpt lat="40.371667" lon="-5.413050">
        <ele>2324.0</ele>
        <time>2013-05-12T12:55:57Z</time>
      </trkpt>
      <trkpt lat="40.371583" lon="-5.412967">
        <ele>2324.0</ele>
        <time>2013-05-12T12:55:58Z</time>
      </trkpt>
      <trkpt lat="40.371483" lon="-5.412900">
        <ele>2323.0</ele>
        <time>2013-05-12T12:55:59Z</time>
      </trkpt>
      <trkpt lat="40.371367" lon="-5.412850">
        <ele>2323.0</ele>
        <time>2013-05-12T12:56:00Z</time>
      </trkpt>
      <trkpt lat="40.371233" lon="-5.412817">
        <ele>2322.0</ele>
        <time>2013-05-12T12:56:01Z</time>
      </trkpt>
      <trkpt lat="40.371100" lon="-5.412800">
        <ele>2323.0</ele>
        <time>2013-05-12T12:56:02Z</time>
      </trkpt>
      <trkpt lat="40.370950" lon="-5.412817">
        <ele>2324.0</ele>
        <time>2013-05-12T12:56:03Z</time>
      </trkpt>
      <trkpt lat="40.370817" lon="-5.412900">
        <ele>2325.0</ele>
        <time>2013-05-12T12:56:04Z</time>
      </trkpt>
      <trkpt lat="40.370717" lon="-5.412983">
        <ele>2327.0</ele>
        <time>2013-05-12T12:56:05Z</time>
      </trkpt>
      <trkpt lat="40.370650" lon="-5.413100">
        <ele>2331.0</ele>
        <time>2013-05-12T12:56:06Z</time>
      </trkpt>
      <trkpt lat="40.370583" lon="-5.413217">
        <ele>2335.0</ele>
        <time>2013-05-12T12:56:07Z</time>
      </trkpt>
      <trkpt lat="40.370550" lon="-5.413317">
        <ele>2338.0</ele>
        <time>2013-05-12T12:56:08Z</time>
      </trkpt>
      <trkpt lat="40.370533" lon="-5.413417">
        <ele>2340.0</ele>
        <time>2013-05-12T12:56:09Z</time>
      </trkpt>
      <trkpt lat="40.370533" lon="-5.413517">
        <ele>2342.0</ele>
        <time>2013-05-12T12:56:10Z</time>
      </trkpt>
      <trkpt lat="40.370533" lon="-5.413617">
        <ele>2344.0</ele>
        <time>2013-05-12T12:56:11Z</time>
      </trkpt>
      <trkpt lat="40.370567" lon="-5.413700">
        <ele>2346.0</ele>
        <time>2013-05-12T12:56:12Z</time>
      </trkpt>
      <trkpt lat="40.370617" lon="-5.413767">
        <ele>2348.0</ele>
        <time>2013-05-12T12:56:13Z</time>
      </trkpt>
      <trkpt lat="40.370667" lon="-5.413800">
        <ele>2350.0</ele>
        <time>2013-05-12T12:56:14Z</time>
      </trkpt>
      <trkpt lat="40.370717" lon="-5.413833">
        <ele>2353.0</ele>
        <time>2013-05-12T12:56:15Z</time>
      </trkpt>
      <trkpt lat="40.370767" lon="-5.413833">
        <ele>2356.0</ele>
        <time>2013-05-12T12:56:16Z</time>
      </trkpt>
      <trkpt lat="40.370833" lon="-5.413817">
        <ele>2359.0</ele>
        <time>2013-05-12T12:56:17Z</time>
      </trkpt>
      <trkpt lat="40.370883" lon="-5.413783">
        <ele>2362.0</ele>
        <time>2013-05-12T12:56:18Z</time>
      </trkpt>
      <trkpt lat="40.370917" lon="-5.413700">
        <ele>2364.0</ele>
        <time>2013-05-12T12:56:19Z</time>
      </trkpt>
      <trkpt lat="40.370950" lon="-5.413583">
        <ele>2367.0</ele>
        <time>2013-05-12T12:56:20Z</time>
      </trkpt>
      <trkpt lat="40.370950" lon="-5.413467">
        <ele>2370.0</ele>
        <time>2013-05-12T12:56:21Z</time>
      </trkpt>
      <trkpt lat="40.370917" lon="-5.413350">
        <ele>2374.0</ele>
        <time>2013-05-12T12:56:22Z</time>
      </trkpt>
      <trkpt lat="40.370867" lon="-5.413250">
        <ele>2378.0</ele>
        <time>2013-05-12T12:56:23Z</time>
      </trkpt>
      <trkpt lat="40.370800" lon="-5.413167">
        <ele>2381.0</ele>
        <time>2013-05-12T12:56:24Z</time>
      </trkpt>
      <trkpt lat="40.370700" lon="-5.413083">
        <ele>2382.0</ele>
        <time>2013-05-12T12:56:25Z</time>
      </trkpt>
      <trkpt lat="40.370583" lon="-5.413033">
        <ele>2384.0</ele>
        <time>2013-05-12T12:56:26Z</time>
      </trkpt>
      <trkpt lat="40.370450" lon="-5.413017">
        <ele>2385.0</ele>
        <time>2013-05-12T12:56:27Z</time>
      </trkpt>
      <trkpt lat="40.370300" lon="-5.413033">
        <ele>2387.0</ele>
        <time>2013-05-12T12:56:28Z</time>
      </trkpt>
      <trkpt lat="40.370167" lon="-5.413083">
        <ele>2389.0</ele>
        <time>2013-05-12T12:56:29Z</time>
      </trkpt>
      <trkpt lat="40.370067" lon="-5.413150">
        <ele>2394.0</ele>
        <time>2013-05-12T12:56:30Z</time>
      </trkpt>
      <trkpt lat="40.369983" lon="-5.413233">
        <ele>2399.0</ele>
        <time>2013-05-12T12:56:31Z</time>
      </trkpt>
      <trkpt lat="40.369933" lon="-5.413317">
        <ele>2402.0</ele>
        <time>2013-05-12T12:56:32Z</time>
      </trkpt>
      <trkpt lat="40.369883" lon="-5.413417">
        <ele>2404.0</ele>
        <time>2013-05-12T12:56:33Z</time>
      </trkpt>
      <trkpt lat="40.369850" lon="-5.413500">
        <ele>2406.0</ele>
        <time>2013-05-12T12:56:34Z</time>
      </trkpt>
      <trkpt lat="40.369833" lon="-5.413600">
        <ele>2408.0</ele>
        <time>2013-05-12T12:56:35Z</time>
      </trkpt>
      <trkpt lat="40.369833" lon="-5.413717">
        <ele>2410.0</ele>
        <time>2013-05-12T12:56:36Z</time>
      </trkpt>
      <trkpt lat="40.369867" lon="-5.413783">
        <ele>2412.0</ele>
        <time>2013-05-12T12:56:37Z</time>
      </trkpt>
      <trkpt lat="40.369917" lon="-5.413850">
        <ele>2415.0</ele>
        <time>2013-05-12T12:56:38Z</time>
      </trkpt>
      <trkpt lat="40.369967" lon="-5.413883">
        <ele>2418.0</ele>
        <time>2013-05-12T12:56:39Z</time>
      </trkpt>
      <trkpt lat="40.370033" lon="-5.413883">
        <ele>2421.0</ele>
        <time>2013-05-12T12:56:40Z</time>
      </trkpt>
      <trkpt lat="40.370067" lon="-5.413867">
        <ele>2424.0</ele>
        <time>2013-05-12T12:56:41Z</time>
      </trkpt>
      <trkpt lat="40.370117" lon="-5.413817">
        <ele>2426.0</ele>
        <time>2013-05-12T12:56:42Z</time>
      </trkpt>
      <trkpt lat="40.370150" lon="-5.413750">
        <ele>2427.0</ele>
        <time>2013-05-12T12:56:43Z</time>
      </trkpt>
      <trkpt lat="40.370183" lon="-5.413650">
        <ele>2429.0</ele>
        <time>2013-05-12T12:56:44Z</time>
      </trkpt>
      <trkpt lat="40.370200" lon="-5.413533">
        <ele>2432.0</ele>
        <time>2013-05-12T12:56:45Z</time>
      </trkpt>
      <trkpt lat="40.370167" lon="-5.413400">
        <ele>2435.0</ele>
        <time>2013-05-12T12:56:46Z</time>
      </trkpt>
      <trkpt lat="40.370117" lon="-5.413283">
        <ele>2439.0</ele>
        <time>2013-05-12T12:56:47Z</time>
      </trkpt>
      <trkpt lat="40.370050" lon="-5.413167">
        <ele>2443.0</ele>
        <time>2013-05-12T12:56:48Z</time>
      </trkpt>
      <trkpt lat="40.369967" lon="-5.413083">
        <ele>2447.0</ele>
        <time>2013-05-12T12:56:49Z</time>
      </trkpt>
      <trkpt lat="40.369867" lon="-5.413000">
        <ele>2450.0</ele>
        <time>2013-05-12T12:56:50Z</time>
      </trkpt>
      <trkpt lat="40.369767" lon="-5.412950">
        <ele>2453.0</ele>
        <time>2013-05-12T12:56:51Z</time>
      </trkpt>
      <trkpt lat="40.369633" lon="-5.412933">
        <ele>2456.0</ele>
        <time>2013-05-12T12:56:52Z</time>
      </trkpt>
      <trkpt lat="40.369517" lon="-5.412950">
        <ele>2457.0</ele>
        <time>2013-05-12T12:56:53Z</time>
      </trkpt>
      <trkpt lat="40.369400" lon="-5.413017">
        <ele>2460.0</ele>
        <time>2013-05-12T12:56:54Z</time>
      </trkpt>
      <trkpt lat="40.369300" lon="-5.413100">
        <ele>2463.0</ele>
        <time>2013-05-12T12:56:55Z</time>
      </trkpt>
      <trkpt lat="40.369233" lon="-5.413217">
        <ele>2465.0</ele>
        <time>2013-05-12T12:56:56Z</time>
      </trkpt>
      <trkpt lat="40.369200" lon="-5.413317">
        <ele>2468.0</ele>
        <time>2013-05-12T12:56:57Z</time>
      </trkpt>
      <trkpt lat="40.369183" lon="-5.413433">
        <ele>2471.0</ele>
        <time>2013-05-12T12:56:58Z</time>
      </trkpt>
      <trkpt lat="40.369183" lon="-5.413517">
        <ele>2474.0</ele>
        <time>2013-05-12T12:56:59Z</time>
      </trkpt>
      <trkpt lat="40.369200" lon="-5.413600">
        <ele>2477.0</ele>
        <time>2013-05-12T12:57:00Z</time>
      </trkpt>
      <trkpt lat="40.369217" lon="-5.413683">
        <ele>2479.0</ele>
        <time>2013-05-12T12:57:01Z</time>
      </trkpt>
      <trkpt lat="40.369267" lon="-5.413733">
        <ele>2481.0</ele>
        <time>2013-05-12T12:57:02Z</time>
      </trkpt>
      <trkpt lat="40.369333" lon="-5.413783">
        <ele>2483.0</ele>
        <time>2013-05-12T12:57:03Z</time>
      </trkpt>
      <trkpt lat="40.369383" lon="-5.413800">
        <ele>2485.0</ele>
        <time>2013-05-12T12:57:04Z</time>
      </trkpt>
      <trkpt lat="40.369450" lon="-5.413783">
        <ele>2487.0</ele>
        <time>2013-05-12T12:57:05Z</time>
      </trkpt>
      <trkpt lat="40.369500" lon="-5.413767">
        <ele>2489.0</ele>
        <time>2013-05-12T12:57:06Z</time>
      </trkpt>
      <trkpt lat="40.369567" lon="-5.413750">
        <ele>2493.0</ele>
        <time>2013-05-12T12:57:07Z</time>
      </trkpt>
      <trkpt lat="40.369600" lon="-5.413717">
        <ele>2496.0</ele>
        <time>2013-05-12T12:57:08Z</time>
      </trkpt>
      <trkpt lat="40.369617" lon="-5.413650">
        <ele>2498.0</ele>
        <time>2013-05-12T12:57:09Z</time>
      </trkpt>
      <trkpt lat="40.369633" lon="-5.413583">
        <ele>2500.0</ele>
        <time>2013-05-12T12:57:10Z</time>
      </trkpt>
      <trkpt lat="40.369650" lon="-5.413483">
        <ele>2502.0</ele>
        <time>2013-05-12T12:57:11Z</time>
      </trkpt>
      <trkpt lat="40.369650" lon="-5.413383">
        <ele>2503.0</ele>
        <time>2013-05-12T12:57:12Z</time>
      </trkpt>
      <trkpt lat="40.369633" lon="-5.413267">
        <ele>2504.0</ele>
        <time>2013-05-12T12:57:13Z</time>
      </trkpt>
      <trkpt lat="40.369583" lon="-5.413117">
        <ele>2504.0</ele>
        <time>2013-05-12T12:57:14Z</time>
      </trkpt>
      <trkpt lat="40.369517" lon="-5.412983">
        <ele>2504.0</ele>
        <time>2013-05-12T12:57:15Z</time>
      </trkpt>
      <trkpt lat="40.369417" lon="-5.412850">
        <ele>2506.0</ele>
        <time>2013-05-12T12:57:16Z</time>
      </trkpt>
      <trkpt lat="40.369300" lon="-5.412750">
        <ele>2510.0</ele>
        <time>2013-05-12T12:57:17Z</time>
      </trkpt>
      <trkpt lat="40.369217" lon="-5.412683">
        <ele>2513.0</ele>
        <time>2013-05-12T12:57:18Z</time>
      </trkpt>
      <trkpt lat="40.369133" lon="-5.412617">
        <ele>2515.0</ele>
        <time>2013-05-12T12:57:19Z</time>
      </trkpt>
      <trkpt lat="40.369033" lon="-5.412550">
        <ele>2515.0</ele>
        <time>2013-05-12T12:57:20Z</time>
      </trkpt>
      <trkpt lat="40.368933" lon="-5.412500">
        <ele>2514.0</ele>
        <time>2013-05-12T12:57:21Z</time>
      </trkpt>
      <trkpt lat="40.368800" lon="-5.412483">
        <ele>2513.0</ele>
        <time>2013-05-12T12:57:22Z</time>
      </trkpt>
      <trkpt lat="40.368650" lon="-5.412500">
        <ele>2514.0</ele>
        <time>2013-05-12T12:57:23Z</time>
      </trkpt>
      <trkpt lat="40.368517" lon="-5.412533">
        <ele>2518.0</ele>
        <time>2013-05-12T12:57:24Z</time>
      </trkpt>
      <trkpt lat="40.368400" lon="-5.412583">
        <ele>2523.0</ele>
        <time>2013-05-12T12:57:25Z</time>
      </trkpt>
      <trkpt lat="40.368317" lon="-5.412633">
        <ele>2528.0</ele>
        <time>2013-05-12T12:57:26Z</time>
      </trkpt>
      <trkpt lat="40.368250" lon="-5.412700">
        <ele>2530.0</ele>
        <time>2013-05-12T12:57:27Z</time>
      </trkpt>
      <trkpt lat="40.368183" lon="-5.412783">
        <ele>2533.0</ele>
        <time>2013-05-12T12:57:28Z</time>
      </trkpt>
      <trkpt lat="40.368117" lon="-5.412883">
        <ele>2534.0</ele>
        <time>2013-05-12T12:57:29Z</time>
      </trkpt>
      <trkpt lat="40.368100" lon="-5.413000">
        <ele>2535.0</ele>
        <time>2013-05-12T12:57:30Z</time>
      </trkpt>
      <trkpt lat="40.368100" lon="-5.413117">
        <ele>2537.0</ele>
        <time>2013-05-12T12:57:31Z</time>
      </trkpt>
      <trkpt lat="40.368117" lon="-5.413217">
        <ele>2541.0</ele>
        <time>2013-05-12T12:57:32Z</time>
      </trkpt>
      <trkpt lat="40.368117" lon="-5.413317">
        <ele>2544.0</ele>
        <time>2013-05-12T12:57:33Z</time>
      </trkpt>
      <trkpt lat="40.368117" lon="-5.413417">
        <ele>2546.0</ele>
        <time>2013-05-12T12:57:34Z</time>
      </trkpt>
      <trkpt lat="40.368117" lon="-5.413517">
        <ele>2546.0</ele>
        <time>2013-05-12T12:57:35Z</time>
      </trkpt>
      <trkpt lat="40.368117" lon="-5.413617">
        <ele>2547.0</ele>
        <time>2013-05-12T12:57:36Z</time>
      </trkpt>
      <trkpt lat="40.368117" lon="-5.413733">
        <ele>2548.0</ele>
        <time>2013-05-12T12:57:37Z</time>
      </trkpt>
      <trkpt lat="40.368133" lon="-5.413850">
        <ele>2550.0</ele>
        <time>2013-05-12T12:57:38Z</time>
      </trkpt>
      <trkpt lat="40.368133" lon="-5.413950">
        <ele>2553.0</ele>
        <time>2013-05-12T12:57:39Z</time>
      </trkpt>
      <trkpt lat="40.368133" lon="-5.414050">
        <ele>2555.0</ele>
        <time>2013-05-12T12:57:40Z</time>
      </trkpt>
      <trkpt lat="40.368150" lon="-5.414133">
        <ele>2557.0</ele>
        <time>2013-05-12T12:57:41Z</time>
      </trkpt>
      <trkpt lat="40.368150" lon="-5.414233">
        <ele>2557.0</ele>
        <time>2013-05-12T12:57:42Z</time>
      </trkpt>
      <trkpt lat="40.368167" lon="-5.414317">
        <ele>2557.0</ele>
        <time>2013-05-12T12:57:43Z</time>
      </trkpt>
      <trkpt lat="40.368200" lon="-5.414417">
        <ele>2558.0</ele>
        <time>2013-05-12T12:57:44Z</time>
      </trkpt>
      <trkpt lat="40.368217" lon="-5.414483">
        <ele>2559.0</ele>
        <time>2013-05-12T12:57:45Z</time>
      </trkpt>
      <trkpt lat="40.368250" lon="-5.414550">
        <ele>2561.0</ele>
        <time>2013-05-12T12:57:46Z</time>
      </trkpt>
      <trkpt lat="40.368283" lon="-5.414617">
        <ele>2562.0</ele>
        <time>2013-05-12T12:57:47Z</time>
      </trkpt>
      <trkpt lat="40.368300" lon="-5.414683">
        <ele>2563.0</ele>
        <time>2013-05-12T12:57:48Z</time>
      </trkpt>
      <trkpt lat="40.368333" lon="-5.414750">
        <ele>2564.0</ele>
        <time>2013-05-12T12:57:49Z</time>
      </trkpt>
      <trkpt lat="40.368367" lon="-5.414817">
        <ele>2565.0</ele>
        <time>2013-05-12T12:57:50Z</time>
      </trkpt>
      <trkpt lat="40.368417" lon="-5.414883">
        <ele>2567.0</ele>
        <time>2013-05-12T12:57:51Z</time>
      </trkpt>
      <trkpt lat="40.368450" lon="-5.414933">
        <ele>2569.0</ele>
        <time>2013-05-12T12:57:52Z</time>
      </trkpt>
      <trkpt lat="40.368483" lon="-5.414983">
        <ele>2570.0</ele>
        <time>2013-05-12T12:57:53Z</time>
      </trkpt>
      <trkpt lat="40.368517" lon="-5.415033">
        <ele>2571.0</ele>
        <time>2013-05-12T12:57:54Z</time>
      </trkpt>
      <trkpt lat="40.368550" lon="-5.415083">
        <ele>2572.0</ele>
        <time>2013-05-12T12:57:55Z</time>
      </trkpt>
      <trkpt lat="40.368600" lon="-5.415150">
        <ele>2573.0</ele>
        <time>2013-05-12T12:57:56Z</time>
      </trkpt>
      <trkpt lat="40.368633" lon="-5.415200">
        <ele>2574.0</ele>
        <time>2013-05-12T12:57:57Z</time>
      </trkpt>
      <trkpt lat="40.368667" lon="-5.415250">
        <ele>2576.0</ele>
        <time>2013-05-12T12:57:58Z</time>
      </trkpt>
      <trkpt lat="40.368717" lon="-5.415300">
        <ele>2576.0</ele>
        <time>2013-05-12T12:57:59Z</time>
      </trkpt>
      <trkpt lat="40.368750" lon="-5.415333">
        <ele>2575.0</ele>
        <time>2013-05-12T12:58:00Z</time>
      </trkpt>
      <trkpt lat="40.368783" lon="-5.415383">
        <ele>2573.0</ele>
        <time>2013-05-12T12:58:01Z</time>
      </trkpt>
      <trkpt lat="40.368833" lon="-5.415433">
        <ele>2571.0</ele>
        <time>2013-05-12T12:58:02Z</time>
      </trkpt>
      <trkpt lat="40.368867" lon="-5.415517">
        <ele>2567.0</ele>
        <time>2013-05-12T12:58:03Z</time>
      </trkpt>
      <trkpt lat="40.368917" lon="-5.415617">
        <ele>2565.0</ele>
        <time>2013-05-12T12:58:04Z</time>
      </trkpt>
      <trkpt lat="40.368950" lon="-5.415700">
        <ele>2564.0</ele>
        <time>2013-05-12T12:58:05Z</time>
      </trkpt>
      <trkpt lat="40.369000" lon="-5.415767">
        <ele>2564.0</ele>
        <time>2013-05-12T12:58:06Z</time>
      </trkpt>
      <trkpt lat="40.369033" lon="-5.415850">
        <ele>2565.0</ele>
        <time>2013-05-12T12:58:07Z</time>
      </trkpt>
      <trkpt lat="40.369067" lon="-5.415917">
        <ele>2565.0</ele>
        <time>2013-05-12T12:58:08Z</time>
      </trkpt>
      <trkpt lat="40.369100" lon="-5.415983">
        <ele>2564.0</ele>
        <time>2013-05-12T12:58:09Z</time>
      </trkpt>
      <trkpt lat="40.369133" lon="-5.416067">
        <ele>2563.0</ele>
        <time>2013-05-12T12:58:10Z</time>
      </trkpt>
      <trkpt lat="40.369183" lon="-5.416133">
        <ele>2562.0</ele>
        <time>2013-05-12T12:58:11Z</time>
      </trkpt>
      <trkpt lat="40.369217" lon="-5.416200">
        <ele>2562.0</ele>
        <time>2013-05-12T12:58:12Z</time>
      </trkpt>
      <trkpt lat="40.369267" lon="-5.416267">
        <ele>2561.0</ele>
        <time>2013-05-12T12:58:13Z</time>
      </trkpt>
      <trkpt lat="40.369283" lon="-5.416333">
        <ele>2561.0</ele>
        <time>2013-05-12T12:58:14Z</time>
      </trkpt>
      <trkpt lat="40.369317" lon="-5.416417">
        <ele>2559.0</ele>
        <time>2013-05-12T12:58:15Z</time>
      </trkpt>
      <trkpt lat="40.369350" lon="-5.416500">
        <ele>2557.0</ele>
        <time>2013-05-12T12:58:16Z</time>
      </trkpt>
      <trkpt lat="40.369383" lon="-5.416600">
        <ele>2556.0</ele>
        <time>2013-05-12T12:58:17Z</time>
      </trkpt>
      <trkpt lat="40.369417" lon="-5.416683">
        <ele>2554.0</ele>
        <time>2013-05-12T12:58:18Z</time>
      </trkpt>
      <trkpt lat="40.369433" lon="-5.416767">
        <ele>2553.0</ele>
        <time>2013-05-12T12:58:19Z</time>
      </trkpt>
      <trkpt lat="40.369467" lon="-5.416850">
        <ele>2551.0</ele>
        <time>2013-05-12T12:58:20Z</time>
      </trkpt>
      <trkpt lat="40.369500" lon="-5.416950">
        <ele>2549.0</ele>
        <time>2013-05-12T12:58:21Z</time>
      </trkpt>
      <trkpt lat="40.369533" lon="-5.417033">
        <ele>2546.0</ele>
        <time>2013-05-12T12:58:22Z</time>
      </trkpt>
      <trkpt lat="40.369567" lon="-5.417117">
        <ele>2544.0</ele>
        <time>2013-05-12T12:58:23Z</time>
      </trkpt>
      <trkpt lat="40.369617" lon="-5.417200">
        <ele>2543.0</ele>
        <time>2013-05-12T12:58:24Z</time>
      </trkpt>
      <trkpt lat="40.369633" lon="-5.417283">
        <ele>2542.0</ele>
        <time>2013-05-12T12:58:25Z</time>
      </trkpt>
      <trkpt lat="40.369650" lon="-5.417367">
        <ele>2541.0</ele>
        <time>2013-05-12T12:58:26Z</time>
      </trkpt>
      <trkpt lat="40.369667" lon="-5.417467">
        <ele>2538.0</ele>
        <time>2013-05-12T12:58:27Z</time>
      </trkpt>
      <trkpt lat="40.369683" lon="-5.417550">
        <ele>2536.0</ele>
        <time>2013-05-12T12:58:28Z</time>
      </trkpt>
      <trkpt lat="40.369717" lon="-5.417650">
        <ele>2534.0</ele>
        <time>2013-05-12T12:58:29Z</time>
      </trkpt>
      <trkpt lat="40.369733" lon="-5.417750">
        <ele>2533.0</ele>
        <time>2013-05-12T12:58:30Z</time>
      </trkpt>
      <trkpt lat="40.369750" lon="-5.417850">
        <ele>2532.0</ele>
        <time>2013-05-12T12:58:31Z</time>
      </trkpt>
      <trkpt lat="40.369750" lon="-5.417950">
        <ele>2531.0</ele>
        <time>2013-05-12T12:58:32Z</time>
      </trkpt>
      <trkpt lat="40.369767" lon="-5.418050">
        <ele>2530.0</ele>
        <time>2013-05-12T12:58:33Z</time>
      </trkpt>
      <trkpt lat="40.369783" lon="-5.418133">
        <ele>2529.0</ele>
        <time>2013-05-12T12:58:34Z</time>
      </trkpt>
      <trkpt lat="40.369783" lon="-5.418233">
        <ele>2527.0</ele>
        <time>2013-05-12T12:58:35Z</time>
      </trkpt>
      <trkpt lat="40.369800" lon="-5.418333">
        <ele>2526.0</ele>
        <time>2013-05-12T12:58:36Z</time>
      </trkpt>
      <trkpt lat="40.369800" lon="-5.418433">
        <ele>2524.0</ele>
        <time>2013-05-12T12:58:37Z</time>
      </trkpt>
      <trkpt lat="40.369800" lon="-5.418533">
        <ele>2523.0</ele>
        <time>2013-05-12T12:58:38Z</time>
      </trkpt>
      <trkpt lat="40.369817" lon="-5.418617">
        <ele>2521.0</ele>
        <time>2013-05-12T12:58:39Z</time>
      </trkpt>
      <trkpt lat="40.369833" lon="-5.418717">
        <ele>2520.0</ele>
        <time>2013-05-12T12:58:40Z</time>
      </trkpt>
      <trkpt lat="40.369867" lon="-5.418800">
        <ele>2518.0</ele>
        <time>2013-05-12T12:58:41Z</time>
      </trkpt>
      <trkpt lat="40.369883" lon="-5.418883">
        <ele>2517.0</ele>
        <time>2013-05-12T12:58:42Z</time>
      </trkpt>
      <trkpt lat="40.369917" lon="-5.418967">
        <ele>2516.0</ele>
        <time>2013-05-12T12:58:43Z</time>
      </trkpt>
      <trkpt lat="40.369950" lon="-5.419050">
        <ele>2515.0</ele>
        <time>2013-05-12T12:58:44Z</time>
      </trkpt>
      <trkpt lat="40.369967" lon="-5.419133">
        <ele>2513.0</ele>
        <time>2013-05-12T12:58:45Z</time>
      </trkpt>
      <trkpt lat="40.370000" lon="-5.419233">
        <ele>2512.0</ele>
        <time>2013-05-12T12:58:46Z</time>
      </trkpt>
      <trkpt lat="40.370000" lon="-5.419333">
        <ele>2511.0</ele>
        <time>2013-05-12T12:58:47Z</time>
      </trkpt>
      <trkpt lat="40.370017" lon="-5.419433">
        <ele>2510.0</ele>
        <time>2013-05-12T12:58:48Z</time>
      </trkpt>
      <trkpt lat="40.370017" lon="-5.419517">
        <ele>2509.0</ele>
        <time>2013-05-12T12:58:49Z</time>
      </trkpt>
      <trkpt lat="40.370017" lon="-5.419617">
        <ele>2507.0</ele>
        <time>2013-05-12T12:58:50Z</time>
      </trkpt>
      <trkpt lat="40.370033" lon="-5.419717">
        <ele>2506.0</ele>
        <time>2013-05-12T12:58:51Z</time>
      </trkpt>
      <trkpt lat="40.370033" lon="-5.419833">
        <ele>2504.0</ele>
        <time>2013-05-12T12:58:52Z</time>
      </trkpt>
      <trkpt lat="40.370033" lon="-5.419933">
        <ele>2503.0</ele>
        <time>2013-05-12T12:58:53Z</time>
      </trkpt>
      <trkpt lat="40.370033" lon="-5.420033">
        <ele>2503.0</ele>
        <time>2013-05-12T12:58:54Z</time>
      </trkpt>
      <trkpt lat="40.370033" lon="-5.420133">
        <ele>2502.0</ele>
        <time>2013-05-12T12:58:55Z</time>
      </trkpt>
      <trkpt lat="40.370033" lon="-5.420233">
        <ele>2501.0</ele>
        <time>2013-05-12T12:58:56Z</time>
      </trkpt>
      <trkpt lat="40.370033" lon="-5.420333">
        <ele>2500.0</ele>
        <time>2013-05-12T12:58:57Z</time>
      </trkpt>
      <trkpt lat="40.370033" lon="-5.420450">
        <ele>2498.0</ele>
        <time>2013-05-12T12:58:58Z</time>
      </trkpt>
      <trkpt lat="40.370033" lon="-5.420567">
        <ele>2497.0</ele>
        <time>2013-05-12T12:58:59Z</time>
      </trkpt>
      <trkpt lat="40.370033" lon="-5.420667">
        <ele>2497.0</ele>
        <time>2013-05-12T12:59:00Z</time>
      </trkpt>
      <trkpt lat="40.370033" lon="-5.420767">
        <ele>2497.0</ele>
        <time>2013-05-12T12:59:01Z</time>
      </trkpt>
      <trkpt lat="40.370033" lon="-5.420867">
        <ele>2497.0</ele>
        <time>2013-05-12T12:59:02Z</time>
      </trkpt>
      <trkpt lat="40.370033" lon="-5.420967">
        <ele>2497.0</ele>
        <time>2013-05-12T12:59:03Z</time>
      </trkpt>
      <trkpt lat="40.370033" lon="-5.421083">
        <ele>2497.0</ele>
        <time>2013-05-12T12:59:04Z</time>
      </trkpt>
      <trkpt lat="40.370017" lon="-5.421200">
        <ele>2498.0</ele>
        <time>2013-05-12T12:59:05Z</time>
      </trkpt>
      <trkpt lat="40.370017" lon="-5.421300">
        <ele>2499.0</ele>
        <time>2013-05-12T12:59:06Z</time>
      </trkpt>
      <trkpt lat="40.370017" lon="-5.421417">
        <ele>2499.0</ele>
        <time>2013-05-12T12:59:07Z</time>
      </trkpt>
      <trkpt lat="40.370017" lon="-5.421517">
        <ele>2498.0</ele>
        <time>2013-05-12T12:59:08Z</time>
      </trkpt>
      <trkpt lat="40.370000" lon="-5.421633">
        <ele>2497.0</ele>
        <time>2013-05-12T12:59:09Z</time>
      </trkpt>
      <trkpt lat="40.369967" lon="-5.421767">
        <ele>2495.0</ele>
        <time>2013-05-12T12:59:10Z</time>
      </trkpt>
      <trkpt lat="40.369950" lon="-5.421867">
        <ele>2492.0</ele>
        <time>2013-05-12T12:59:11Z</time>
      </trkpt>
      <trkpt lat="40.369950" lon="-5.421983">
        <ele>2489.0</ele>
        <time>2013-05-12T12:59:12Z</time>
      </trkpt>
      <trkpt lat="40.369933" lon="-5.422100">
        <ele>2486.0</ele>
        <time>2013-05-12T12:59:13Z</time>
      </trkpt>
      <trkpt lat="40.369917" lon="-5.422233">
        <ele>2484.0</ele>
        <time>2013-05-12T12:59:14Z</time>
      </trkpt>
      <trkpt lat="40.369917" lon="-5.422350">
        <ele>2482.0</ele>
        <time>2013-05-12T12:59:15Z</time>
      </trkpt>
      <trkpt lat="40.369900" lon="-5.422467">
        <ele>2481.0</ele>
        <time>2013-05-12T12:59:16Z</time>
      </trkpt>
      <trkpt lat="40.369900" lon="-5.422567">
        <ele>2480.0</ele>
        <time>2013-05-12T12:59:17Z</time>
      </trkpt>
      <trkpt lat="40.369900" lon="-5.422650">
        <ele>2479.0</ele>
        <time>2013-05-12T12:59:18Z</time>
      </trkpt>
      <trkpt lat="40.369883" lon="-5.422750">
        <ele>2476.0</ele>
        <time>2013-05-12T12:59:19Z</time>
      </trkpt>
      <trkpt lat="40.369883" lon="-5.422850">
        <ele>2473.0</ele>
        <time>2013-05-12T12:59:20Z</time>
      </trkpt>
      <trkpt lat="40.369883" lon="-5.422983">
        <ele>2469.0</ele>
        <time>2013-05-12T12:59:21Z</time>
      </trkpt>
      <trkpt lat="40.369883" lon="-5.423100">
        <ele>2467.0</ele>
        <time>2013-05-12T12:59:22Z</time>
      </trkpt>
      <trkpt lat="40.369883" lon="-5.423217">
        <ele>2468.0</ele>
        <time>2013-05-12T12:59:23Z</time>
      </trkpt>
      <trkpt lat="40.369883" lon="-5.423317">
        <ele>2468.0</ele>
        <time>2013-05-12T12:59:24Z</time>
      </trkpt>
      <trkpt lat="40.369883" lon="-5.423400">
        <ele>2468.0</ele>
        <time>2013-05-12T12:59:25Z</time>
      </trkpt>
      <trkpt lat="40.369883" lon="-5.423500">
        <ele>2467.0</ele>
        <time>2013-05-12T12:59:26Z</time>
      </trkpt>
      <trkpt lat="40.369883" lon="-5.423600">
        <ele>2465.0</ele>
        <time>2013-05-12T12:59:27Z</time>
      </trkpt>
      <trkpt lat="40.369883" lon="-5.423717">
        <ele>2462.0</ele>
        <time>2013-05-12T12:59:28Z</time>
      </trkpt>
      <trkpt lat="40.369867" lon="-5.423833">
        <ele>2461.0</ele>
        <time>2013-05-12T12:59:29Z</time>
      </trkpt>
      <trkpt lat="40.369867" lon="-5.423967">
        <ele>2462.0</ele>
        <time>2013-05-12T12:59:30Z</time>
      </trkpt>
      <trkpt lat="40.369850" lon="-5.424067">
        <ele>2463.0</ele>
        <time>2013-05-12T12:59:31Z</time>
      </trkpt>
      <trkpt lat="40.369833" lon="-5.424183">
        <ele>2463.0</ele>
        <time>2013-05-12T12:59:32Z</time>
      </trkpt>
      <trkpt lat="40.369817" lon="-5.424283">
        <ele>2463.0</ele>
        <time>2013-05-12T12:59:33Z</time>
      </trkpt>
      <trkpt lat="40.369817" lon="-5.424383">
        <ele>2463.0</ele>
        <time>2013-05-12T12:59:34Z</time>
      </trkpt>
      <trkpt lat="40.369817" lon="-5.424483">
        <ele>2463.0</ele>
        <time>2013-05-12T12:59:35Z</time>
      </trkpt>
      <trkpt lat="40.369833" lon="-5.424567">
        <ele>2463.0</ele>
        <time>2013-05-12T12:59:36Z</time>
      </trkpt>
      <trkpt lat="40.369833" lon="-5.424667">
        <ele>2464.0</ele>
        <time>2013-05-12T12:59:37Z</time>
      </trkpt>
      <trkpt lat="40.369850" lon="-5.424767">
        <ele>2464.0</ele>
        <time>2013-05-12T12:59:38Z</time>
      </trkpt>
      <trkpt lat="40.369850" lon="-5.424883">
        <ele>2464.0</ele>
        <time>2013-05-12T12:59:39Z</time>
      </trkpt>
      <trkpt lat="40.369850" lon="-5.425000">
        <ele>2463.0</ele>
        <time>2013-05-12T12:59:40Z</time>
      </trkpt>
      <trkpt lat="40.369833" lon="-5.425100">
        <ele>2463.0</ele>
        <time>2013-05-12T12:59:41Z</time>
      </trkpt>
      <trkpt lat="40.369833" lon="-5.425183">
        <ele>2463.0</ele>
        <time>2013-05-12T12:59:42Z</time>
      </trkpt>
      <trkpt lat="40.369800" lon="-5.425267">
        <ele>2463.0</ele>
        <time>2013-05-12T12:59:43Z</time>
      </trkpt>
      <trkpt lat="40.369783" lon="-5.425367">
        <ele>2461.0</ele>
        <time>2013-05-12T12:59:44Z</time>
      </trkpt>
      <trkpt lat="40.369767" lon="-5.425467">
        <ele>2459.0</ele>
        <time>2013-05-12T12:59:45Z</time>
      </trkpt>
      <trkpt lat="40.369750" lon="-5.425567">
        <ele>2457.0</ele>
        <time>2013-05-12T12:59:46Z</time>
      </trkpt>
      <trkpt lat="40.369733" lon="-5.425667">
        <ele>2456.0</ele>
        <time>2013-05-12T12:59:47Z</time>
      </trkpt>
      <trkpt lat="40.369733" lon="-5.425783">
        <ele>2455.0</ele>
        <time>2013-05-12T12:59:48Z</time>
      </trkpt>
      <trkpt lat="40.369733" lon="-5.425917">
        <ele>2454.0</ele>
        <time>2013-05-12T12:59:49Z</time>
      </trkpt>
      <trkpt lat="40.369717" lon="-5.426050">
        <ele>2453.0</ele>
        <time>2013-05-12T12:59:50Z</time>
      </trkpt>
      <trkpt lat="40.369717" lon="-5.426183">
        <ele>2454.0</ele>
        <time>2013-05-12T12:59:51Z</time>
      </trkpt>
      <trkpt lat="40.369717" lon="-5.426317">
        <ele>2454.0</ele>
        <time>2013-05-12T12:59:52Z</time>
      </trkpt>
      <trkpt lat="40.369700" lon="-5.426433">
        <ele>2455.0</ele>
        <time>2013-05-12T12:59:53Z</time>
      </trkpt>
      <trkpt lat="40.369683" lon="-5.426550">
        <ele>2454.0</ele>
        <time>2013-05-12T12:59:54Z</time>
      </trkpt>
      <trkpt lat="40.369667" lon="-5.426683">
        <ele>2454.0</ele>
        <time>2013-05-12T12:59:55Z</time>
      </trkpt>
      <trkpt lat="40.369650" lon="-5.426817">
        <ele>2453.0</ele>
        <time>2013-05-12T12:59:56Z</time>
      </trkpt>
      <trkpt lat="40.369633" lon="-5.426967">
        <ele>2453.0</ele>
        <time>2013-05-12T12:59:57Z</time>
      </trkpt>
      <trkpt lat="40.369617" lon="-5.427100">
        <ele>2453.0</ele>
        <time>2013-05-12T12:59:58Z</time>
      </trkpt>
      <trkpt lat="40.369600" lon="-5.427250">
        <ele>2454.0</ele>
        <time>2013-05-12T12:59:59Z</time>
      </trkpt>
      <trkpt lat="40.369583" lon="-5.427383">
        <ele>2456.0</ele>
        <time>2013-05-12T13:00:00Z</time>
      </trkpt>
      <trkpt lat="40.369567" lon="-5.427517">
        <ele>2457.0</ele>
        <time>2013-05-12T13:00:01Z</time>
      </trkpt>
      <trkpt lat="40.369550" lon="-5.427633">
        <ele>2458.0</ele>
        <time>2013-05-12T13:00:02Z</time>
      </trkpt>
      <trkpt lat="40.369533" lon="-5.427750">
        <ele>2458.0</ele>
        <time>2013-05-12T13:00:03Z</time>
      </trkpt>
      <trkpt lat="40.369500" lon="-5.427883">
        <ele>2457.0</ele>
        <time>2013-05-12T13:00:04Z</time>
      </trkpt>
      <trkpt lat="40.369483" lon="-5.428033">
        <ele>2456.0</ele>
        <time>2013-05-12T13:00:05Z</time>
      </trkpt>
      <trkpt lat="40.369450" lon="-5.428167">
        <ele>2455.0</ele>
        <time>2013-05-12T13:00:06Z</time>
      </trkpt>
      <trkpt lat="40.369433" lon="-5.428300">
        <ele>2455.0</ele>
        <time>2013-05-12T13:00:07Z</time>
      </trkpt>
      <trkpt lat="40.369400" lon="-5.428417">
        <ele>2455.0</ele>
        <time>2013-05-12T13:00:08Z</time>
      </trkpt>
      <trkpt lat="40.369383" lon="-5.428517">
        <ele>2454.0</ele>
        <time>2013-05-12T13:00:09Z</time>
      </trkpt>
      <trkpt lat="40.369350" lon="-5.428633">
        <ele>2453.0</ele>
        <time>2013-05-12T13:00:10Z</time>
      </trkpt>
      <trkpt lat="40.369317" lon="-5.428750">
        <ele>2450.0</ele>
        <time>2013-05-12T13:00:11Z</time>
      </trkpt>
      <trkpt lat="40.369283" lon="-5.428883">
        <ele>2448.0</ele>
        <time>2013-05-12T13:00:12Z</time>
      </trkpt>
      <trkpt lat="40.369250" lon="-5.429000">
        <ele>2446.0</ele>
        <time>2013-05-12T13:00:13Z</time>
      </trkpt>
      <trkpt lat="40.369233" lon="-5.429117">
        <ele>2445.0</ele>
        <time>2013-05-12T13:00:14Z</time>
      </trkpt>
      <trkpt lat="40.369233" lon="-5.429233">
        <ele>2443.0</ele>
        <time>2013-05-12T13:00:15Z</time>
      </trkpt>
      <trkpt lat="40.369217" lon="-5.429333">
        <ele>2441.0</ele>
        <time>2013-05-12T13:00:16Z</time>
      </trkpt>
      <trkpt lat="40.369200" lon="-5.429433">
        <ele>2439.0</ele>
        <time>2013-05-12T13:00:17Z</time>
      </trkpt>
      <trkpt lat="40.369183" lon="-5.429533">
        <ele>2436.0</ele>
        <time>2013-05-12T13:00:18Z</time>
      </trkpt>
      <trkpt lat="40.369183" lon="-5.429650">
        <ele>2433.0</ele>
        <time>2013-05-12T13:00:19Z</time>
      </trkpt>
      <trkpt lat="40.369183" lon="-5.429750">
        <ele>2431.0</ele>
        <time>2013-05-12T13:00:20Z</time>
      </trkpt>
      <trkpt lat="40.369183" lon="-5.429867">
        <ele>2429.0</ele>
        <time>2013-05-12T13:00:21Z</time>
      </trkpt>
      <trkpt lat="40.369167" lon="-5.429967">
        <ele>2427.0</ele>
        <time>2013-05-12T13:00:22Z</time>
      </trkpt>
      <trkpt lat="40.369167" lon="-5.430050">
        <ele>2424.0</ele>
        <time>2013-05-12T13:00:23Z</time>
      </trkpt>
      <trkpt lat="40.369167" lon="-5.430150">
        <ele>2421.0</ele>
        <time>2013-05-12T13:00:24Z</time>
      </trkpt>
      <trkpt lat="40.369167" lon="-5.430250">
        <ele>2416.0</ele>
        <time>2013-05-12T13:00:25Z</time>
      </trkpt>
      <trkpt lat="40.369183" lon="-5.430367">
        <ele>2412.0</ele>
        <time>2013-05-12T13:00:26Z</time>
      </trkpt>
      <trkpt lat="40.369183" lon="-5.430467">
        <ele>2409.0</ele>
        <time>2013-05-12T13:00:27Z</time>
      </trkpt>
      <trkpt lat="40.369183" lon="-5.430567">
        <ele>2406.0</ele>
        <time>2013-05-12T13:00:28Z</time>
      </trkpt>
      <trkpt lat="40.369200" lon="-5.430683">
        <ele>2404.0</ele>
        <time>2013-05-12T13:00:29Z</time>
      </trkpt>
      <trkpt lat="40.369200" lon="-5.430783">
        <ele>2401.0</ele>
        <time>2013-05-12T13:00:30Z</time>
      </trkpt>
      <trkpt lat="40.369200" lon="-5.430900">
        <ele>2400.0</ele>
        <time>2013-05-12T13:00:31Z</time>
      </trkpt>
      <trkpt lat="40.369200" lon="-5.430983">
        <ele>2399.0</ele>
        <time>2013-05-12T13:00:32Z</time>
      </trkpt>
      <trkpt lat="40.369200" lon="-5.431083">
        <ele>2397.0</ele>
        <time>2013-05-12T13:00:33Z</time>
      </trkpt>
      <trkpt lat="40.369200" lon="-5.431183">
        <ele>2395.0</ele>
        <time>2013-05-12T13:00:34Z</time>
      </trkpt>
      <trkpt lat="40.369183" lon="-5.431283">
        <ele>2392.0</ele>
        <time>2013-05-12T13:00:35Z</time>
      </trkpt>
      <trkpt lat="40.369167" lon="-5.431400">
        <ele>2389.0</ele>
        <time>2013-05-12T13:00:36Z</time>
      </trkpt>
      <trkpt lat="40.369167" lon="-5.431517">
        <ele>2386.0</ele>
        <time>2013-05-12T13:00:37Z</time>
      </trkpt>
      <trkpt lat="40.369150" lon="-5.431633">
        <ele>2385.0</ele>
        <time>2013-05-12T13:00:38Z</time>
      </trkpt>
      <trkpt lat="40.369133" lon="-5.431750">
        <ele>2383.0</ele>
        <time>2013-05-12T13:00:39Z</time>
      </trkpt>
      <trkpt lat="40.369117" lon="-5.431867">
        <ele>2383.0</ele>
        <time>2013-05-12T13:00:40Z</time>
      </trkpt>
      <trkpt lat="40.369117" lon="-5.431967">
        <ele>2382.0</ele>
        <time>2013-05-12T13:00:41Z</time>
      </trkpt>
      <trkpt lat="40.369100" lon="-5.432050">
        <ele>2381.0</ele>
        <time>2013-05-12T13:00:42Z</time>
      </trkpt>
      <trkpt lat="40.369083" lon="-5.432150">
        <ele>2379.0</ele>
        <time>2013-05-12T13:00:43Z</time>
      </trkpt>
      <trkpt lat="40.369083" lon="-5.432233">
        <ele>2377.0</ele>
        <time>2013-05-12T13:00:44Z</time>
      </trkpt>
      <trkpt lat="40.369067" lon="-5.432350">
        <ele>2374.0</ele>
        <time>2013-05-12T13:00:45Z</time>
      </trkpt>
      <trkpt lat="40.369067" lon="-5.432467">
        <ele>2372.0</ele>
        <time>2013-05-12T13:00:46Z</time>
      </trkpt>
      <trkpt lat="40.369050" lon="-5.432583">
        <ele>2372.0</ele>
        <time>2013-05-12T13:00:47Z</time>
      </trkpt>
      <trkpt lat="40.369017" lon="-5.432667">
        <ele>2371.0</ele>
        <time>2013-05-12T13:00:48Z</time>
      </trkpt>
      <trkpt lat="40.369000" lon="-5.432733">
        <ele>2369.0</ele>
        <time>2013-05-12T13:00:49Z</time>
      </trkpt>
      <trkpt lat="40.368967" lon="-5.432800">
        <ele>2366.0</ele>
        <time>2013-05-12T13:00:50Z</time>
      </trkpt>
      <trkpt lat="40.368950" lon="-5.432883">
        <ele>2361.0</ele>
        <time>2013-05-12T13:00:51Z</time>
      </trkpt>
      <trkpt lat="40.368917" lon="-5.433000">
        <ele>2357.0</ele>
        <time>2013-05-12T13:00:52Z</time>
      </trkpt>
      <trkpt lat="40.368900" lon="-5.433117">
        <ele>2355.0</ele>
        <time>2013-05-12T13:00:53Z</time>
      </trkpt>
      <trkpt lat="40.368867" lon="-5.433233">
        <ele>2353.0</ele>
        <time>2013-05-12T13:00:54Z</time>
      </trkpt>
      <trkpt lat="40.368850" lon="-5.433350">
        <ele>2353.0</ele>
        <time>2013-05-12T13:00:55Z</time>
      </trkpt>
      <trkpt lat="40.368833" lon="-5.433467">
        <ele>2354.0</ele>
        <time>2013-05-12T13:00:56Z</time>
      </trkpt>
      <trkpt lat="40.368817" lon="-5.433567">
        <ele>2355.0</ele>
        <time>2013-05-12T13:00:57Z</time>
      </trkpt>
      <trkpt lat="40.368800" lon="-5.433667">
        <ele>2355.0</ele>
        <time>2013-05-12T13:00:58Z</time>
      </trkpt>
      <trkpt lat="40.368767" lon="-5.433767">
        <ele>2355.0</ele>
        <time>2013-05-12T13:00:59Z</time>
      </trkpt>
      <trkpt lat="40.368733" lon="-5.433850">
        <ele>2354.0</ele>
        <time>2013-05-12T13:01:00Z</time>
      </trkpt>
      <trkpt lat="40.368717" lon="-5.433967">
        <ele>2352.0</ele>
        <time>2013-05-12T13:01:01Z</time>
      </trkpt>
      <trkpt lat="40.368683" lon="-5.434083">
        <ele>2350.0</ele>
        <time>2013-05-12T13:01:02Z</time>
      </trkpt>
      <trkpt lat="40.368667" lon="-5.434183">
        <ele>2349.0</ele>
        <time>2013-05-12T13:01:03Z</time>
      </trkpt>
      <trkpt lat="40.368633" lon="-5.434300">
        <ele>2349.0</ele>
        <time>2013-05-12T13:01:04Z</time>
      </trkpt>
      <trkpt lat="40.368600" lon="-5.434383">
        <ele>2348.0</ele>
        <time>2013-05-12T13:01:05Z</time>
      </trkpt>
      <trkpt lat="40.368583" lon="-5.434467">
        <ele>2348.0</ele>
        <time>2013-05-12T13:01:06Z</time>
      </trkpt>
      <trkpt lat="40.368567" lon="-5.434567">
        <ele>2346.0</ele>
        <time>2013-05-12T13:01:07Z</time>
      </trkpt>
      <trkpt lat="40.368550" lon="-5.434650">
        <ele>2345.0</ele>
        <time>2013-05-12T13:01:08Z</time>
      </trkpt>
      <trkpt lat="40.368533" lon="-5.434750">
        <ele>2344.0</ele>
        <time>2013-05-12T13:01:09Z</time>
      </trkpt>
      <trkpt lat="40.368500" lon="-5.434833">
        <ele>2344.0</ele>
        <time>2013-05-12T13:01:10Z</time>
      </trkpt>
      <trkpt lat="40.368483" lon="-5.434933">
        <ele>2344.0</ele>
        <time>2013-05-12T13:01:11Z</time>
      </trkpt>
      <trkpt lat="40.368467" lon="-5.435017">
        <ele>2345.0</ele>
        <time>2013-05-12T13:01:12Z</time>
      </trkpt>
      <trkpt lat="40.368450" lon="-5.435117">
        <ele>2344.0</ele>
        <time>2013-05-12T13:01:13Z</time>
      </trkpt>
      <trkpt lat="40.368417" lon="-5.435200">
        <ele>2343.0</ele>
        <time>2013-05-12T13:01:14Z</time>
      </trkpt>
      <trkpt lat="40.368383" lon="-5.435267">
        <ele>2340.0</ele>
        <time>2013-05-12T13:01:15Z</time>
      </trkpt>
      <trkpt lat="40.368367" lon="-5.435367">
        <ele>2337.0</ele>
        <time>2013-05-12T13:01:16Z</time>
      </trkpt>
      <trkpt lat="40.368367" lon="-5.435450">
        <ele>2333.0</ele>
        <time>2013-05-12T13:01:17Z</time>
      </trkpt>
      <trkpt lat="40.368367" lon="-5.435550">
        <ele>2329.0</ele>
        <time>2013-05-12T13:01:18Z</time>
      </trkpt>
      <trkpt lat="40.368350" lon="-5.435650">
        <ele>2326.0</ele>
        <time>2013-05-12T13:01:19Z</time>
      </trkpt>
      <trkpt lat="40.368350" lon="-5.435750">
        <ele>2322.0</ele>
        <time>2013-05-12T13:01:20Z</time>
      </trkpt>
      <trkpt lat="40.368317" lon="-5.435850">
        <ele>2319.0</ele>
        <time>2013-05-12T13:01:21Z</time>
      </trkpt>
      <trkpt lat="40.368300" lon="-5.435950">
        <ele>2315.0</ele>
        <time>2013-05-12T13:01:22Z</time>
      </trkpt>
      <trkpt lat="40.368283" lon="-5.436067">
        <ele>2312.0</ele>
        <time>2013-05-12T13:01:23Z</time>
      </trkpt>
      <trkpt lat="40.368283" lon="-5.436183">
        <ele>2309.0</ele>
        <time>2013-05-12T13:01:24Z</time>
      </trkpt>
      <trkpt lat="40.368267" lon="-5.436283">
        <ele>2308.0</ele>
        <time>2013-05-12T13:01:25Z</time>
      </trkpt>
      <trkpt lat="40.368267" lon="-5.436383">
        <ele>2307.0</ele>
        <time>2013-05-12T13:01:26Z</time>
      </trkpt>
      <trkpt lat="40.368267" lon="-5.436483">
        <ele>2306.0</ele>
        <time>2013-05-12T13:01:27Z</time>
      </trkpt>
      <trkpt lat="40.368267" lon="-5.436583">
        <ele>2304.0</ele>
        <time>2013-05-12T13:01:28Z</time>
      </trkpt>
      <trkpt lat="40.368267" lon="-5.436700">
        <ele>2302.0</ele>
        <time>2013-05-12T13:01:29Z</time>
      </trkpt>
      <trkpt lat="40.368267" lon="-5.436817">
        <ele>2300.0</ele>
        <time>2013-05-12T13:01:30Z</time>
      </trkpt>
      <trkpt lat="40.368250" lon="-5.436933">
        <ele>2298.0</ele>
        <time>2013-05-12T13:01:31Z</time>
      </trkpt>
      <trkpt lat="40.368233" lon="-5.437033">
        <ele>2296.0</ele>
        <time>2013-05-12T13:01:32Z</time>
      </trkpt>
      <trkpt lat="40.368217" lon="-5.437150">
        <ele>2294.0</ele>
        <time>2013-05-12T13:01:33Z</time>
      </trkpt>
      <trkpt lat="40.368200" lon="-5.437250">
        <ele>2293.0</ele>
        <time>2013-05-12T13:01:34Z</time>
      </trkpt>
      <trkpt lat="40.368183" lon="-5.437367">
        <ele>2292.0</ele>
        <time>2013-05-12T13:01:35Z</time>
      </trkpt>
      <trkpt lat="40.368167" lon="-5.437467">
        <ele>2291.0</ele>
        <time>2013-05-12T13:01:36Z</time>
      </trkpt>
      <trkpt lat="40.368150" lon="-5.437567">
        <ele>2291.0</ele>
        <time>2013-05-12T13:01:37Z</time>
      </trkpt>
      <trkpt lat="40.368133" lon="-5.437667">
        <ele>2291.0</ele>
        <time>2013-05-12T13:01:38Z</time>
      </trkpt>
      <trkpt lat="40.368100" lon="-5.437750">
        <ele>2290.0</ele>
        <time>2013-05-12T13:01:39Z</time>
      </trkpt>
      <trkpt lat="40.368067" lon="-5.437850">
        <ele>2289.0</ele>
        <time>2013-05-12T13:01:40Z</time>
      </trkpt>
      <trkpt lat="40.368050" lon="-5.437933">
        <ele>2289.0</ele>
        <time>2013-05-12T13:01:41Z</time>
      </trkpt>
      <trkpt lat="40.368017" lon="-5.438017">
        <ele>2288.0</ele>
        <time>2013-05-12T13:01:42Z</time>
      </trkpt>
      <trkpt lat="40.368000" lon="-5.438100">
        <ele>2287.0</ele>
        <time>2013-05-12T13:01:43Z</time>
      </trkpt>
      <trkpt lat="40.367983" lon="-5.438183">
        <ele>2286.0</ele>
        <time>2013-05-12T13:01:44Z</time>
      </trkpt>
      <trkpt lat="40.367950" lon="-5.438283">
        <ele>2284.0</ele>
        <time>2013-05-12T13:01:45Z</time>
      </trkpt>
      <trkpt lat="40.367917" lon="-5.438383">
        <ele>2282.0</ele>
        <time>2013-05-12T13:01:46Z</time>
      </trkpt>
      <trkpt lat="40.367900" lon="-5.438483">
        <ele>2281.0</ele>
        <time>2013-05-12T13:01:47Z</time>
      </trkpt>
      <trkpt lat="40.367867" lon="-5.438583">
        <ele>2280.0</ele>
        <time>2013-05-12T13:01:48Z</time>
      </trkpt>
      <trkpt lat="40.367833" lon="-5.438683">
        <ele>2278.0</ele>
        <time>2013-05-12T13:01:49Z</time>
      </trkpt>
      <trkpt lat="40.367817" lon="-5.438767">
        <ele>2277.0</ele>
        <time>2013-05-12T13:01:50Z</time>
      </trkpt>
      <trkpt lat="40.367800" lon="-5.438867">
        <ele>2275.0</ele>
        <time>2013-05-12T13:01:51Z</time>
      </trkpt>
      <trkpt lat="40.367783" lon="-5.438967">
        <ele>2273.0</ele>
        <time>2013-05-12T13:01:52Z</time>
      </trkpt>
      <trkpt lat="40.367767" lon="-5.439067">
        <ele>2271.0</ele>
        <time>2013-05-12T13:01:53Z</time>
      </trkpt>
      <trkpt lat="40.367750" lon="-5.439167">
        <ele>2268.0</ele>
        <time>2013-05-12T13:01:54Z</time>
      </trkpt>
      <trkpt lat="40.367733" lon="-5.439267">
        <ele>2266.0</ele>
        <time>2013-05-12T13:01:55Z</time>
      </trkpt>
      <trkpt lat="40.367717" lon="-5.439383">
        <ele>2265.0</ele>
        <time>2013-05-12T13:01:56Z</time>
      </trkpt>
      <trkpt lat="40.367683" lon="-5.439467">
        <ele>2264.0</ele>
        <time>2013-05-12T13:01:57Z</time>
      </trkpt>
      <trkpt lat="40.367650" lon="-5.439567">
        <ele>2262.0</ele>
        <time>2013-05-12T13:01:58Z</time>
      </trkpt>
      <trkpt lat="40.367633" lon="-5.439667">
        <ele>2260.0</ele>
        <time>2013-05-12T13:01:59Z</time>
      </trkpt>
      <trkpt lat="40.367617" lon="-5.439750">
        <ele>2258.0</ele>
        <time>2013-05-12T13:02:00Z</time>
      </trkpt>
      <trkpt lat="40.367583" lon="-5.439850">
        <ele>2256.0</ele>
        <time>2013-05-12T13:02:01Z</time>
      </trkpt>
      <trkpt lat="40.367567" lon="-5.439950">
        <ele>2253.0</ele>
        <time>2013-05-12T13:02:02Z</time>
      </trkpt>
      <trkpt lat="40.367533" lon="-5.440067">
        <ele>2251.0</ele>
        <time>2013-05-12T13:02:03Z</time>
      </trkpt>
      <trkpt lat="40.367517" lon="-5.440167">
        <ele>2248.0</ele>
        <time>2013-05-12T13:02:04Z</time>
      </trkpt>
      <trkpt lat="40.367483" lon="-5.440283">
        <ele>2246.0</ele>
        <time>2013-05-12T13:02:05Z</time>
      </trkpt>
      <trkpt lat="40.367467" lon="-5.440383">
        <ele>2244.0</ele>
        <time>2013-05-12T13:02:06Z</time>
      </trkpt>
      <trkpt lat="40.367450" lon="-5.440500">
        <ele>2241.0</ele>
        <time>2013-05-12T13:02:07Z</time>
      </trkpt>
      <trkpt lat="40.367433" lon="-5.440600">
        <ele>2239.0</ele>
        <time>2013-05-12T13:02:08Z</time>
      </trkpt>
      <trkpt lat="40.367433" lon="-5.440700">
        <ele>2237.0</ele>
        <time>2013-05-12T13:02:09Z</time>
      </trkpt>
      <trkpt lat="40.367417" lon="-5.440800">
        <ele>2234.0</ele>
        <time>2013-05-12T13:02:10Z</time>
      </trkpt>
      <trkpt lat="40.367400" lon="-5.440900">
        <ele>2231.0</ele>
        <time>2013-05-12T13:02:11Z</time>
      </trkpt>
      <trkpt lat="40.367400" lon="-5.440983">
        <ele>2229.0</ele>
        <time>2013-05-12T13:02:12Z</time>
      </trkpt>
      <trkpt lat="40.367383" lon="-5.441083">
        <ele>2226.0</ele>
        <time>2013-05-12T13:02:13Z</time>
      </trkpt>
      <trkpt lat="40.367367" lon="-5.441183">
        <ele>2223.0</ele>
        <time>2013-05-12T13:02:14Z</time>
      </trkpt>
      <trkpt lat="40.367367" lon="-5.441300">
        <ele>2220.0</ele>
        <time>2013-05-12T13:02:15Z</time>
      </trkpt>
      <trkpt lat="40.367350" lon="-5.441417">
        <ele>2218.0</ele>
        <time>2013-05-12T13:02:16Z</time>
      </trkpt>
      <trkpt lat="40.367333" lon="-5.441517">
        <ele>2217.0</ele>
        <time>2013-05-12T13:02:17Z</time>
      </trkpt>
      <trkpt lat="40.367300" lon="-5.441617">
        <ele>2216.0</ele>
        <time>2013-05-12T13:02:18Z</time>
      </trkpt>
      <trkpt lat="40.367267" lon="-5.441717">
        <ele>2215.0</ele>
        <time>2013-05-12T13:02:19Z</time>
      </trkpt>
      <trkpt lat="40.367233" lon="-5.441800">
        <ele>2213.0</ele>
        <time>2013-05-12T13:02:20Z</time>
      </trkpt>
      <trkpt lat="40.367200" lon="-5.441900">
        <ele>2211.0</ele>
        <time>2013-05-12T13:02:21Z</time>
      </trkpt>
      <trkpt lat="40.367150" lon="-5.442017">
        <ele>2210.0</ele>
        <time>2013-05-12T13:02:22Z</time>
      </trkpt>
      <trkpt lat="40.367117" lon="-5.442117">
        <ele>2209.0</ele>
        <time>2013-05-12T13:02:23Z</time>
      </trkpt>
      <trkpt lat="40.367083" lon="-5.442217">
        <ele>2209.0</ele>
        <time>2013-05-12T13:02:24Z</time>
      </trkpt>
      <trkpt lat="40.367050" lon="-5.442300">
        <ele>2208.0</ele>
        <time>2013-05-12T13:02:25Z</time>
      </trkpt>
      <trkpt lat="40.367033" lon="-5.442383">
        <ele>2207.0</ele>
        <time>2013-05-12T13:02:26Z</time>
      </trkpt>
      <trkpt lat="40.367000" lon="-5.442483">
        <ele>2205.0</ele>
        <time>2013-05-12T13:02:27Z</time>
      </trkpt>
      <trkpt lat="40.366967" lon="-5.442583">
        <ele>2204.0</ele>
        <time>2013-05-12T13:02:28Z</time>
      </trkpt>
      <trkpt lat="40.366933" lon="-5.442683">
        <ele>2202.0</ele>
        <time>2013-05-12T13:02:29Z</time>
      </trkpt>
      <trkpt lat="40.366900" lon="-5.442783">
        <ele>2201.0</ele>
        <time>2013-05-12T13:02:30Z</time>
      </trkpt>
      <trkpt lat="40.366867" lon="-5.442883">
        <ele>2199.0</ele>
        <time>2013-05-12T13:02:31Z</time>
      </trkpt>
      <trkpt lat="40.366833" lon="-5.442967">
        <ele>2196.0</ele>
        <time>2013-05-12T13:02:32Z</time>
      </trkpt>
      <trkpt lat="40.366817" lon="-5.443067">
        <ele>2194.0</ele>
        <time>2013-05-12T13:02:33Z</time>
      </trkpt>
      <trkpt lat="40.366800" lon="-5.443167">
        <ele>2191.0</ele>
        <time>2013-05-12T13:02:34Z</time>
      </trkpt>
      <trkpt lat="40.366783" lon="-5.443283">
        <ele>2189.0</ele>
        <time>2013-05-12T13:02:35Z</time>
      </trkpt>
      <trkpt lat="40.366750" lon="-5.443383">
        <ele>2187.0</ele>
        <time>2013-05-12T13:02:36Z</time>
      </trkpt>
      <trkpt lat="40.366717" lon="-5.443483">
        <ele>2185.0</ele>
        <time>2013-05-12T13:02:37Z</time>
      </trkpt>
      <trkpt lat="40.366700" lon="-5.443583">
        <ele>2182.0</ele>
        <time>2013-05-12T13:02:38Z</time>
      </trkpt>
      <trkpt lat="40.366683" lon="-5.443683">
        <ele>2179.0</ele>
        <time>2013-05-12T13:02:39Z</time>
      </trkpt>
      <trkpt lat="40.366667" lon="-5.443783">
        <ele>2176.0</ele>
        <time>2013-05-12T13:02:40Z</time>
      </trkpt>
      <trkpt lat="40.366650" lon="-5.443900">
        <ele>2173.0</ele>
        <time>2013-05-12T13:02:41Z</time>
      </trkpt>
      <trkpt lat="40.366633" lon="-5.444017">
        <ele>2171.0</ele>
        <time>2013-05-12T13:02:42Z</time>
      </trkpt>
      <trkpt lat="40.366617" lon="-5.444133">
        <ele>2169.0</ele>
        <time>2013-05-12T13:02:43Z</time>
      </trkpt>
      <trkpt lat="40.366600" lon="-5.444233">
        <ele>2167.0</ele>
        <time>2013-05-12T13:02:44Z</time>
      </trkpt>
      <trkpt lat="40.366567" lon="-5.444333">
        <ele>2164.0</ele>
        <time>2013-05-12T13:02:45Z</time>
      </trkpt>
      <trkpt lat="40.366550" lon="-5.444417">
        <ele>2162.0</ele>
        <time>2013-05-12T13:02:46Z</time>
      </trkpt>
      <trkpt lat="40.366533" lon="-5.444517">
        <ele>2158.0</ele>
        <time>2013-05-12T13:02:47Z</time>
      </trkpt>
      <trkpt lat="40.366517" lon="-5.444633">
        <ele>2154.0</ele>
        <time>2013-05-12T13:02:48Z</time>
      </trkpt>
      <trkpt lat="40.366483" lon="-5.444750">
        <ele>2151.0</ele>
        <time>2013-05-12T13:02:49Z</time>
      </trkpt>
      <trkpt lat="40.366467" lon="-5.444850">
        <ele>2149.0</ele>
        <time>2013-05-12T13:02:50Z</time>
      </trkpt>
      <trkpt lat="40.366450" lon="-5.444950">
        <ele>2146.0</ele>
        <time>2013-05-12T13:02:51Z</time>
      </trkpt>
      <trkpt lat="40.366450" lon="-5.445050">
        <ele>2143.0</ele>
        <time>2013-05-12T13:02:52Z</time>
      </trkpt>
      <trkpt lat="40.366450" lon="-5.445150">
        <ele>2139.0</ele>
        <time>2013-05-12T13:02:53Z</time>
      </trkpt>
      <trkpt lat="40.366450" lon="-5.445250">
        <ele>2136.0</ele>
        <time>2013-05-12T13:02:54Z</time>
      </trkpt>
      <trkpt lat="40.366433" lon="-5.445350">
        <ele>2133.0</ele>
        <time>2013-05-12T13:02:55Z</time>
      </trkpt>
      <trkpt lat="40.366433" lon="-5.445467">
        <ele>2131.0</ele>
        <time>2013-05-12T13:02:56Z</time>
      </trkpt>
      <trkpt lat="40.366450" lon="-5.445550">
        <ele>2129.0</ele>
        <time>2013-05-12T13:02:57Z</time>
      </trkpt>
      <trkpt lat="40.366450" lon="-5.445650">
        <ele>2127.0</ele>
        <time>2013-05-12T13:02:58Z</time>
      </trkpt>
      <trkpt lat="40.366433" lon="-5.445733">
        <ele>2124.0</ele>
        <time>2013-05-12T13:02:59Z</time>
      </trkpt>
      <trkpt lat="40.366433" lon="-5.445833">
        <ele>2121.0</ele>
        <time>2013-05-12T13:03:00Z</time>
      </trkpt>
      <trkpt lat="40.366433" lon="-5.445933">
        <ele>2118.0</ele>
        <time>2013-05-12T13:03:01Z</time>
      </trkpt>
      <trkpt lat="40.366433" lon="-5.446050">
        <ele>2116.0</ele>
        <time>2013-05-12T13:03:02Z</time>
      </trkpt>
      <trkpt lat="40.366417" lon="-5.446167">
        <ele>2114.0</ele>
        <time>2013-05-12T13:03:03Z</time>
      </trkpt>
      <trkpt lat="40.366417" lon="-5.446267">
        <ele>2113.0</ele>
        <time>2013-05-12T13:03:04Z</time>
      </trkpt>
      <trkpt lat="40.366400" lon="-5.446367">
        <ele>2113.0</ele>
        <time>2013-05-12T13:03:05Z</time>
      </trkpt>
      <trkpt lat="40.366400" lon="-5.446467">
        <ele>2112.0</ele>
        <time>2013-05-12T13:03:06Z</time>
      </trkpt>
      <trkpt lat="40.366383" lon="-5.446567">
        <ele>2110.0</ele>
        <time>2013-05-12T13:03:07Z</time>
      </trkpt>
      <trkpt lat="40.366367" lon="-5.446667">
        <ele>2107.0</ele>
        <time>2013-05-12T13:03:08Z</time>
      </trkpt>
      <trkpt lat="40.366350" lon="-5.446783">
        <ele>2103.0</ele>
        <time>2013-05-12T13:03:09Z</time>
      </trkpt>
      <trkpt lat="40.366333" lon="-5.446900">
        <ele>2101.0</ele>
        <time>2013-05-12T13:03:10Z</time>
      </trkpt>
      <trkpt lat="40.366317" lon="-5.447017">
        <ele>2100.0</ele>
        <time>2013-05-12T13:03:11Z</time>
      </trkpt>
      <trkpt lat="40.366300" lon="-5.447117">
        <ele>2098.0</ele>
        <time>2013-05-12T13:03:12Z</time>
      </trkpt>
      <trkpt lat="40.366283" lon="-5.447217">
        <ele>2097.0</ele>
        <time>2013-05-12T13:03:13Z</time>
      </trkpt>
      <trkpt lat="40.366267" lon="-5.447317">
        <ele>2095.0</ele>
        <time>2013-05-12T13:03:14Z</time>
      </trkpt>
      <trkpt lat="40.366250" lon="-5.447433">
        <ele>2093.0</ele>
        <time>2013-05-12T13:03:15Z</time>
      </trkpt>
      <trkpt lat="40.366233" lon="-5.447550">
        <ele>2090.0</ele>
        <time>2013-05-12T13:03:16Z</time>
      </trkpt>
      <trkpt lat="40.366217" lon="-5.447667">
        <ele>2089.0</ele>
        <time>2013-05-12T13:03:17Z</time>
      </trkpt>
      <trkpt lat="40.366200" lon="-5.447783">
        <ele>2088.0</ele>
        <time>2013-05-12T13:03:18Z</time>
      </trkpt>
      <trkpt lat="40.366200" lon="-5.447883">
        <ele>2088.0</ele>
        <time>2013-05-12T13:03:19Z</time>
      </trkpt>
      <trkpt lat="40.366183" lon="-5.448000">
        <ele>2087.0</ele>
        <time>2013-05-12T13:03:20Z</time>
      </trkpt>
      <trkpt lat="40.366183" lon="-5.448100">
        <ele>2086.0</ele>
        <time>2013-05-12T13:03:21Z</time>
      </trkpt>
      <trkpt lat="40.366183" lon="-5.448200">
        <ele>2084.0</ele>
        <time>2013-05-12T13:03:22Z</time>
      </trkpt>
      <trkpt lat="40.366183" lon="-5.448317">
        <ele>2083.0</ele>
        <time>2013-05-12T13:03:23Z</time>
      </trkpt>
      <trkpt lat="40.366167" lon="-5.448433">
        <ele>2082.0</ele>
        <time>2013-05-12T13:03:24Z</time>
      </trkpt>
      <trkpt lat="40.366167" lon="-5.448517">
        <ele>2082.0</ele>
        <time>2013-05-12T13:03:25Z</time>
      </trkpt>
      <trkpt lat="40.366150" lon="-5.448617">
        <ele>2081.0</ele>
        <time>2013-05-12T13:03:26Z</time>
      </trkpt>
      <trkpt lat="40.366150" lon="-5.448717">
        <ele>2078.0</ele>
        <time>2013-05-12T13:03:27Z</time>
      </trkpt>
      <trkpt lat="40.366133" lon="-5.448800">
        <ele>2075.0</ele>
        <time>2013-05-12T13:03:28Z</time>
      </trkpt>
      <trkpt lat="40.366133" lon="-5.448900">
        <ele>2072.0</ele>
        <time>2013-05-12T13:03:29Z</time>
      </trkpt>
      <trkpt lat="40.366117" lon="-5.449017">
        <ele>2069.0</ele>
        <time>2013-05-12T13:03:30Z</time>
      </trkpt>
      <trkpt lat="40.366133" lon="-5.449117">
        <ele>2067.0</ele>
        <time>2013-05-12T13:03:31Z</time>
      </trkpt>
      <trkpt lat="40.366117" lon="-5.449217">
        <ele>2066.0</ele>
        <time>2013-05-12T13:03:32Z</time>
      </trkpt>
      <trkpt lat="40.366117" lon="-5.449300">
        <ele>2065.0</ele>
        <time>2013-05-12T13:03:33Z</time>
      </trkpt>
      <trkpt lat="40.366117" lon="-5.449383">
        <ele>2062.0</ele>
        <time>2013-05-12T13:03:34Z</time>
      </trkpt>
      <trkpt lat="40.366117" lon="-5.449483">
        <ele>2059.0</ele>
        <time>2013-05-12T13:03:35Z</time>
      </trkpt>
      <trkpt lat="40.366117" lon="-5.449583">
        <ele>2057.0</ele>
        <time>2013-05-12T13:03:36Z</time>
      </trkpt>
      <trkpt lat="40.366117" lon="-5.449700">
        <ele>2055.0</ele>
        <time>2013-05-12T13:03:37Z</time>
      </trkpt>
      <trkpt lat="40.366100" lon="-5.449817">
        <ele>2054.0</ele>
        <time>2013-05-12T13:03:38Z</time>
      </trkpt>
      <trkpt lat="40.366100" lon="-5.449917">
        <ele>2053.0</ele>
        <time>2013-05-12T13:03:39Z</time>
      </trkpt>
      <trkpt lat="40.366100" lon="-5.450017">
        <ele>2052.0</ele>
        <time>2013-05-12T13:03:40Z</time>
      </trkpt>
      <trkpt lat="40.366100" lon="-5.450117">
        <ele>2051.0</ele>
        <time>2013-05-12T13:03:41Z</time>
      </trkpt>
      <trkpt lat="40.366100" lon="-5.450217">
        <ele>2050.0</ele>
        <time>2013-05-12T13:03:42Z</time>
      </trkpt>
      <trkpt lat="40.366100" lon="-5.450317">
        <ele>2049.0</ele>
        <time>2013-05-12T13:03:43Z</time>
      </trkpt>
      <trkpt lat="40.366100" lon="-5.450417">
        <ele>2048.0</ele>
        <time>2013-05-12T13:03:44Z</time>
      </trkpt>
      <trkpt lat="40.366100" lon="-5.450517">
        <ele>2047.0</ele>
        <time>2013-05-12T13:03:45Z</time>
      </trkpt>
      <trkpt lat="40.366100" lon="-5.450600">
        <ele>2046.0</ele>
        <time>2013-05-12T13:03:46Z</time>
      </trkpt>
      <trkpt lat="40.366100" lon="-5.450700">
        <ele>2044.0</ele>
        <time>2013-05-12T13:03:47Z</time>
      </trkpt>
      <trkpt lat="40.366100" lon="-5.450800">
        <ele>2042.0</ele>
        <time>2013-05-12T13:03:48Z</time>
      </trkpt>
      <trkpt lat="40.366100" lon="-5.450917">
        <ele>2040.0</ele>
        <time>2013-05-12T13:03:49Z</time>
      </trkpt>
      <trkpt lat="40.366100" lon="-5.451017">
        <ele>2038.0</ele>
        <time>2013-05-12T13:03:50Z</time>
      </trkpt>
      <trkpt lat="40.366100" lon="-5.451117">
        <ele>2037.0</ele>
        <time>2013-05-12T13:03:51Z</time>
      </trkpt>
      <trkpt lat="40.366100" lon="-5.451217">
        <ele>2035.0</ele>
        <time>2013-05-12T13:03:52Z</time>
      </trkpt>
      <trkpt lat="40.366100" lon="-5.451317">
        <ele>2032.0</ele>
        <time>2013-05-12T13:03:53Z</time>
      </trkpt>
      <trkpt lat="40.366083" lon="-5.451433">
        <ele>2030.0</ele>
        <time>2013-05-12T13:03:54Z</time>
      </trkpt>
      <trkpt lat="40.366083" lon="-5.451533">
        <ele>2028.0</ele>
        <time>2013-05-12T13:03:55Z</time>
      </trkpt>
      <trkpt lat="40.366067" lon="-5.451650">
        <ele>2026.0</ele>
        <time>2013-05-12T13:03:56Z</time>
      </trkpt>
      <trkpt lat="40.366050" lon="-5.451750">
        <ele>2023.0</ele>
        <time>2013-05-12T13:03:57Z</time>
      </trkpt>
      <trkpt lat="40.366050" lon="-5.451850">
        <ele>2020.0</ele>
        <time>2013-05-12T13:03:58Z</time>
      </trkpt>
      <trkpt lat="40.366050" lon="-5.451950">
        <ele>2017.0</ele>
        <time>2013-05-12T13:03:59Z</time>
      </trkpt>
      <trkpt lat="40.366050" lon="-5.452067">
        <ele>2013.0</ele>
        <time>2013-05-12T13:04:00Z</time>
      </trkpt>
      <trkpt lat="40.366050" lon="-5.452183">
        <ele>2010.0</ele>
        <time>2013-05-12T13:04:01Z</time>
      </trkpt>
      <trkpt lat="40.366050" lon="-5.452300">
        <ele>2008.0</ele>
        <time>2013-05-12T13:04:02Z</time>
      </trkpt>
      <trkpt lat="40.366050" lon="-5.452417">
        <ele>2006.0</ele>
        <time>2013-05-12T13:04:03Z</time>
      </trkpt>
      <trkpt lat="40.366050" lon="-5.452517">
        <ele>2004.0</ele>
        <time>2013-05-12T13:04:04Z</time>
      </trkpt>
      <trkpt lat="40.366033" lon="-5.452617">
        <ele>2002.0</ele>
        <time>2013-05-12T13:04:05Z</time>
      </trkpt>
      <trkpt lat="40.366017" lon="-5.452733">
        <ele>2000.0</ele>
        <time>2013-05-12T13:04:06Z</time>
      </trkpt>
      <trkpt lat="40.366017" lon="-5.452833">
        <ele>1998.0</ele>
        <time>2013-05-12T13:04:07Z</time>
      </trkpt>
      <trkpt lat="40.366000" lon="-5.452933">
        <ele>1996.0</ele>
        <time>2013-05-12T13:04:08Z</time>
      </trkpt>
      <trkpt lat="40.366000" lon="-5.453017">
        <ele>1994.0</ele>
        <time>2013-05-12T13:04:09Z</time>
      </trkpt>
      <trkpt lat="40.365983" lon="-5.453117">
        <ele>1992.0</ele>
        <time>2013-05-12T13:04:10Z</time>
      </trkpt>
      <trkpt lat="40.365967" lon="-5.453217">
        <ele>1989.0</ele>
        <time>2013-05-12T13:04:11Z</time>
      </trkpt>
      <trkpt lat="40.365967" lon="-5.453317">
        <ele>1986.0</ele>
        <time>2013-05-12T13:04:12Z</time>
      </trkpt>
      <trkpt lat="40.365967" lon="-5.453417">
        <ele>1984.0</ele>
        <time>2013-05-12T13:04:13Z</time>
      </trkpt>
      <trkpt lat="40.365950" lon="-5.453533">
        <ele>1982.0</ele>
        <time>2013-05-12T13:04:14Z</time>
      </trkpt>
      <trkpt lat="40.365950" lon="-5.453650">
        <ele>1980.0</ele>
        <time>2013-05-12T13:04:15Z</time>
      </trkpt>
      <trkpt lat="40.365933" lon="-5.453750">
        <ele>1979.0</ele>
        <time>2013-05-12T13:04:16Z</time>
      </trkpt>
      <trkpt lat="40.365933" lon="-5.453850">
        <ele>1977.0</ele>
        <time>2013-05-12T13:04:17Z</time>
      </trkpt>
      <trkpt lat="40.365917" lon="-5.453950">
        <ele>1975.0</ele>
        <time>2013-05-12T13:04:18Z</time>
      </trkpt>
      <trkpt lat="40.365917" lon="-5.454050">
        <ele>1974.0</ele>
        <time>2013-05-12T13:04:19Z</time>
      </trkpt>
      <trkpt lat="40.365917" lon="-5.454150">
        <ele>1971.0</ele>
        <time>2013-05-12T13:04:20Z</time>
      </trkpt>
      <trkpt lat="40.365917" lon="-5.454250">
        <ele>1969.0</ele>
        <time>2013-05-12T13:04:21Z</time>
      </trkpt>
      <trkpt lat="40.365917" lon="-5.454350">
        <ele>1967.0</ele>
        <time>2013-05-12T13:04:22Z</time>
      </trkpt>
      <trkpt lat="40.365933" lon="-5.454450">
        <ele>1965.0</ele>
        <time>2013-05-12T13:04:23Z</time>
      </trkpt>
      <trkpt lat="40.365933" lon="-5.454550">
        <ele>1963.0</ele>
        <time>2013-05-12T13:04:24Z</time>
      </trkpt>
      <trkpt lat="40.365933" lon="-5.454650">
        <ele>1961.0</ele>
        <time>2013-05-12T13:04:25Z</time>
      </trkpt>
      <trkpt lat="40.365933" lon="-5.454750">
        <ele>1959.0</ele>
        <time>2013-05-12T13:04:26Z</time>
      </trkpt>
      <trkpt lat="40.365933" lon="-5.454850">
        <ele>1957.0</ele>
        <time>2013-05-12T13:04:27Z</time>
      </trkpt>
      <trkpt lat="40.365917" lon="-5.454950">
        <ele>1954.0</ele>
        <time>2013-05-12T13:04:28Z</time>
      </trkpt>
      <trkpt lat="40.365917" lon="-5.455050">
        <ele>1952.0</ele>
        <time>2013-05-12T13:04:29Z</time>
      </trkpt>
      <trkpt lat="40.365917" lon="-5.455167">
        <ele>1950.0</ele>
        <time>2013-05-12T13:04:30Z</time>
      </trkpt>
      <trkpt lat="40.365900" lon="-5.455267">
        <ele>1948.0</ele>
        <time>2013-05-12T13:04:31Z</time>
      </trkpt>
      <trkpt lat="40.365900" lon="-5.455383">
        <ele>1946.0</ele>
        <time>2013-05-12T13:04:32Z</time>
      </trkpt>
      <trkpt lat="40.365883" lon="-5.455483">
        <ele>1944.0</ele>
        <time>2013-05-12T13:04:33Z</time>
      </trkpt>
      <trkpt lat="40.365867" lon="-5.455600">
        <ele>1943.0</ele>
        <time>2013-05-12T13:04:34Z</time>
      </trkpt>
      <trkpt lat="40.365867" lon="-5.455700">
        <ele>1942.0</ele>
        <time>2013-05-12T13:04:35Z</time>
      </trkpt>
      <trkpt lat="40.365867" lon="-5.455800">
        <ele>1941.0</ele>
        <time>2013-05-12T13:04:36Z</time>
      </trkpt>
      <trkpt lat="40.365850" lon="-5.455900">
        <ele>1939.0</ele>
        <time>2013-05-12T13:04:37Z</time>
      </trkpt>
      <trkpt lat="40.365833" lon="-5.456000">
        <ele>1937.0</ele>
        <time>2013-05-12T13:04:38Z</time>
      </trkpt>
      <trkpt lat="40.365817" lon="-5.456117">
        <ele>1934.0</ele>
        <time>2013-05-12T13:04:39Z</time>
      </trkpt>
      <trkpt lat="40.365800" lon="-5.456217">
        <ele>1932.0</ele>
        <time>2013-05-12T13:04:40Z</time>
      </trkpt>
      <trkpt lat="40.365800" lon="-5.456333">
        <ele>1930.0</ele>
        <time>2013-05-12T13:04:41Z</time>
      </trkpt>
      <trkpt lat="40.365783" lon="-5.456450">
        <ele>1929.0</ele>
        <time>2013-05-12T13:04:42Z</time>
      </trkpt>
      <trkpt lat="40.365767" lon="-5.456550">
        <ele>1927.0</ele>
        <time>2013-05-12T13:04:43Z</time>
      </trkpt>
      <trkpt lat="40.365767" lon="-5.456667">
        <ele>1925.0</ele>
        <time>2013-05-12T13:04:44Z</time>
      </trkpt>
      <trkpt lat="40.365767" lon="-5.456767">
        <ele>1923.0</ele>
        <time>2013-05-12T13:04:45Z</time>
      </trkpt>
      <trkpt lat="40.365750" lon="-5.456883">
        <ele>1922.0</ele>
        <time>2013-05-12T13:04:46Z</time>
      </trkpt>
      <trkpt lat="40.365750" lon="-5.456983">
        <ele>1920.0</ele>
        <time>2013-05-12T13:04:47Z</time>
      </trkpt>
      <trkpt lat="40.365750" lon="-5.457067">
        <ele>1918.0</ele>
        <time>2013-05-12T13:04:48Z</time>
      </trkpt>
      <trkpt lat="40.365750" lon="-5.457167">
        <ele>1916.0</ele>
        <time>2013-05-12T13:04:49Z</time>
      </trkpt>
      <trkpt lat="40.365733" lon="-5.457283">
        <ele>1913.0</ele>
        <time>2013-05-12T13:04:50Z</time>
      </trkpt>
      <trkpt lat="40.365733" lon="-5.457383">
        <ele>1912.0</ele>
        <time>2013-05-12T13:04:51Z</time>
      </trkpt>
      <trkpt lat="40.365750" lon="-5.457500">
        <ele>1912.0</ele>
        <time>2013-05-12T13:04:52Z</time>
      </trkpt>
      <trkpt lat="40.365767" lon="-5.457600">
        <ele>1913.0</ele>
        <time>2013-05-12T13:04:53Z</time>
      </trkpt>
      <trkpt lat="40.365767" lon="-5.457683">
        <ele>1914.0</ele>
        <time>2013-05-12T13:04:54Z</time>
      </trkpt>
      <trkpt lat="40.365767" lon="-5.457750">
        <ele>1914.0</ele>
        <time>2013-05-12T13:04:55Z</time>
      </trkpt>
      <trkpt lat="40.365750" lon="-5.457833">
        <ele>1914.0</ele>
        <time>2013-05-12T13:04:56Z</time>
      </trkpt>
      <trkpt lat="40.365767" lon="-5.457900">
        <ele>1913.0</ele>
        <time>2013-05-12T13:04:57Z</time>
      </trkpt>
      <trkpt lat="40.365767" lon="-5.457983">
        <ele>1913.0</ele>
        <time>2013-05-12T13:04:58Z</time>
      </trkpt>
      <trkpt lat="40.365767" lon="-5.458067">
        <ele>1913.0</ele>
        <time>2013-05-12T13:04:59Z</time>
      </trkpt>
      <trkpt lat="40.365750" lon="-5.458167">
        <ele>1913.0</ele>
        <time>2013-05-12T13:05:00Z</time>
      </trkpt>
      <trkpt lat="40.365733" lon="-5.458267">
        <ele>1913.0</ele>
        <time>2013-05-12T13:05:01Z</time>
      </trkpt>
      <trkpt lat="40.365733" lon="-5.458350">
        <ele>1914.0</ele>
        <time>2013-05-12T13:05:02Z</time>
      </trkpt>
      <trkpt lat="40.365717" lon="-5.458433">
        <ele>1916.0</ele>
        <time>2013-05-12T13:05:03Z</time>
      </trkpt>
      <trkpt lat="40.365717" lon="-5.458517">
        <ele>1916.0</ele>
        <time>2013-05-12T13:05:04Z</time>
      </trkpt>
      <trkpt lat="40.365700" lon="-5.458600">
        <ele>1916.0</ele>
        <time>2013-05-12T13:05:05Z</time>
      </trkpt>
      <trkpt lat="40.365700" lon="-5.458683">
        <ele>1916.0</ele>
        <time>2013-05-12T13:05:06Z</time>
      </trkpt>
      <trkpt lat="40.365700" lon="-5.458783">
        <ele>1916.0</ele>
        <time>2013-05-12T13:05:07Z</time>
      </trkpt>
      <trkpt lat="40.365717" lon="-5.458850">
        <ele>1917.0</ele>
        <time>2013-05-12T13:05:08Z</time>
      </trkpt>
      <trkpt lat="40.365717" lon="-5.458933">
        <ele>1917.0</ele>
        <time>2013-05-12T13:05:09Z</time>
      </trkpt>
      <trkpt lat="40.365733" lon="-5.459017">
        <ele>1917.0</ele>
        <time>2013-05-12T13:05:10Z</time>
      </trkpt>
      <trkpt lat="40.365733" lon="-5.459117">
        <ele>1916.0</ele>
        <time>2013-05-12T13:05:11Z</time>
      </trkpt>
      <trkpt lat="40.365717" lon="-5.459200">
        <ele>1915.0</ele>
        <time>2013-05-12T13:05:12Z</time>
      </trkpt>
      <trkpt lat="40.365700" lon="-5.459283">
        <ele>1915.0</ele>
        <time>2013-05-12T13:05:13Z</time>
      </trkpt>
      <trkpt lat="40.365700" lon="-5.459350">
        <ele>1914.0</ele>
        <time>2013-05-12T13:05:14Z</time>
      </trkpt>
      <trkpt lat="40.365700" lon="-5.459433">
        <ele>1913.0</ele>
        <time>2013-05-12T13:05:15Z</time>
      </trkpt>
      <trkpt lat="40.365683" lon="-5.459533">
        <ele>1910.0</ele>
        <time>2013-05-12T13:05:16Z</time>
      </trkpt>
      <trkpt lat="40.365683" lon="-5.459633">
        <ele>1909.0</ele>
        <time>2013-05-12T13:05:17Z</time>
      </trkpt>
      <trkpt lat="40.365683" lon="-5.459733">
        <ele>1910.0</ele>
        <time>2013-05-12T13:05:18Z</time>
      </trkpt>
      <trkpt lat="40.365683" lon="-5.459817">
        <ele>1912.0</ele>
        <time>2013-05-12T13:05:19Z</time>
      </trkpt>
      <trkpt lat="40.365683" lon="-5.459883">
        <ele>1914.0</ele>
        <time>2013-05-12T13:05:20Z</time>
      </trkpt>
      <trkpt lat="40.365700" lon="-5.459950">
        <ele>1915.0</ele>
        <time>2013-05-12T13:05:21Z</time>
      </trkpt>
      <trkpt lat="40.365700" lon="-5.460017">
        <ele>1915.0</ele>
        <time>2013-05-12T13:05:22Z</time>
      </trkpt>
      <trkpt lat="40.365700" lon="-5.460083">
        <ele>1915.0</ele>
        <time>2013-05-12T13:05:23Z</time>
      </trkpt>
      <trkpt lat="40.365717" lon="-5.460183">
        <ele>1914.0</ele>
        <time>2013-05-12T13:05:24Z</time>
      </trkpt>
      <trkpt lat="40.365733" lon="-5.460267">
        <ele>1914.0</ele>
        <time>2013-05-12T13:05:25Z</time>
      </trkpt>
      <trkpt lat="40.365767" lon="-5.460350">
        <ele>1912.0</ele>
        <time>2013-05-12T13:05:26Z</time>
      </trkpt>
      <trkpt lat="40.365800" lon="-5.460417">
        <ele>1910.0</ele>
        <time>2013-05-12T13:05:27Z</time>
      </trkpt>
      <trkpt lat="40.365850" lon="-5.460517">
        <ele>1909.0</ele>
        <time>2013-05-12T13:05:28Z</time>
      </trkpt>
      <trkpt lat="40.365883" lon="-5.460617">
        <ele>1908.0</ele>
        <time>2013-05-12T13:05:29Z</time>
      </trkpt>
      <trkpt lat="40.365933" lon="-5.460733">
        <ele>1908.0</ele>
        <time>2013-05-12T13:05:30Z</time>
      </trkpt>
      <trkpt lat="40.365983" lon="-5.460833">
        <ele>1910.0</ele>
        <time>2013-05-12T13:05:31Z</time>
      </trkpt>
      <trkpt lat="40.366017" lon="-5.460917">
        <ele>1910.0</ele>
        <time>2013-05-12T13:05:32Z</time>
      </trkpt>
      <trkpt lat="40.366050" lon="-5.461017">
        <ele>1910.0</ele>
        <time>2013-05-12T13:05:33Z</time>
      </trkpt>
      <trkpt lat="40.366083" lon="-5.461117">
        <ele>1909.0</ele>
        <time>2013-05-12T13:05:34Z</time>
      </trkpt>
      <trkpt lat="40.366117" lon="-5.461233">
        <ele>1909.0</ele>
        <time>2013-05-12T13:05:35Z</time>
      </trkpt>
      <trkpt lat="40.366133" lon="-5.461350">
        <ele>1910.0</ele>
        <time>2013-05-12T13:05:36Z</time>
      </trkpt>
      <trkpt lat="40.366150" lon="-5.461450">
        <ele>1912.0</ele>
        <time>2013-05-12T13:05:37Z</time>
      </trkpt>
      <trkpt lat="40.366133" lon="-5.461533">
        <ele>1914.0</ele>
        <time>2013-05-12T13:05:38Z</time>
      </trkpt>
      <trkpt lat="40.366100" lon="-5.461617">
        <ele>1915.0</ele>
        <time>2013-05-12T13:05:39Z</time>
      </trkpt>
      <trkpt lat="40.366067" lon="-5.461700">
        <ele>1914.0</ele>
        <time>2013-05-12T13:05:40Z</time>
      </trkpt>
      <trkpt lat="40.366050" lon="-5.461783">
        <ele>1912.0</ele>
        <time>2013-05-12T13:05:41Z</time>
      </trkpt>
      <trkpt lat="40.366050" lon="-5.461900">
        <ele>1911.0</ele>
        <time>2013-05-12T13:05:42Z</time>
      </trkpt>
      <trkpt lat="40.366083" lon="-5.461983">
        <ele>1910.0</ele>
        <time>2013-05-12T13:05:43Z</time>
      </trkpt>
      <trkpt lat="40.366117" lon="-5.462050">
        <ele>1907.0</ele>
        <time>2013-05-12T13:05:44Z</time>
      </trkpt>
      <trkpt lat="40.366150" lon="-5.462117">
        <ele>1904.0</ele>
        <time>2013-05-12T13:05:45Z</time>
      </trkpt>
      <trkpt lat="40.366167" lon="-5.462200">
        <ele>1900.0</ele>
        <time>2013-05-12T13:05:46Z</time>
      </trkpt>
      <trkpt lat="40.366183" lon="-5.462267">
        <ele>1895.0</ele>
        <time>2013-05-12T13:05:47Z</time>
      </trkpt>
      <trkpt lat="40.366183" lon="-5.462367">
        <ele>1890.0</ele>
        <time>2013-05-12T13:05:48Z</time>
      </trkpt>
      <trkpt lat="40.366200" lon="-5.462467">
        <ele>1887.0</ele>
        <time>2013-05-12T13:05:49Z</time>
      </trkpt>
      <trkpt lat="40.366183" lon="-5.462583">
        <ele>1885.0</ele>
        <time>2013-05-12T13:05:50Z</time>
      </trkpt>
      <trkpt lat="40.366167" lon="-5.462717">
        <ele>1884.0</ele>
        <time>2013-05-12T13:05:51Z</time>
      </trkpt>
      <trkpt lat="40.366133" lon="-5.462833">
        <ele>1885.0</ele>
        <time>2013-05-12T13:05:52Z</time>
      </trkpt>
      <trkpt lat="40.366117" lon="-5.462950">
        <ele>1887.0</ele>
        <time>2013-05-12T13:05:53Z</time>
      </trkpt>
      <trkpt lat="40.366100" lon="-5.463033">
        <ele>1886.0</ele>
        <time>2013-05-12T13:05:54Z</time>
      </trkpt>
      <trkpt lat="40.366100" lon="-5.463133">
        <ele>1884.0</ele>
        <time>2013-05-12T13:05:55Z</time>
      </trkpt>
      <trkpt lat="40.366100" lon="-5.463233">
        <ele>1881.0</ele>
        <time>2013-05-12T13:05:56Z</time>
      </trkpt>
      <trkpt lat="40.366100" lon="-5.463350">
        <ele>1877.0</ele>
        <time>2013-05-12T13:05:57Z</time>
      </trkpt>
      <trkpt lat="40.366100" lon="-5.463483">
        <ele>1874.0</ele>
        <time>2013-05-12T13:05:58Z</time>
      </trkpt>
      <trkpt lat="40.366083" lon="-5.463633">
        <ele>1873.0</ele>
        <time>2013-05-12T13:05:59Z</time>
      </trkpt>
      <trkpt lat="40.366067" lon="-5.463767">
        <ele>1874.0</ele>
        <time>2013-05-12T13:06:00Z</time>
      </trkpt>
      <trkpt lat="40.366050" lon="-5.463883">
        <ele>1877.0</ele>
        <time>2013-05-12T13:06:01Z</time>
      </trkpt>
      <trkpt lat="40.366050" lon="-5.463983">
        <ele>1880.0</ele>
        <time>2013-05-12T13:06:02Z</time>
      </trkpt>
      <trkpt lat="40.366033" lon="-5.464083">
        <ele>1881.0</ele>
        <time>2013-05-12T13:06:03Z</time>
      </trkpt>
      <trkpt lat="40.366033" lon="-5.464183">
        <ele>1882.0</ele>
        <time>2013-05-12T13:06:04Z</time>
      </trkpt>
      <trkpt lat="40.366017" lon="-5.464283">
        <ele>1883.0</ele>
        <time>2013-05-12T13:06:05Z</time>
      </trkpt>
      <trkpt lat="40.365983" lon="-5.464400">
        <ele>1884.0</ele>
        <time>2013-05-12T13:06:06Z</time>
      </trkpt>
      <trkpt lat="40.365967" lon="-5.464517">
        <ele>1885.0</ele>
        <time>2013-05-12T13:06:07Z</time>
      </trkpt>
      <trkpt lat="40.365950" lon="-5.464617">
        <ele>1886.0</ele>
        <time>2013-05-12T13:06:08Z</time>
      </trkpt>
      <trkpt lat="40.365933" lon="-5.464733">
        <ele>1887.0</ele>
        <time>2013-05-12T13:06:09Z</time>
      </trkpt>
      <trkpt lat="40.365900" lon="-5.464850">
        <ele>1888.0</ele>
        <time>2013-05-12T13:06:10Z</time>
      </trkpt>
      <trkpt lat="40.365867" lon="-5.464967">
        <ele>1888.0</ele>
        <time>2013-05-12T13:06:11Z</time>
      </trkpt>
      <trkpt lat="40.365817" lon="-5.465100">
        <ele>1889.0</ele>
        <time>2013-05-12T13:06:12Z</time>
      </trkpt>
      <trkpt lat="40.365767" lon="-5.465233">
        <ele>1890.0</ele>
        <time>2013-05-12T13:06:13Z</time>
      </trkpt>
      <trkpt lat="40.365733" lon="-5.465350">
        <ele>1891.0</ele>
        <time>2013-05-12T13:06:14Z</time>
      </trkpt>
      <trkpt lat="40.365700" lon="-5.465467">
        <ele>1892.0</ele>
        <time>2013-05-12T13:06:15Z</time>
      </trkpt>
      <trkpt lat="40.365667" lon="-5.465583">
        <ele>1894.0</ele>
        <time>2013-05-12T13:06:16Z</time>
      </trkpt>
      <trkpt lat="40.365633" lon="-5.465683">
        <ele>1894.0</ele>
        <time>2013-05-12T13:06:17Z</time>
      </trkpt>
      <trkpt lat="40.365600" lon="-5.465800">
        <ele>1894.0</ele>
        <time>2013-05-12T13:06:18Z</time>
      </trkpt>
      <trkpt lat="40.365600" lon="-5.465917">
        <ele>1895.0</ele>
        <time>2013-05-12T13:06:19Z</time>
      </trkpt>
      <trkpt lat="40.365583" lon="-5.466000">
        <ele>1896.0</ele>
        <time>2013-05-12T13:06:20Z</time>
      </trkpt>
      <trkpt lat="40.365583" lon="-5.466100">
        <ele>1896.0</ele>
        <time>2013-05-12T13:06:21Z</time>
      </trkpt>
      <trkpt lat="40.365567" lon="-5.466200">
        <ele>1895.0</ele>
        <time>2013-05-12T13:06:22Z</time>
      </trkpt>
      <trkpt lat="40.365550" lon="-5.466283">
        <ele>1895.0</ele>
        <time>2013-05-12T13:06:23Z</time>
      </trkpt>
      <trkpt lat="40.365550" lon="-5.466383">
        <ele>1894.0</ele>
        <time>2013-05-12T13:06:24Z</time>
      </trkpt>
      <trkpt lat="40.365567" lon="-5.466483">
        <ele>1893.0</ele>
        <time>2013-05-12T13:06:25Z</time>
      </trkpt>
      <trkpt lat="40.365567" lon="-5.466583">
        <ele>1892.0</ele>
        <time>2013-05-12T13:06:26Z</time>
      </trkpt>
      <trkpt lat="40.365583" lon="-5.466683">
        <ele>1892.0</ele>
        <time>2013-05-12T13:06:27Z</time>
      </trkpt>
      <trkpt lat="40.365600" lon="-5.466783">
        <ele>1892.0</ele>
        <time>2013-05-12T13:06:28Z</time>
      </trkpt>
      <trkpt lat="40.365600" lon="-5.466883">
        <ele>1893.0</ele>
        <time>2013-05-12T13:06:29Z</time>
      </trkpt>
      <trkpt lat="40.365600" lon="-5.466983">
        <ele>1894.0</ele>
        <time>2013-05-12T13:06:30Z</time>
      </trkpt>
      <trkpt lat="40.365583" lon="-5.467083">
        <ele>1896.0</ele>
        <time>2013-05-12T13:06:31Z</time>
      </trkpt>
      <trkpt lat="40.365583" lon="-5.467167">
        <ele>1897.0</ele>
        <time>2013-05-12T13:06:32Z</time>
      </trkpt>
      <trkpt lat="40.365567" lon="-5.467267">
        <ele>1897.0</ele>
        <time>2013-05-12T13:06:33Z</time>
      </trkpt>
      <trkpt lat="40.365567" lon="-5.467367">
        <ele>1897.0</ele>
        <time>2013-05-12T13:06:34Z</time>
      </trkpt>
      <trkpt lat="40.365567" lon="-5.467467">
        <ele>1897.0</ele>
        <time>2013-05-12T13:06:35Z</time>
      </trkpt>
      <trkpt lat="40.365550" lon="-5.467567">
        <ele>1897.0</ele>
        <time>2013-05-12T13:06:36Z</time>
      </trkpt>
      <trkpt lat="40.365550" lon="-5.467650">
        <ele>1898.0</ele>
        <time>2013-05-12T13:06:37Z</time>
      </trkpt>
      <trkpt lat="40.365567" lon="-5.467750">
        <ele>1898.0</ele>
        <time>2013-05-12T13:06:38Z</time>
      </trkpt>
      <trkpt lat="40.365583" lon="-5.467833">
        <ele>1898.0</ele>
        <time>2013-05-12T13:06:39Z</time>
      </trkpt>
      <trkpt lat="40.365583" lon="-5.467917">
        <ele>1898.0</ele>
        <time>2013-05-12T13:06:40Z</time>
      </trkpt>
      <trkpt lat="40.365600" lon="-5.468000">
        <ele>1896.0</ele>
        <time>2013-05-12T13:06:41Z</time>
      </trkpt>
      <trkpt lat="40.365617" lon="-5.468083">
        <ele>1894.0</ele>
        <time>2013-05-12T13:06:42Z</time>
      </trkpt>
      <trkpt lat="40.365633" lon="-5.468183">
        <ele>1891.0</ele>
        <time>2013-05-12T13:06:43Z</time>
      </trkpt>
      <trkpt lat="40.365667" lon="-5.468300">
        <ele>1889.0</ele>
        <time>2013-05-12T13:06:44Z</time>
      </trkpt>
      <trkpt lat="40.365700" lon="-5.468400">
        <ele>1889.0</ele>
        <time>2013-05-12T13:06:45Z</time>
      </trkpt>
      <trkpt lat="40.365717" lon="-5.468500">
        <ele>1889.0</ele>
        <time>2013-05-12T13:06:46Z</time>
      </trkpt>
      <trkpt lat="40.365717" lon="-5.468583">
        <ele>1889.0</ele>
        <time>2013-05-12T13:06:47Z</time>
      </trkpt>
      <trkpt lat="40.365717" lon="-5.468683">
        <ele>1888.0</ele>
        <time>2013-05-12T13:06:48Z</time>
      </trkpt>
      <trkpt lat="40.365733" lon="-5.468800">
        <ele>1886.0</ele>
        <time>2013-05-12T13:06:49Z</time>
      </trkpt>
      <trkpt lat="40.365733" lon="-5.468917">
        <ele>1884.0</ele>
        <time>2013-05-12T13:06:50Z</time>
      </trkpt>
      <trkpt lat="40.365733" lon="-5.469050">
        <ele>1884.0</ele>
        <time>2013-05-12T13:06:51Z</time>
      </trkpt>
      <trkpt lat="40.365733" lon="-5.469167">
        <ele>1884.0</ele>
        <time>2013-05-12T13:06:52Z</time>
      </trkpt>
      <trkpt lat="40.365750" lon="-5.469283">
        <ele>1885.0</ele>
        <time>2013-05-12T13:06:53Z</time>
      </trkpt>
      <trkpt lat="40.365750" lon="-5.469383">
        <ele>1885.0</ele>
        <time>2013-05-12T13:06:54Z</time>
      </trkpt>
      <trkpt lat="40.365750" lon="-5.469483">
        <ele>1886.0</ele>
        <time>2013-05-12T13:06:55Z</time>
      </trkpt>
      <trkpt lat="40.365750" lon="-5.469567">
        <ele>1886.0</ele>
        <time>2013-05-12T13:06:56Z</time>
      </trkpt>
      <trkpt lat="40.365767" lon="-5.469667">
        <ele>1886.0</ele>
        <time>2013-05-12T13:06:57Z</time>
      </trkpt>
      <trkpt lat="40.365767" lon="-5.469750">
        <ele>1886.0</ele>
        <time>2013-05-12T13:06:58Z</time>
      </trkpt>
      <trkpt lat="40.365783" lon="-5.469850">
        <ele>1886.0</ele>
        <time>2013-05-12T13:06:59Z</time>
      </trkpt>
      <trkpt lat="40.365783" lon="-5.469933">
        <ele>1887.0</ele>
        <time>2013-05-12T13:07:00Z</time>
      </trkpt>
      <trkpt lat="40.365783" lon="-5.470017">
        <ele>1888.0</ele>
        <time>2013-05-12T13:07:01Z</time>
      </trkpt>
      <trkpt lat="40.365783" lon="-5.470100">
        <ele>1888.0</ele>
        <time>2013-05-12T13:07:02Z</time>
      </trkpt>
      <trkpt lat="40.365783" lon="-5.470200">
        <ele>1887.0</ele>
        <time>2013-05-12T13:07:03Z</time>
      </trkpt>
      <trkpt lat="40.365783" lon="-5.470300">
        <ele>1886.0</ele>
        <time>2013-05-12T13:07:04Z</time>
      </trkpt>
      <trkpt lat="40.365767" lon="-5.470383">
        <ele>1886.0</ele>
        <time>2013-05-12T13:07:05Z</time>
      </trkpt>
      <trkpt lat="40.365767" lon="-5.470483">
        <ele>1887.0</ele>
        <time>2013-05-12T13:07:06Z</time>
      </trkpt>
      <trkpt lat="40.365783" lon="-5.470550">
        <ele>1887.0</ele>
        <time>2013-05-12T13:07:07Z</time>
      </trkpt>
      <trkpt lat="40.365783" lon="-5.470633">
        <ele>1886.0</ele>
        <time>2013-05-12T13:07:08Z</time>
      </trkpt>
      <trkpt lat="40.365800" lon="-5.470717">
        <ele>1885.0</ele>
        <time>2013-05-12T13:07:09Z</time>
      </trkpt>
      <trkpt lat="40.365800" lon="-5.470800">
        <ele>1884.0</ele>
        <time>2013-05-12T13:07:10Z</time>
      </trkpt>
      <trkpt lat="40.365817" lon="-5.470883">
        <ele>1883.0</ele>
        <time>2013-05-12T13:07:11Z</time>
      </trkpt>
      <trkpt lat="40.365833" lon="-5.470967">
        <ele>1883.0</ele>
        <time>2013-05-12T13:07:12Z</time>
      </trkpt>
      <trkpt lat="40.365850" lon="-5.471050">
        <ele>1883.0</ele>
        <time>2013-05-12T13:07:13Z</time>
      </trkpt>
      <trkpt lat="40.365867" lon="-5.471133">
        <ele>1883.0</ele>
        <time>2013-05-12T13:07:14Z</time>
      </trkpt>
      <trkpt lat="40.365867" lon="-5.471200">
        <ele>1883.0</ele>
        <time>2013-05-12T13:07:15Z</time>
      </trkpt>
      <trkpt lat="40.365867" lon="-5.471283">
        <ele>1882.0</ele>
        <time>2013-05-12T13:07:16Z</time>
      </trkpt>
      <trkpt lat="40.365867" lon="-5.471367">
        <ele>1881.0</ele>
        <time>2013-05-12T13:07:17Z</time>
      </trkpt>
      <trkpt lat="40.365867" lon="-5.471467">
        <ele>1881.0</ele>
        <time>2013-05-12T13:07:18Z</time>
      </trkpt>
      <trkpt lat="40.365850" lon="-5.471567">
        <ele>1880.0</ele>
        <time>2013-05-12T13:07:19Z</time>
      </trkpt>
      <trkpt lat="40.365850" lon="-5.471650">
        <ele>1880.0</ele>
        <time>2013-05-12T13:07:20Z</time>
      </trkpt>
      <trkpt lat="40.365833" lon="-5.471750">
        <ele>1879.0</ele>
        <time>2013-05-12T13:07:21Z</time>
      </trkpt>
      <trkpt lat="40.365833" lon="-5.471833">
        <ele>1879.0</ele>
        <time>2013-05-12T13:07:22Z</time>
      </trkpt>
      <trkpt lat="40.365833" lon="-5.471900">
        <ele>1879.0</ele>
        <time>2013-05-12T13:07:23Z</time>
      </trkpt>
      <trkpt lat="40.365833" lon="-5.471983">
        <ele>1878.0</ele>
        <time>2013-05-12T13:07:24Z</time>
      </trkpt>
      <trkpt lat="40.365833" lon="-5.472067">
        <ele>1877.0</ele>
        <time>2013-05-12T13:07:25Z</time>
      </trkpt>
      <trkpt lat="40.365833" lon="-5.472133">
        <ele>1876.0</ele>
        <time>2013-05-12T13:07:26Z</time>
      </trkpt>
      <trkpt lat="40.365817" lon="-5.472217">
        <ele>1875.0</ele>
        <time>2013-05-12T13:07:27Z</time>
      </trkpt>
      <trkpt lat="40.365817" lon="-5.472300">
        <ele>1874.0</ele>
        <time>2013-05-12T13:07:28Z</time>
      </trkpt>
      <trkpt lat="40.365800" lon="-5.472383">
        <ele>1873.0</ele>
        <time>2013-05-12T13:07:29Z</time>
      </trkpt>
      <trkpt lat="40.365783" lon="-5.472467">
        <ele>1871.0</ele>
        <time>2013-05-12T13:07:30Z</time>
      </trkpt>
      <trkpt lat="40.365767" lon="-5.472550">
        <ele>1870.0</ele>
        <time>2013-05-12T13:07:31Z</time>
      </trkpt>
      <trkpt lat="40.365750" lon="-5.472633">
        <ele>1869.0</ele>
        <time>2013-05-12T13:07:32Z</time>
      </trkpt>
      <trkpt lat="40.365733" lon="-5.472733">
        <ele>1867.0</ele>
        <time>2013-05-12T13:07:33Z</time>
      </trkpt>
      <trkpt lat="40.365717" lon="-5.472817">
        <ele>1867.0</ele>
        <time>2013-05-12T13:07:34Z</time>
      </trkpt>
      <trkpt lat="40.365700" lon="-5.472917">
        <ele>1866.0</ele>
        <time>2013-05-12T13:07:35Z</time>
      </trkpt>
      <trkpt lat="40.365683" lon="-5.473000">
        <ele>1865.0</ele>
        <time>2013-05-12T13:07:36Z</time>
      </trkpt>
      <trkpt lat="40.365667" lon="-5.473083">
        <ele>1864.0</ele>
        <time>2013-05-12T13:07:37Z</time>
      </trkpt>
      <trkpt lat="40.365650" lon="-5.473150">
        <ele>1863.0</ele>
        <time>2013-05-12T13:07:38Z</time>
      </trkpt>
      <trkpt lat="40.365633" lon="-5.473233">
        <ele>1862.0</ele>
        <time>2013-05-12T13:07:39Z</time>
      </trkpt>
      <trkpt lat="40.365600" lon="-5.473317">
        <ele>1860.0</ele>
        <time>2013-05-12T13:07:40Z</time>
      </trkpt>
      <trkpt lat="40.365583" lon="-5.473400">
        <ele>1858.0</ele>
        <time>2013-05-12T13:07:41Z</time>
      </trkpt>
      <trkpt lat="40.365567" lon="-5.473483">
        <ele>1856.0</ele>
        <time>2013-05-12T13:07:42Z</time>
      </trkpt>
      <trkpt lat="40.365550" lon="-5.473583">
        <ele>1853.0</ele>
        <time>2013-05-12T13:07:43Z</time>
      </trkpt>
      <trkpt lat="40.365533" lon="-5.473667">
        <ele>1851.0</ele>
        <time>2013-05-12T13:07:44Z</time>
      </trkpt>
      <trkpt lat="40.365517" lon="-5.473750">
        <ele>1849.0</ele>
        <time>2013-05-12T13:07:45Z</time>
      </trkpt>
      <trkpt lat="40.365500" lon="-5.473833">
        <ele>1847.0</ele>
        <time>2013-05-12T13:07:46Z</time>
      </trkpt>
      <trkpt lat="40.365483" lon="-5.473917">
        <ele>1845.0</ele>
        <time>2013-05-12T13:07:47Z</time>
      </trkpt>
      <trkpt lat="40.365467" lon="-5.474000">
        <ele>1844.0</ele>
        <time>2013-05-12T13:07:48Z</time>
      </trkpt>
      <trkpt lat="40.365433" lon="-5.474067">
        <ele>1842.0</ele>
        <time>2013-05-12T13:07:49Z</time>
      </trkpt>
      <trkpt lat="40.365417" lon="-5.474133">
        <ele>1841.0</ele>
        <time>2013-05-12T13:07:50Z</time>
      </trkpt>
      <trkpt lat="40.365400" lon="-5.474200">
        <ele>1839.0</ele>
        <time>2013-05-12T13:07:51Z</time>
      </trkpt>
      <trkpt lat="40.365383" lon="-5.474267">
        <ele>1836.0</ele>
        <time>2013-05-12T13:07:52Z</time>
      </trkpt>
      <trkpt lat="40.365367" lon="-5.474350">
        <ele>1834.0</ele>
        <time>2013-05-12T13:07:53Z</time>
      </trkpt>
      <trkpt lat="40.365350" lon="-5.474433">
        <ele>1832.0</ele>
        <time>2013-05-12T13:07:54Z</time>
      </trkpt>
      <trkpt lat="40.365333" lon="-5.474517">
        <ele>1832.0</ele>
        <time>2013-05-12T13:07:55Z</time>
      </trkpt>
      <trkpt lat="40.365317" lon="-5.474583">
        <ele>1832.0</ele>
        <time>2013-05-12T13:07:56Z</time>
      </trkpt>
      <trkpt lat="40.365317" lon="-5.474650">
        <ele>1832.0</ele>
        <time>2013-05-12T13:07:57Z</time>
      </trkpt>
      <trkpt lat="40.365317" lon="-5.474733">
        <ele>1832.0</ele>
        <time>2013-05-12T13:07:58Z</time>
      </trkpt>
      <trkpt lat="40.365317" lon="-5.474800">
        <ele>1831.0</ele>
        <time>2013-05-12T13:07:59Z</time>
      </trkpt>
      <trkpt lat="40.365300" lon="-5.474867">
        <ele>1829.0</ele>
        <time>2013-05-12T13:08:00Z</time>
      </trkpt>
      <trkpt lat="40.365300" lon="-5.474950">
        <ele>1827.0</ele>
        <time>2013-05-12T13:08:01Z</time>
      </trkpt>
      <trkpt lat="40.365300" lon="-5.475033">
        <ele>1825.0</ele>
        <time>2013-05-12T13:08:02Z</time>
      </trkpt>
      <trkpt lat="40.365317" lon="-5.475117">
        <ele>1823.0</ele>
        <time>2013-05-12T13:08:03Z</time>
      </trkpt>
      <trkpt lat="40.365317" lon="-5.475200">
        <ele>1821.0</ele>
        <time>2013-05-12T13:08:04Z</time>
      </trkpt>
      <trkpt lat="40.365317" lon="-5.475300">
        <ele>1820.0</ele>
        <time>2013-05-12T13:08:05Z</time>
      </trkpt>
      <trkpt lat="40.365333" lon="-5.475383">
        <ele>1819.0</ele>
        <time>2013-05-12T13:08:06Z</time>
      </trkpt>
      <trkpt lat="40.365333" lon="-5.475483">
        <ele>1820.0</ele>
        <time>2013-05-12T13:08:07Z</time>
      </trkpt>
      <trkpt lat="40.365350" lon="-5.475567">
        <ele>1820.0</ele>
        <time>2013-05-12T13:08:08Z</time>
      </trkpt>
      <trkpt lat="40.365367" lon="-5.475650">
        <ele>1819.0</ele>
        <time>2013-05-12T13:08:09Z</time>
      </trkpt>
      <trkpt lat="40.365383" lon="-5.475750">
        <ele>1818.0</ele>
        <time>2013-05-12T13:08:10Z</time>
      </trkpt>
      <trkpt lat="40.365433" lon="-5.475850">
        <ele>1817.0</ele>
        <time>2013-05-12T13:08:11Z</time>
      </trkpt>
      <trkpt lat="40.365467" lon="-5.475950">
        <ele>1816.0</ele>
        <time>2013-05-12T13:08:12Z</time>
      </trkpt>
      <trkpt lat="40.365500" lon="-5.476050">
        <ele>1816.0</ele>
        <time>2013-05-12T13:08:13Z</time>
      </trkpt>
      <trkpt lat="40.365517" lon="-5.476167">
        <ele>1816.0</ele>
        <time>2013-05-12T13:08:14Z</time>
      </trkpt>
      <trkpt lat="40.365533" lon="-5.476267">
        <ele>1815.0</ele>
        <time>2013-05-12T13:08:15Z</time>
      </trkpt>
      <trkpt lat="40.365550" lon="-5.476383">
        <ele>1814.0</ele>
        <time>2013-05-12T13:08:16Z</time>
      </trkpt>
      <trkpt lat="40.365567" lon="-5.476500">
        <ele>1813.0</ele>
        <time>2013-05-12T13:08:17Z</time>
      </trkpt>
      <trkpt lat="40.365583" lon="-5.476633">
        <ele>1813.0</ele>
        <time>2013-05-12T13:08:18Z</time>
      </trkpt>
      <trkpt lat="40.365583" lon="-5.476750">
        <ele>1813.0</ele>
        <time>2013-05-12T13:08:19Z</time>
      </trkpt>
      <trkpt lat="40.365600" lon="-5.476867">
        <ele>1812.0</ele>
        <time>2013-05-12T13:08:20Z</time>
      </trkpt>
      <trkpt lat="40.365617" lon="-5.476983">
        <ele>1812.0</ele>
        <time>2013-05-12T13:08:21Z</time>
      </trkpt>
      <trkpt lat="40.365617" lon="-5.477100">
        <ele>1813.0</ele>
        <time>2013-05-12T13:08:22Z</time>
      </trkpt>
      <trkpt lat="40.365617" lon="-5.477200">
        <ele>1813.0</ele>
        <time>2013-05-12T13:08:23Z</time>
      </trkpt>
      <trkpt lat="40.365617" lon="-5.477283">
        <ele>1814.0</ele>
        <time>2013-05-12T13:08:24Z</time>
      </trkpt>
      <trkpt lat="40.365617" lon="-5.477383">
        <ele>1814.0</ele>
        <time>2013-05-12T13:08:25Z</time>
      </trkpt>
      <trkpt lat="40.365617" lon="-5.477467">
        <ele>1813.0</ele>
        <time>2013-05-12T13:08:26Z</time>
      </trkpt>
      <trkpt lat="40.365633" lon="-5.477567">
        <ele>1813.0</ele>
        <time>2013-05-12T13:08:27Z</time>
      </trkpt>
      <trkpt lat="40.365650" lon="-5.477683">
        <ele>1812.0</ele>
        <time>2013-05-12T13:08:28Z</time>
      </trkpt>
      <trkpt lat="40.365650" lon="-5.477783">
        <ele>1813.0</ele>
        <time>2013-05-12T13:08:29Z</time>
      </trkpt>
      <trkpt lat="40.365667" lon="-5.477883">
        <ele>1814.0</ele>
        <time>2013-05-12T13:08:30Z</time>
      </trkpt>
      <trkpt lat="40.365683" lon="-5.477983">
        <ele>1815.0</ele>
        <time>2013-05-12T13:08:31Z</time>
      </trkpt>
      <trkpt lat="40.365700" lon="-5.478067">
        <ele>1815.0</ele>
        <time>2013-05-12T13:08:32Z</time>
      </trkpt>
      <trkpt lat="40.365700" lon="-5.478167">
        <ele>1815.0</ele>
        <time>2013-05-12T13:08:33Z</time>
      </trkpt>
      <trkpt lat="40.365717" lon="-5.478267">
        <ele>1815.0</ele>
        <time>2013-05-12T13:08:34Z</time>
      </trkpt>
      <trkpt lat="40.365733" lon="-5.478367">
        <ele>1815.0</ele>
        <time>2013-05-12T13:08:35Z</time>
      </trkpt>
      <trkpt lat="40.365733" lon="-5.478467">
        <ele>1816.0</ele>
        <time>2013-05-12T13:08:36Z</time>
      </trkpt>
      <trkpt lat="40.365750" lon="-5.478567">
        <ele>1817.0</ele>
        <time>2013-05-12T13:08:37Z</time>
      </trkpt>
      <trkpt lat="40.365767" lon="-5.478650">
        <ele>1817.0</ele>
        <time>2013-05-12T13:08:38Z</time>
      </trkpt>
      <trkpt lat="40.365767" lon="-5.478733">
        <ele>1817.0</ele>
        <time>2013-05-12T13:08:39Z</time>
      </trkpt>
      <trkpt lat="40.365767" lon="-5.478817">
        <ele>1815.0</ele>
        <time>2013-05-12T13:08:40Z</time>
      </trkpt>
      <trkpt lat="40.365767" lon="-5.478917">
        <ele>1813.0</ele>
        <time>2013-05-12T13:08:41Z</time>
      </trkpt>
      <trkpt lat="40.365750" lon="-5.479033">
        <ele>1811.0</ele>
        <time>2013-05-12T13:08:42Z</time>
      </trkpt>
      <trkpt lat="40.365733" lon="-5.479150">
        <ele>1809.0</ele>
        <time>2013-05-12T13:08:43Z</time>
      </trkpt>
      <trkpt lat="40.365733" lon="-5.479267">
        <ele>1808.0</ele>
        <time>2013-05-12T13:08:44Z</time>
      </trkpt>
      <trkpt lat="40.365733" lon="-5.479367">
        <ele>1807.0</ele>
        <time>2013-05-12T13:08:45Z</time>
      </trkpt>
      <trkpt lat="40.365733" lon="-5.479467">
        <ele>1806.0</ele>
        <time>2013-05-12T13:08:46Z</time>
      </trkpt>
      <trkpt lat="40.365733" lon="-5.479550">
        <ele>1804.0</ele>
        <time>2013-05-12T13:08:47Z</time>
      </trkpt>
      <trkpt lat="40.365717" lon="-5.479650">
        <ele>1801.0</ele>
        <time>2013-05-12T13:08:48Z</time>
      </trkpt>
      <trkpt lat="40.365700" lon="-5.479750">
        <ele>1799.0</ele>
        <time>2013-05-12T13:08:49Z</time>
      </trkpt>
      <trkpt lat="40.365683" lon="-5.479867">
        <ele>1797.0</ele>
        <time>2013-05-12T13:08:50Z</time>
      </trkpt>
      <trkpt lat="40.365683" lon="-5.479967">
        <ele>1795.0</ele>
        <time>2013-05-12T13:08:51Z</time>
      </trkpt>
      <trkpt lat="40.365683" lon="-5.480067">
        <ele>1794.0</ele>
        <time>2013-05-12T13:08:52Z</time>
      </trkpt>
      <trkpt lat="40.365667" lon="-5.480167">
        <ele>1792.0</ele>
        <time>2013-05-12T13:08:53Z</time>
      </trkpt>
      <trkpt lat="40.365667" lon="-5.480267">
        <ele>1790.0</ele>
        <time>2013-05-12T13:08:54Z</time>
      </trkpt>
      <trkpt lat="40.365667" lon="-5.480350">
        <ele>1787.0</ele>
        <time>2013-05-12T13:08:55Z</time>
      </trkpt>
      <trkpt lat="40.365667" lon="-5.480450">
        <ele>1785.0</ele>
        <time>2013-05-12T13:08:56Z</time>
      </trkpt>
      <trkpt lat="40.365667" lon="-5.480550">
        <ele>1783.0</ele>
        <time>2013-05-12T13:08:57Z</time>
      </trkpt>
      <trkpt lat="40.365667" lon="-5.480650">
        <ele>1780.0</ele>
        <time>2013-05-12T13:08:58Z</time>
      </trkpt>
      <trkpt lat="40.365667" lon="-5.480733">
        <ele>1778.0</ele>
        <time>2013-05-12T13:08:59Z</time>
      </trkpt>
      <trkpt lat="40.365650" lon="-5.480833">
        <ele>1775.0</ele>
        <time>2013-05-12T13:09:00Z</time>
      </trkpt>
      <trkpt lat="40.365650" lon="-5.480933">
        <ele>1771.0</ele>
        <time>2013-05-12T13:09:01Z</time>
      </trkpt>
      <trkpt lat="40.365650" lon="-5.481050">
        <ele>1769.0</ele>
        <time>2013-05-12T13:09:02Z</time>
      </trkpt>
      <trkpt lat="40.365650" lon="-5.481167">
        <ele>1766.0</ele>
        <time>2013-05-12T13:09:03Z</time>
      </trkpt>
      <trkpt lat="40.365650" lon="-5.481267">
        <ele>1764.0</ele>
        <time>2013-05-12T13:09:04Z</time>
      </trkpt>
      <trkpt lat="40.365633" lon="-5.481367">
        <ele>1762.0</ele>
        <time>2013-05-12T13:09:05Z</time>
      </trkpt>
      <trkpt lat="40.365633" lon="-5.481467">
        <ele>1760.0</ele>
        <time>2013-05-12T13:09:06Z</time>
      </trkpt>
      <trkpt lat="40.365633" lon="-5.481567">
        <ele>1757.0</ele>
        <time>2013-05-12T13:09:07Z</time>
      </trkpt>
      <trkpt lat="40.365633" lon="-5.481683">
        <ele>1754.0</ele>
        <time>2013-05-12T13:09:08Z</time>
      </trkpt>
      <trkpt lat="40.365617" lon="-5.481783">
        <ele>1751.0</ele>
        <time>2013-05-12T13:09:09Z</time>
      </trkpt>
      <trkpt lat="40.365617" lon="-5.481883">
        <ele>1748.0</ele>
        <time>2013-05-12T13:09:10Z</time>
      </trkpt>
      <trkpt lat="40.365617" lon="-5.482000">
        <ele>1746.0</ele>
        <time>2013-05-12T13:09:11Z</time>
      </trkpt>
      <trkpt lat="40.365600" lon="-5.482100">
        <ele>1743.0</ele>
        <time>2013-05-12T13:09:12Z</time>
      </trkpt>
      <trkpt lat="40.365583" lon="-5.482200">
        <ele>1741.0</ele>
        <time>2013-05-12T13:09:13Z</time>
      </trkpt>
      <trkpt lat="40.365583" lon="-5.482300">
        <ele>1738.0</ele>
        <time>2013-05-12T13:09:14Z</time>
      </trkpt>
      <trkpt lat="40.365567" lon="-5.482417">
        <ele>1734.0</ele>
        <time>2013-05-12T13:09:15Z</time>
      </trkpt>
      <trkpt lat="40.365550" lon="-5.482533">
        <ele>1731.0</ele>
        <time>2013-05-12T13:09:16Z</time>
      </trkpt>
      <trkpt lat="40.365550" lon="-5.482650">
        <ele>1728.0</ele>
        <time>2013-05-12T13:09:17Z</time>
      </trkpt>
      <trkpt lat="40.365533" lon="-5.482750">
        <ele>1726.0</ele>
        <time>2013-05-12T13:09:18Z</time>
      </trkpt>
      <trkpt lat="40.365533" lon="-5.482867">
        <ele>1723.0</ele>
        <time>2013-05-12T13:09:19Z</time>
      </trkpt>
      <trkpt lat="40.365517" lon="-5.482983">
        <ele>1720.0</ele>
        <time>2013-05-12T13:09:20Z</time>
      </trkpt>
      <trkpt lat="40.365517" lon="-5.483100">
        <ele>1717.0</ele>
        <time>2013-05-12T13:09:21Z</time>
      </trkpt>
      <trkpt lat="40.365500" lon="-5.483217">
        <ele>1714.0</ele>
        <time>2013-05-12T13:09:22Z</time>
      </trkpt>
      <trkpt lat="40.365483" lon="-5.483333">
        <ele>1712.0</ele>
        <time>2013-05-12T13:09:23Z</time>
      </trkpt>
      <trkpt lat="40.365467" lon="-5.483467">
        <ele>1709.0</ele>
        <time>2013-05-12T13:09:24Z</time>
      </trkpt>
      <trkpt lat="40.365467" lon="-5.483583">
        <ele>1707.0</ele>
        <time>2013-05-12T13:09:25Z</time>
      </trkpt>
      <trkpt lat="40.365450" lon="-5.483717">
        <ele>1704.0</ele>
        <time>2013-05-12T13:09:26Z</time>
      </trkpt>
      <trkpt lat="40.365433" lon="-5.483833">
        <ele>1702.0</ele>
        <time>2013-05-12T13:09:27Z</time>
      </trkpt>
      <trkpt lat="40.365433" lon="-5.483950">
        <ele>1700.0</ele>
        <time>2013-05-12T13:09:28Z</time>
      </trkpt>
      <trkpt lat="40.365433" lon="-5.484067">
        <ele>1698.0</ele>
        <time>2013-05-12T13:09:29Z</time>
      </trkpt>
      <trkpt lat="40.365450" lon="-5.484183">
        <ele>1696.0</ele>
        <time>2013-05-12T13:09:30Z</time>
      </trkpt>
      <trkpt lat="40.365450" lon="-5.484300">
        <ele>1694.0</ele>
        <time>2013-05-12T13:09:31Z</time>
      </trkpt>
      <trkpt lat="40.365433" lon="-5.484400">
        <ele>1692.0</ele>
        <time>2013-05-12T13:09:32Z</time>
      </trkpt>
      <trkpt lat="40.365417" lon="-5.484517">
        <ele>1690.0</ele>
        <time>2013-05-12T13:09:33Z</time>
      </trkpt>
      <trkpt lat="40.365417" lon="-5.484633">
        <ele>1688.0</ele>
        <time>2013-05-12T13:09:34Z</time>
      </trkpt>
      <trkpt lat="40.365400" lon="-5.484750">
        <ele>1685.0</ele>
        <time>2013-05-12T13:09:35Z</time>
      </trkpt>
      <trkpt lat="40.365400" lon="-5.484867">
        <ele>1682.0</ele>
        <time>2013-05-12T13:09:36Z</time>
      </trkpt>
      <trkpt lat="40.365383" lon="-5.484983">
        <ele>1679.0</ele>
        <time>2013-05-12T13:09:37Z</time>
      </trkpt>
      <trkpt lat="40.365350" lon="-5.485100">
        <ele>1677.0</ele>
        <time>2013-05-12T13:09:38Z</time>
      </trkpt>
      <trkpt lat="40.365333" lon="-5.485217">
        <ele>1675.0</ele>
        <time>2013-05-12T13:09:39Z</time>
      </trkpt>
      <trkpt lat="40.365300" lon="-5.485317">
        <ele>1673.0</ele>
        <time>2013-05-12T13:09:40Z</time>
      </trkpt>
      <trkpt lat="40.365267" lon="-5.485433">
        <ele>1670.0</ele>
        <time>2013-05-12T13:09:41Z</time>
      </trkpt>
      <trkpt lat="40.365250" lon="-5.485550">
        <ele>1667.0</ele>
        <time>2013-05-12T13:09:42Z</time>
      </trkpt>
      <trkpt lat="40.365217" lon="-5.485667">
        <ele>1665.0</ele>
        <time>2013-05-12T13:09:43Z</time>
      </trkpt>
      <trkpt lat="40.365167" lon="-5.485783">
        <ele>1663.0</ele>
        <time>2013-05-12T13:09:44Z</time>
      </trkpt>
      <trkpt lat="40.365117" lon="-5.485883">
        <ele>1661.0</ele>
        <time>2013-05-12T13:09:45Z</time>
      </trkpt>
      <trkpt lat="40.365067" lon="-5.486000">
        <ele>1661.0</ele>
        <time>2013-05-12T13:09:46Z</time>
      </trkpt>
      <trkpt lat="40.365033" lon="-5.486100">
        <ele>1660.0</ele>
        <time>2013-05-12T13:09:47Z</time>
      </trkpt>
      <trkpt lat="40.365000" lon="-5.486217">
        <ele>1660.0</ele>
        <time>2013-05-12T13:09:48Z</time>
      </trkpt>
      <trkpt lat="40.364967" lon="-5.486317">
        <ele>1659.0</ele>
        <time>2013-05-12T13:09:49Z</time>
      </trkpt>
      <trkpt lat="40.364950" lon="-5.486417">
        <ele>1658.0</ele>
        <time>2013-05-12T13:09:50Z</time>
      </trkpt>
      <trkpt lat="40.364917" lon="-5.486533">
        <ele>1658.0</ele>
        <time>2013-05-12T13:09:51Z</time>
      </trkpt>
      <trkpt lat="40.364883" lon="-5.486650">
        <ele>1657.0</ele>
        <time>2013-05-12T13:09:52Z</time>
      </trkpt>
      <trkpt lat="40.364867" lon="-5.486767">
        <ele>1657.0</ele>
        <time>2013-05-12T13:09:53Z</time>
      </trkpt>
      <trkpt lat="40.364850" lon="-5.486867">
        <ele>1657.0</ele>
        <time>2013-05-12T13:09:54Z</time>
      </trkpt>
      <trkpt lat="40.364833" lon="-5.486950">
        <ele>1657.0</ele>
        <time>2013-05-12T13:09:55Z</time>
      </trkpt>
      <trkpt lat="40.364800" lon="-5.487050">
        <ele>1656.0</ele>
        <time>2013-05-12T13:09:56Z</time>
      </trkpt>
      <trkpt lat="40.364783" lon="-5.487150">
        <ele>1655.0</ele>
        <time>2013-05-12T13:09:57Z</time>
      </trkpt>
      <trkpt lat="40.364750" lon="-5.487233">
        <ele>1654.0</ele>
        <time>2013-05-12T13:09:58Z</time>
      </trkpt>
      <trkpt lat="40.364733" lon="-5.487333">
        <ele>1654.0</ele>
        <time>2013-05-12T13:09:59Z</time>
      </trkpt>
      <trkpt lat="40.364733" lon="-5.487450">
        <ele>1653.0</ele>
        <time>2013-05-12T13:10:00Z</time>
      </trkpt>
      <trkpt lat="40.364717" lon="-5.487550">
        <ele>1654.0</ele>
        <time>2013-05-12T13:10:01Z</time>
      </trkpt>
      <trkpt lat="40.364700" lon="-5.487650">
        <ele>1655.0</ele>
        <time>2013-05-12T13:10:02Z</time>
      </trkpt>
      <trkpt lat="40.364667" lon="-5.487750">
        <ele>1655.0</ele>
        <time>2013-05-12T13:10:03Z</time>
      </trkpt>
      <trkpt lat="40.364633" lon="-5.487850">
        <ele>1656.0</ele>
        <time>2013-05-12T13:10:04Z</time>
      </trkpt>
      <trkpt lat="40.364617" lon="-5.487967">
        <ele>1656.0</ele>
        <time>2013-05-12T13:10:05Z</time>
      </trkpt>
      <trkpt lat="40.364583" lon="-5.488083">
        <ele>1657.0</ele>
        <time>2013-05-12T13:10:06Z</time>
      </trkpt>
      <trkpt lat="40.364550" lon="-5.488217">
        <ele>1659.0</ele>
        <time>2013-05-12T13:10:07Z</time>
      </trkpt>
      <trkpt lat="40.364517" lon="-5.488333">
        <ele>1662.0</ele>
        <time>2013-05-12T13:10:08Z</time>
      </trkpt>
      <trkpt lat="40.364483" lon="-5.488450">
        <ele>1665.0</ele>
        <time>2013-05-12T13:10:09Z</time>
      </trkpt>
      <trkpt lat="40.364433" lon="-5.488567">
        <ele>1668.0</ele>
        <time>2013-05-12T13:10:10Z</time>
      </trkpt>
      <trkpt lat="40.364400" lon="-5.488683">
        <ele>1670.0</ele>
        <time>2013-05-12T13:10:11Z</time>
      </trkpt>
      <trkpt lat="40.364350" lon="-5.488800">
        <ele>1672.0</ele>
        <time>2013-05-12T13:10:12Z</time>
      </trkpt>
      <trkpt lat="40.364317" lon="-5.488900">
        <ele>1674.0</ele>
        <time>2013-05-12T13:10:13Z</time>
      </trkpt>
      <trkpt lat="40.364267" lon="-5.489000">
        <ele>1676.0</ele>
        <time>2013-05-12T13:10:14Z</time>
      </trkpt>
      <trkpt lat="40.364233" lon="-5.489117">
        <ele>1678.0</ele>
        <time>2013-05-12T13:10:15Z</time>
      </trkpt>
      <trkpt lat="40.364167" lon="-5.489217">
        <ele>1680.0</ele>
        <time>2013-05-12T13:10:16Z</time>
      </trkpt>
      <trkpt lat="40.364100" lon="-5.489317">
        <ele>1681.0</ele>
        <time>2013-05-12T13:10:17Z</time>
      </trkpt>
      <trkpt lat="40.364050" lon="-5.489433">
        <ele>1682.0</ele>
        <time>2013-05-12T13:10:18Z</time>
      </trkpt>
      <trkpt lat="40.364017" lon="-5.489533">
        <ele>1683.0</ele>
        <time>2013-05-12T13:10:19Z</time>
      </trkpt>
      <trkpt lat="40.363983" lon="-5.489650">
        <ele>1683.0</ele>
        <time>2013-05-12T13:10:20Z</time>
      </trkpt>
      <trkpt lat="40.363950" lon="-5.489767">
        <ele>1682.0</ele>
        <time>2013-05-12T13:10:21Z</time>
      </trkpt>
      <trkpt lat="40.363917" lon="-5.489883">
        <ele>1682.0</ele>
        <time>2013-05-12T13:10:22Z</time>
      </trkpt>
      <trkpt lat="40.363883" lon="-5.490017">
        <ele>1683.0</ele>
        <time>2013-05-12T13:10:23Z</time>
      </trkpt>
      <trkpt lat="40.363850" lon="-5.490117">
        <ele>1684.0</ele>
        <time>2013-05-12T13:10:24Z</time>
      </trkpt>
      <trkpt lat="40.363817" lon="-5.490233">
        <ele>1684.0</ele>
        <time>2013-05-12T13:10:25Z</time>
      </trkpt>
      <trkpt lat="40.363767" lon="-5.490333">
        <ele>1684.0</ele>
        <time>2013-05-12T13:10:26Z</time>
      </trkpt>
      <trkpt lat="40.363733" lon="-5.490450">
        <ele>1683.0</ele>
        <time>2013-05-12T13:10:27Z</time>
      </trkpt>
      <trkpt lat="40.363683" lon="-5.490567">
        <ele>1683.0</ele>
        <time>2013-05-12T13:10:28Z</time>
      </trkpt>
      <trkpt lat="40.363633" lon="-5.490683">
        <ele>1683.0</ele>
        <time>2013-05-12T13:10:29Z</time>
      </trkpt>
      <trkpt lat="40.363550" lon="-5.490800">
        <ele>1683.0</ele>
        <time>2013-05-12T13:10:30Z</time>
      </trkpt>
      <trkpt lat="40.363483" lon="-5.490917">
        <ele>1684.0</ele>
        <time>2013-05-12T13:10:31Z</time>
      </trkpt>
      <trkpt lat="40.363417" lon="-5.491050">
        <ele>1685.0</ele>
        <time>2013-05-12T13:10:32Z</time>
      </trkpt>
      <trkpt lat="40.363350" lon="-5.491183">
        <ele>1685.0</ele>
        <time>2013-05-12T13:10:33Z</time>
      </trkpt>
      <trkpt lat="40.363283" lon="-5.491300">
        <ele>1685.0</ele>
        <time>2013-05-12T13:10:34Z</time>
      </trkpt>
      <trkpt lat="40.363217" lon="-5.491400">
        <ele>1685.0</ele>
        <time>2013-05-12T13:10:35Z</time>
      </trkpt>
      <trkpt lat="40.363150" lon="-5.491517">
        <ele>1684.0</ele>
        <time>2013-05-12T13:10:36Z</time>
      </trkpt>
      <trkpt lat="40.363083" lon="-5.491633">
        <ele>1683.0</ele>
        <time>2013-05-12T13:10:37Z</time>
      </trkpt>
      <trkpt lat="40.363033" lon="-5.491750">
        <ele>1682.0</ele>
        <time>2013-05-12T13:10:38Z</time>
      </trkpt>
      <trkpt lat="40.362967" lon="-5.491867">
        <ele>1682.0</ele>
        <time>2013-05-12T13:10:39Z</time>
      </trkpt>
      <trkpt lat="40.362917" lon="-5.491983">
        <ele>1682.0</ele>
        <time>2013-05-12T13:10:40Z</time>
      </trkpt>
      <trkpt lat="40.362867" lon="-5.492100">
        <ele>1683.0</ele>
        <time>2013-05-12T13:10:41Z</time>
      </trkpt>
      <trkpt lat="40.362800" lon="-5.492217">
        <ele>1683.0</ele>
        <time>2013-05-12T13:10:42Z</time>
      </trkpt>
      <trkpt lat="40.362733" lon="-5.492333">
        <ele>1683.0</ele>
        <time>2013-05-12T13:10:43Z</time>
      </trkpt>
      <trkpt lat="40.362683" lon="-5.492467">
        <ele>1683.0</ele>
        <time>2013-05-12T13:10:44Z</time>
      </trkpt>
      <trkpt lat="40.362633" lon="-5.492583">
        <ele>1684.0</ele>
        <time>2013-05-12T13:10:45Z</time>
      </trkpt>
      <trkpt lat="40.362583" lon="-5.492700">
        <ele>1686.0</ele>
        <time>2013-05-12T13:10:46Z</time>
      </trkpt>
      <trkpt lat="40.362517" lon="-5.492817">
        <ele>1687.0</ele>
        <time>2013-05-12T13:10:47Z</time>
      </trkpt>
      <trkpt lat="40.362467" lon="-5.492917">
        <ele>1687.0</ele>
        <time>2013-05-12T13:10:48Z</time>
      </trkpt>
      <trkpt lat="40.362400" lon="-5.493033">
        <ele>1688.0</ele>
        <time>2013-05-12T13:10:49Z</time>
      </trkpt>
      <trkpt lat="40.362350" lon="-5.493150">
        <ele>1687.0</ele>
        <time>2013-05-12T13:10:50Z</time>
      </trkpt>
      <trkpt lat="40.362300" lon="-5.493267">
        <ele>1688.0</ele>
        <time>2013-05-12T13:10:51Z</time>
      </trkpt>
      <trkpt lat="40.362250" lon="-5.493400">
        <ele>1688.0</ele>
        <time>2013-05-12T13:10:52Z</time>
      </trkpt>
      <trkpt lat="40.362183" lon="-5.493517">
        <ele>1689.0</ele>
        <time>2013-05-12T13:10:53Z</time>
      </trkpt>
      <trkpt lat="40.362133" lon="-5.493617">
        <ele>1689.0</ele>
        <time>2013-05-12T13:10:54Z</time>
      </trkpt>
      <trkpt lat="40.362083" lon="-5.493733">
        <ele>1688.0</ele>
        <time>2013-05-12T13:10:55Z</time>
      </trkpt>
      <trkpt lat="40.362033" lon="-5.493833">
        <ele>1688.0</ele>
        <time>2013-05-12T13:10:56Z</time>
      </trkpt>
      <trkpt lat="40.362000" lon="-5.493967">
        <ele>1687.0</ele>
        <time>2013-05-12T13:10:57Z</time>
      </trkpt>
      <trkpt lat="40.361950" lon="-5.494083">
        <ele>1687.0</ele>
        <time>2013-05-12T13:10:58Z</time>
      </trkpt>
      <trkpt lat="40.361900" lon="-5.494217">
        <ele>1686.0</ele>
        <time>2013-05-12T13:10:59Z</time>
      </trkpt>
      <trkpt lat="40.361833" lon="-5.494333">
        <ele>1686.0</ele>
        <time>2013-05-12T13:11:00Z</time>
      </trkpt>
      <trkpt lat="40.361783" lon="-5.494450">
        <ele>1687.0</ele>
        <time>2013-05-12T13:11:01Z</time>
      </trkpt>
      <trkpt lat="40.361717" lon="-5.494550">
        <ele>1686.0</ele>
        <time>2013-05-12T13:11:02Z</time>
      </trkpt>
      <trkpt lat="40.361667" lon="-5.494667">
        <ele>1685.0</ele>
        <time>2013-05-12T13:11:03Z</time>
      </trkpt>
      <trkpt lat="40.361633" lon="-5.494800">
        <ele>1684.0</ele>
        <time>2013-05-12T13:11:04Z</time>
      </trkpt>
      <trkpt lat="40.361583" lon="-5.494933">
        <ele>1683.0</ele>
        <time>2013-05-12T13:11:05Z</time>
      </trkpt>
      <trkpt lat="40.361517" lon="-5.495067">
        <ele>1682.0</ele>
        <time>2013-05-12T13:11:06Z</time>
      </trkpt>
      <trkpt lat="40.361467" lon="-5.495200">
        <ele>1681.0</ele>
        <time>2013-05-12T13:11:07Z</time>
      </trkpt>
      <trkpt lat="40.361417" lon="-5.495317">
        <ele>1679.0</ele>
        <time>2013-05-12T13:11:08Z</time>
      </trkpt>
      <trkpt lat="40.361383" lon="-5.495450">
        <ele>1678.0</ele>
        <time>2013-05-12T13:11:09Z</time>
      </trkpt>
      <trkpt lat="40.361333" lon="-5.495567">
        <ele>1677.0</ele>
        <time>2013-05-12T13:11:10Z</time>
      </trkpt>
      <trkpt lat="40.361283" lon="-5.495683">
        <ele>1675.0</ele>
        <time>2013-05-12T13:11:11Z</time>
      </trkpt>
      <trkpt lat="40.361217" lon="-5.495800">
        <ele>1673.0</ele>
        <time>2013-05-12T13:11:12Z</time>
      </trkpt>
      <trkpt lat="40.361150" lon="-5.495917">
        <ele>1672.0</ele>
        <time>2013-05-12T13:11:13Z</time>
      </trkpt>
      <trkpt lat="40.361100" lon="-5.496033">
        <ele>1670.0</ele>
        <time>2013-05-12T13:11:14Z</time>
      </trkpt>
      <trkpt lat="40.361050" lon="-5.496167">
        <ele>1668.0</ele>
        <time>2013-05-12T13:11:15Z</time>
      </trkpt>
      <trkpt lat="40.361000" lon="-5.496300">
        <ele>1667.0</ele>
        <time>2013-05-12T13:11:16Z</time>
      </trkpt>
      <trkpt lat="40.360950" lon="-5.496433">
        <ele>1667.0</ele>
        <time>2013-05-12T13:11:17Z</time>
      </trkpt>
      <trkpt lat="40.360900" lon="-5.496550">
        <ele>1667.0</ele>
        <time>2013-05-12T13:11:18Z</time>
      </trkpt>
      <trkpt lat="40.360850" lon="-5.496667">
        <ele>1666.0</ele>
        <time>2013-05-12T13:11:19Z</time>
      </trkpt>
      <trkpt lat="40.360800" lon="-5.496783">
        <ele>1665.0</ele>
        <time>2013-05-12T13:11:20Z</time>
      </trkpt>
      <trkpt lat="40.360733" lon="-5.496900">
        <ele>1664.0</ele>
        <time>2013-05-12T13:11:21Z</time>
      </trkpt>
      <trkpt lat="40.360683" lon="-5.497017">
        <ele>1663.0</ele>
        <time>2013-05-12T13:11:22Z</time>
      </trkpt>
      <trkpt lat="40.360633" lon="-5.497133">
        <ele>1663.0</ele>
        <time>2013-05-12T13:11:23Z</time>
      </trkpt>
      <trkpt lat="40.360583" lon="-5.497250">
        <ele>1662.0</ele>
        <time>2013-05-12T13:11:24Z</time>
      </trkpt>
      <trkpt lat="40.360550" lon="-5.497350">
        <ele>1660.0</ele>
        <time>2013-05-12T13:11:25Z</time>
      </trkpt>
      <trkpt lat="40.360517" lon="-5.497467">
        <ele>1658.0</ele>
        <time>2013-05-12T13:11:26Z</time>
      </trkpt>
      <trkpt lat="40.360483" lon="-5.497567">
        <ele>1655.0</ele>
        <time>2013-05-12T13:11:27Z</time>
      </trkpt>
      <trkpt lat="40.360433" lon="-5.497683">
        <ele>1652.0</ele>
        <time>2013-05-12T13:11:28Z</time>
      </trkpt>
      <trkpt lat="40.360383" lon="-5.497817">
        <ele>1648.0</ele>
        <time>2013-05-12T13:11:29Z</time>
      </trkpt>
      <trkpt lat="40.360333" lon="-5.497933">
        <ele>1646.0</ele>
        <time>2013-05-12T13:11:30Z</time>
      </trkpt>
      <trkpt lat="40.360300" lon="-5.498050">
        <ele>1644.0</ele>
        <time>2013-05-12T13:11:31Z</time>
      </trkpt>
      <trkpt lat="40.360267" lon="-5.498167">
        <ele>1641.0</ele>
        <time>2013-05-12T13:11:32Z</time>
      </trkpt>
      <trkpt lat="40.360217" lon="-5.498283">
        <ele>1638.0</ele>
        <time>2013-05-12T13:11:33Z</time>
      </trkpt>
      <trkpt lat="40.360183" lon="-5.498400">
        <ele>1635.0</ele>
        <time>2013-05-12T13:11:34Z</time>
      </trkpt>
      <trkpt lat="40.360133" lon="-5.498517">
        <ele>1631.0</ele>
        <time>2013-05-12T13:11:35Z</time>
      </trkpt>
      <trkpt lat="40.360083" lon="-5.498633">
        <ele>1628.0</ele>
        <time>2013-05-12T13:11:36Z</time>
      </trkpt>
      <trkpt lat="40.360050" lon="-5.498750">
        <ele>1625.0</ele>
        <time>2013-05-12T13:11:37Z</time>
      </trkpt>
      <trkpt lat="40.360017" lon="-5.498867">
        <ele>1621.0</ele>
        <time>2013-05-12T13:11:38Z</time>
      </trkpt>
      <trkpt lat="40.359983" lon="-5.498983">
        <ele>1618.0</ele>
        <time>2013-05-12T13:11:39Z</time>
      </trkpt>
      <trkpt lat="40.359967" lon="-5.499100">
        <ele>1615.0</ele>
        <time>2013-05-12T13:11:40Z</time>
      </trkpt>
      <trkpt lat="40.359933" lon="-5.499217">
        <ele>1612.0</ele>
        <time>2013-05-12T13:11:41Z</time>
      </trkpt>
      <trkpt lat="40.359900" lon="-5.499350">
        <ele>1609.0</ele>
        <time>2013-05-12T13:11:42Z</time>
      </trkpt>
      <trkpt lat="40.359867" lon="-5.499483">
        <ele>1606.0</ele>
        <time>2013-05-12T13:11:43Z</time>
      </trkpt>
      <trkpt lat="40.359833" lon="-5.499617">
        <ele>1603.0</ele>
        <time>2013-05-12T13:11:44Z</time>
      </trkpt>
      <trkpt lat="40.359800" lon="-5.499750">
        <ele>1601.0</ele>
        <time>2013-05-12T13:11:45Z</time>
      </trkpt>
      <trkpt lat="40.359783" lon="-5.499883">
        <ele>1600.0</ele>
        <time>2013-05-12T13:11:46Z</time>
      </trkpt>
      <trkpt lat="40.359750" lon="-5.499983">
        <ele>1598.0</ele>
        <time>2013-05-12T13:11:47Z</time>
      </trkpt>
      <trkpt lat="40.359700" lon="-5.500067">
        <ele>1596.0</ele>
        <time>2013-05-12T13:11:48Z</time>
      </trkpt>
      <trkpt lat="40.359667" lon="-5.500167">
        <ele>1593.0</ele>
        <time>2013-05-12T13:11:49Z</time>
      </trkpt>
      <trkpt lat="40.359650" lon="-5.500283">
        <ele>1589.0</ele>
        <time>2013-05-12T13:11:50Z</time>
      </trkpt>
      <trkpt lat="40.359650" lon="-5.500383">
        <ele>1587.0</ele>
        <time>2013-05-12T13:11:51Z</time>
      </trkpt>
      <trkpt lat="40.359700" lon="-5.500433">
        <ele>1584.0</ele>
        <time>2013-05-12T13:11:52Z</time>
      </trkpt>
      <trkpt lat="40.359767" lon="-5.500433">
        <ele>1579.0</ele>
        <time>2013-05-12T13:11:53Z</time>
      </trkpt>
      <trkpt lat="40.359833" lon="-5.500383">
        <ele>1575.0</ele>
        <time>2013-05-12T13:11:54Z</time>
      </trkpt>
      <trkpt lat="40.359867" lon="-5.500283">
        <ele>1572.0</ele>
        <time>2013-05-12T13:11:55Z</time>
      </trkpt>
      <trkpt lat="40.359883" lon="-5.500167">
        <ele>1569.0</ele>
        <time>2013-05-12T13:11:56Z</time>
      </trkpt>
      <trkpt lat="40.359850" lon="-5.500033">
        <ele>1565.0</ele>
        <time>2013-05-12T13:11:57Z</time>
      </trkpt>
      <trkpt lat="40.359817" lon="-5.499917">
        <ele>1561.0</ele>
        <time>2013-05-12T13:11:58Z</time>
      </trkpt>
      <trkpt lat="40.359750" lon="-5.499800">
        <ele>1558.0</ele>
        <time>2013-05-12T13:11:59Z</time>
      </trkpt>
      <trkpt lat="40.359667" lon="-5.499717">
        <ele>1554.0</ele>
        <time>2013-05-12T13:12:00Z</time>
      </trkpt>
      <trkpt lat="40.359550" lon="-5.499667">
        <ele>1550.0</ele>
        <time>2013-05-12T13:12:01Z</time>
      </trkpt>
      <trkpt lat="40.359433" lon="-5.499650">
        <ele>1546.0</ele>
        <time>2013-05-12T13:12:02Z</time>
      </trkpt>
      <trkpt lat="40.359317" lon="-5.499700">
        <ele>1542.0</ele>
        <time>2013-05-12T13:12:03Z</time>
      </trkpt>
      <trkpt lat="40.359233" lon="-5.499783">
        <ele>1539.0</ele>
        <time>2013-05-12T13:12:04Z</time>
      </trkpt>
      <trkpt lat="40.359167" lon="-5.499867">
        <ele>1536.0</ele>
        <time>2013-05-12T13:12:05Z</time>
      </trkpt>
      <trkpt lat="40.359133" lon="-5.499967">
        <ele>1534.0</ele>
        <time>2013-05-12T13:12:06Z</time>
      </trkpt>
      <trkpt lat="40.359117" lon="-5.500050">
        <ele>1531.0</ele>
        <time>2013-05-12T13:12:07Z</time>
      </trkpt>
      <trkpt lat="40.359100" lon="-5.500133">
        <ele>1528.0</ele>
        <time>2013-05-12T13:12:08Z</time>
      </trkpt>
      <trkpt lat="40.359117" lon="-5.500217">
        <ele>1524.0</ele>
        <time>2013-05-12T13:12:09Z</time>
      </trkpt>
      <trkpt lat="40.359133" lon="-5.500300">
        <ele>1520.0</ele>
        <time>2013-05-12T13:12:10Z</time>
      </trkpt>
      <trkpt lat="40.359167" lon="-5.500383">
        <ele>1517.0</ele>
        <time>2013-05-12T13:12:11Z</time>
      </trkpt>
      <trkpt lat="40.359217" lon="-5.500467">
        <ele>1514.0</ele>
        <time>2013-05-12T13:12:12Z</time>
      </trkpt>
      <trkpt lat="40.359250" lon="-5.500517">
        <ele>1513.0</ele>
        <time>2013-05-12T13:12:13Z</time>
      </trkpt>
      <trkpt lat="40.359300" lon="-5.500517">
        <ele>1511.0</ele>
        <time>2013-05-12T13:12:14Z</time>
      </trkpt>
      <trkpt lat="40.359350" lon="-5.500483">
        <ele>1508.0</ele>
        <time>2013-05-12T13:12:15Z</time>
      </trkpt>
      <trkpt lat="40.359383" lon="-5.500400">
        <ele>1506.0</ele>
        <time>2013-05-12T13:12:16Z</time>
      </trkpt>
      <trkpt lat="40.359383" lon="-5.500267">
        <ele>1503.0</ele>
        <time>2013-05-12T13:12:17Z</time>
      </trkpt>
      <trkpt lat="40.359350" lon="-5.500133">
        <ele>1501.0</ele>
        <time>2013-05-12T13:12:18Z</time>
      </trkpt>
      <trkpt lat="40.359267" lon="-5.500017">
        <ele>1499.0</ele>
        <time>2013-05-12T13:12:19Z</time>
      </trkpt>
      <trkpt lat="40.359150" lon="-5.499950">
        <ele>1496.0</ele>
        <time>2013-05-12T13:12:20Z</time>
      </trkpt>
      <trkpt lat="40.359033" lon="-5.499917">
        <ele>1493.0</ele>
        <time>2013-05-12T13:12:21Z</time>
      </trkpt>
      <trkpt lat="40.358917" lon="-5.499933">
        <ele>1490.0</ele>
        <time>2013-05-12T13:12:22Z</time>
      </trkpt>
      <trkpt lat="40.358817" lon="-5.500000">
        <ele>1488.0</ele>
        <time>2013-05-12T13:12:23Z</time>
      </trkpt>
      <trkpt lat="40.358733" lon="-5.500100">
        <ele>1485.0</ele>
        <time>2013-05-12T13:12:24Z</time>
      </trkpt>
      <trkpt lat="40.358683" lon="-5.500200">
        <ele>1482.0</ele>
        <time>2013-05-12T13:12:25Z</time>
      </trkpt>
      <trkpt lat="40.358667" lon="-5.500300">
        <ele>1479.0</ele>
        <time>2013-05-12T13:12:26Z</time>
      </trkpt>
      <trkpt lat="40.358683" lon="-5.500400">
        <ele>1475.0</ele>
        <time>2013-05-12T13:12:27Z</time>
      </trkpt>
      <trkpt lat="40.358717" lon="-5.500483">
        <ele>1473.0</ele>
        <time>2013-05-12T13:12:28Z</time>
      </trkpt>
      <trkpt lat="40.358767" lon="-5.500517">
        <ele>1472.0</ele>
        <time>2013-05-12T13:12:29Z</time>
      </trkpt>
      <trkpt lat="40.358817" lon="-5.500533">
        <ele>1471.0</ele>
        <time>2013-05-12T13:12:30Z</time>
      </trkpt>
      <trkpt lat="40.358867" lon="-5.500517">
        <ele>1471.0</ele>
        <time>2013-05-12T13:12:31Z</time>
      </trkpt>
      <trkpt lat="40.358900" lon="-5.500483">
        <ele>1471.0</ele>
        <time>2013-05-12T13:12:32Z</time>
      </trkpt>
      <trkpt lat="40.358917" lon="-5.500417">
        <ele>1471.0</ele>
        <time>2013-05-12T13:12:33Z</time>
      </trkpt>
      <trkpt lat="40.358917" lon="-5.500317">
        <ele>1469.0</ele>
        <time>2013-05-12T13:12:34Z</time>
      </trkpt>
      <trkpt lat="40.358917" lon="-5.500200">
        <ele>1468.0</ele>
        <time>2013-05-12T13:12:35Z</time>
      </trkpt>
      <trkpt lat="40.358883" lon="-5.500083">
        <ele>1467.0</ele>
        <time>2013-05-12T13:12:36Z</time>
      </trkpt>
      <trkpt lat="40.358817" lon="-5.499983">
        <ele>1466.0</ele>
        <time>2013-05-12T13:12:37Z</time>
      </trkpt>
      <trkpt lat="40.358717" lon="-5.499900">
        <ele>1465.0</ele>
        <time>2013-05-12T13:12:38Z</time>
      </trkpt>
      <trkpt lat="40.358600" lon="-5.499883">
        <ele>1462.0</ele>
        <time>2013-05-12T13:12:39Z</time>
      </trkpt>
      <trkpt lat="40.358483" lon="-5.499900">
        <ele>1460.0</ele>
        <time>2013-05-12T13:12:40Z</time>
      </trkpt>
      <trkpt lat="40.358367" lon="-5.499950">
        <ele>1458.0</ele>
        <time>2013-05-12T13:12:41Z</time>
      </trkpt>
      <trkpt lat="40.358300" lon="-5.500033">
        <ele>1455.0</ele>
        <time>2013-05-12T13:12:42Z</time>
      </trkpt>
      <trkpt lat="40.358233" lon="-5.500133">
        <ele>1452.0</ele>
        <time>2013-05-12T13:12:43Z</time>
      </trkpt>
      <trkpt lat="40.358183" lon="-5.500250">
        <ele>1450.0</ele>
        <time>2013-05-12T13:12:44Z</time>
      </trkpt>
      <trkpt lat="40.358133" lon="-5.500350">
        <ele>1449.0</ele>
        <time>2013-05-12T13:12:45Z</time>
      </trkpt>
      <trkpt lat="40.358100" lon="-5.500450">
        <ele>1448.0</ele>
        <time>2013-05-12T13:12:46Z</time>
      </trkpt>
      <trkpt lat="40.358067" lon="-5.500567">
        <ele>1447.0</ele>
        <time>2013-05-12T13:12:47Z</time>
      </trkpt>
      <trkpt lat="40.358033" lon="-5.500667">
        <ele>1446.0</ele>
        <time>2013-05-12T13:12:48Z</time>
      </trkpt>
      <trkpt lat="40.358017" lon="-5.500783">
        <ele>1445.0</ele>
        <time>2013-05-12T13:12:49Z</time>
      </trkpt>
      <trkpt lat="40.358000" lon="-5.500883">
        <ele>1447.0</ele>
        <time>2013-05-12T13:12:50Z</time>
      </trkpt>
      <trkpt lat="40.357967" lon="-5.500983">
        <ele>1448.0</ele>
        <time>2013-05-12T13:12:51Z</time>
      </trkpt>
      <trkpt lat="40.357933" lon="-5.501050">
        <ele>1450.0</ele>
        <time>2013-05-12T13:12:52Z</time>
      </trkpt>
      <trkpt lat="40.357900" lon="-5.501133">
        <ele>1450.0</ele>
        <time>2013-05-12T13:12:53Z</time>
      </trkpt>
      <trkpt lat="40.357850" lon="-5.501217">
        <ele>1449.0</ele>
        <time>2013-05-12T13:12:54Z</time>
      </trkpt>
      <trkpt lat="40.357800" lon="-5.501283">
        <ele>1448.0</ele>
        <time>2013-05-12T13:12:55Z</time>
      </trkpt>
      <trkpt lat="40.357733" lon="-5.501350">
        <ele>1447.0</ele>
        <time>2013-05-12T13:12:56Z</time>
      </trkpt>
      <trkpt lat="40.357650" lon="-5.501383">
        <ele>1445.0</ele>
        <time>2013-05-12T13:12:57Z</time>
      </trkpt>
      <trkpt lat="40.357550" lon="-5.501417">
        <ele>1442.0</ele>
        <time>2013-05-12T13:12:58Z</time>
      </trkpt>
      <trkpt lat="40.357400" lon="-5.501383">
        <ele>1439.0</ele>
        <time>2013-05-12T13:12:59Z</time>
      </trkpt>
      <trkpt lat="40.357250" lon="-5.501300">
        <ele>1437.0</ele>
        <time>2013-05-12T13:13:00Z</time>
      </trkpt>
      <trkpt lat="40.357150" lon="-5.501167">
        <ele>1435.0</ele>
        <time>2013-05-12T13:13:01Z</time>
      </trkpt>
      <trkpt lat="40.357083" lon="-5.501000">
        <ele>1432.0</ele>
        <time>2013-05-12T13:13:02Z</time>
      </trkpt>
      <trkpt lat="40.357067" lon="-5.500867">
        <ele>1430.0</ele>
        <time>2013-05-12T13:13:03Z</time>
      </trkpt>
      <trkpt lat="40.357067" lon="-5.500750">
        <ele>1429.0</ele>
        <time>2013-05-12T13:13:04Z</time>
      </trkpt>
      <trkpt lat="40.357067" lon="-5.500650">
        <ele>1430.0</ele>
        <time>2013-05-12T13:13:05Z</time>
      </trkpt>
      <trkpt lat="40.357083" lon="-5.500567">
        <ele>1432.0</ele>
        <time>2013-05-12T13:13:06Z</time>
      </trkpt>
      <trkpt lat="40.357117" lon="-5.500500">
        <ele>1434.0</ele>
        <time>2013-05-12T13:13:07Z</time>
      </trkpt>
      <trkpt lat="40.357133" lon="-5.500483">
        <ele>1434.0</ele>
        <time>2013-05-12T13:13:08Z</time>
      </trkpt>
      <trkpt lat="40.357167" lon="-5.500467">
        <ele>1433.0</ele>
        <time>2013-05-12T13:13:09Z</time>
      </trkpt>
      <trkpt lat="40.357200" lon="-5.500500">
        <ele>1432.0</ele>
        <time>2013-05-12T13:13:10Z</time>
      </trkpt>
      <trkpt lat="40.357217" lon="-5.500550">
        <ele>1431.0</ele>
        <time>2013-05-12T13:13:11Z</time>
      </trkpt>
      <trkpt lat="40.357217" lon="-5.500633">
        <ele>1430.0</ele>
        <time>2013-05-12T13:13:12Z</time>
      </trkpt>
      <trkpt lat="40.357200" lon="-5.500700">
        <ele>1430.0</ele>
        <time>2013-05-12T13:13:13Z</time>
      </trkpt>
      <trkpt lat="40.357183" lon="-5.500767">
        <ele>1430.0</ele>
        <time>2013-05-12T13:13:14Z</time>
      </trkpt>
      <trkpt lat="40.357133" lon="-5.500833">
        <ele>1430.0</ele>
        <time>2013-05-12T13:13:15Z</time>
      </trkpt>
      <trkpt lat="40.357083" lon="-5.500917">
        <ele>1428.0</ele>
        <time>2013-05-12T13:13:16Z</time>
      </trkpt>
      <trkpt lat="40.357033" lon="-5.501000">
        <ele>1427.0</ele>
        <time>2013-05-12T13:13:17Z</time>
      </trkpt>
      <trkpt lat="40.356950" lon="-5.501067">
        <ele>1426.0</ele>
        <time>2013-05-12T13:13:18Z</time>
      </trkpt>
      <trkpt lat="40.356850" lon="-5.501133">
        <ele>1425.0</ele>
        <time>2013-05-12T13:13:19Z</time>
      </trkpt>
      <trkpt lat="40.356750" lon="-5.501200">
        <ele>1425.0</ele>
        <time>2013-05-12T13:13:20Z</time>
      </trkpt>
      <trkpt lat="40.356633" lon="-5.501250">
        <ele>1424.0</ele>
        <time>2013-05-12T13:13:21Z</time>
      </trkpt>
      <trkpt lat="40.356533" lon="-5.501283">
        <ele>1424.0</ele>
        <time>2013-05-12T13:13:22Z</time>
      </trkpt>
      <trkpt lat="40.356417" lon="-5.501333">
        <ele>1423.0</ele>
        <time>2013-05-12T13:13:23Z</time>
      </trkpt>
      <trkpt lat="40.356300" lon="-5.501367">
        <ele>1421.0</ele>
        <time>2013-05-12T13:13:24Z</time>
      </trkpt>
      <trkpt lat="40.356167" lon="-5.501417">
        <ele>1420.0</ele>
        <time>2013-05-12T13:13:25Z</time>
      </trkpt>
      <trkpt lat="40.356050" lon="-5.501450">
        <ele>1420.0</ele>
        <time>2013-05-12T13:13:26Z</time>
      </trkpt>
      <trkpt lat="40.355917" lon="-5.501483">
        <ele>1420.0</ele>
        <time>2013-05-12T13:13:27Z</time>
      </trkpt>
      <trkpt lat="40.355817" lon="-5.501533">
        <ele>1420.0</ele>
        <time>2013-05-12T13:13:28Z</time>
      </trkpt>
      <trkpt lat="40.355750" lon="-5.501600">
        <ele>1419.0</ele>
        <time>2013-05-12T13:13:29Z</time>
      </trkpt>
      <trkpt lat="40.355717" lon="-5.501683">
        <ele>1415.0</ele>
        <time>2013-05-12T13:13:30Z</time>
      </trkpt>
      <trkpt lat="40.355717" lon="-5.501750">
        <ele>1412.0</ele>
        <time>2013-05-12T13:13:31Z</time>
      </trkpt>
      <trkpt lat="40.355750" lon="-5.501817">
        <ele>1411.0</ele>
        <time>2013-05-12T13:13:32Z</time>
      </trkpt>
      <trkpt lat="40.355783" lon="-5.501833">
        <ele>1410.0</ele>
        <time>2013-05-12T13:13:33Z</time>
      </trkpt>
      <trkpt lat="40.355817" lon="-5.501800">
        <ele>1409.0</ele>
        <time>2013-05-12T13:13:34Z</time>
      </trkpt>
      <trkpt lat="40.355850" lon="-5.501783">
        <ele>1409.0</ele>
        <time>2013-05-12T13:13:35Z</time>
      </trkpt>
      <trkpt lat="40.355867" lon="-5.501800">
        <ele>1407.0</ele>
        <time>2013-05-12T13:13:36Z</time>
      </trkpt>
      <trkpt lat="40.355883" lon="-5.501850">
        <ele>1404.0</ele>
        <time>2013-05-12T13:13:37Z</time>
      </trkpt>
      <trkpt lat="40.355833" lon="-5.501950">
        <ele>1400.0</ele>
        <time>2013-05-12T13:13:38Z</time>
      </trkpt>
      <trkpt lat="40.355767" lon="-5.502050">
        <ele>1396.0</ele>
        <time>2013-05-12T13:13:39Z</time>
      </trkpt>
      <trkpt lat="40.355650" lon="-5.502133">
        <ele>1394.0</ele>
        <time>2013-05-12T13:13:40Z</time>
      </trkpt>
      <trkpt lat="40.355533" lon="-5.502183">
        <ele>1394.0</ele>
        <time>2013-05-12T13:13:41Z</time>
      </trkpt>
      <trkpt lat="40.355417" lon="-5.502233">
        <ele>1393.0</ele>
        <time>2013-05-12T13:13:42Z</time>
      </trkpt>
      <trkpt lat="40.355350" lon="-5.502283">
        <ele>1390.0</ele>
        <time>2013-05-12T13:13:43Z</time>
      </trkpt>
      <trkpt lat="40.355300" lon="-5.502367">
        <ele>1387.0</ele>
        <time>2013-05-12T13:13:44Z</time>
      </trkpt>
      <trkpt lat="40.355300" lon="-5.502450">
        <ele>1383.0</ele>
        <time>2013-05-12T13:13:45Z</time>
      </trkpt>
      <trkpt lat="40.355350" lon="-5.502483">
        <ele>1379.0</ele>
        <time>2013-05-12T13:13:46Z</time>
      </trkpt>
      <trkpt lat="40.355417" lon="-5.502450">
        <ele>1377.0</ele>
        <time>2013-05-12T13:13:47Z</time>
      </trkpt>
      <trkpt lat="40.355450" lon="-5.502383">
        <ele>1376.0</ele>
        <time>2013-05-12T13:13:48Z</time>
      </trkpt>
      <trkpt lat="40.355467" lon="-5.502333">
        <ele>1378.0</ele>
        <time>2013-05-12T13:13:49Z</time>
      </trkpt>
      <trkpt lat="40.355483" lon="-5.502317">
        <ele>1378.0</ele>
        <time>2013-05-12T13:13:50Z</time>
      </trkpt>
      <trkpt lat="40.355483" lon="-5.502333">
        <ele>1376.0</ele>
        <time>2013-05-12T13:13:51Z</time>
      </trkpt>
      <trkpt lat="40.355483" lon="-5.502383">
        <ele>1374.0</ele>
        <time>2013-05-12T13:13:52Z</time>
      </trkpt>
      <trkpt lat="40.355467" lon="-5.502467">
        <ele>1371.0</ele>
        <time>2013-05-12T13:13:53Z</time>
      </trkpt>
      <trkpt lat="40.355417" lon="-5.502567">
        <ele>1370.0</ele>
        <time>2013-05-12T13:13:54Z</time>
      </trkpt>
      <trkpt lat="40.355317" lon="-5.502650">
        <ele>1369.0</ele>
        <time>2013-05-12T13:13:55Z</time>
      </trkpt>
      <trkpt lat="40.355200" lon="-5.502700">
        <ele>1369.0</ele>
        <time>2013-05-12T13:13:56Z</time>
      </trkpt>
      <trkpt lat="40.355100" lon="-5.502750">
        <ele>1371.0</ele>
        <time>2013-05-12T13:13:57Z</time>
      </trkpt>
      <trkpt lat="40.355017" lon="-5.502800">
        <ele>1371.0</ele>
        <time>2013-05-12T13:13:58Z</time>
      </trkpt>
      <trkpt lat="40.354950" lon="-5.502867">
        <ele>1369.0</ele>
        <time>2013-05-12T13:13:59Z</time>
      </trkpt>
      <trkpt lat="40.354917" lon="-5.502950">
        <ele>1367.0</ele>
        <time>2013-05-12T13:14:00Z</time>
      </trkpt>
      <trkpt lat="40.354917" lon="-5.503033">
        <ele>1366.0</ele>
        <time>2013-05-12T13:14:01Z</time>
      </trkpt>
      <trkpt lat="40.354933" lon="-5.503067">
        <ele>1365.0</ele>
        <time>2013-05-12T13:14:02Z</time>
      </trkpt>
      <trkpt lat="40.354967" lon="-5.503067">
        <ele>1363.0</ele>
        <time>2013-05-12T13:14:03Z</time>
      </trkpt>
      <trkpt lat="40.355000" lon="-5.503017">
        <ele>1360.0</ele>
        <time>2013-05-12T13:14:04Z</time>
      </trkpt>
      <trkpt lat="40.355017" lon="-5.502967">
        <ele>1359.0</ele>
        <time>2013-05-12T13:14:05Z</time>
      </trkpt>
      <trkpt lat="40.355050" lon="-5.502950">
        <ele>1358.0</ele>
        <time>2013-05-12T13:14:06Z</time>
      </trkpt>
      <trkpt lat="40.355067" lon="-5.502967">
        <ele>1356.0</ele>
        <time>2013-05-12T13:14:07Z</time>
      </trkpt>
      <trkpt lat="40.355067" lon="-5.503033">
        <ele>1353.0</ele>
        <time>2013-05-12T13:14:08Z</time>
      </trkpt>
      <trkpt lat="40.355050" lon="-5.503117">
        <ele>1351.0</ele>
        <time>2013-05-12T13:14:09Z</time>
      </trkpt>
      <trkpt lat="40.354983" lon="-5.503200">
        <ele>1349.0</ele>
        <time>2013-05-12T13:14:10Z</time>
      </trkpt>
      <trkpt lat="40.354900" lon="-5.503283">
        <ele>1348.0</ele>
        <time>2013-05-12T13:14:11Z</time>
      </trkpt>
      <trkpt lat="40.354800" lon="-5.503333">
        <ele>1345.0</ele>
        <time>2013-05-12T13:14:12Z</time>
      </trkpt>
      <trkpt lat="40.354700" lon="-5.503383">
        <ele>1342.0</ele>
        <time>2013-05-12T13:14:13Z</time>
      </trkpt>
      <trkpt lat="40.354583" lon="-5.503433">
        <ele>1339.0</ele>
        <time>2013-05-12T13:14:14Z</time>
      </trkpt>
      <trkpt lat="40.354467" lon="-5.503500">
        <ele>1335.0</ele>
        <time>2013-05-12T13:14:15Z</time>
      </trkpt>
      <trkpt lat="40.354350" lon="-5.503567">
        <ele>1331.0</ele>
        <time>2013-05-12T13:14:16Z</time>
      </trkpt>
      <trkpt lat="40.354250" lon="-5.503650">
        <ele>1329.0</ele>
        <time>2013-05-12T13:14:17Z</time>
      </trkpt>
      <trkpt lat="40.354167" lon="-5.503733">
        <ele>1327.0</ele>
        <time>2013-05-12T13:14:18Z</time>
      </trkpt>
      <trkpt lat="40.354067" lon="-5.503817">
        <ele>1325.0</ele>
        <time>2013-05-12T13:14:19Z</time>
      </trkpt>
      <trkpt lat="40.353983" lon="-5.503883">
        <ele>1323.0</ele>
        <time>2013-05-12T13:14:20Z</time>
      </trkpt>
      <trkpt lat="40.353900" lon="-5.503950">
        <ele>1320.0</ele>
        <time>2013-05-12T13:14:21Z</time>
      </trkpt>
      <trkpt lat="40.353817" lon="-5.504033">
        <ele>1317.0</ele>
        <time>2013-05-12T13:14:22Z</time>
      </trkpt>
      <trkpt lat="40.353733" lon="-5.504133">
        <ele>1314.0</ele>
        <time>2013-05-12T13:14:23Z</time>
      </trkpt>
      <trkpt lat="40.353650" lon="-5.504233">
        <ele>1313.0</ele>
        <time>2013-05-12T13:14:24Z</time>
      </trkpt>
      <trkpt lat="40.353567" lon="-5.504317">
        <ele>1312.0</ele>
        <time>2013-05-12T13:14:25Z</time>
      </trkpt>
      <trkpt lat="40.353500" lon="-5.504400">
        <ele>1310.0</ele>
        <time>2013-05-12T13:14:26Z</time>
      </trkpt>
      <trkpt lat="40.353433" lon="-5.504483">
        <ele>1308.0</ele>
        <time>2013-05-12T13:14:27Z</time>
      </trkpt>
      <trkpt lat="40.353350" lon="-5.504567">
        <ele>1305.0</ele>
        <time>2013-05-12T13:14:28Z</time>
      </trkpt>
      <trkpt lat="40.353283" lon="-5.504667">
        <ele>1303.0</ele>
        <time>2013-05-12T13:14:29Z</time>
      </trkpt>
      <trkpt lat="40.353217" lon="-5.504750">
        <ele>1301.0</ele>
        <time>2013-05-12T13:14:30Z</time>
      </trkpt>
      <trkpt lat="40.353150" lon="-5.504850">
        <ele>1300.0</ele>
        <time>2013-05-12T13:14:31Z</time>
      </trkpt>
      <trkpt lat="40.353083" lon="-5.504933">
        <ele>1298.0</ele>
        <time>2013-05-12T13:14:32Z</time>
      </trkpt>
      <trkpt lat="40.353000" lon="-5.505033">
        <ele>1297.0</ele>
        <time>2013-05-12T13:14:33Z</time>
      </trkpt>
      <trkpt lat="40.352933" lon="-5.505117">
        <ele>1296.0</ele>
        <time>2013-05-12T13:14:34Z</time>
      </trkpt>
      <trkpt lat="40.352850" lon="-5.505200">
        <ele>1296.0</ele>
        <time>2013-05-12T13:14:35Z</time>
      </trkpt>
      <trkpt lat="40.352783" lon="-5.505300">
        <ele>1295.0</ele>
        <time>2013-05-12T13:14:36Z</time>
      </trkpt>
      <trkpt lat="40.352717" lon="-5.505400">
        <ele>1293.0</ele>
        <time>2013-05-12T13:14:37Z</time>
      </trkpt>
      <trkpt lat="40.352650" lon="-5.505483">
        <ele>1292.0</ele>
        <time>2013-05-12T13:14:38Z</time>
      </trkpt>
      <trkpt lat="40.352600" lon="-5.505567">
        <ele>1290.0</ele>
        <time>2013-05-12T13:14:39Z</time>
      </trkpt>
      <trkpt lat="40.352550" lon="-5.505667">
        <ele>1287.0</ele>
        <time>2013-05-12T13:14:40Z</time>
      </trkpt>
      <trkpt lat="40.352500" lon="-5.505767">
        <ele>1284.0</ele>
        <time>2013-05-12T13:14:41Z</time>
      </trkpt>
      <trkpt lat="40.352450" lon="-5.505883">
        <ele>1282.0</ele>
        <time>2013-05-12T13:14:42Z</time>
      </trkpt>
      <trkpt lat="40.352400" lon="-5.505983">
        <ele>1279.0</ele>
        <time>2013-05-12T13:14:43Z</time>
      </trkpt>
      <trkpt lat="40.352350" lon="-5.506100">
        <ele>1277.0</ele>
        <time>2013-05-12T13:14:44Z</time>
      </trkpt>
      <trkpt lat="40.352317" lon="-5.506200">
        <ele>1274.0</ele>
        <time>2013-05-12T13:14:45Z</time>
      </trkpt>
      <trkpt lat="40.352283" lon="-5.506300">
        <ele>1272.0</ele>
        <time>2013-05-12T13:14:46Z</time>
      </trkpt>
      <trkpt lat="40.352267" lon="-5.506400">
        <ele>1269.0</ele>
        <time>2013-05-12T13:14:47Z</time>
      </trkpt>
      <trkpt lat="40.352283" lon="-5.506467">
        <ele>1266.0</ele>
        <time>2013-05-12T13:14:48Z</time>
      </trkpt>
      <trkpt lat="40.352317" lon="-5.506517">
        <ele>1263.0</ele>
        <time>2013-05-12T13:14:49Z</time>
      </trkpt>
      <trkpt lat="40.352350" lon="-5.506533">
        <ele>1259.0</ele>
        <time>2013-05-12T13:14:50Z</time>
      </trkpt>
      <trkpt lat="40.352417" lon="-5.506533">
        <ele>1256.0</ele>
        <time>2013-05-12T13:14:51Z</time>
      </trkpt>
      <trkpt lat="40.352467" lon="-5.506517">
        <ele>1254.0</ele>
        <time>2013-05-12T13:14:52Z</time>
      </trkpt>
      <trkpt lat="40.352500" lon="-5.506517">
        <ele>1252.0</ele>
        <time>2013-05-12T13:14:53Z</time>
      </trkpt>
      <trkpt lat="40.352550" lon="-5.506550">
        <ele>1250.0</ele>
        <time>2013-05-12T13:14:54Z</time>
      </trkpt>
      <trkpt lat="40.352583" lon="-5.506583">
        <ele>1247.0</ele>
        <time>2013-05-12T13:14:55Z</time>
      </trkpt>
      <trkpt lat="40.352633" lon="-5.506600">
        <ele>1245.0</ele>
        <time>2013-05-12T13:14:56Z</time>
      </trkpt>
      <trkpt lat="40.352683" lon="-5.506633">
        <ele>1243.0</ele>
        <time>2013-05-12T13:14:57Z</time>
      </trkpt>
      <trkpt lat="40.352733" lon="-5.506667">
        <ele>1241.0</ele>
        <time>2013-05-12T13:14:58Z</time>
      </trkpt>
      <trkpt lat="40.352783" lon="-5.506700">
        <ele>1240.0</ele>
        <time>2013-05-12T13:14:59Z</time>
      </trkpt>
      <trkpt lat="40.352817" lon="-5.506750">
        <ele>1238.0</ele>
        <time>2013-05-12T13:15:00Z</time>
      </trkpt>
      <trkpt lat="40.352833" lon="-5.506833">
        <ele>1235.0</ele>
        <time>2013-05-12T13:15:01Z</time>
      </trkpt>
      <trkpt lat="40.352850" lon="-5.506917">
        <ele>1232.0</ele>
        <time>2013-05-12T13:15:02Z</time>
      </trkpt>
      <trkpt lat="40.352867" lon="-5.507000">
        <ele>1230.0</ele>
        <time>2013-05-12T13:15:03Z</time>
      </trkpt>
      <trkpt lat="40.352867" lon="-5.507100">
        <ele>1227.0</ele>
        <time>2013-05-12T13:15:04Z</time>
      </trkpt>
      <trkpt lat="40.352867" lon="-5.507200">
        <ele>1225.0</ele>
        <time>2013-05-12T13:15:05Z</time>
      </trkpt>
      <trkpt lat="40.352883" lon="-5.507283">
        <ele>1222.0</ele>
        <time>2013-05-12T13:15:06Z</time>
      </trkpt>
      <trkpt lat="40.352900" lon="-5.507383">
        <ele>1219.0</ele>
        <time>2013-05-12T13:15:07Z</time>
      </trkpt>
      <trkpt lat="40.352917" lon="-5.507467">
        <ele>1217.0</ele>
        <time>2013-05-12T13:15:08Z</time>
      </trkpt>
      <trkpt lat="40.352950" lon="-5.507567">
        <ele>1214.0</ele>
        <time>2013-05-12T13:15:09Z</time>
      </trkpt>
      <trkpt lat="40.352967" lon="-5.507667">
        <ele>1212.0</ele>
        <time>2013-05-12T13:15:10Z</time>
      </trkpt>
      <trkpt lat="40.352967" lon="-5.507767">
        <ele>1211.0</ele>
        <time>2013-05-12T13:15:11Z</time>
      </trkpt>
      <trkpt lat="40.352967" lon="-5.507867">
        <ele>1210.0</ele>
        <time>2013-05-12T13:15:12Z</time>
      </trkpt>
      <trkpt lat="40.352967" lon="-5.507950">
        <ele>1208.0</ele>
        <time>2013-05-12T13:15:13Z</time>
      </trkpt>
      <trkpt lat="40.352967" lon="-5.508050">
        <ele>1205.0</ele>
        <time>2013-05-12T13:15:14Z</time>
      </trkpt>
      <trkpt lat="40.352967" lon="-5.508150">
        <ele>1203.0</ele>
        <time>2013-05-12T13:15:15Z</time>
      </trkpt>
      <trkpt lat="40.352983" lon="-5.508250">
        <ele>1200.0</ele>
        <time>2013-05-12T13:15:16Z</time>
      </trkpt>
      <trkpt lat="40.353000" lon="-5.508367">
        <ele>1199.0</ele>
        <time>2013-05-12T13:15:17Z</time>
      </trkpt>
      <trkpt lat="40.353000" lon="-5.508450">
        <ele>1200.0</ele>
        <time>2013-05-12T13:15:18Z</time>
      </trkpt>
      <trkpt lat="40.353017" lon="-5.508517">
        <ele>1200.0</ele>
        <time>2013-05-12T13:15:19Z</time>
      </trkpt>
      <trkpt lat="40.353050" lon="-5.508567">
        <ele>1199.0</ele>
        <time>2013-05-12T13:15:20Z</time>
      </trkpt>
      <trkpt lat="40.353100" lon="-5.508600">
        <ele>1197.0</ele>
        <time>2013-05-12T13:15:21Z</time>
      </trkpt>
      <trkpt lat="40.353167" lon="-5.508583">
        <ele>1194.0</ele>
        <time>2013-05-12T13:15:22Z</time>
      </trkpt>
      <trkpt lat="40.353217" lon="-5.508533">
        <ele>1192.0</ele>
        <time>2013-05-12T13:15:23Z</time>
      </trkpt>
      <trkpt lat="40.353283" lon="-5.508467">
        <ele>1191.0</ele>
        <time>2013-05-12T13:15:24Z</time>
      </trkpt>
      <trkpt lat="40.353333" lon="-5.508400">
        <ele>1192.0</ele>
        <time>2013-05-12T13:15:25Z</time>
      </trkpt>
      <trkpt lat="40.353383" lon="-5.508350">
        <ele>1190.0</ele>
        <time>2013-05-12T13:15:26Z</time>
      </trkpt>
      <trkpt lat="40.353417" lon="-5.508300">
        <ele>1189.0</ele>
        <time>2013-05-12T13:15:27Z</time>
      </trkpt>
      <trkpt lat="40.353467" lon="-5.508233">
        <ele>1185.0</ele>
        <time>2013-05-12T13:15:28Z</time>
      </trkpt>
      <trkpt lat="40.353517" lon="-5.508150">
        <ele>1182.0</ele>
        <time>2013-05-12T13:15:29Z</time>
      </trkpt>
      <trkpt lat="40.353583" lon="-5.508050">
        <ele>1180.0</ele>
        <time>2013-05-12T13:15:30Z</time>
      </trkpt>
      <trkpt lat="40.353617" lon="-5.507967">
        <ele>1180.0</ele>
        <time>2013-05-12T13:15:31Z</time>
      </trkpt>
      <trkpt lat="40.353650" lon="-5.507883">
        <ele>1178.0</ele>
        <time>2013-05-12T13:15:32Z</time>
      </trkpt>
      <trkpt lat="40.353683" lon="-5.507800">
        <ele>1176.0</ele>
        <time>2013-05-12T13:15:33Z</time>
      </trkpt>
      <trkpt lat="40.353700" lon="-5.507700">
        <ele>1174.0</ele>
        <time>2013-05-12T13:15:34Z</time>
      </trkpt>
      <trkpt lat="40.353750" lon="-5.507600">
        <ele>1171.0</ele>
        <time>2013-05-12T13:15:35Z</time>
      </trkpt>
      <trkpt lat="40.353783" lon="-5.507483">
        <ele>1169.0</ele>
        <time>2013-05-12T13:15:36Z</time>
      </trkpt>
      <trkpt lat="40.353833" lon="-5.507367">
        <ele>1170.0</ele>
        <time>2013-05-12T13:15:37Z</time>
      </trkpt>
      <trkpt lat="40.353867" lon="-5.507300">
        <ele>1171.0</ele>
        <time>2013-05-12T13:15:38Z</time>
      </trkpt>
      <trkpt lat="40.353900" lon="-5.507250">
        <ele>1170.0</ele>
        <time>2013-05-12T13:15:39Z</time>
      </trkpt>
      <trkpt lat="40.353917" lon="-5.507217">
        <ele>1169.0</ele>
        <time>2013-05-12T13:15:40Z</time>
      </trkpt>
      <trkpt lat="40.353950" lon="-5.507200">
        <ele>1168.0</ele>
        <time>2013-05-12T13:15:41Z</time>
      </trkpt>
      <trkpt lat="40.354000" lon="-5.507217">
        <ele>1166.0</ele>
        <time>2013-05-12T13:15:42Z</time>
      </trkpt>
      <trkpt lat="40.354033" lon="-5.507267">
        <ele>1165.0</ele>
        <time>2013-05-12T13:15:43Z</time>
      </trkpt>
      <trkpt lat="40.354067" lon="-5.507333">
        <ele>1165.0</ele>
        <time>2013-05-12T13:15:44Z</time>
      </trkpt>
      <trkpt lat="40.354067" lon="-5.507417">
        <ele>1166.0</ele>
        <time>2013-05-12T13:15:45Z</time>
      </trkpt>
      <trkpt lat="40.354050" lon="-5.507483">
        <ele>1166.0</ele>
        <time>2013-05-12T13:15:46Z</time>
      </trkpt>
      <trkpt lat="40.354017" lon="-5.507567">
        <ele>1166.0</ele>
        <time>2013-05-12T13:15:47Z</time>
      </trkpt>
      <trkpt lat="40.353983" lon="-5.507650">
        <ele>1165.0</ele>
        <time>2013-05-12T13:15:48Z</time>
      </trkpt>
      <trkpt lat="40.353933" lon="-5.507750">
        <ele>1163.0</ele>
        <time>2013-05-12T13:15:49Z</time>
      </trkpt>
      <trkpt lat="40.353883" lon="-5.507850">
        <ele>1162.0</ele>
        <time>2013-05-12T13:15:50Z</time>
      </trkpt>
      <trkpt lat="40.353817" lon="-5.507933">
        <ele>1161.0</ele>
        <time>2013-05-12T13:15:51Z</time>
      </trkpt>
      <trkpt lat="40.353750" lon="-5.508017">
        <ele>1159.0</ele>
        <time>2013-05-12T13:15:52Z</time>
      </trkpt>
      <trkpt lat="40.353700" lon="-5.508100">
        <ele>1158.0</ele>
        <time>2013-05-12T13:15:53Z</time>
      </trkpt>
      <trkpt lat="40.353633" lon="-5.508200">
        <ele>1156.0</ele>
        <time>2013-05-12T13:15:54Z</time>
      </trkpt>
      <trkpt lat="40.353583" lon="-5.508283">
        <ele>1153.0</ele>
        <time>2013-05-12T13:15:55Z</time>
      </trkpt>
      <trkpt lat="40.353533" lon="-5.508383">
        <ele>1151.0</ele>
        <time>2013-05-12T13:15:56Z</time>
      </trkpt>
      <trkpt lat="40.353467" lon="-5.508467">
        <ele>1150.0</ele>
        <time>2013-05-12T13:15:57Z</time>
      </trkpt>
      <trkpt lat="40.353400" lon="-5.508567">
        <ele>1148.0</ele>
        <time>2013-05-12T13:15:58Z</time>
      </trkpt>
      <trkpt lat="40.353350" lon="-5.508650">
        <ele>1146.0</ele>
        <time>2013-05-12T13:15:59Z</time>
      </trkpt>
      <trkpt lat="40.353300" lon="-5.508750">
        <ele>1144.0</ele>
        <time>2013-05-12T13:16:00Z</time>
      </trkpt>
      <trkpt lat="40.353267" lon="-5.508850">
        <ele>1142.0</ele>
        <time>2013-05-12T13:16:01Z</time>
      </trkpt>
      <trkpt lat="40.353250" lon="-5.508933">
        <ele>1139.0</ele>
        <time>2013-05-12T13:16:02Z</time>
      </trkpt>
      <trkpt lat="40.353267" lon="-5.509017">
        <ele>1136.0</ele>
        <time>2013-05-12T13:16:03Z</time>
      </trkpt>
      <trkpt lat="40.353283" lon="-5.509050">
        <ele>1133.0</ele>
        <time>2013-05-12T13:16:04Z</time>
      </trkpt>
      <trkpt lat="40.353333" lon="-5.509067">
        <ele>1130.0</ele>
        <time>2013-05-12T13:16:05Z</time>
      </trkpt>
      <trkpt lat="40.353383" lon="-5.509050">
        <ele>1127.0</ele>
        <time>2013-05-12T13:16:06Z</time>
      </trkpt>
      <trkpt lat="40.353433" lon="-5.509000">
        <ele>1126.0</ele>
        <time>2013-05-12T13:16:07Z</time>
      </trkpt>
      <trkpt lat="40.353467" lon="-5.508950">
        <ele>1125.0</ele>
        <time>2013-05-12T13:16:08Z</time>
      </trkpt>
      <trkpt lat="40.353500" lon="-5.508917">
        <ele>1125.0</ele>
        <time>2013-05-12T13:16:09Z</time>
      </trkpt>
      <trkpt lat="40.353517" lon="-5.508867">
        <ele>1124.0</ele>
        <time>2013-05-12T13:16:10Z</time>
      </trkpt>
      <trkpt lat="40.353533" lon="-5.508850">
        <ele>1123.0</ele>
        <time>2013-05-12T13:16:11Z</time>
      </trkpt>
      <trkpt lat="40.353567" lon="-5.508833">
        <ele>1121.0</ele>
        <time>2013-05-12T13:16:12Z</time>
      </trkpt>
      <trkpt lat="40.353600" lon="-5.508800">
        <ele>1120.0</ele>
        <time>2013-05-12T13:16:13Z</time>
      </trkpt>
      <trkpt lat="40.353633" lon="-5.508783">
        <ele>1119.0</ele>
        <time>2013-05-12T13:16:14Z</time>
      </trkpt>
      <trkpt lat="40.353650" lon="-5.508783">
        <ele>1117.0</ele>
        <time>2013-05-12T13:16:15Z</time>
      </trkpt>
      <trkpt lat="40.353683" lon="-5.508783">
        <ele>1116.0</ele>
        <time>2013-05-12T13:16:16Z</time>
      </trkpt>
      <trkpt lat="40.353717" lon="-5.508783">
        <ele>1115.0</ele>
        <time>2013-05-12T13:16:17Z</time>
      </trkpt>
      <trkpt lat="40.353750" lon="-5.508800">
        <ele>1113.0</ele>
        <time>2013-05-12T13:16:18Z</time>
      </trkpt>
      <trkpt lat="40.353783" lon="-5.508800">
        <ele>1111.0</ele>
        <time>2013-05-12T13:16:19Z</time>
      </trkpt>
      <trkpt lat="40.353817" lon="-5.508800">
        <ele>1109.0</ele>
        <time>2013-05-12T13:16:20Z</time>
      </trkpt>
      <trkpt lat="40.353850" lon="-5.508800">
        <ele>1108.0</ele>
        <time>2013-05-12T13:16:21Z</time>
      </trkpt>
      <trkpt lat="40.353883" lon="-5.508817">
        <ele>1106.0</ele>
        <time>2013-05-12T13:16:22Z</time>
      </trkpt>
      <trkpt lat="40.353917" lon="-5.508817">
        <ele>1104.0</ele>
        <time>2013-05-12T13:16:23Z</time>
      </trkpt>
      <trkpt lat="40.353950" lon="-5.508817">
        <ele>1101.0</ele>
        <time>2013-05-12T13:16:24Z</time>
      </trkpt>
      <trkpt lat="40.354000" lon="-5.508817">
        <ele>1097.0</ele>
        <time>2013-05-12T13:16:25Z</time>
      </trkpt>
      <trkpt lat="40.354067" lon="-5.508800">
        <ele>1093.0</ele>
        <time>2013-05-12T13:16:26Z</time>
      </trkpt>
      <trkpt lat="40.354117" lon="-5.508800">
        <ele>1090.0</ele>
        <time>2013-05-12T13:16:27Z</time>
      </trkpt>
      <trkpt lat="40.354167" lon="-5.508817">
        <ele>1088.0</ele>
        <time>2013-05-12T13:16:28Z</time>
      </trkpt>
      <trkpt lat="40.354217" lon="-5.508817">
        <ele>1086.0</ele>
        <time>2013-05-12T13:16:29Z</time>
      </trkpt>
      <trkpt lat="40.354267" lon="-5.508817">
        <ele>1083.0</ele>
        <time>2013-05-12T13:16:30Z</time>
      </trkpt>
      <trkpt lat="40.354317" lon="-5.508833">
        <ele>1080.0</ele>
        <time>2013-05-12T13:16:31Z</time>
      </trkpt>
      <trkpt lat="40.354367" lon="-5.508833">
        <ele>1077.0</ele>
        <time>2013-05-12T13:16:32Z</time>
      </trkpt>
      <trkpt lat="40.354433" lon="-5.508850">
        <ele>1074.0</ele>
        <time>2013-05-12T13:16:33Z</time>
      </trkpt>
      <trkpt lat="40.354483" lon="-5.508850">
        <ele>1071.0</ele>
        <time>2013-05-12T13:16:34Z</time>
      </trkpt>
      <trkpt lat="40.354550" lon="-5.508883">
        <ele>1070.0</ele>
        <time>2013-05-12T13:16:35Z</time>
      </trkpt>
      <trkpt lat="40.354600" lon="-5.508900">
        <ele>1070.0</ele>
        <time>2013-05-12T13:16:36Z</time>
      </trkpt>
      <trkpt lat="40.354633" lon="-5.508933">
        <ele>1071.0</ele>
        <time>2013-05-12T13:16:37Z</time>
      </trkpt>
      <trkpt lat="40.354667" lon="-5.508933">
        <ele>1070.0</ele>
        <time>2013-05-12T13:16:38Z</time>
      </trkpt>
      <trkpt lat="40.354717" lon="-5.508933">
        <ele>1068.0</ele>
        <time>2013-05-12T13:16:39Z</time>
      </trkpt>
      <trkpt lat="40.354750" lon="-5.508917">
        <ele>1067.0</ele>
        <time>2013-05-12T13:16:40Z</time>
      </trkpt>
      <trkpt lat="40.354800" lon="-5.508917">
        <ele>1066.0</ele>
        <time>2013-05-12T13:16:41Z</time>
      </trkpt>
      <trkpt lat="40.354850" lon="-5.508900">
        <ele>1066.0</ele>
        <time>2013-05-12T13:16:42Z</time>
      </trkpt>
      <trkpt lat="40.354883" lon="-5.508900">
        <ele>1066.0</ele>
        <time>2013-05-12T13:16:43Z</time>
      </trkpt>
      <trkpt lat="40.354917" lon="-5.508900">
        <ele>1065.0</ele>
        <time>2013-05-12T13:16:44Z</time>
      </trkpt>
      <trkpt lat="40.354950" lon="-5.508917">
        <ele>1063.0</ele>
        <time>2013-05-12T13:16:45Z</time>
      </trkpt>
      <trkpt lat="40.354983" lon="-5.508933">
        <ele>1061.0</ele>
        <time>2013-05-12T13:16:46Z</time>
      </trkpt>
      <trkpt lat="40.355000" lon="-5.508950">
        <ele>1059.0</ele>
        <time>2013-05-12T13:16:47Z</time>
      </trkpt>
      <trkpt lat="40.355033" lon="-5.508967">
        <ele>1058.0</ele>
        <time>2013-05-12T13:16:48Z</time>
      </trkpt>
      <trkpt lat="40.355067" lon="-5.508983">
        <ele>1057.0</ele>
        <time>2013-05-12T13:16:49Z</time>
      </trkpt>
      <trkpt lat="40.355117" lon="-5.508983">
        <ele>1056.0</ele>
        <time>2013-05-12T13:16:50Z</time>
      </trkpt>
      <trkpt lat="40.355150" lon="-5.508983">
        <ele>1055.0</ele>
        <time>2013-05-12T13:16:51Z</time>
      </trkpt>
      <trkpt lat="40.355183" lon="-5.509000">
        <ele>1054.0</ele>
        <time>2013-05-12T13:16:52Z</time>
      </trkpt>
      <trkpt lat="40.355217" lon="-5.509017">
        <ele>1053.0</ele>
        <time>2013-05-12T13:16:53Z</time>
      </trkpt>
      <trkpt lat="40.355250" lon="-5.509033">
        <ele>1052.0</ele>
        <time>2013-05-12T13:16:54Z</time>
      </trkpt>
      <trkpt lat="40.355283" lon="-5.509067">
        <ele>1051.0</ele>
        <time>2013-05-12T13:16:55Z</time>
      </trkpt>
      <trkpt lat="40.355317" lon="-5.509067">
        <ele>1049.0</ele>
        <time>2013-05-12T13:16:56Z</time>
      </trkpt>
      <trkpt lat="40.355333" lon="-5.509050">
        <ele>1047.0</ele>
        <time>2013-05-12T13:16:57Z</time>
      </trkpt>
      <trkpt lat="40.355383" lon="-5.509050">
        <ele>1044.0</ele>
        <time>2013-05-12T13:16:58Z</time>
      </trkpt>
      <trkpt lat="40.355417" lon="-5.509067">
        <ele>1043.0</ele>
        <time>2013-05-12T13:16:59Z</time>
      </trkpt>
      <trkpt lat="40.355450" lon="-5.509083">
        <ele>1042.0</ele>
        <time>2013-05-12T13:17:00Z</time>
      </trkpt>
      <trkpt lat="40.355483" lon="-5.509100">
        <ele>1042.0</ele>
        <time>2013-05-12T13:17:01Z</time>
      </trkpt>
      <trkpt lat="40.355500" lon="-5.509100">
        <ele>1040.0</ele>
        <time>2013-05-12T13:17:02Z</time>
      </trkpt>
      <trkpt lat="40.355533" lon="-5.509100">
        <ele>1038.0</ele>
        <time>2013-05-12T13:17:03Z</time>
      </trkpt>
      <trkpt lat="40.355567" lon="-5.509117">
        <ele>1035.0</ele>
        <time>2013-05-12T13:17:04Z</time>
      </trkpt>
      <trkpt lat="40.355600" lon="-5.509150">
        <ele>1032.0</ele>
        <time>2013-05-12T13:17:05Z</time>
      </trkpt>
      <trkpt lat="40.355650" lon="-5.509183">
        <ele>1030.0</ele>
        <time>2013-05-12T13:17:06Z</time>
      </trkpt>
      <trkpt lat="40.355683" lon="-5.509233">
        <ele>1028.0</ele>
        <time>2013-05-12T13:17:07Z</time>
      </trkpt>
      <trkpt lat="40.355733" lon="-5.509250">
        <ele>1027.0</ele>
        <time>2013-05-12T13:17:08Z</time>
      </trkpt>
      <trkpt lat="40.355767" lon="-5.509267">
        <ele>1027.0</ele>
        <time>2013-05-12T13:17:09Z</time>
      </trkpt>
      <trkpt lat="40.355800" lon="-5.509283">
        <ele>1026.0</ele>
        <time>2013-05-12T13:17:10Z</time>
      </trkpt>
      <trkpt lat="40.355817" lon="-5.509300">
        <ele>1024.0</ele>
        <time>2013-05-12T13:17:11Z</time>
      </trkpt>
      <trkpt lat="40.355850" lon="-5.509300">
        <ele>1023.0</ele>
        <time>2013-05-12T13:17:12Z</time>
      </trkpt>
      <trkpt lat="40.355867" lon="-5.509300">
        <ele>1023.0</ele>
        <time>2013-05-12T13:17:13Z</time>
      </trkpt>
      <trkpt lat="40.355883" lon="-5.509300">
        <ele>1022.0</ele>
        <time>2013-05-12T13:17:14Z</time>
      </trkpt>
      <trkpt lat="40.355883" lon="-5.509283">
        <ele>1022.0</ele>
        <time>2013-05-12T13:17:15Z</time>
      </trkpt>
      <trkpt lat="40.355867" lon="-5.509283">
        <ele>1022.0</ele>
        <time>2013-05-12T13:17:16Z</time>
      </trkpt>
      <trkpt lat="40.355867" lon="-5.509267">
        <ele>1021.0</ele>
        <time>2013-05-12T13:17:17Z</time>
      </trkpt>
      <trkpt lat="40.355867" lon="-5.509267">
        <ele>1022.0</ele>
        <time>2013-05-12T13:17:18Z</time>
      </trkpt>
      <trkpt lat="40.355867" lon="-5.509267">
        <ele>1022.0</ele>
        <time>2013-05-12T13:17:19Z</time>
      </trkpt>
      <trkpt lat="40.355867" lon="-5.509267">
        <ele>1022.0</ele>
        <time>2013-05-12T13:17:20Z</time>
      </trkpt>
      <trkpt lat="40.355867" lon="-5.509267">
        <ele>1022.0</ele>
        <time>2013-05-12T13:17:21Z</time>
      </trkpt>
      <trkpt lat="40.355867" lon="-5.509267">
        <ele>1022.0</ele>
        <time>2013-05-12T13:17:22Z</time>
      </trkpt>
      <trkpt lat="40.355867" lon="-5.509267">
        <ele>1022.0</ele>
        <time>2013-05-12T13:17:23Z</time>
      </trkpt>
      <trkpt lat="40.355867" lon="-5.509267">
        <ele>1022.0</ele>
        <time>2013-05-12T13:17:24Z</time>
      </trkpt>
      <trkpt lat="40.355867" lon="-5.509267">
        <ele>1022.0</ele>
        <time>2013-05-12T13:17:25Z</time>
      </trkpt>
      <trkpt lat="40.355867" lon="-5.509267">
        <ele>1022.0</ele>
        <time>2013-05-12T13:17:26Z</time>
      </trkpt>
      <trkpt lat="40.355867" lon="-5.509267">
        <ele>1022.0</ele>
        <time>2013-05-12T13:17:27Z</time>
      </trkpt>
      <trkpt lat="40.355867" lon="-5.509267">
        <ele>1023.0</ele>
        <time>2013-05-12T13:17:28Z</time>
      </trkpt>
      <trkpt lat="40.355867" lon="-5.509267">
        <ele>1023.0</ele>
        <time>2013-05-12T13:17:29Z</time>
      </trkpt>
      <trkpt lat="40.355867" lon="-5.509267">
        <ele>1023.0</ele>
        <time>2013-05-12T13:17:30Z</time>
      </trkpt>
      <trkpt lat="40.355867" lon="-5.509267">
        <ele>1023.0</ele>
        <time>2013-05-12T13:17:31Z</time>
      </trkpt>
      <trkpt lat="40.355867" lon="-5.509267">
        <ele>1023.0</ele>
        <time>2013-05-12T13:17:32Z</time>
      </trkpt>
      <trkpt lat="40.355867" lon="-5.509267">
        <ele>1023.0</ele>
        <time>2013-05-12T13:17:33Z</time>
      </trkpt>
      <trkpt lat="40.355867" lon="-5.509267">
        <ele>1023.0</ele>
        <time>2013-05-12T13:17:34Z</time>
      </trkpt>
      <trkpt lat="40.355867" lon="-5.509267">
        <ele>1023.0</ele>
        <time>2013-05-12T13:17:35Z</time>
      </trkpt>
      <trkpt lat="40.355867" lon="-5.509267">
        <ele>1023.0</ele>
        <time>2013-05-12T13:17:36Z</time>
      </trkpt>
      <trkpt lat="40.355867" lon="-5.509267">
        <ele>1023.0</ele>
        <time>2013-05-12T13:17:37Z</time>
      </trkpt>
      <trkpt lat="40.355867" lon="-5.509267">
        <ele>1023.0</ele>
        <time>2013-05-12T13:17:38Z</time>
      </trkpt>
      <trkpt lat="40.355867" lon="-5.509267">
        <ele>1023.0</ele>
        <time>2013-05-12T13:17:39Z</time>
      </trkpt>
      <trkpt lat="40.355867" lon="-5.509267">
        <ele>1023.0</ele>
        <time>2013-05-12T13:17:40Z</time>
      </trkpt>
      <trkpt lat="40.355867" lon="-5.509250">
        <ele>1023.0</ele>
        <time>2013-05-12T13:17:41Z</time>
      </trkpt>
      <trkpt lat="40.355867" lon="-5.509250">
        <ele>1023.0</ele>
        <time>2013-05-12T13:17:42Z</time>
      </trkpt>
      <trkpt lat="40.355867" lon="-5.509233">
        <ele>1023.0</ele>
        <time>2013-05-12T13:17:43Z</time>
      </trkpt>
      <trkpt lat="40.355867" lon="-5.509233">
        <ele>1023.0</ele>
        <time>2013-05-12T13:17:44Z</time>
      </trkpt>
      <trkpt lat="40.355867" lon="-5.509217">
        <ele>1023.0</ele>
        <time>2013-05-12T13:17:45Z</time>
      </trkpt>
      <trkpt lat="40.355850" lon="-5.509217">
        <ele>1023.0</ele>
        <time>2013-05-12T13:17:46Z</time>
      </trkpt>
      <trkpt lat="40.355850" lon="-5.509217">
        <ele>1024.0</ele>
        <time>2013-05-12T13:17:47Z</time>
      </trkpt>
      <trkpt lat="40.355850" lon="-5.509217">
        <ele>1023.0</ele>
        <time>2013-05-12T13:17:48Z</time>
      </trkpt>
      <trkpt lat="40.355867" lon="-5.509217">
        <ele>1024.0</ele>
        <time>2013-05-12T13:17:49Z</time>
      </trkpt>
      <trkpt lat="40.355867" lon="-5.509217">
        <ele>1024.0</ele>
        <time>2013-05-12T13:17:50Z</time>
      </trkpt>
      <trkpt lat="40.355867" lon="-5.509217">
        <ele>1024.0</ele>
        <time>2013-05-12T13:17:51Z</time>
      </trkpt>
      <trkpt lat="40.355867" lon="-5.509217">
        <ele>1024.0</ele>
        <time>2013-05-12T13:17:52Z</time>
      </trkpt>
      <trkpt lat="40.355867" lon="-5.509217">
        <ele>1024.0</ele>
        <time>2013-05-12T13:17:53Z</time>
      </trkpt>
      <trkpt lat="40.355867" lon="-5.509217">
        <ele>1024.0</ele>
        <time>2013-05-12T13:17:54Z</time>
      </trkpt>
      <trkpt lat="40.355867" lon="-5.509217">
        <ele>1024.0</ele>
        <time>2013-05-12T13:17:55Z</time>
      </trkpt>
      <trkpt lat="40.355867" lon="-5.509217">
        <ele>1024.0</ele>
        <time>2013-05-12T13:17:56Z</time>
      </trkpt>
      <trkpt lat="40.355883" lon="-5.509217">
        <ele>1024.0</ele>
        <time>2013-05-12T13:17:57Z</time>
      </trkpt>
      <trkpt lat="40.355900" lon="-5.509217">
        <ele>1025.0</ele>
        <time>2013-05-12T13:17:58Z</time>
      </trkpt>
      <trkpt lat="40.355900" lon="-5.509217">
        <ele>1025.0</ele>
        <time>2013-05-12T13:17:59Z</time>
      </trkpt>
      <trkpt lat="40.355917" lon="-5.509217">
        <ele>1024.0</ele>
        <time>2013-05-12T13:18:00Z</time>
      </trkpt>
      <trkpt lat="40.355917" lon="-5.509200">
        <ele>1025.0</ele>
        <time>2013-05-12T13:18:01Z</time>
      </trkpt>
      <trkpt lat="40.355933" lon="-5.509183">
        <ele>1024.0</ele>
        <time>2013-05-12T13:18:02Z</time>
      </trkpt>
      <trkpt lat="40.355933" lon="-5.509183">
        <ele>1024.0</ele>
        <time>2013-05-12T13:18:03Z</time>
      </trkpt>
      <trkpt lat="40.355933" lon="-5.509167">
        <ele>1024.0</ele>
        <time>2013-05-12T13:18:04Z</time>
      </trkpt>
      <trkpt lat="40.355950" lon="-5.509167">
        <ele>1024.0</ele>
        <time>2013-05-12T13:18:05Z</time>
      </trkpt>
      <trkpt lat="40.355950" lon="-5.509167">
        <ele>1024.0</ele>
        <time>2013-05-12T13:18:06Z</time>
      </trkpt>
      <trkpt lat="40.355967" lon="-5.509150">
        <ele>1024.0</ele>
        <time>2013-05-12T13:18:07Z</time>
      </trkpt>
      <trkpt lat="40.355967" lon="-5.509150">
        <ele>1025.0</ele>
        <time>2013-05-12T13:18:08Z</time>
      </trkpt>
      <trkpt lat="40.355983" lon="-5.509133">
        <ele>1025.0</ele>
        <time>2013-05-12T13:18:09Z</time>
      </trkpt>
      <trkpt lat="40.356000" lon="-5.509133">
        <ele>1025.0</ele>
        <time>2013-05-12T13:18:10Z</time>
      </trkpt>
      <trkpt lat="40.356000" lon="-5.509117">
        <ele>1025.0</ele>
        <time>2013-05-12T13:18:11Z</time>
      </trkpt>
      <trkpt lat="40.356017" lon="-5.509117">
        <ele>1025.0</ele>
        <time>2013-05-12T13:18:12Z</time>
      </trkpt>
      <trkpt lat="40.356017" lon="-5.509117">
        <ele>1025.0</ele>
        <time>2013-05-12T13:18:13Z</time>
      </trkpt>
      <trkpt lat="40.356033" lon="-5.509100">
        <ele>1025.0</ele>
        <time>2013-05-12T13:18:14Z</time>
      </trkpt>
      <trkpt lat="40.356033" lon="-5.509100">
        <ele>1025.0</ele>
        <time>2013-05-12T13:18:15Z</time>
      </trkpt>
      <trkpt lat="40.356050" lon="-5.509100">
        <ele>1024.0</ele>
        <time>2013-05-12T13:18:16Z</time>
      </trkpt>
      <trkpt lat="40.356050" lon="-5.509100">
        <ele>1024.0</ele>
        <time>2013-05-12T13:18:17Z</time>
      </trkpt>
      <trkpt lat="40.356067" lon="-5.509100">
        <ele>1024.0</ele>
        <time>2013-05-12T13:18:18Z</time>
      </trkpt>
      <trkpt lat="40.356083" lon="-5.509083">
        <ele>1024.0</ele>
        <time>2013-05-12T13:18:19Z</time>
      </trkpt>
      <trkpt lat="40.356083" lon="-5.509083">
        <ele>1024.0</ele>
        <time>2013-05-12T13:18:20Z</time>
      </trkpt>
      <trkpt lat="40.356100" lon="-5.509067">
        <ele>1025.0</ele>
        <time>2013-05-12T13:18:21Z</time>
      </trkpt>
      <trkpt lat="40.356100" lon="-5.509067">
        <ele>1024.0</ele>
        <time>2013-05-12T13:18:22Z</time>
      </trkpt>
      <trkpt lat="40.356117" lon="-5.509067">
        <ele>1024.0</ele>
        <time>2013-05-12T13:18:23Z</time>
      </trkpt>
      <trkpt lat="40.356117" lon="-5.509050">
        <ele>1024.0</ele>
        <time>2013-05-12T13:18:24Z</time>
      </trkpt>
      <trkpt lat="40.356133" lon="-5.509050">
        <ele>1024.0</ele>
        <time>2013-05-12T13:18:25Z</time>
      </trkpt>
      <trkpt lat="40.356133" lon="-5.509050">
        <ele>1024.0</ele>
        <time>2013-05-12T13:18:26Z</time>
      </trkpt>
      <trkpt lat="40.356150" lon="-5.509050">
        <ele>1024.0</ele>
        <time>2013-05-12T13:18:27Z</time>
      </trkpt>
      <trkpt lat="40.356167" lon="-5.509050">
        <ele>1024.0</ele>
        <time>2013-05-12T13:18:28Z</time>
      </trkpt>
      <trkpt lat="40.356167" lon="-5.509050">
        <ele>1024.0</ele>
        <time>2013-05-12T13:18:29Z</time>
      </trkpt>
      <trkpt lat="40.356183" lon="-5.509050">
        <ele>1024.0</ele>
        <time>2013-05-12T13:18:30Z</time>
      </trkpt>
      <trkpt lat="40.356183" lon="-5.509050">
        <ele>1024.0</ele>
        <time>2013-05-12T13:18:31Z</time>
      </trkpt>
      <trkpt lat="40.356200" lon="-5.509050">
        <ele>1024.0</ele>
        <time>2013-05-12T13:18:32Z</time>
      </trkpt>
      <trkpt lat="40.356200" lon="-5.509050">
        <ele>1024.0</ele>
        <time>2013-05-12T13:18:33Z</time>
      </trkpt>
      <trkpt lat="40.356217" lon="-5.509033">
        <ele>1024.0</ele>
        <time>2013-05-12T13:18:34Z</time>
      </trkpt>
      <trkpt lat="40.356217" lon="-5.509033">
        <ele>1024.0</ele>
        <time>2013-05-12T13:18:35Z</time>
      </trkpt>
      <trkpt lat="40.356217" lon="-5.509033">
        <ele>1024.0</ele>
        <time>2013-05-12T13:18:36Z</time>
      </trkpt>
      <trkpt lat="40.356217" lon="-5.509033">
        <ele>1024.0</ele>
        <time>2013-05-12T13:18:37Z</time>
      </trkpt>
      <trkpt lat="40.356217" lon="-5.509033">
        <ele>1024.0</ele>
        <time>2013-05-12T13:18:38Z</time>
      </trkpt>
      <trkpt lat="40.356217" lon="-5.509033">
        <ele>1024.0</ele>
        <time>2013-05-12T13:18:39Z</time>
      </trkpt>
      <trkpt lat="40.356217" lon="-5.509033">
        <ele>1023.0</ele>
        <time>2013-05-12T13:18:40Z</time>
      </trkpt>
      <trkpt lat="40.356217" lon="-5.509033">
        <ele>1024.0</ele>
        <time>2013-05-12T13:18:41Z</time>
      </trkpt>
      <trkpt lat="40.356217" lon="-5.509033">
        <ele>1024.0</ele>
        <time>2013-05-12T13:18:42Z</time>
      </trkpt>
      <trkpt lat="40.356217" lon="-5.509050">
        <ele>1023.0</ele>
        <time>2013-05-12T13:18:43Z</time>
      </trkpt>
      <trkpt lat="40.356217" lon="-5.509050">
        <ele>1024.0</ele>
        <time>2013-05-12T13:18:44Z</time>
      </trkpt>
      <trkpt lat="40.356233" lon="-5.509067">
        <ele>1023.0</ele>
        <time>2013-05-12T13:18:45Z</time>
      </trkpt>
      <trkpt lat="40.356233" lon="-5.509067">
        <ele>1023.0</ele>
        <time>2013-05-12T13:18:46Z</time>
      </trkpt>
      <trkpt lat="40.356233" lon="-5.509083">
        <ele>1023.0</ele>
        <time>2013-05-12T13:18:47Z</time>
      </trkpt>
      <trkpt lat="40.356233" lon="-5.509083">
        <ele>1023.0</ele>
        <time>2013-05-12T13:18:48Z</time>
      </trkpt>
      <trkpt lat="40.356233" lon="-5.509083">
        <ele>1023.0</ele>
        <time>2013-05-12T13:18:49Z</time>
      </trkpt>
      <trkpt lat="40.356250" lon="-5.509100">
        <ele>1023.0</ele>
        <time>2013-05-12T13:18:50Z</time>
      </trkpt>
      <trkpt lat="40.356233" lon="-5.509100">
        <ele>1023.0</ele>
        <time>2013-05-12T13:18:51Z</time>
      </trkpt>
      <trkpt lat="40.356233" lon="-5.509100">
        <ele>1023.0</ele>
        <time>2013-05-12T13:18:52Z</time>
      </trkpt>
      <trkpt lat="40.356233" lon="-5.509100">
        <ele>1023.0</ele>
        <time>2013-05-12T13:18:53Z</time>
      </trkpt>
      <trkpt lat="40.356233" lon="-5.509083">
        <ele>1023.0</ele>
        <time>2013-05-12T13:18:54Z</time>
      </trkpt>
      <trkpt lat="40.356233" lon="-5.509100">
        <ele>1023.0</ele>
        <time>2013-05-12T13:18:55Z</time>
      </trkpt>
      <trkpt lat="40.356233" lon="-5.509083">
        <ele>1023.0</ele>
        <time>2013-05-12T13:18:56Z</time>
      </trkpt>
      <trkpt lat="40.356250" lon="-5.509083">
        <ele>1023.0</ele>
        <time>2013-05-12T13:18:57Z</time>
      </trkpt>
      <trkpt lat="40.356233" lon="-5.509083">
        <ele>1023.0</ele>
        <time>2013-05-12T13:18:58Z</time>
      </trkpt>
      <trkpt lat="40.356233" lon="-5.509083">
        <ele>1023.0</ele>
        <time>2013-05-12T13:18:59Z</time>
      </trkpt>
      <trkpt lat="40.356250" lon="-5.509083">
        <ele>1023.0</ele>
        <time>2013-05-12T13:19:00Z</time>
      </trkpt>
      <trkpt lat="40.356250" lon="-5.509083">
        <ele>1023.0</ele>
        <time>2013-05-12T13:19:01Z</time>
      </trkpt>
      <trkpt lat="40.356250" lon="-5.509083">
        <ele>1023.0</ele>
        <time>2013-05-12T13:19:02Z</time>
      </trkpt>
      <trkpt lat="40.356250" lon="-5.509083">
        <ele>1023.0</ele>
        <time>2013-05-12T13:19:03Z</time>
      </trkpt>
      <trkpt lat="40.356250" lon="-5.509083">
        <ele>1022.0</ele>
        <time>2013-05-12T13:19:04Z</time>
      </trkpt>
      <trkpt lat="40.356250" lon="-5.509083">
        <ele>1022.0</ele>
        <time>2013-05-12T13:19:05Z</time>
      </trkpt>
      <trkpt lat="40.356250" lon="-5.509083">
        <ele>1022.0</ele>
        <time>2013-05-12T13:19:06Z</time>
      </trkpt>
      <trkpt lat="40.356250" lon="-5.509083">
        <ele>1022.0</ele>
        <time>2013-05-12T13:19:07Z</time>
      </trkpt>
      <trkpt lat="40.356250" lon="-5.509083">
        <ele>1023.0</ele>
        <time>2013-05-12T13:19:08Z</time>
      </trkpt>
      <trkpt lat="40.356250" lon="-5.509083">
        <ele>1022.0</ele>
        <time>2013-05-12T13:19:09Z</time>
      </trkpt>
      <trkpt lat="40.356250" lon="-5.509100">
        <ele>1022.0</ele>
        <time>2013-05-12T13:19:10Z</time>
      </trkpt>
      <trkpt lat="40.356250" lon="-5.509083">
        <ele>1022.0</ele>
        <time>2013-05-12T13:19:11Z</time>
      </trkpt>
      <trkpt lat="40.356250" lon="-5.509083">
        <ele>1022.0</ele>
        <time>2013-05-12T13:19:12Z</time>
      </trkpt>
      <trkpt lat="40.356250" lon="-5.509083">
        <ele>1022.0</ele>
        <time>2013-05-12T13:19:13Z</time>
      </trkpt>
      <trkpt lat="40.356250" lon="-5.509083">
        <ele>1022.0</ele>
        <time>2013-05-12T13:19:14Z</time>
      </trkpt>
      <trkpt lat="40.356250" lon="-5.509100">
        <ele>1022.0</ele>
        <time>2013-05-12T13:19:15Z</time>
      </trkpt>
      <trkpt lat="40.356233" lon="-5.509083">
        <ele>1022.0</ele>
        <time>2013-05-12T13:19:16Z</time>
      </trkpt>
      <trkpt lat="40.356233" lon="-5.509100">
        <ele>1022.0</ele>
        <time>2013-05-12T13:19:17Z</time>
      </trkpt>
    </trkseg>
  </trk>
</gpx>
